<?xml version="1.0" encoding="UTF-8"?>
<gpx version="1.1" creator="https://www.youtrack.es" xsi:schemaLocation="http://www.topografix.com/GPX/1/1 http://www.topografix.com/GPX/1/1/gpx.xsd http://www.garmin.com/xmlschemas/GpxExtensions/v3 http://www.garmin.com/xmlschemas/GpxExtensionsv3.xsd http://www.garmin.com/xmlschemas/TrackPointExtension/v1 http://www.garmin.com/xmlschemas/TrackPointExtensionv1.xsd" xmlns:gpxtpx="http://www.garmin.com/xmlschemas/TrackPointExtension/v1" xmlns:gpxx="http://www.garmin.com/xmlschemas/GpxExtensions/v3" xmlns:xsi="http://www.w3.org/2001/XMLSchema-instance">
  <metadata>
    <link href="https://www.youtrack.es">
      <text>YouTrack.es</text>
    </link>
    <time>2026-05-09T03:03:26Z</time>
  </metadata>
  <trk>
    <src>https://www.youtrack.es</src>
    <link href="https://www.youtrack.es/ruta/5418-caminha-santiago">
      <text>YouTrack.es</text>
    </link>
    <trkseg>
      <trkpt lat="41.888471200000005" lon="-8.850204709999955">
        <time>2019-04-24T07:57:17.000Z</time>
      </trkpt>
      <trkpt lat="41.8884683" lon="-8.85025827">
        <time>2019-04-24T07:57:17.080Z</time>
      </trkpt>
      <trkpt lat="41.8884698" lon="-8.85024326">
        <time>2019-04-24T07:57:17.103Z</time>
      </trkpt>
      <trkpt lat="41.888496" lon="-8.85024226">
        <time>2019-04-24T07:57:17.156Z</time>
      </trkpt>
      <trkpt lat="41.8885258" lon="-8.85025366">
        <time>2019-04-24T07:57:17.218Z</time>
      </trkpt>
      <trkpt lat="41.8885698" lon="-8.85024745">
        <time>2019-04-24T07:57:17.307Z</time>
      </trkpt>
      <trkpt lat="41.8886122" lon="-8.85034376">
        <time>2019-04-24T07:57:17.474Z</time>
      </trkpt>
      <trkpt lat="41.8886262" lon="-8.85037293">
        <time>2019-04-24T07:57:17.526Z</time>
      </trkpt>
      <trkpt lat="41.8886544" lon="-8.85049724">
        <time>2019-04-24T07:57:17.720Z</time>
      </trkpt>
      <trkpt lat="41.888664" lon="-8.85054241">
        <time>2019-04-24T07:57:17.790Z</time>
      </trkpt>
      <trkpt lat="41.8886717" lon="-8.85058843">
        <time>2019-04-24T07:57:17.860Z</time>
      </trkpt>
      <trkpt lat="41.8886703" lon="-8.85062607">
        <time>2019-04-24T07:57:17.916Z</time>
      </trkpt>
      <trkpt lat="41.8886433" lon="-8.85067309">
        <time>2019-04-24T07:57:18.005Z</time>
      </trkpt>
      <trkpt lat="41.8884863" lon="-8.85068306">
        <time>2019-04-24T07:57:18.320Z</time>
      </trkpt>
      <trkpt lat="41.8883231" lon="-8.85070829">
        <time>2019-04-24T07:57:18.649Z</time>
      </trkpt>
      <trkpt lat="41.8878024" lon="-8.85085414">
        <time>2019-04-24T07:57:19.715Z</time>
      </trkpt>
      <trkpt lat="41.8872506" lon="-8.85104156">
        <time>2019-04-24T07:57:20.856Z</time>
      </trkpt>
      <trkpt lat="41.886598" lon="-8.85183624">
        <time>2019-04-24T07:57:22.621Z</time>
      </trkpt>
      <trkpt lat="41.8862247" lon="-8.85279513">
        <time>2019-04-24T07:57:24.235Z</time>
      </trkpt>
      <trkpt lat="41.8861673" lon="-8.85292413">
        <time>2019-04-24T07:57:24.459Z</time>
      </trkpt>
      <trkpt lat="41.8857358" lon="-8.85350022">
        <time>2019-04-24T07:57:25.678Z</time>
      </trkpt>
      <trkpt lat="41.885691" lon="-8.8535511">
        <time>2019-04-24T07:57:25.796Z</time>
      </trkpt>
      <trkpt lat="41.8856557" lon="-8.85360541">
        <time>2019-04-24T07:57:25.904Z</time>
      </trkpt>
      <trkpt lat="41.8856261" lon="-8.85366358">
        <time>2019-04-24T07:57:26.009Z</time>
      </trkpt>
      <trkpt lat="41.8856001" lon="-8.85372553">
        <time>2019-04-24T07:57:26.115Z</time>
      </trkpt>
      <trkpt lat="41.8853706" lon="-8.85464997">
        <time>2019-04-24T07:57:27.569Z</time>
      </trkpt>
      <trkpt lat="41.8850997" lon="-8.85553551">
        <time>2019-04-24T07:57:28.997Z</time>
      </trkpt>
      <trkpt lat="41.8850753" lon="-8.85559679">
        <time>2019-04-24T07:57:29.101Z</time>
      </trkpt>
      <trkpt lat="41.8850536" lon="-8.85565487">
        <time>2019-04-24T07:57:29.198Z</time>
      </trkpt>
      <trkpt lat="41.8850381" lon="-8.85571866">
        <time>2019-04-24T07:57:29.298Z</time>
      </trkpt>
      <trkpt lat="41.8850364" lon="-8.85578613">
        <time>2019-04-24T07:57:29.399Z</time>
      </trkpt>
      <trkpt lat="41.8850495" lon="-8.85585444">
        <time>2019-04-24T07:57:29.504Z</time>
      </trkpt>
      <trkpt lat="41.8850662" lon="-8.85592242">
        <time>2019-04-24T07:57:29.611Z</time>
      </trkpt>
      <trkpt lat="41.8850725" lon="-8.85599141">
        <time>2019-04-24T07:57:29.715Z</time>
      </trkpt>
      <trkpt lat="41.8850667" lon="-8.8560624">
        <time>2019-04-24T07:57:29.822Z</time>
      </trkpt>
      <trkpt lat="41.8849047" lon="-8.85652902">
        <time>2019-04-24T07:57:30.590Z</time>
      </trkpt>
      <trkpt lat="41.8847345" lon="-8.85694225">
        <time>2019-04-24T07:57:31.295Z</time>
      </trkpt>
      <trkpt lat="41.8847108" lon="-8.85699757">
        <time>2019-04-24T07:57:31.390Z</time>
      </trkpt>
      <trkpt lat="41.8846886" lon="-8.85705306">
        <time>2019-04-24T07:57:31.484Z</time>
      </trkpt>
      <trkpt lat="41.8846687" lon="-8.85710268">
        <time>2019-04-24T07:57:31.568Z</time>
      </trkpt>
      <trkpt lat="41.8846476" lon="-8.85714434">
        <time>2019-04-24T07:57:31.643Z</time>
      </trkpt>
      <trkpt lat="41.8844361" lon="-8.85718692">
        <time>2019-04-24T07:57:32.072Z</time>
      </trkpt>
      <trkpt lat="41.8839843" lon="-8.85733033">
        <time>2019-04-24T07:57:33.002Z</time>
      </trkpt>
      <trkpt lat="41.8839399" lon="-8.85734944">
        <time>2019-04-24T07:57:33.095Z</time>
      </trkpt>
      <trkpt lat="41.8838969" lon="-8.85737266">
        <time>2019-04-24T07:57:33.188Z</time>
      </trkpt>
      <trkpt lat="41.8838533" lon="-8.85740451">
        <time>2019-04-24T07:57:33.287Z</time>
      </trkpt>
      <trkpt lat="41.8838134" lon="-8.85744164">
        <time>2019-04-24T07:57:33.384Z</time>
      </trkpt>
      <trkpt lat="41.8837754" lon="-8.85748095">
        <time>2019-04-24T07:57:33.480Z</time>
      </trkpt>
      <trkpt lat="41.8837386" lon="-8.85752538">
        <time>2019-04-24T07:57:33.579Z</time>
      </trkpt>
      <trkpt lat="41.8832784" lon="-8.85821579">
        <time>2019-04-24T07:57:34.962Z</time>
      </trkpt>
      <trkpt lat="41.8825465" lon="-8.85892348">
        <time>2019-04-24T07:57:36.769Z</time>
      </trkpt>
      <trkpt lat="41.881777" lon="-8.85934081">
        <time>2019-04-24T07:57:38.432Z</time>
      </trkpt>
      <trkpt lat="41.8809118" lon="-8.85977935">
        <time>2019-04-24T07:57:40.285Z</time>
      </trkpt>
      <trkpt lat="41.8799823" lon="-8.86033223">
        <time>2019-04-24T07:57:42.322Z</time>
      </trkpt>
      <trkpt lat="41.8793508" lon="-8.86089306">
        <time>2019-04-24T07:57:43.839Z</time>
      </trkpt>
      <trkpt lat="41.8789419" lon="-8.86123429">
        <time>2019-04-24T07:57:44.804Z</time>
      </trkpt>
      <trkpt lat="41.8785403" lon="-8.86161843">
        <time>2019-04-24T07:57:45.792Z</time>
      </trkpt>
      <trkpt lat="41.87798" lon="-8.86201079">
        <time>2019-04-24T07:57:47.058Z</time>
      </trkpt>
      <trkpt lat="41.8778071" lon="-8.86210366">
        <time>2019-04-24T07:57:47.431Z</time>
      </trkpt>
      <trkpt lat="41.8777247" lon="-8.86216191">
        <time>2019-04-24T07:57:47.618Z</time>
      </trkpt>
      <trkpt lat="41.877644" lon="-8.8622319">
        <time>2019-04-24T07:57:47.810Z</time>
      </trkpt>
      <trkpt lat="41.877602" lon="-8.86226769">
        <time>2019-04-24T07:57:47.910Z</time>
      </trkpt>
      <trkpt lat="41.8775629" lon="-8.86230323">
        <time>2019-04-24T07:57:48.005Z</time>
      </trkpt>
      <trkpt lat="41.8775262" lon="-8.86234606">
        <time>2019-04-24T07:57:48.102Z</time>
      </trkpt>
      <trkpt lat="41.8774787" lon="-8.86245494">
        <time>2019-04-24T07:57:48.290Z</time>
      </trkpt>
      <trkpt lat="41.8774498" lon="-8.86259065">
        <time>2019-04-24T07:57:48.501Z</time>
      </trkpt>
      <trkpt lat="41.8773016" lon="-8.86300697">
        <time>2019-04-24T07:57:49.190Z</time>
      </trkpt>
      <trkpt lat="41.8772777" lon="-8.86306179">
        <time>2019-04-24T07:57:49.285Z</time>
      </trkpt>
      <trkpt lat="41.8768653" lon="-8.86356923">
        <time>2019-04-24T07:57:50.406Z</time>
      </trkpt>
      <trkpt lat="41.8768285" lon="-8.86361567">
        <time>2019-04-24T07:57:50.507Z</time>
      </trkpt>
      <trkpt lat="41.8767092" lon="-8.86373888">
        <time>2019-04-24T07:57:50.809Z</time>
      </trkpt>
      <trkpt lat="41.8764912" lon="-8.86404365">
        <time>2019-04-24T07:57:51.440Z</time>
      </trkpt>
      <trkpt lat="41.8761707" lon="-8.86424507">
        <time>2019-04-24T07:57:52.149Z</time>
      </trkpt>
      <trkpt lat="41.8761492" lon="-8.86425814">
        <time>2019-04-24T07:57:52.196Z</time>
      </trkpt>
      <trkpt lat="41.87613" lon="-8.86427013">
        <time>2019-04-24T07:57:52.238Z</time>
      </trkpt>
      <trkpt lat="41.8761152" lon="-8.86427717">
        <time>2019-04-24T07:57:52.269Z</time>
      </trkpt>
      <trkpt lat="41.8760994" lon="-8.86428312">
        <time>2019-04-24T07:57:52.302Z</time>
      </trkpt>
      <trkpt lat="41.8760446" lon="-8.86428262">
        <time>2019-04-24T07:57:52.412Z</time>
      </trkpt>
      <trkpt lat="41.8760221" lon="-8.86428295">
        <time>2019-04-24T07:57:52.457Z</time>
      </trkpt>
      <trkpt lat="41.8759972" lon="-8.86428077">
        <time>2019-04-24T07:57:52.507Z</time>
      </trkpt>
      <trkpt lat="41.8759739" lon="-8.86427692">
        <time>2019-04-24T07:57:52.554Z</time>
      </trkpt>
      <trkpt lat="41.8759561" lon="-8.86427574">
        <time>2019-04-24T07:57:52.590Z</time>
      </trkpt>
      <trkpt lat="41.8758227" lon="-8.86439728">
        <time>2019-04-24T07:57:52.913Z</time>
      </trkpt>
      <trkpt lat="41.8756082" lon="-8.86454782">
        <time>2019-04-24T07:57:53.398Z</time>
      </trkpt>
      <trkpt lat="41.8753532" lon="-8.86472694">
        <time>2019-04-24T07:57:53.975Z</time>
      </trkpt>
      <trkpt lat="41.8753121" lon="-8.86474865">
        <time>2019-04-24T07:57:54.064Z</time>
      </trkpt>
      <trkpt lat="41.8751277" lon="-8.86484613">
        <time>2019-04-24T07:57:54.461Z</time>
      </trkpt>
      <trkpt lat="41.8750875" lon="-8.86486415">
        <time>2019-04-24T07:57:54.546Z</time>
      </trkpt>
      <trkpt lat="41.8747696" lon="-8.86510974">
        <time>2019-04-24T07:57:55.281Z</time>
      </trkpt>
      <trkpt lat="41.874467" lon="-8.86532683">
        <time>2019-04-24T07:57:55.968Z</time>
      </trkpt>
      <trkpt lat="41.8742674" lon="-8.86558273">
        <time>2019-04-24T07:57:56.521Z</time>
      </trkpt>
      <trkpt lat="41.8739893" lon="-8.865873">
        <time>2019-04-24T07:57:57.227Z</time>
      </trkpt>
      <trkpt lat="41.8739616" lon="-8.86588834">
        <time>2019-04-24T07:57:57.287Z</time>
      </trkpt>
      <trkpt lat="41.8739376" lon="-8.86590351">
        <time>2019-04-24T07:57:57.340Z</time>
      </trkpt>
      <trkpt lat="41.8739151" lon="-8.865917">
        <time>2019-04-24T07:57:57.389Z</time>
      </trkpt>
      <trkpt lat="41.8738894" lon="-8.86593016">
        <time>2019-04-24T07:57:57.444Z</time>
      </trkpt>
      <trkpt lat="41.8738449" lon="-8.86591206">
        <time>2019-04-24T07:57:57.537Z</time>
      </trkpt>
      <trkpt lat="41.8738109" lon="-8.86586152">
        <time>2019-04-24T07:57:57.639Z</time>
      </trkpt>
      <trkpt lat="41.8737921" lon="-8.86585322">
        <time>2019-04-24T07:57:57.679Z</time>
      </trkpt>
      <trkpt lat="41.8734447" lon="-8.86617248">
        <time>2019-04-24T07:57:58.523Z</time>
      </trkpt>
      <trkpt lat="41.8732568" lon="-8.86653425">
        <time>2019-04-24T07:57:59.181Z</time>
      </trkpt>
      <trkpt lat="41.873198" lon="-8.86668504">
        <time>2019-04-24T07:57:59.435Z</time>
      </trkpt>
      <trkpt lat="41.8731781" lon="-8.86672217">
        <time>2019-04-24T07:57:59.503Z</time>
      </trkpt>
      <trkpt lat="41.8730566" lon="-8.86715753">
        <time>2019-04-24T07:58:00.197Z</time>
      </trkpt>
      <trkpt lat="41.8729846" lon="-8.86751619">
        <time>2019-04-24T07:58:00.751Z</time>
      </trkpt>
      <trkpt lat="41.872988" lon="-8.86754762">
        <time>2019-04-24T07:58:00.798Z</time>
      </trkpt>
      <trkpt lat="41.8729983" lon="-8.86793947">
        <time>2019-04-24T07:58:01.383Z</time>
      </trkpt>
      <trkpt lat="41.872997" lon="-8.86796269">
        <time>2019-04-24T07:58:01.418Z</time>
      </trkpt>
      <trkpt lat="41.8729942" lon="-8.86798851">
        <time>2019-04-24T07:58:01.457Z</time>
      </trkpt>
      <trkpt lat="41.8729928" lon="-8.8680165">
        <time>2019-04-24T07:58:01.499Z</time>
      </trkpt>
      <trkpt lat="41.872989" lon="-8.8680398">
        <time>2019-04-24T07:58:01.535Z</time>
      </trkpt>
      <trkpt lat="41.8729858" lon="-8.86806302">
        <time>2019-04-24T07:58:01.570Z</time>
      </trkpt>
      <trkpt lat="41.8729811" lon="-8.8680818">
        <time>2019-04-24T07:58:01.600Z</time>
      </trkpt>
      <trkpt lat="41.8729715" lon="-8.86808498">
        <time>2019-04-24T07:58:01.620Z</time>
      </trkpt>
      <trkpt lat="41.8729673" lon="-8.86831632">
        <time>2019-04-24T07:58:01.965Z</time>
      </trkpt>
      <trkpt lat="41.8729982" lon="-8.86839595">
        <time>2019-04-24T07:58:02.099Z</time>
      </trkpt>
      <trkpt lat="41.873011" lon="-8.86842093">
        <time>2019-04-24T07:58:02.144Z</time>
      </trkpt>
      <trkpt lat="41.873021" lon="-8.86844373">
        <time>2019-04-24T07:58:02.183Z</time>
      </trkpt>
      <trkpt lat="41.8730313" lon="-8.86846862">
        <time>2019-04-24T07:58:02.225Z</time>
      </trkpt>
      <trkpt lat="41.8730455" lon="-8.86849209">
        <time>2019-04-24T07:58:02.270Z</time>
      </trkpt>
      <trkpt lat="41.8730615" lon="-8.86851414">
        <time>2019-04-24T07:58:02.316Z</time>
      </trkpt>
      <trkpt lat="41.8730829" lon="-8.86853316">
        <time>2019-04-24T07:58:02.367Z</time>
      </trkpt>
      <trkpt lat="41.8733336" lon="-8.86862469">
        <time>2019-04-24T07:58:02.888Z</time>
      </trkpt>
      <trkpt lat="41.87366" lon="-8.868707">
        <time>2019-04-24T07:58:03.554Z</time>
      </trkpt>
      <trkpt lat="41.8736717" lon="-8.8687148">
        <time>2019-04-24T07:58:03.580Z</time>
      </trkpt>
      <trkpt lat="41.8736952" lon="-8.86874631">
        <time>2019-04-24T07:58:03.647Z</time>
      </trkpt>
      <trkpt lat="41.8736936" lon="-8.8687609">
        <time>2019-04-24T07:58:03.669Z</time>
      </trkpt>
      <trkpt lat="41.8736819" lon="-8.86876652">
        <time>2019-04-24T07:58:03.694Z</time>
      </trkpt>
      <trkpt lat="41.8736708" lon="-8.86877196">
        <time>2019-04-24T07:58:03.718Z</time>
      </trkpt>
      <trkpt lat="41.873596" lon="-8.86909643">
        <time>2019-04-24T07:58:04.225Z</time>
      </trkpt>
      <trkpt lat="41.8734543" lon="-8.8696736">
        <time>2019-04-24T07:58:05.132Z</time>
      </trkpt>
      <trkpt lat="41.8734452" lon="-8.86971795">
        <time>2019-04-24T07:58:05.201Z</time>
      </trkpt>
      <trkpt lat="41.8733385" lon="-8.86979472">
        <time>2019-04-24T07:58:05.444Z</time>
      </trkpt>
      <trkpt lat="41.8731278" lon="-8.87007527">
        <time>2019-04-24T07:58:06.039Z</time>
      </trkpt>
      <trkpt lat="41.8730364" lon="-8.87040275">
        <time>2019-04-24T07:58:06.561Z</time>
      </trkpt>
      <trkpt lat="41.8729329" lon="-8.87072377">
        <time>2019-04-24T07:58:07.083Z</time>
      </trkpt>
      <trkpt lat="41.8728546" lon="-8.87088311">
        <time>2019-04-24T07:58:07.368Z</time>
      </trkpt>
      <trkpt lat="41.8725781" lon="-8.87125988">
        <time>2019-04-24T07:58:08.157Z</time>
      </trkpt>
      <trkpt lat="41.8724035" lon="-8.87154411">
        <time>2019-04-24T07:58:08.707Z</time>
      </trkpt>
      <trkpt lat="41.872397" lon="-8.87156062">
        <time>2019-04-24T07:58:08.735Z</time>
      </trkpt>
      <trkpt lat="41.8723898" lon="-8.87158007">
        <time>2019-04-24T07:58:08.767Z</time>
      </trkpt>
      <trkpt lat="41.8723831" lon="-8.87159842">
        <time>2019-04-24T07:58:08.797Z</time>
      </trkpt>
      <trkpt lat="41.8723794" lon="-8.87161695">
        <time>2019-04-24T07:58:08.826Z</time>
      </trkpt>
      <trkpt lat="41.8723743" lon="-8.8716322">
        <time>2019-04-24T07:58:08.851Z</time>
      </trkpt>
      <trkpt lat="41.87224" lon="-8.87173329">
        <time>2019-04-24T07:58:09.160Z</time>
      </trkpt>
      <trkpt lat="41.8719444" lon="-8.87204979">
        <time>2019-04-24T07:58:09.918Z</time>
      </trkpt>
      <trkpt lat="41.8716915" lon="-8.87241432">
        <time>2019-04-24T07:58:10.661Z</time>
      </trkpt>
      <trkpt lat="41.8718765" lon="-8.87293048">
        <time>2019-04-24T07:58:11.516Z</time>
      </trkpt>
      <trkpt lat="41.8719029" lon="-8.87297406">
        <time>2019-04-24T07:58:11.600Z</time>
      </trkpt>
      <trkpt lat="41.8719846" lon="-8.87303265">
        <time>2019-04-24T07:58:11.786Z</time>
      </trkpt>
      <trkpt lat="41.8720703" lon="-8.87306693">
        <time>2019-04-24T07:58:11.965Z</time>
      </trkpt>
      <trkpt lat="41.8723379" lon="-8.87332317">
        <time>2019-04-24T07:58:12.624Z</time>
      </trkpt>
      <trkpt lat="41.872552" lon="-8.87375886">
        <time>2019-04-24T07:58:13.403Z</time>
      </trkpt>
      <trkpt lat="41.8725628" lon="-8.87378895">
        <time>2019-04-24T07:58:13.453Z</time>
      </trkpt>
      <trkpt lat="41.8725689" lon="-8.8738089">
        <time>2019-04-24T07:58:13.485Z</time>
      </trkpt>
      <trkpt lat="41.8725755" lon="-8.87384846">
        <time>2019-04-24T07:58:13.545Z</time>
      </trkpt>
      <trkpt lat="41.8725627" lon="-8.87388191">
        <time>2019-04-24T07:58:13.601Z</time>
      </trkpt>
      <trkpt lat="41.8724543" lon="-8.87381401">
        <time>2019-04-24T07:58:13.841Z</time>
      </trkpt>
      <trkpt lat="41.8724255" lon="-8.87380639">
        <time>2019-04-24T07:58:13.900Z</time>
      </trkpt>
      <trkpt lat="41.8724204" lon="-8.87380328">
        <time>2019-04-24T07:58:13.911Z</time>
      </trkpt>
      <trkpt lat="41.8724252" lon="-8.87380186">
        <time>2019-04-24T07:58:13.921Z</time>
      </trkpt>
      <trkpt lat="41.8724" lon="-8.87380412">
        <time>2019-04-24T07:58:13.972Z</time>
      </trkpt>
      <trkpt lat="41.8724034" lon="-8.87380463">
        <time>2019-04-24T07:58:13.979Z</time>
      </trkpt>
      <trkpt lat="41.8724095" lon="-8.87374042">
        <time>2019-04-24T07:58:14.076Z</time>
      </trkpt>
      <trkpt lat="41.8723968" lon="-8.87373254">
        <time>2019-04-24T07:58:14.104Z</time>
      </trkpt>
      <trkpt lat="41.8723488" lon="-8.87374109">
        <time>2019-04-24T07:58:14.201Z</time>
      </trkpt>
      <trkpt lat="41.8723967" lon="-8.87374076">
        <time>2019-04-24T07:58:14.297Z</time>
      </trkpt>
      <trkpt lat="41.8723989" lon="-8.87374025">
        <time>2019-04-24T07:58:14.301Z</time>
      </trkpt>
      <trkpt lat="41.8724405" lon="-8.87383656">
        <time>2019-04-24T07:58:14.467Z</time>
      </trkpt>
      <trkpt lat="41.8724429" lon="-8.87386238">
        <time>2019-04-24T07:58:14.506Z</time>
      </trkpt>
      <trkpt lat="41.8724426" lon="-8.87391443">
        <time>2019-04-24T07:58:14.584Z</time>
      </trkpt>
      <trkpt lat="41.8725459" lon="-8.87389029">
        <time>2019-04-24T07:58:14.794Z</time>
      </trkpt>
      <trkpt lat="41.8725662" lon="-8.87389037">
        <time>2019-04-24T07:58:14.835Z</time>
      </trkpt>
      <trkpt lat="41.8726682" lon="-8.8741332">
        <time>2019-04-24T07:58:15.251Z</time>
      </trkpt>
      <trkpt lat="41.8728503" lon="-8.87435121">
        <time>2019-04-24T07:58:15.740Z</time>
      </trkpt>
      <trkpt lat="41.8728612" lon="-8.87437736">
        <time>2019-04-24T07:58:15.785Z</time>
      </trkpt>
      <trkpt lat="41.8728725" lon="-8.87441148">
        <time>2019-04-24T07:58:15.841Z</time>
      </trkpt>
      <trkpt lat="41.8730114" lon="-8.87457777">
        <time>2019-04-24T07:58:16.214Z</time>
      </trkpt>
      <trkpt lat="41.873023" lon="-8.87458758">
        <time>2019-04-24T07:58:16.241Z</time>
      </trkpt>
      <trkpt lat="41.8731192" lon="-8.87467668">
        <time>2019-04-24T07:58:16.475Z</time>
      </trkpt>
      <trkpt lat="41.8731121" lon="-8.87468313">
        <time>2019-04-24T07:58:16.492Z</time>
      </trkpt>
      <trkpt lat="41.8731191" lon="-8.87469931">
        <time>2019-04-24T07:58:16.520Z</time>
      </trkpt>
      <trkpt lat="41.8735605" lon="-8.87504347">
        <time>2019-04-24T07:58:17.543Z</time>
      </trkpt>
      <trkpt lat="41.8740199" lon="-8.8752562">
        <time>2019-04-24T07:58:18.517Z</time>
      </trkpt>
      <trkpt lat="41.8745615" lon="-8.87573556">
        <time>2019-04-24T07:58:19.817Z</time>
      </trkpt>
      <trkpt lat="41.8748646" lon="-8.87613161">
        <time>2019-04-24T07:58:20.664Z</time>
      </trkpt>
      <trkpt lat="41.8748864" lon="-8.87615717">
        <time>2019-04-24T07:58:20.722Z</time>
      </trkpt>
      <trkpt lat="41.8753805" lon="-8.87648046">
        <time>2019-04-24T07:58:21.823Z</time>
      </trkpt>
      <trkpt lat="41.8754227" lon="-8.87650033">
        <time>2019-04-24T07:58:21.913Z</time>
      </trkpt>
      <trkpt lat="41.8757572" lon="-8.87656345">
        <time>2019-04-24T07:58:22.590Z</time>
      </trkpt>
      <trkpt lat="41.8758133" lon="-8.87657627">
        <time>2019-04-24T07:58:22.704Z</time>
      </trkpt>
      <trkpt lat="41.875868" lon="-8.87659764">
        <time>2019-04-24T07:58:22.818Z</time>
      </trkpt>
      <trkpt lat="41.8761132" lon="-8.87678858">
        <time>2019-04-24T07:58:23.386Z</time>
      </trkpt>
      <trkpt lat="41.8761573" lon="-8.87683443">
        <time>2019-04-24T07:58:23.498Z</time>
      </trkpt>
      <trkpt lat="41.8763213" lon="-8.87712344">
        <time>2019-04-24T07:58:24.040Z</time>
      </trkpt>
      <trkpt lat="41.8763495" lon="-8.87719863">
        <time>2019-04-24T07:58:24.166Z</time>
      </trkpt>
      <trkpt lat="41.8763882" lon="-8.87738588">
        <time>2019-04-24T07:58:24.456Z</time>
      </trkpt>
      <trkpt lat="41.8764018" lon="-8.87744271">
        <time>2019-04-24T07:58:24.545Z</time>
      </trkpt>
      <trkpt lat="41.8764175" lon="-8.87749828">
        <time>2019-04-24T07:58:24.634Z</time>
      </trkpt>
      <trkpt lat="41.876439" lon="-8.87755301">
        <time>2019-04-24T07:58:24.726Z</time>
      </trkpt>
      <trkpt lat="41.8764706" lon="-8.87759886">
        <time>2019-04-24T07:58:24.819Z</time>
      </trkpt>
      <trkpt lat="41.8765946" lon="-8.87769182">
        <time>2019-04-24T07:58:25.104Z</time>
      </trkpt>
      <trkpt lat="41.8766413" lon="-8.87771788">
        <time>2019-04-24T07:58:25.205Z</time>
      </trkpt>
      <trkpt lat="41.8766914" lon="-8.87773767">
        <time>2019-04-24T07:58:25.310Z</time>
      </trkpt>
      <trkpt lat="41.8767437" lon="-8.87774244">
        <time>2019-04-24T07:58:25.415Z</time>
      </trkpt>
      <trkpt lat="41.8767964" lon="-8.87772803">
        <time>2019-04-24T07:58:25.523Z</time>
      </trkpt>
      <trkpt lat="41.8768468" lon="-8.87769911">
        <time>2019-04-24T07:58:25.633Z</time>
      </trkpt>
      <trkpt lat="41.8768973" lon="-8.87767019">
        <time>2019-04-24T07:58:25.743Z</time>
      </trkpt>
      <trkpt lat="41.876948" lon="-8.87765284">
        <time>2019-04-24T07:58:25.848Z</time>
      </trkpt>
      <trkpt lat="41.8769963" lon="-8.87764538">
        <time>2019-04-24T07:58:25.945Z</time>
      </trkpt>
      <trkpt lat="41.8770418" lon="-8.87764547">
        <time>2019-04-24T07:58:26.036Z</time>
      </trkpt>
      <trkpt lat="41.8770859" lon="-8.87765259">
        <time>2019-04-24T07:58:26.125Z</time>
      </trkpt>
      <trkpt lat="41.8771287" lon="-8.87766273">
        <time>2019-04-24T07:58:26.212Z</time>
      </trkpt>
      <trkpt lat="41.8771721" lon="-8.87767673">
        <time>2019-04-24T07:58:26.301Z</time>
      </trkpt>
      <trkpt lat="41.8772178" lon="-8.87769777">
        <time>2019-04-24T07:58:26.398Z</time>
      </trkpt>
      <trkpt lat="41.877265" lon="-8.87773063">
        <time>2019-04-24T07:58:26.505Z</time>
      </trkpt>
      <trkpt lat="41.8773099" lon="-8.8777753">
        <time>2019-04-24T07:58:26.617Z</time>
      </trkpt>
      <trkpt lat="41.8776622" lon="-8.87833471">
        <time>2019-04-24T07:58:27.710Z</time>
      </trkpt>
      <trkpt lat="41.8781499" lon="-8.87914759">
        <time>2019-04-24T07:58:29.268Z</time>
      </trkpt>
      <trkpt lat="41.878186" lon="-8.87918941">
        <time>2019-04-24T07:58:29.364Z</time>
      </trkpt>
      <trkpt lat="41.8786044" lon="-8.87951664">
        <time>2019-04-24T07:58:30.334Z</time>
      </trkpt>
      <trkpt lat="41.8786472" lon="-8.87955168">
        <time>2019-04-24T07:58:30.434Z</time>
      </trkpt>
      <trkpt lat="41.8792524" lon="-8.8797997">
        <time>2019-04-24T07:58:31.702Z</time>
      </trkpt>
      <trkpt lat="41.8799973" lon="-8.87997027">
        <time>2019-04-24T07:58:33.216Z</time>
      </trkpt>
      <trkpt lat="41.8800405" lon="-8.87998687">
        <time>2019-04-24T07:58:33.306Z</time>
      </trkpt>
      <trkpt lat="41.8800799" lon="-8.8800069">
        <time>2019-04-24T07:58:33.390Z</time>
      </trkpt>
      <trkpt lat="41.8802356" lon="-8.88011695">
        <time>2019-04-24T07:58:33.743Z</time>
      </trkpt>
      <trkpt lat="41.8805801" lon="-8.88053664">
        <time>2019-04-24T07:58:34.675Z</time>
      </trkpt>
      <trkpt lat="41.880614" lon="-8.88057662">
        <time>2019-04-24T07:58:34.765Z</time>
      </trkpt>
      <trkpt lat="41.8810511" lon="-8.88101197">
        <time>2019-04-24T07:58:35.855Z</time>
      </trkpt>
      <trkpt lat="41.8811342" lon="-8.88105606">
        <time>2019-04-24T07:58:36.034Z</time>
      </trkpt>
      <trkpt lat="41.8817513" lon="-8.88130358">
        <time>2019-04-24T07:58:37.325Z</time>
      </trkpt>
      <trkpt lat="41.8817947" lon="-8.88132822">
        <time>2019-04-24T07:58:37.419Z</time>
      </trkpt>
      <trkpt lat="41.8818337" lon="-8.88134784">
        <time>2019-04-24T07:58:37.502Z</time>
      </trkpt>
      <trkpt lat="41.881873" lon="-8.88136116">
        <time>2019-04-24T07:58:37.583Z</time>
      </trkpt>
      <trkpt lat="41.8819132" lon="-8.8813672">
        <time>2019-04-24T07:58:37.664Z</time>
      </trkpt>
      <trkpt lat="41.8819542" lon="-8.88136778">
        <time>2019-04-24T07:58:37.746Z</time>
      </trkpt>
      <trkpt lat="41.8822771" lon="-8.88129721">
        <time>2019-04-24T07:58:38.402Z</time>
      </trkpt>
      <trkpt lat="41.8822947" lon="-8.8812952">
        <time>2019-04-24T07:58:38.437Z</time>
      </trkpt>
      <trkpt lat="41.8823077" lon="-8.88128933">
        <time>2019-04-24T07:58:38.464Z</time>
      </trkpt>
      <trkpt lat="41.8823153" lon="-8.88126787">
        <time>2019-04-24T07:58:38.499Z</time>
      </trkpt>
      <trkpt lat="41.8823252" lon="-8.88127416">
        <time>2019-04-24T07:58:38.521Z</time>
      </trkpt>
      <trkpt lat="41.8823247" lon="-8.88126946">
        <time>2019-04-24T07:58:38.528Z</time>
      </trkpt>
      <trkpt lat="41.8829292" lon="-8.88143258">
        <time>2019-04-24T07:58:39.764Z</time>
      </trkpt>
      <trkpt lat="41.8829692" lon="-8.88143844">
        <time>2019-04-24T07:58:39.845Z</time>
      </trkpt>
      <trkpt lat="41.8830521" lon="-8.88143769">
        <time>2019-04-24T07:58:40.011Z</time>
      </trkpt>
      <trkpt lat="41.8836497" lon="-8.88133216">
        <time>2019-04-24T07:58:41.219Z</time>
      </trkpt>
      <trkpt lat="41.8845038" lon="-8.8811926">
        <time>2019-04-24T07:58:42.943Z</time>
      </trkpt>
      <trkpt lat="41.8853696" lon="-8.88122512">
        <time>2019-04-24T07:58:44.679Z</time>
      </trkpt>
      <trkpt lat="41.8854753" lon="-8.88124021">
        <time>2019-04-24T07:58:44.892Z</time>
      </trkpt>
      <trkpt lat="41.8855792" lon="-8.88123359">
        <time>2019-04-24T07:58:45.100Z</time>
      </trkpt>
      <trkpt lat="41.8862506" lon="-8.88107266">
        <time>2019-04-24T07:58:46.467Z</time>
      </trkpt>
      <trkpt lat="41.8870899" lon="-8.88089773">
        <time>2019-04-24T07:58:48.169Z</time>
      </trkpt>
      <trkpt lat="41.8871567" lon="-8.88088549">
        <time>2019-04-24T07:58:48.304Z</time>
      </trkpt>
      <trkpt lat="41.8872224" lon="-8.8808668">
        <time>2019-04-24T07:58:48.439Z</time>
      </trkpt>
      <trkpt lat="41.8872836" lon="-8.88084325">
        <time>2019-04-24T07:58:48.567Z</time>
      </trkpt>
      <trkpt lat="41.887692" lon="-8.88065918">
        <time>2019-04-24T07:58:49.430Z</time>
      </trkpt>
      <trkpt lat="41.8883558" lon="-8.8804565">
        <time>2019-04-24T07:58:50.794Z</time>
      </trkpt>
      <trkpt lat="41.8889418" lon="-8.8803576">
        <time>2019-04-24T07:58:51.978Z</time>
      </trkpt>
      <trkpt lat="41.8889767" lon="-8.88034972">
        <time>2019-04-24T07:58:52.049Z</time>
      </trkpt>
      <trkpt lat="41.8890069" lon="-8.8803462">
        <time>2019-04-24T07:58:52.110Z</time>
      </trkpt>
      <trkpt lat="41.8890333" lon="-8.88034544">
        <time>2019-04-24T07:58:52.163Z</time>
      </trkpt>
      <trkpt lat="41.889054" lon="-8.880341">
        <time>2019-04-24T07:58:52.205Z</time>
      </trkpt>
      <trkpt lat="41.8890742" lon="-8.88032759">
        <time>2019-04-24T07:58:52.250Z</time>
      </trkpt>
      <trkpt lat="41.8893464" lon="-8.88025936">
        <time>2019-04-24T07:58:52.805Z</time>
      </trkpt>
      <trkpt lat="41.8900391" lon="-8.88021335">
        <time>2019-04-24T07:58:54.195Z</time>
      </trkpt>
      <trkpt lat="41.8903613" lon="-8.88023681">
        <time>2019-04-24T07:58:54.842Z</time>
      </trkpt>
      <trkpt lat="41.8911667" lon="-8.88020463">
        <time>2019-04-24T07:58:56.457Z</time>
      </trkpt>
      <trkpt lat="41.8918805" lon="-8.88005694">
        <time>2019-04-24T07:58:57.904Z</time>
      </trkpt>
      <trkpt lat="41.8925153" lon="-8.87981277">
        <time>2019-04-24T07:58:59.227Z</time>
      </trkpt>
      <trkpt lat="41.8934826" lon="-8.8794516">
        <time>2019-04-24T07:59:01.239Z</time>
      </trkpt>
      <trkpt lat="41.894183" lon="-8.8791563">
        <time>2019-04-24T07:59:02.710Z</time>
      </trkpt>
      <trkpt lat="41.8943156" lon="-8.87905413">
        <time>2019-04-24T07:59:03.016Z</time>
      </trkpt>
      <trkpt lat="41.8944403" lon="-8.87897349">
        <time>2019-04-24T07:59:03.293Z</time>
      </trkpt>
      <trkpt lat="41.8944456" lon="-8.8789771">
        <time>2019-04-24T07:59:03.305Z</time>
      </trkpt>
      <trkpt lat="41.8944431" lon="-8.8789688">
        <time>2019-04-24T07:59:03.318Z</time>
      </trkpt>
      <trkpt lat="41.8944402" lon="-8.87896704">
        <time>2019-04-24T07:59:03.324Z</time>
      </trkpt>
      <trkpt lat="41.8949825" lon="-8.87846052">
        <time>2019-04-24T07:59:04.648Z</time>
      </trkpt>
      <trkpt lat="41.8955345" lon="-8.87798937">
        <time>2019-04-24T07:59:05.959Z</time>
      </trkpt>
      <trkpt lat="41.8962571" lon="-8.87732888">
        <time>2019-04-24T07:59:07.710Z</time>
      </trkpt>
      <trkpt lat="41.8968932" lon="-8.87675338">
        <time>2019-04-24T07:59:09.247Z</time>
      </trkpt>
      <trkpt lat="41.8974278" lon="-8.87629766">
        <time>2019-04-24T07:59:10.516Z</time>
      </trkpt>
      <trkpt lat="41.897793" lon="-8.87608501">
        <time>2019-04-24T07:59:11.314Z</time>
      </trkpt>
      <trkpt lat="41.8978524" lon="-8.8760809">
        <time>2019-04-24T07:59:11.433Z</time>
      </trkpt>
      <trkpt lat="41.8978774" lon="-8.87608107">
        <time>2019-04-24T07:59:11.483Z</time>
      </trkpt>
      <trkpt lat="41.898096" lon="-8.87618618">
        <time>2019-04-24T07:59:11.948Z</time>
      </trkpt>
      <trkpt lat="41.8981049" lon="-8.87617721">
        <time>2019-04-24T07:59:11.970Z</time>
      </trkpt>
      <trkpt lat="41.8983135" lon="-8.87608107">
        <time>2019-04-24T07:59:12.412Z</time>
      </trkpt>
      <trkpt lat="41.8983168" lon="-8.87608274">
        <time>2019-04-24T07:59:12.419Z</time>
      </trkpt>
      <trkpt lat="41.8983922" lon="-8.87592726">
        <time>2019-04-24T07:59:12.696Z</time>
      </trkpt>
      <trkpt lat="41.8983901" lon="-8.8756416">
        <time>2019-04-24T07:59:13.122Z</time>
      </trkpt>
      <trkpt lat="41.8986165" lon="-8.87502587">
        <time>2019-04-24T07:59:14.146Z</time>
      </trkpt>
      <trkpt lat="41.8989797" lon="-8.87456797">
        <time>2019-04-24T07:59:15.144Z</time>
      </trkpt>
      <trkpt lat="41.8992771" lon="-8.87420285">
        <time>2019-04-24T07:59:15.951Z</time>
      </trkpt>
      <trkpt lat="41.8993329" lon="-8.8741819">
        <time>2019-04-24T07:59:16.067Z</time>
      </trkpt>
      <trkpt lat="41.8993195" lon="-8.87419321">
        <time>2019-04-24T07:59:16.099Z</time>
      </trkpt>
      <trkpt lat="41.8993287" lon="-8.87415407">
        <time>2019-04-24T07:59:16.160Z</time>
      </trkpt>
      <trkpt lat="41.8993274" lon="-8.87415315">
        <time>2019-04-24T07:59:16.162Z</time>
      </trkpt>
      <trkpt lat="41.8993367" lon="-8.87414703">
        <time>2019-04-24T07:59:16.183Z</time>
      </trkpt>
      <trkpt lat="41.8994122" lon="-8.87414577">
        <time>2019-04-24T07:59:16.334Z</time>
      </trkpt>
      <trkpt lat="41.8994043" lon="-8.87417351">
        <time>2019-04-24T07:59:16.378Z</time>
      </trkpt>
      <trkpt lat="41.8993987" lon="-8.8741601">
        <time>2019-04-24T07:59:16.401Z</time>
      </trkpt>
      <trkpt lat="41.8993772" lon="-8.87410277">
        <time>2019-04-24T07:59:16.497Z</time>
      </trkpt>
      <trkpt lat="41.899546" lon="-8.87390605">
        <time>2019-04-24T07:59:16.945Z</time>
      </trkpt>
      <trkpt lat="41.8997867" lon="-8.87385601">
        <time>2019-04-24T07:59:17.433Z</time>
      </trkpt>
      <trkpt lat="41.8999124" lon="-8.87391535">
        <time>2019-04-24T07:59:17.700Z</time>
      </trkpt>
      <trkpt lat="41.9000861" lon="-8.87394184">
        <time>2019-04-24T07:59:18.050Z</time>
      </trkpt>
      <trkpt lat="41.900162" lon="-8.87392482">
        <time>2019-04-24T07:59:18.204Z</time>
      </trkpt>
      <trkpt lat="41.900245" lon="-8.87390881">
        <time>2019-04-24T07:59:18.372Z</time>
      </trkpt>
      <trkpt lat="41.9003075" lon="-8.87385961">
        <time>2019-04-24T07:59:18.517Z</time>
      </trkpt>
      <trkpt lat="41.9003901" lon="-8.87381653">
        <time>2019-04-24T07:59:18.695Z</time>
      </trkpt>
      <trkpt lat="41.9004439" lon="-8.87382633">
        <time>2019-04-24T07:59:18.804Z</time>
      </trkpt>
      <trkpt lat="41.9004841" lon="-8.87383338">
        <time>2019-04-24T07:59:18.885Z</time>
      </trkpt>
      <trkpt lat="41.9005027" lon="-8.8738125">
        <time>2019-04-24T07:59:18.934Z</time>
      </trkpt>
      <trkpt lat="41.9006203" lon="-8.87385517">
        <time>2019-04-24T07:59:19.178Z</time>
      </trkpt>
      <trkpt lat="41.900737" lon="-8.87386372">
        <time>2019-04-24T07:59:19.412Z</time>
      </trkpt>
      <trkpt lat="41.9008609" lon="-8.87389188">
        <time>2019-04-24T07:59:19.664Z</time>
      </trkpt>
      <trkpt lat="41.9010139" lon="-8.87392843">
        <time>2019-04-24T07:59:19.975Z</time>
      </trkpt>
      <trkpt lat="41.9010632" lon="-8.87395433">
        <time>2019-04-24T07:59:20.081Z</time>
      </trkpt>
      <trkpt lat="41.9013223" lon="-8.8741627">
        <time>2019-04-24T07:59:20.686Z</time>
      </trkpt>
      <trkpt lat="41.9013612" lon="-8.87434476">
        <time>2019-04-24T07:59:20.969Z</time>
      </trkpt>
      <trkpt lat="41.9013176" lon="-8.8743953">
        <time>2019-04-24T07:59:21.084Z</time>
      </trkpt>
      <trkpt lat="41.9012413" lon="-8.87456017">
        <time>2019-04-24T07:59:21.374Z</time>
      </trkpt>
      <trkpt lat="41.901428" lon="-8.87467299">
        <time>2019-04-24T07:59:21.784Z</time>
      </trkpt>
      <trkpt lat="41.9016639" lon="-8.87488807">
        <time>2019-04-24T07:59:22.355Z</time>
      </trkpt>
      <trkpt lat="41.9016922" lon="-8.87485027">
        <time>2019-04-24T07:59:22.435Z</time>
      </trkpt>
      <trkpt lat="41.9018339" lon="-8.87463385">
        <time>2019-04-24T07:59:22.865Z</time>
      </trkpt>
      <trkpt lat="41.9020785" lon="-8.87422095">
        <time>2019-04-24T07:59:23.652Z</time>
      </trkpt>
      <trkpt lat="41.902177" lon="-8.87402172">
        <time>2019-04-24T07:59:24.009Z</time>
      </trkpt>
      <trkpt lat="41.9022556" lon="-8.87387009">
        <time>2019-04-24T07:59:24.285Z</time>
      </trkpt>
      <trkpt lat="41.9022583" lon="-8.87367068">
        <time>2019-04-24T07:59:24.582Z</time>
      </trkpt>
      <trkpt lat="41.9022654" lon="-8.8735266">
        <time>2019-04-24T07:59:24.797Z</time>
      </trkpt>
      <trkpt lat="41.9024162" lon="-8.87337245">
        <time>2019-04-24T07:59:25.177Z</time>
      </trkpt>
      <trkpt lat="41.9024911" lon="-8.87332501">
        <time>2019-04-24T07:59:25.343Z</time>
      </trkpt>
      <trkpt lat="41.9025218" lon="-8.87329065">
        <time>2019-04-24T07:59:25.423Z</time>
      </trkpt>
      <trkpt lat="41.902549" lon="-8.87325779">
        <time>2019-04-24T07:59:25.496Z</time>
      </trkpt>
      <trkpt lat="41.9025509" lon="-8.87325595">
        <time>2019-04-24T07:59:25.501Z</time>
      </trkpt>
      <trkpt lat="41.9025079" lon="-8.87311505">
        <time>2019-04-24T07:59:25.728Z</time>
      </trkpt>
      <trkpt lat="41.9024785" lon="-8.87295931">
        <time>2019-04-24T07:59:25.968Z</time>
      </trkpt>
      <trkpt lat="41.902455" lon="-8.87293919">
        <time>2019-04-24T07:59:26.024Z</time>
      </trkpt>
      <trkpt lat="41.9024834" lon="-8.87291941">
        <time>2019-04-24T07:59:26.088Z</time>
      </trkpt>
      <trkpt lat="41.9024898" lon="-8.87292251">
        <time>2019-04-24T07:59:26.102Z</time>
      </trkpt>
      <trkpt lat="41.9025012" lon="-8.87293643">
        <time>2019-04-24T07:59:26.133Z</time>
      </trkpt>
      <trkpt lat="41.9024862" lon="-8.87294422">
        <time>2019-04-24T07:59:26.165Z</time>
      </trkpt>
      <trkpt lat="41.9024508" lon="-8.87293517">
        <time>2019-04-24T07:59:26.237Z</time>
      </trkpt>
      <trkpt lat="41.9024727" lon="-8.87293542">
        <time>2019-04-24T07:59:26.281Z</time>
      </trkpt>
      <trkpt lat="41.9024429" lon="-8.87292176">
        <time>2019-04-24T07:59:26.344Z</time>
      </trkpt>
      <trkpt lat="41.9024514" lon="-8.8729262">
        <time>2019-04-24T07:59:26.362Z</time>
      </trkpt>
      <trkpt lat="41.9024764" lon="-8.87293408">
        <time>2019-04-24T07:59:26.413Z</time>
      </trkpt>
      <trkpt lat="41.902536" lon="-8.87293048">
        <time>2019-04-24T07:59:26.533Z</time>
      </trkpt>
      <trkpt lat="41.902539" lon="-8.8729552">
        <time>2019-04-24T07:59:26.570Z</time>
      </trkpt>
      <trkpt lat="41.9025518" lon="-8.87294758">
        <time>2019-04-24T07:59:26.598Z</time>
      </trkpt>
      <trkpt lat="41.9025548" lon="-8.87293534">
        <time>2019-04-24T07:59:26.617Z</time>
      </trkpt>
      <trkpt lat="41.9025301" lon="-8.87294498">
        <time>2019-04-24T07:59:26.668Z</time>
      </trkpt>
      <trkpt lat="41.9025871" lon="-8.87292914">
        <time>2019-04-24T07:59:26.785Z</time>
      </trkpt>
      <trkpt lat="41.9025878" lon="-8.87289452">
        <time>2019-04-24T07:59:26.837Z</time>
      </trkpt>
      <trkpt lat="41.9025708" lon="-8.87284934">
        <time>2019-04-24T07:59:26.913Z</time>
      </trkpt>
      <trkpt lat="41.9025847" lon="-8.87284733">
        <time>2019-04-24T07:59:26.941Z</time>
      </trkpt>
      <trkpt lat="41.9025874" lon="-8.87285588">
        <time>2019-04-24T07:59:26.955Z</time>
      </trkpt>
      <trkpt lat="41.9026" lon="-8.87286334">
        <time>2019-04-24T07:59:26.983Z</time>
      </trkpt>
      <trkpt lat="41.9026496" lon="-8.87326349">
        <time>2019-04-24T07:59:27.588Z</time>
      </trkpt>
      <trkpt lat="41.9027503" lon="-8.87365953">
        <time>2019-04-24T07:59:28.212Z</time>
      </trkpt>
      <trkpt lat="41.9028879" lon="-8.87390764">
        <time>2019-04-24T07:59:28.673Z</time>
      </trkpt>
      <trkpt lat="41.9030134" lon="-8.87413647">
        <time>2019-04-24T07:59:29.097Z</time>
      </trkpt>
      <trkpt lat="41.9030626" lon="-8.87421559">
        <time>2019-04-24T07:59:29.251Z</time>
      </trkpt>
      <trkpt lat="41.9030984" lon="-8.87430394">
        <time>2019-04-24T07:59:29.401Z</time>
      </trkpt>
      <trkpt lat="41.9031486" lon="-8.8743352">
        <time>2019-04-24T07:59:29.512Z</time>
      </trkpt>
      <trkpt lat="41.903488" lon="-8.87488095">
        <time>2019-04-24T07:59:30.573Z</time>
      </trkpt>
      <trkpt lat="41.903546" lon="-8.8749791">
        <time>2019-04-24T07:59:30.760Z</time>
      </trkpt>
      <trkpt lat="41.9037595" lon="-8.87522846">
        <time>2019-04-24T07:59:31.327Z</time>
      </trkpt>
      <trkpt lat="41.9040066" lon="-8.87535075">
        <time>2019-04-24T07:59:31.855Z</time>
      </trkpt>
      <trkpt lat="41.9044481" lon="-8.87546441">
        <time>2019-04-24T07:59:32.756Z</time>
      </trkpt>
      <trkpt lat="41.9046573" lon="-8.8755064">
        <time>2019-04-24T07:59:33.180Z</time>
      </trkpt>
      <trkpt lat="41.9049712" lon="-8.87566407">
        <time>2019-04-24T07:59:33.852Z</time>
      </trkpt>
      <trkpt lat="41.9052993" lon="-8.87599406">
        <time>2019-04-24T07:59:34.673Z</time>
      </trkpt>
      <trkpt lat="41.9053507" lon="-8.87606087">
        <time>2019-04-24T07:59:34.816Z</time>
      </trkpt>
      <trkpt lat="41.9054506" lon="-8.87614502">
        <time>2019-04-24T07:59:35.052Z</time>
      </trkpt>
      <trkpt lat="41.9054971" lon="-8.87619221">
        <time>2019-04-24T07:59:35.169Z</time>
      </trkpt>
      <trkpt lat="41.905703" lon="-8.87646278">
        <time>2019-04-24T07:59:35.746Z</time>
      </trkpt>
      <trkpt lat="41.9057489" lon="-8.87652162">
        <time>2019-04-24T07:59:35.873Z</time>
      </trkpt>
      <trkpt lat="41.9057833" lon="-8.87657535">
        <time>2019-04-24T07:59:35.979Z</time>
      </trkpt>
      <trkpt lat="41.9059964" lon="-8.87680803">
        <time>2019-04-24T07:59:36.529Z</time>
      </trkpt>
      <trkpt lat="41.906262" lon="-8.87690979">
        <time>2019-04-24T07:59:37.082Z</time>
      </trkpt>
      <trkpt lat="41.9063189" lon="-8.87702168">
        <time>2019-04-24T07:59:37.284Z</time>
      </trkpt>
      <trkpt lat="41.9063521" lon="-8.87720835">
        <time>2019-04-24T07:59:37.570Z</time>
      </trkpt>
      <trkpt lat="41.9064293" lon="-8.87731983">
        <time>2019-04-24T07:59:37.797Z</time>
      </trkpt>
      <trkpt lat="41.9065975" lon="-8.877335">
        <time>2019-04-24T07:59:38.135Z</time>
      </trkpt>
      <trkpt lat="41.9066827" lon="-8.87733156">
        <time>2019-04-24T07:59:38.306Z</time>
      </trkpt>
      <trkpt lat="41.9067256" lon="-8.877335">
        <time>2019-04-24T07:59:38.392Z</time>
      </trkpt>
      <trkpt lat="41.9069586" lon="-8.87732519">
        <time>2019-04-24T07:59:38.859Z</time>
      </trkpt>
      <trkpt lat="41.9072062" lon="-8.87719728">
        <time>2019-04-24T07:59:39.391Z</time>
      </trkpt>
      <trkpt lat="41.9072775" lon="-8.87704088">
        <time>2019-04-24T07:59:39.665Z</time>
      </trkpt>
      <trkpt lat="41.9073367" lon="-8.87693292">
        <time>2019-04-24T07:59:39.865Z</time>
      </trkpt>
      <trkpt lat="41.9074259" lon="-8.87686729">
        <time>2019-04-24T07:59:40.069Z</time>
      </trkpt>
      <trkpt lat="41.9074483" lon="-8.87683183">
        <time>2019-04-24T07:59:40.138Z</time>
      </trkpt>
      <trkpt lat="41.9077868" lon="-8.87619984">
        <time>2019-04-24T07:59:41.299Z</time>
      </trkpt>
      <trkpt lat="41.9081485" lon="-8.87594184">
        <time>2019-04-24T07:59:42.120Z</time>
      </trkpt>
      <trkpt lat="41.9083637" lon="-8.876098">
        <time>2019-04-24T07:59:42.610Z</time>
      </trkpt>
      <trkpt lat="41.9088474" lon="-8.87673695">
        <time>2019-04-24T07:59:43.969Z</time>
      </trkpt>
      <trkpt lat="41.9091422" lon="-8.87699897">
        <time>2019-04-24T07:59:44.677Z</time>
      </trkpt>
      <trkpt lat="41.9096107" lon="-8.87665774">
        <time>2019-04-24T07:59:45.745Z</time>
      </trkpt>
      <trkpt lat="41.9097108" lon="-8.87635482">
        <time>2019-04-24T07:59:46.239Z</time>
      </trkpt>
      <trkpt lat="41.9099017" lon="-8.8760001">
        <time>2019-04-24T07:59:46.892Z</time>
      </trkpt>
      <trkpt lat="41.9103258" lon="-8.87614175">
        <time>2019-04-24T07:59:47.768Z</time>
      </trkpt>
      <trkpt lat="41.9104527" lon="-8.8765559">
        <time>2019-04-24T07:59:48.436Z</time>
      </trkpt>
      <trkpt lat="41.910393" lon="-8.87682613">
        <time>2019-04-24T07:59:48.856Z</time>
      </trkpt>
      <trkpt lat="41.9104806" lon="-8.87739317">
        <time>2019-04-24T07:59:49.720Z</time>
      </trkpt>
      <trkpt lat="41.9107735" lon="-8.87782383">
        <time>2019-04-24T07:59:50.590Z</time>
      </trkpt>
      <trkpt lat="41.9108664" lon="-8.87810328">
        <time>2019-04-24T07:59:51.046Z</time>
      </trkpt>
      <trkpt lat="41.9109957" lon="-8.87830495">
        <time>2019-04-24T07:59:51.443Z</time>
      </trkpt>
      <trkpt lat="41.911221" lon="-8.87842314">
        <time>2019-04-24T07:59:51.928Z</time>
      </trkpt>
      <trkpt lat="41.9112638" lon="-8.878428">
        <time>2019-04-24T07:59:52.014Z</time>
      </trkpt>
      <trkpt lat="41.9116154" lon="-8.87855641">
        <time>2019-04-24T07:59:52.744Z</time>
      </trkpt>
      <trkpt lat="41.9116773" lon="-8.87875473">
        <time>2019-04-24T07:59:53.065Z</time>
      </trkpt>
      <trkpt lat="41.9117676" lon="-8.87897534">
        <time>2019-04-24T07:59:53.440Z</time>
      </trkpt>
      <trkpt lat="41.9118303" lon="-8.87907693">
        <time>2019-04-24T07:59:53.637Z</time>
      </trkpt>
      <trkpt lat="41.9118467" lon="-8.87915287">
        <time>2019-04-24T07:59:53.755Z</time>
      </trkpt>
      <trkpt lat="41.9118925" lon="-8.87929578">
        <time>2019-04-24T07:59:53.987Z</time>
      </trkpt>
      <trkpt lat="41.9119308" lon="-8.87945529">
        <time>2019-04-24T07:59:54.237Z</time>
      </trkpt>
      <trkpt lat="41.9119694" lon="-8.87957322">
        <time>2019-04-24T07:59:54.429Z</time>
      </trkpt>
      <trkpt lat="41.9120094" lon="-8.87959342">
        <time>2019-04-24T07:59:54.515Z</time>
      </trkpt>
      <trkpt lat="41.9121243" lon="-8.87974957">
        <time>2019-04-24T07:59:54.842Z</time>
      </trkpt>
      <trkpt lat="41.9121533" lon="-8.87985594">
        <time>2019-04-24T07:59:55.011Z</time>
      </trkpt>
      <trkpt lat="41.9121836" lon="-8.87993574">
        <time>2019-04-24T07:59:55.145Z</time>
      </trkpt>
      <trkpt lat="41.9122184" lon="-8.88005602">
        <time>2019-04-24T07:59:55.337Z</time>
      </trkpt>
      <trkpt lat="41.9122241" lon="-8.88008384">
        <time>2019-04-24T07:59:55.380Z</time>
      </trkpt>
      <trkpt lat="41.9123209" lon="-8.88034318">
        <time>2019-04-24T07:59:55.813Z</time>
      </trkpt>
      <trkpt lat="41.9122453" lon="-8.88050118">
        <time>2019-04-24T07:59:56.093Z</time>
      </trkpt>
      <trkpt lat="41.9122451" lon="-8.88088968">
        <time>2019-04-24T07:59:56.672Z</time>
      </trkpt>
      <trkpt lat="41.9122658" lon="-8.88099052">
        <time>2019-04-24T07:59:56.828Z</time>
      </trkpt>
      <trkpt lat="41.9124802" lon="-8.8812636">
        <time>2019-04-24T07:59:57.420Z</time>
      </trkpt>
      <trkpt lat="41.9126486" lon="-8.88136619">
        <time>2019-04-24T07:59:57.791Z</time>
      </trkpt>
      <trkpt lat="41.9131148" lon="-8.88149083">
        <time>2019-04-24T07:59:58.744Z</time>
      </trkpt>
      <trkpt lat="41.9132256" lon="-8.88150986">
        <time>2019-04-24T07:59:58.968Z</time>
      </trkpt>
      <trkpt lat="41.9133576" lon="-8.88165093">
        <time>2019-04-24T07:59:59.306Z</time>
      </trkpt>
      <trkpt lat="41.9134271" lon="-8.88172695">
        <time>2019-04-24T07:59:59.486Z</time>
      </trkpt>
      <trkpt lat="41.9137547" lon="-8.88188755">
        <time>2019-04-24T08:00:00.185Z</time>
      </trkpt>
      <trkpt lat="41.9139892" lon="-8.88195804">
        <time>2019-04-24T08:00:00.667Z</time>
      </trkpt>
      <trkpt lat="41.9140862" lon="-8.88181152">
        <time>2019-04-24T08:00:00.959Z</time>
      </trkpt>
      <trkpt lat="41.914115" lon="-8.88182686">
        <time>2019-04-24T08:00:01.021Z</time>
      </trkpt>
      <trkpt lat="41.9142926" lon="-8.8821577">
        <time>2019-04-24T08:00:01.629Z</time>
      </trkpt>
      <trkpt lat="41.9143928" lon="-8.88220271">
        <time>2019-04-24T08:00:01.841Z</time>
      </trkpt>
      <trkpt lat="41.9148542" lon="-8.88234579">
        <time>2019-04-24T08:00:02.790Z</time>
      </trkpt>
      <trkpt lat="41.9151681" lon="-8.8826529">
        <time>2019-04-24T08:00:03.568Z</time>
      </trkpt>
      <trkpt lat="41.9153411" lon="-8.88268651">
        <time>2019-04-24T08:00:03.918Z</time>
      </trkpt>
      <trkpt lat="41.9155857" lon="-8.88270679">
        <time>2019-04-24T08:00:04.409Z</time>
      </trkpt>
      <trkpt lat="41.9157023" lon="-8.88269606">
        <time>2019-04-24T08:00:04.643Z</time>
      </trkpt>
      <trkpt lat="41.915805" lon="-8.88274552">
        <time>2019-04-24T08:00:04.862Z</time>
      </trkpt>
      <trkpt lat="41.9160762" lon="-8.88292355">
        <time>2019-04-24T08:00:05.467Z</time>
      </trkpt>
      <trkpt lat="41.9162505" lon="-8.88337626">
        <time>2019-04-24T08:00:06.227Z</time>
      </trkpt>
      <trkpt lat="41.916295" lon="-8.88347013">
        <time>2019-04-24T08:00:06.393Z</time>
      </trkpt>
      <trkpt lat="41.9162963" lon="-8.88346795">
        <time>2019-04-24T08:00:06.397Z</time>
      </trkpt>
      <trkpt lat="41.9162928" lon="-8.8834563">
        <time>2019-04-24T08:00:06.416Z</time>
      </trkpt>
      <trkpt lat="41.9162906" lon="-8.8834465">
        <time>2019-04-24T08:00:06.431Z</time>
      </trkpt>
      <trkpt lat="41.916477" lon="-8.88361657">
        <time>2019-04-24T08:00:06.882Z</time>
      </trkpt>
      <trkpt lat="41.9169943" lon="-8.8834879">
        <time>2019-04-24T08:00:07.936Z</time>
      </trkpt>
      <trkpt lat="41.9172986" lon="-8.88342177">
        <time>2019-04-24T08:00:08.554Z</time>
      </trkpt>
      <trkpt lat="41.9174609" lon="-8.88333988">
        <time>2019-04-24T08:00:08.901Z</time>
      </trkpt>
      <trkpt lat="41.9175898" lon="-8.88333041">
        <time>2019-04-24T08:00:09.160Z</time>
      </trkpt>
      <trkpt lat="41.9177709" lon="-8.88328674">
        <time>2019-04-24T08:00:09.529Z</time>
      </trkpt>
      <trkpt lat="41.9178405" lon="-8.88326696">
        <time>2019-04-24T08:00:09.672Z</time>
      </trkpt>
      <trkpt lat="41.9181408" lon="-8.88333066">
        <time>2019-04-24T08:00:10.281Z</time>
      </trkpt>
      <trkpt lat="41.918588" lon="-8.88352604">
        <time>2019-04-24T08:00:11.223Z</time>
      </trkpt>
      <trkpt lat="41.9187316" lon="-8.88355555">
        <time>2019-04-24T08:00:11.514Z</time>
      </trkpt>
      <trkpt lat="41.918731" lon="-8.88355571">
        <time>2019-04-24T08:00:11.514Z</time>
      </trkpt>
      <trkpt lat="41.9187297" lon="-8.88355345">
        <time>2019-04-24T08:00:11.519Z</time>
      </trkpt>
      <trkpt lat="41.9187619" lon="-8.88355479">
        <time>2019-04-24T08:00:11.584Z</time>
      </trkpt>
      <trkpt lat="41.9187607" lon="-8.88355655">
        <time>2019-04-24T08:00:11.587Z</time>
      </trkpt>
      <trkpt lat="41.9187763" lon="-8.88354599">
        <time>2019-04-24T08:00:11.622Z</time>
      </trkpt>
      <trkpt lat="41.9188215" lon="-8.88353635">
        <time>2019-04-24T08:00:11.714Z</time>
      </trkpt>
      <trkpt lat="41.9190974" lon="-8.8835428">
        <time>2019-04-24T08:00:12.267Z</time>
      </trkpt>
      <trkpt lat="41.9191818" lon="-8.88351598">
        <time>2019-04-24T08:00:12.441Z</time>
      </trkpt>
      <trkpt lat="41.9191941" lon="-8.88348346">
        <time>2019-04-24T08:00:12.495Z</time>
      </trkpt>
      <trkpt lat="41.9192637" lon="-8.88323728">
        <time>2019-04-24T08:00:12.888Z</time>
      </trkpt>
      <trkpt lat="41.9193841" lon="-8.88283847">
        <time>2019-04-24T08:00:13.530Z</time>
      </trkpt>
      <trkpt lat="41.919417" lon="-8.88272532">
        <time>2019-04-24T08:00:13.711Z</time>
      </trkpt>
      <trkpt lat="41.9193428" lon="-8.88226783">
        <time>2019-04-24T08:00:14.409Z</time>
      </trkpt>
      <trkpt lat="41.9192121" lon="-8.88211294">
        <time>2019-04-24T08:00:14.758Z</time>
      </trkpt>
      <trkpt lat="41.9190157" lon="-8.88189182">
        <time>2019-04-24T08:00:15.271Z</time>
      </trkpt>
      <trkpt lat="41.9189643" lon="-8.88182234">
        <time>2019-04-24T08:00:15.417Z</time>
      </trkpt>
      <trkpt lat="41.9189679" lon="-8.88147985">
        <time>2019-04-24T08:00:15.928Z</time>
      </trkpt>
      <trkpt lat="41.9191903" lon="-8.88121297">
        <time>2019-04-24T08:00:16.525Z</time>
      </trkpt>
      <trkpt lat="41.9192682" lon="-8.88117986">
        <time>2019-04-24T08:00:16.689Z</time>
      </trkpt>
      <trkpt lat="41.919441" lon="-8.88112253">
        <time>2019-04-24T08:00:17.046Z</time>
      </trkpt>
      <trkpt lat="41.9195281" lon="-8.88110149">
        <time>2019-04-24T08:00:17.223Z</time>
      </trkpt>
      <trkpt lat="41.9198151" lon="-8.88052465">
        <time>2019-04-24T08:00:18.258Z</time>
      </trkpt>
      <trkpt lat="41.9198905" lon="-8.88038006">
        <time>2019-04-24T08:00:18.521Z</time>
      </trkpt>
      <trkpt lat="41.9200789" lon="-8.88047503">
        <time>2019-04-24T08:00:18.924Z</time>
      </trkpt>
      <trkpt lat="41.920444" lon="-8.88052691">
        <time>2019-04-24T08:00:19.660Z</time>
      </trkpt>
      <trkpt lat="41.9208215" lon="-8.88060646">
        <time>2019-04-24T08:00:20.426Z</time>
      </trkpt>
      <trkpt lat="41.9211502" lon="-8.8806114">
        <time>2019-04-24T08:00:21.085Z</time>
      </trkpt>
      <trkpt lat="41.9212224" lon="-8.88064895">
        <time>2019-04-24T08:00:21.240Z</time>
      </trkpt>
      <trkpt lat="41.9212507" lon="-8.88074392">
        <time>2019-04-24T08:00:21.393Z</time>
      </trkpt>
      <trkpt lat="41.9212459" lon="-8.88092287">
        <time>2019-04-24T08:00:21.660Z</time>
      </trkpt>
      <trkpt lat="41.9212666" lon="-8.88102639">
        <time>2019-04-24T08:00:21.820Z</time>
      </trkpt>
      <trkpt lat="41.9213228" lon="-8.88122881">
        <time>2019-04-24T08:00:22.142Z</time>
      </trkpt>
      <trkpt lat="41.9213799" lon="-8.88135454">
        <time>2019-04-24T08:00:22.362Z</time>
      </trkpt>
      <trkpt lat="41.9214038" lon="-8.8814086">
        <time>2019-04-24T08:00:22.456Z</time>
      </trkpt>
      <trkpt lat="41.9217288" lon="-8.88142017">
        <time>2019-04-24T08:00:23.108Z</time>
      </trkpt>
      <trkpt lat="41.9221575" lon="-8.88159393">
        <time>2019-04-24T08:00:24.005Z</time>
      </trkpt>
      <trkpt lat="41.9225606" lon="-8.88170558">
        <time>2019-04-24T08:00:24.830Z</time>
      </trkpt>
      <trkpt lat="41.922789" lon="-8.88182753">
        <time>2019-04-24T08:00:25.322Z</time>
      </trkpt>
      <trkpt lat="41.9227989" lon="-8.88185159">
        <time>2019-04-24T08:00:25.363Z</time>
      </trkpt>
      <trkpt lat="41.9230584" lon="-8.88204043">
        <time>2019-04-24T08:00:25.954Z</time>
      </trkpt>
      <trkpt lat="41.923266" lon="-8.88220958">
        <time>2019-04-24T08:00:26.440Z</time>
      </trkpt>
      <trkpt lat="41.9233058" lon="-8.88223649">
        <time>2019-04-24T08:00:26.529Z</time>
      </trkpt>
      <trkpt lat="41.923451" lon="-8.88235392">
        <time>2019-04-24T08:00:26.869Z</time>
      </trkpt>
      <trkpt lat="41.9236057" lon="-8.88246322">
        <time>2019-04-24T08:00:27.219Z</time>
      </trkpt>
      <trkpt lat="41.9236913" lon="-8.8824892">
        <time>2019-04-24T08:00:27.395Z</time>
      </trkpt>
      <trkpt lat="41.9240625" lon="-8.88247361">
        <time>2019-04-24T08:00:28.139Z</time>
      </trkpt>
      <trkpt lat="41.9242266" lon="-8.88241418">
        <time>2019-04-24T08:00:28.480Z</time>
      </trkpt>
      <trkpt lat="41.9245405" lon="-8.88238032">
        <time>2019-04-24T08:00:29.111Z</time>
      </trkpt>
      <trkpt lat="41.9248174" lon="-8.88236758">
        <time>2019-04-24T08:00:29.666Z</time>
      </trkpt>
      <trkpt lat="41.9248999" lon="-8.88233556">
        <time>2019-04-24T08:00:29.838Z</time>
      </trkpt>
      <trkpt lat="41.9248787" lon="-8.88189182">
        <time>2019-04-24T08:00:30.501Z</time>
      </trkpt>
      <trkpt lat="41.9248902" lon="-8.88184019">
        <time>2019-04-24T08:00:30.581Z</time>
      </trkpt>
      <trkpt lat="41.9249078" lon="-8.88183181">
        <time>2019-04-24T08:00:30.618Z</time>
      </trkpt>
      <trkpt lat="41.9254714" lon="-8.88188134">
        <time>2019-04-24T08:00:31.750Z</time>
      </trkpt>
      <trkpt lat="41.925782" lon="-8.88179275">
        <time>2019-04-24T08:00:32.386Z</time>
      </trkpt>
      <trkpt lat="41.9261983" lon="-8.88176701">
        <time>2019-04-24T08:00:33.221Z</time>
      </trkpt>
      <trkpt lat="41.9262711" lon="-8.88178135">
        <time>2019-04-24T08:00:33.368Z</time>
      </trkpt>
      <trkpt lat="41.9262859" lon="-8.88177255">
        <time>2019-04-24T08:00:33.400Z</time>
      </trkpt>
      <trkpt lat="41.9266595" lon="-8.88169803">
        <time>2019-04-24T08:00:34.157Z</time>
      </trkpt>
      <trkpt lat="41.9268866" lon="-8.88166383">
        <time>2019-04-24T08:00:34.615Z</time>
      </trkpt>
      <trkpt lat="41.927163" lon="-8.88161522">
        <time>2019-04-24T08:00:35.174Z</time>
      </trkpt>
      <trkpt lat="41.9272294" lon="-8.88139771">
        <time>2019-04-24T08:00:35.525Z</time>
      </trkpt>
      <trkpt lat="41.9271827" lon="-8.88135102">
        <time>2019-04-24T08:00:35.642Z</time>
      </trkpt>
      <trkpt lat="41.9271499" lon="-8.88136276">
        <time>2019-04-24T08:00:35.710Z</time>
      </trkpt>
      <trkpt lat="41.927261" lon="-8.88138145">
        <time>2019-04-24T08:00:35.934Z</time>
      </trkpt>
      <trkpt lat="41.9282484" lon="-8.88153953">
        <time>2019-04-24T08:00:37.927Z</time>
      </trkpt>
      <trkpt lat="41.9295511" lon="-8.8817728">
        <time>2019-04-24T08:00:40.561Z</time>
      </trkpt>
      <trkpt lat="41.9304995" lon="-8.88198578">
        <time>2019-04-24T08:00:42.488Z</time>
      </trkpt>
      <trkpt lat="41.9314202" lon="-8.88238753">
        <time>2019-04-24T08:00:44.428Z</time>
      </trkpt>
      <trkpt lat="41.9323442" lon="-8.88280109">
        <time>2019-04-24T08:00:46.380Z</time>
      </trkpt>
      <trkpt lat="41.9332787" lon="-8.883232">
        <time>2019-04-24T08:00:48.360Z</time>
      </trkpt>
      <trkpt lat="41.9341242" lon="-8.88365663">
        <time>2019-04-24T08:00:50.169Z</time>
      </trkpt>
      <trkpt lat="41.9344095" lon="-8.88379862">
        <time>2019-04-24T08:00:50.779Z</time>
      </trkpt>
      <trkpt lat="41.935314" lon="-8.88423071">
        <time>2019-04-24T08:00:52.703Z</time>
      </trkpt>
      <trkpt lat="41.9362555" lon="-8.88467914">
        <time>2019-04-24T08:00:54.705Z</time>
      </trkpt>
      <trkpt lat="41.937169" lon="-8.8850269">
        <time>2019-04-24T08:00:56.608Z</time>
      </trkpt>
      <trkpt lat="41.9373236" lon="-8.88512615">
        <time>2019-04-24T08:00:56.951Z</time>
      </trkpt>
      <trkpt lat="41.9376528" lon="-8.88511575">
        <time>2019-04-24T08:00:57.611Z</time>
      </trkpt>
      <trkpt lat="41.9376481" lon="-8.88511433">
        <time>2019-04-24T08:00:57.621Z</time>
      </trkpt>
      <trkpt lat="41.9376447" lon="-8.88510586">
        <time>2019-04-24T08:00:57.635Z</time>
      </trkpt>
      <trkpt lat="41.9376465" lon="-8.88511206">
        <time>2019-04-24T08:00:57.645Z</time>
      </trkpt>
      <trkpt lat="41.9376534" lon="-8.88511533">
        <time>2019-04-24T08:00:57.660Z</time>
      </trkpt>
      <trkpt lat="41.9376572" lon="-8.88510838">
        <time>2019-04-24T08:00:57.673Z</time>
      </trkpt>
      <trkpt lat="41.937642" lon="-8.88510268">
        <time>2019-04-24T08:00:57.705Z</time>
      </trkpt>
      <trkpt lat="41.9376408" lon="-8.88510025">
        <time>2019-04-24T08:00:57.709Z</time>
      </trkpt>
      <trkpt lat="41.9376467" lon="-8.8851088">
        <time>2019-04-24T08:00:57.726Z</time>
      </trkpt>
      <trkpt lat="41.93766" lon="-8.88510335">
        <time>2019-04-24T08:00:57.754Z</time>
      </trkpt>
      <trkpt lat="41.9376659" lon="-8.88509899">
        <time>2019-04-24T08:00:57.767Z</time>
      </trkpt>
      <trkpt lat="41.9377057" lon="-8.88509413">
        <time>2019-04-24T08:00:57.847Z</time>
      </trkpt>
      <trkpt lat="41.9377355" lon="-8.88509337">
        <time>2019-04-24T08:00:57.907Z</time>
      </trkpt>
      <trkpt lat="41.9379857" lon="-8.88510871">
        <time>2019-04-24T08:00:58.409Z</time>
      </trkpt>
      <trkpt lat="41.9380713" lon="-8.88498567">
        <time>2019-04-24T08:00:58.660Z</time>
      </trkpt>
      <trkpt lat="41.9382171" lon="-8.88485541">
        <time>2019-04-24T08:00:59.011Z</time>
      </trkpt>
      <trkpt lat="41.9384633" lon="-8.88477629">
        <time>2019-04-24T08:00:59.518Z</time>
      </trkpt>
      <trkpt lat="41.9394137" lon="-8.88449775">
        <time>2019-04-24T08:01:01.467Z</time>
      </trkpt>
      <trkpt lat="41.9402651" lon="-8.8842587">
        <time>2019-04-24T08:01:03.210Z</time>
      </trkpt>
      <trkpt lat="41.9406815" lon="-8.88413331">
        <time>2019-04-24T08:01:04.065Z</time>
      </trkpt>
      <trkpt lat="41.9407257" lon="-8.88415762">
        <time>2019-04-24T08:01:04.161Z</time>
      </trkpt>
      <trkpt lat="41.9407342" lon="-8.88440824">
        <time>2019-04-24T08:01:04.535Z</time>
      </trkpt>
      <trkpt lat="41.9412396" lon="-8.88421428">
        <time>2019-04-24T08:01:05.588Z</time>
      </trkpt>
      <trkpt lat="41.9415869" lon="-8.88399149">
        <time>2019-04-24T08:01:06.359Z</time>
      </trkpt>
      <trkpt lat="41.9419347" lon="-8.88382762">
        <time>2019-04-24T08:01:07.098Z</time>
      </trkpt>
      <trkpt lat="41.9422253" lon="-8.88370541">
        <time>2019-04-24T08:01:07.708Z</time>
      </trkpt>
      <trkpt lat="41.9423972" lon="-8.88364708">
        <time>2019-04-24T08:01:08.063Z</time>
      </trkpt>
      <trkpt lat="41.9425636" lon="-8.88353585">
        <time>2019-04-24T08:01:08.435Z</time>
      </trkpt>
      <trkpt lat="41.9427243" lon="-8.88340199">
        <time>2019-04-24T08:01:08.814Z</time>
      </trkpt>
      <trkpt lat="41.942985" lon="-8.8832092">
        <time>2019-04-24T08:01:09.410Z</time>
      </trkpt>
      <trkpt lat="41.9430908" lon="-8.88305213">
        <time>2019-04-24T08:01:09.726Z</time>
      </trkpt>
      <trkpt lat="41.943144" lon="-8.88293813">
        <time>2019-04-24T08:01:09.927Z</time>
      </trkpt>
      <trkpt lat="41.9432725" lon="-8.88278651">
        <time>2019-04-24T08:01:10.270Z</time>
      </trkpt>
      <trkpt lat="41.9436127" lon="-8.88258165">
        <time>2019-04-24T08:01:11.017Z</time>
      </trkpt>
      <trkpt lat="41.9439763" lon="-8.88241695">
        <time>2019-04-24T08:01:11.786Z</time>
      </trkpt>
      <trkpt lat="41.9441149" lon="-8.88240278">
        <time>2019-04-24T08:01:12.065Z</time>
      </trkpt>
      <trkpt lat="41.9442554" lon="-8.88240639">
        <time>2019-04-24T08:01:12.347Z</time>
      </trkpt>
      <trkpt lat="41.9444925" lon="-8.88244729">
        <time>2019-04-24T08:01:12.826Z</time>
      </trkpt>
      <trkpt lat="41.9445934" lon="-8.88244779">
        <time>2019-04-24T08:01:13.028Z</time>
      </trkpt>
      <trkpt lat="41.94491044329214" lon="-8.882170986818883">
        <time>2019-04-24T08:01:13.786Z</time>
      </trkpt>
      <trkpt lat="41.9449106" lon="-8.88217085">
        <time>2019-04-24T08:01:13.786Z</time>
      </trkpt>
      <trkpt lat="41.9452636" lon="-8.88206876">
        <time>2019-04-24T08:01:14.510Z</time>
      </trkpt>
      <trkpt lat="41.9454547" lon="-8.88205544">
        <time>2019-04-24T08:01:14.893Z</time>
      </trkpt>
      <trkpt lat="41.9456628" lon="-8.8820986">
        <time>2019-04-24T08:01:15.315Z</time>
      </trkpt>
      <trkpt lat="41.945974" lon="-8.88220597">
        <time>2019-04-24T08:01:15.959Z</time>
      </trkpt>
      <trkpt lat="41.9464423" lon="-8.88226364">
        <time>2019-04-24T08:01:16.901Z</time>
      </trkpt>
      <trkpt lat="41.9465833" lon="-8.88230656">
        <time>2019-04-24T08:01:17.191Z</time>
      </trkpt>
      <trkpt lat="41.9466814" lon="-8.88235148">
        <time>2019-04-24T08:01:17.399Z</time>
      </trkpt>
      <trkpt lat="41.9469149" lon="-8.88242374">
        <time>2019-04-24T08:01:17.879Z</time>
      </trkpt>
      <trkpt lat="41.9470848" lon="-8.88256212">
        <time>2019-04-24T08:01:18.277Z</time>
      </trkpt>
      <trkpt lat="41.9472479" lon="-8.88273328">
        <time>2019-04-24T08:01:18.692Z</time>
      </trkpt>
      <trkpt lat="41.9475727" lon="-8.88292003">
        <time>2019-04-24T08:01:19.400Z</time>
      </trkpt>
      <trkpt lat="41.9480824" lon="-8.88294375">
        <time>2019-04-24T08:01:20.422Z</time>
      </trkpt>
      <trkpt lat="41.9482925" lon="-8.8830015">
        <time>2019-04-24T08:01:20.852Z</time>
      </trkpt>
      <trkpt lat="41.9488273" lon="-8.88319026">
        <time>2019-04-24T08:01:21.960Z</time>
      </trkpt>
      <trkpt lat="41.9493513" lon="-8.88344826">
        <time>2019-04-24T08:01:23.078Z</time>
      </trkpt>
      <trkpt lat="41.9496718" lon="-8.88364557">
        <time>2019-04-24T08:01:23.784Z</time>
      </trkpt>
      <trkpt lat="41.9499825" lon="-8.88373718">
        <time>2019-04-24T08:01:24.421Z</time>
      </trkpt>
      <trkpt lat="41.9501732" lon="-8.88382343">
        <time>2019-04-24T08:01:24.824Z</time>
      </trkpt>
      <trkpt lat="41.9501521" lon="-8.88368907">
        <time>2019-04-24T08:01:25.029Z</time>
      </trkpt>
      <trkpt lat="41.9501778" lon="-8.88339537">
        <time>2019-04-24T08:01:25.470Z</time>
      </trkpt>
      <trkpt lat="41.9503381" lon="-8.88334918">
        <time>2019-04-24T08:01:25.799Z</time>
      </trkpt>
      <trkpt lat="41.9508122" lon="-8.88323494">
        <time>2019-04-24T08:01:26.764Z</time>
      </trkpt>
      <trkpt lat="41.9512791" lon="-8.88297719">
        <time>2019-04-24T08:01:27.775Z</time>
      </trkpt>
      <trkpt lat="41.9518142" lon="-8.88273999">
        <time>2019-04-24T08:01:28.904Z</time>
      </trkpt>
      <trkpt lat="41.952142" lon="-8.88268425">
        <time>2019-04-24T08:01:29.566Z</time>
      </trkpt>
      <trkpt lat="41.9524801" lon="-8.8826871">
        <time>2019-04-24T08:01:30.244Z</time>
      </trkpt>
      <trkpt lat="41.9530599" lon="-8.88292615">
        <time>2019-04-24T08:01:31.459Z</time>
      </trkpt>
      <trkpt lat="41.953554" lon="-8.88317249">
        <time>2019-04-24T08:01:32.515Z</time>
      </trkpt>
      <trkpt lat="41.9539167" lon="-8.88350995">
        <time>2019-04-24T08:01:33.399Z</time>
      </trkpt>
      <trkpt lat="41.9540475" lon="-8.88369007">
        <time>2019-04-24T08:01:33.774Z</time>
      </trkpt>
      <trkpt lat="41.9544879" lon="-8.88401973">
        <time>2019-04-24T08:01:34.784Z</time>
      </trkpt>
      <trkpt lat="41.9553583" lon="-8.88409978">
        <time>2019-04-24T08:01:36.532Z</time>
      </trkpt>
      <trkpt lat="41.9560158" lon="-8.88424018">
        <time>2019-04-24T08:01:37.866Z</time>
      </trkpt>
      <trkpt lat="41.9568047" lon="-8.88434931">
        <time>2019-04-24T08:01:39.455Z</time>
      </trkpt>
      <trkpt lat="41.9570306" lon="-8.88444126">
        <time>2019-04-24T08:01:39.928Z</time>
      </trkpt>
      <trkpt lat="41.9571482" lon="-8.88438242">
        <time>2019-04-24T08:01:40.179Z</time>
      </trkpt>
      <trkpt lat="41.9573987" lon="-8.88432458">
        <time>2019-04-24T08:01:40.688Z</time>
      </trkpt>
      <trkpt lat="41.9576829" lon="-8.88435509">
        <time>2019-04-24T08:01:41.259Z</time>
      </trkpt>
      <trkpt lat="41.9577616" lon="-8.88433657">
        <time>2019-04-24T08:01:41.419Z</time>
      </trkpt>
      <trkpt lat="41.9581639" lon="-8.8842489">
        <time>2019-04-24T08:01:42.236Z</time>
      </trkpt>
      <trkpt lat="41.9590593" lon="-8.88424655">
        <time>2019-04-24T08:01:44.030Z</time>
      </trkpt>
      <trkpt lat="41.9594473" lon="-8.88414077">
        <time>2019-04-24T08:01:44.823Z</time>
      </trkpt>
      <trkpt lat="41.9597844" lon="-8.88409517">
        <time>2019-04-24T08:01:45.502Z</time>
      </trkpt>
      <trkpt lat="41.959942" lon="-8.88417748">
        <time>2019-04-24T08:01:45.841Z</time>
      </trkpt>
      <trkpt lat="41.960181" lon="-8.88417941">
        <time>2019-04-24T08:01:46.320Z</time>
      </trkpt>
      <trkpt lat="41.9603214" lon="-8.88410464">
        <time>2019-04-24T08:01:46.623Z</time>
      </trkpt>
      <trkpt lat="41.9605382" lon="-8.88397229">
        <time>2019-04-24T08:01:47.100Z</time>
      </trkpt>
      <trkpt lat="41.9606026" lon="-8.88394664">
        <time>2019-04-24T08:01:47.235Z</time>
      </trkpt>
      <trkpt lat="41.9606975" lon="-8.88393298">
        <time>2019-04-24T08:01:47.426Z</time>
      </trkpt>
      <trkpt lat="41.960883" lon="-8.88392753">
        <time>2019-04-24T08:01:47.798Z</time>
      </trkpt>
      <trkpt lat="41.9612397" lon="-8.88385872">
        <time>2019-04-24T08:01:48.520Z</time>
      </trkpt>
      <trkpt lat="41.9617943" lon="-8.88391412">
        <time>2019-04-24T08:01:49.634Z</time>
      </trkpt>
      <trkpt lat="41.9621378" lon="-8.88407204">
        <time>2019-04-24T08:01:50.361Z</time>
      </trkpt>
      <trkpt lat="41.9624163" lon="-8.88416985">
        <time>2019-04-24T08:01:50.938Z</time>
      </trkpt>
      <trkpt lat="41.9633624" lon="-8.8843753">
        <time>2019-04-24T08:01:52.858Z</time>
      </trkpt>
      <trkpt lat="41.963702" lon="-8.88443732">
        <time>2019-04-24T08:01:53.545Z</time>
      </trkpt>
      <trkpt lat="41.9641819" lon="-8.88436926">
        <time>2019-04-24T08:01:54.512Z</time>
      </trkpt>
      <trkpt lat="41.9649267" lon="-8.88415737">
        <time>2019-04-24T08:01:56.038Z</time>
      </trkpt>
      <trkpt lat="41.9652256" lon="-8.88414563">
        <time>2019-04-24T08:01:56.637Z</time>
      </trkpt>
      <trkpt lat="41.9653843" lon="-8.88425342">
        <time>2019-04-24T08:01:56.993Z</time>
      </trkpt>
      <trkpt lat="41.9656162" lon="-8.88432559">
        <time>2019-04-24T08:01:57.470Z</time>
      </trkpt>
      <trkpt lat="41.9658347" lon="-8.8843126">
        <time>2019-04-24T08:01:57.908Z</time>
      </trkpt>
      <trkpt lat="41.9660519" lon="-8.88424571">
        <time>2019-04-24T08:01:58.355Z</time>
      </trkpt>
      <trkpt lat="41.9662525" lon="-8.88418268">
        <time>2019-04-24T08:01:58.768Z</time>
      </trkpt>
      <trkpt lat="41.966525" lon="-8.88412216">
        <time>2019-04-24T08:01:59.321Z</time>
      </trkpt>
      <trkpt lat="41.9669366" lon="-8.88402451">
        <time>2019-04-24T08:02:00.159Z</time>
      </trkpt>
      <trkpt lat="41.967181" lon="-8.88389401">
        <time>2019-04-24T08:02:00.686Z</time>
      </trkpt>
      <trkpt lat="41.9674535" lon="-8.88383475">
        <time>2019-04-24T08:02:01.239Z</time>
      </trkpt>
      <trkpt lat="41.9678886" lon="-8.88389401">
        <time>2019-04-24T08:02:02.115Z</time>
      </trkpt>
      <trkpt lat="41.9683335" lon="-8.88386802">
        <time>2019-04-24T08:02:03.007Z</time>
      </trkpt>
      <trkpt lat="41.969082" lon="-8.88393558">
        <time>2019-04-24T08:02:04.510Z</time>
      </trkpt>
      <trkpt lat="41.9703016" lon="-8.88406416">
        <time>2019-04-24T08:02:06.961Z</time>
      </trkpt>
      <trkpt lat="41.9711975" lon="-8.88418486">
        <time>2019-04-24T08:02:08.765Z</time>
      </trkpt>
      <trkpt lat="41.9712957" lon="-8.88421327">
        <time>2019-04-24T08:02:08.966Z</time>
      </trkpt>
      <trkpt lat="41.9714273" lon="-8.88436247">
        <time>2019-04-24T08:02:09.311Z</time>
      </trkpt>
      <trkpt lat="41.9715845" lon="-8.88439231">
        <time>2019-04-24T08:02:09.629Z</time>
      </trkpt>
      <trkpt lat="41.9716394" lon="-8.8844198">
        <time>2019-04-24T08:02:09.746Z</time>
      </trkpt>
      <trkpt lat="41.9720057" lon="-8.88440723">
        <time>2019-04-24T08:02:10.480Z</time>
      </trkpt>
      <trkpt lat="41.9722191" lon="-8.88432391">
        <time>2019-04-24T08:02:10.925Z</time>
      </trkpt>
      <trkpt lat="41.9727279" lon="-8.88435577">
        <time>2019-04-24T08:02:11.946Z</time>
      </trkpt>
      <trkpt lat="41.973303" lon="-8.8844048">
        <time>2019-04-24T08:02:13.101Z</time>
      </trkpt>
      <trkpt lat="41.9741376" lon="-8.88449775">
        <time>2019-04-24T08:02:14.779Z</time>
      </trkpt>
      <trkpt lat="41.97423" lon="-8.88450597">
        <time>2019-04-24T08:02:14.965Z</time>
      </trkpt>
      <trkpt lat="41.9750946" lon="-8.88459909">
        <time>2019-04-24T08:02:16.703Z</time>
      </trkpt>
      <trkpt lat="41.97593" lon="-8.8846845">
        <time>2019-04-24T08:02:18.382Z</time>
      </trkpt>
      <trkpt lat="41.9765521" lon="-8.88476036">
        <time>2019-04-24T08:02:19.634Z</time>
      </trkpt>
      <trkpt lat="41.9765868" lon="-8.88476405">
        <time>2019-04-24T08:02:19.704Z</time>
      </trkpt>
      <trkpt lat="41.9772738" lon="-8.88483873">
        <time>2019-04-24T08:02:21.085Z</time>
      </trkpt>
      <trkpt lat="41.9775078" lon="-8.88486513">
        <time>2019-04-24T08:02:21.556Z</time>
      </trkpt>
      <trkpt lat="41.9782579" lon="-8.88493856">
        <time>2019-04-24T08:02:23.063Z</time>
      </trkpt>
      <trkpt lat="41.9792179" lon="-8.88488693">
        <time>2019-04-24T08:02:24.988Z</time>
      </trkpt>
      <trkpt lat="41.9799559" lon="-8.88480445">
        <time>2019-04-24T08:02:26.472Z</time>
      </trkpt>
      <trkpt lat="41.9807225" lon="-8.88472105">
        <time>2019-04-24T08:02:28.013Z</time>
      </trkpt>
      <trkpt lat="41.9820413" lon="-8.88458216">
        <time>2019-04-24T08:02:30.664Z</time>
      </trkpt>
      <trkpt lat="41.9831554" lon="-8.88447202">
        <time>2019-04-24T08:02:32.903Z</time>
      </trkpt>
      <trkpt lat="41.9840676" lon="-8.88436901">
        <time>2019-04-24T08:02:34.737Z</time>
      </trkpt>
      <trkpt lat="41.9841703" lon="-8.88436364">
        <time>2019-04-24T08:02:34.943Z</time>
      </trkpt>
      <trkpt lat="41.9852982" lon="-8.88425585">
        <time>2019-04-24T08:02:37.209Z</time>
      </trkpt>
      <trkpt lat="41.9863551" lon="-8.88415804">
        <time>2019-04-24T08:02:39.332Z</time>
      </trkpt>
      <trkpt lat="41.9873065" lon="-8.88406391">
        <time>2019-04-24T08:02:41.244Z</time>
      </trkpt>
      <trkpt lat="41.9876206" lon="-8.88411755">
        <time>2019-04-24T08:02:41.878Z</time>
      </trkpt>
      <trkpt lat="41.9879081" lon="-8.88397221">
        <time>2019-04-24T08:02:42.493Z</time>
      </trkpt>
      <trkpt lat="41.9882969" lon="-8.88367859">
        <time>2019-04-24T08:02:43.386Z</time>
      </trkpt>
      <trkpt lat="41.9884222" lon="-8.88350492">
        <time>2019-04-24T08:02:43.747Z</time>
      </trkpt>
      <trkpt lat="41.9886925" lon="-8.88330132">
        <time>2019-04-24T08:02:44.368Z</time>
      </trkpt>
      <trkpt lat="41.9896946" lon="-8.88257897">
        <time>2019-04-24T08:02:46.646Z</time>
      </trkpt>
      <trkpt lat="41.9903996" lon="-8.88206172">
        <time>2019-04-24T08:02:48.255Z</time>
      </trkpt>
      <trkpt lat="41.9910735" lon="-8.88153894">
        <time>2019-04-24T08:02:49.814Z</time>
      </trkpt>
      <trkpt lat="41.9911862" lon="-8.88146636">
        <time>2019-04-24T08:02:50.064Z</time>
      </trkpt>
      <trkpt lat="41.9917652" lon="-8.88110015">
        <time>2019-04-24T08:02:51.346Z</time>
      </trkpt>
      <trkpt lat="41.9919334" lon="-8.880974">
        <time>2019-04-24T08:02:51.732Z</time>
      </trkpt>
      <trkpt lat="41.9927406" lon="-8.88038274">
        <time>2019-04-24T08:02:53.574Z</time>
      </trkpt>
      <trkpt lat="41.9931072" lon="-8.88015928">
        <time>2019-04-24T08:02:54.381Z</time>
      </trkpt>
      <trkpt lat="41.9931665" lon="-8.88016448">
        <time>2019-04-24T08:02:54.500Z</time>
      </trkpt>
      <trkpt lat="41.9938365" lon="-8.88014369">
        <time>2019-04-24T08:02:55.843Z</time>
      </trkpt>
      <trkpt lat="41.9943645" lon="-8.88021242">
        <time>2019-04-24T08:02:56.906Z</time>
      </trkpt>
      <trkpt lat="41.9947629" lon="-8.88033002">
        <time>2019-04-24T08:02:57.723Z</time>
      </trkpt>
      <trkpt lat="41.9951841" lon="-8.88033983">
        <time>2019-04-24T08:02:58.567Z</time>
      </trkpt>
      <trkpt lat="41.9955195" lon="-8.88023262">
        <time>2019-04-24T08:02:59.258Z</time>
      </trkpt>
      <trkpt lat="41.9958999" lon="-8.880038">
        <time>2019-04-24T08:03:00.074Z</time>
      </trkpt>
      <trkpt lat="41.9962879" lon="-8.87980213">
        <time>2019-04-24T08:03:00.927Z</time>
      </trkpt>
      <trkpt lat="41.9963868" lon="-8.87971253">
        <time>2019-04-24T08:03:01.166Z</time>
      </trkpt>
      <trkpt lat="41.9964853" lon="-8.87963918">
        <time>2019-04-24T08:03:01.392Z</time>
      </trkpt>
      <trkpt lat="41.9965233" lon="-8.87961521">
        <time>2019-04-24T08:03:01.476Z</time>
      </trkpt>
      <trkpt lat="41.9966292" lon="-8.8795417">
        <time>2019-04-24T08:03:01.715Z</time>
      </trkpt>
      <trkpt lat="41.9966438" lon="-8.87953039">
        <time>2019-04-24T08:03:01.749Z</time>
      </trkpt>
      <trkpt lat="41.9967774" lon="-8.87943006">
        <time>2019-04-24T08:03:02.056Z</time>
      </trkpt>
      <trkpt lat="41.9971505" lon="-8.87918095">
        <time>2019-04-24T08:03:02.891Z</time>
      </trkpt>
      <trkpt lat="41.9975512" lon="-8.8790294">
        <time>2019-04-24T08:03:03.725Z</time>
      </trkpt>
      <trkpt lat="41.9980709" lon="-8.87887895">
        <time>2019-04-24T08:03:04.790Z</time>
      </trkpt>
      <trkpt lat="41.9984481" lon="-8.87854442">
        <time>2019-04-24T08:03:05.695Z</time>
      </trkpt>
      <trkpt lat="41.9990708" lon="-8.8781887">
        <time>2019-04-24T08:03:07.051Z</time>
      </trkpt>
      <trkpt lat="41.9996639" lon="-8.87792668">
        <time>2019-04-24T08:03:08.302Z</time>
      </trkpt>
      <trkpt lat="41.9999306" lon="-8.87772317">
        <time>2019-04-24T08:03:08.916Z</time>
      </trkpt>
      <trkpt lat="42.0001467" lon="-8.87736492">
        <time>2019-04-24T08:03:09.603Z</time>
      </trkpt>
      <trkpt lat="42.0005885" lon="-8.87736995">
        <time>2019-04-24T08:03:10.488Z</time>
      </trkpt>
      <trkpt lat="42.0009108" lon="-8.87718664">
        <time>2019-04-24T08:03:11.189Z</time>
      </trkpt>
      <trkpt lat="42.0011024" lon="-8.87713576">
        <time>2019-04-24T08:03:11.580Z</time>
      </trkpt>
      <trkpt lat="42.0013052" lon="-8.87702344">
        <time>2019-04-24T08:03:12.019Z</time>
      </trkpt>
      <trkpt lat="42.0013266" lon="-8.87699587">
        <time>2019-04-24T08:03:12.078Z</time>
      </trkpt>
      <trkpt lat="42.0014864" lon="-8.87689738">
        <time>2019-04-24T08:03:12.430Z</time>
      </trkpt>
      <trkpt lat="42.0016939" lon="-8.87688917">
        <time>2019-04-24T08:03:12.846Z</time>
      </trkpt>
      <trkpt lat="42.0017155" lon="-8.87690124">
        <time>2019-04-24T08:03:12.893Z</time>
      </trkpt>
      <trkpt lat="42.0017224" lon="-8.87691901">
        <time>2019-04-24T08:03:12.923Z</time>
      </trkpt>
      <trkpt lat="42.001712" lon="-8.87692328">
        <time>2019-04-24T08:03:12.945Z</time>
      </trkpt>
      <trkpt lat="42.0017071" lon="-8.87691624">
        <time>2019-04-24T08:03:12.959Z</time>
      </trkpt>
      <trkpt lat="42.0017049" lon="-8.87691423">
        <time>2019-04-24T08:03:12.964Z</time>
      </trkpt>
      <trkpt lat="42.001703" lon="-8.87692403">
        <time>2019-04-24T08:03:12.979Z</time>
      </trkpt>
      <trkpt lat="42.0017028" lon="-8.8769159">
        <time>2019-04-24T08:03:12.991Z</time>
      </trkpt>
      <trkpt lat="42.0016986" lon="-8.87691289">
        <time>2019-04-24T08:03:13.001Z</time>
      </trkpt>
      <trkpt lat="42.001711" lon="-8.87690132">
        <time>2019-04-24T08:03:13.031Z</time>
      </trkpt>
      <trkpt lat="42.0017469" lon="-8.87693225">
        <time>2019-04-24T08:03:13.116Z</time>
      </trkpt>
      <trkpt lat="42.0017575" lon="-8.87695069">
        <time>2019-04-24T08:03:13.151Z</time>
      </trkpt>
      <trkpt lat="42.0017653" lon="-8.87695153">
        <time>2019-04-24T08:03:13.167Z</time>
      </trkpt>
      <trkpt lat="42.0017456" lon="-8.87692454">
        <time>2019-04-24T08:03:13.223Z</time>
      </trkpt>
      <trkpt lat="42.0017423" lon="-8.8769273">
        <time>2019-04-24T08:03:13.231Z</time>
      </trkpt>
      <trkpt lat="42.0017486" lon="-8.87692898">
        <time>2019-04-24T08:03:13.244Z</time>
      </trkpt>
      <trkpt lat="42.0018923" lon="-8.87679814">
        <time>2019-04-24T08:03:13.592Z</time>
      </trkpt>
      <trkpt lat="42.0021741" lon="-8.87661298">
        <time>2019-04-24T08:03:14.220Z</time>
      </trkpt>
      <trkpt lat="42.0025384" lon="-8.87661457">
        <time>2019-04-24T08:03:14.950Z</time>
      </trkpt>
      <trkpt lat="42.0028334" lon="-8.8767217">
        <time>2019-04-24T08:03:15.562Z</time>
      </trkpt>
      <trkpt lat="42.0034491" lon="-8.87721447">
        <time>2019-04-24T08:03:16.998Z</time>
      </trkpt>
      <trkpt lat="42.0035024" lon="-8.87726769">
        <time>2019-04-24T08:03:17.131Z</time>
      </trkpt>
      <trkpt lat="42.0037738" lon="-8.87756492">
        <time>2019-04-24T08:03:17.832Z</time>
      </trkpt>
      <trkpt lat="42.0039438" lon="-8.87785862">
        <time>2019-04-24T08:03:18.386Z</time>
      </trkpt>
      <trkpt lat="42.003993" lon="-8.87794612">
        <time>2019-04-24T08:03:18.549Z</time>
      </trkpt>
      <trkpt lat="42.0041277" lon="-8.87826405">
        <time>2019-04-24T08:03:19.094Z</time>
      </trkpt>
      <trkpt lat="42.0043292" lon="-8.87869614">
        <time>2019-04-24T08:03:19.854Z</time>
      </trkpt>
      <trkpt lat="42.0045197" lon="-8.8794288">
        <time>2019-04-24T08:03:21.010Z</time>
      </trkpt>
      <trkpt lat="42.0045958" lon="-8.87958864">
        <time>2019-04-24T08:03:21.293Z</time>
      </trkpt>
      <trkpt lat="42.0047621" lon="-8.8797795">
        <time>2019-04-24T08:03:21.731Z</time>
      </trkpt>
      <trkpt lat="42.0048792" lon="-8.87982786">
        <time>2019-04-24T08:03:21.976Z</time>
      </trkpt>
      <trkpt lat="42.0051753" lon="-8.87998469">
        <time>2019-04-24T08:03:22.614Z</time>
      </trkpt>
      <trkpt lat="42.005396" lon="-8.88003548">
        <time>2019-04-24T08:03:23.063Z</time>
      </trkpt>
      <trkpt lat="42.0054813" lon="-8.88007261">
        <time>2019-04-24T08:03:23.243Z</time>
      </trkpt>
      <trkpt lat="42.005699" lon="-8.88018962">
        <time>2019-04-24T08:03:23.713Z</time>
      </trkpt>
      <trkpt lat="42.0063129" lon="-8.88056463">
        <time>2019-04-24T08:03:25.064Z</time>
      </trkpt>
      <trkpt lat="42.0068184" lon="-8.88085347">
        <time>2019-04-24T08:03:26.165Z</time>
      </trkpt>
      <trkpt lat="42.0070614" lon="-8.88095539">
        <time>2019-04-24T08:03:26.675Z</time>
      </trkpt>
      <trkpt lat="42.00765" lon="-8.88114977">
        <time>2019-04-24T08:03:27.890Z</time>
      </trkpt>
      <trkpt lat="42.0077467" lon="-8.88126192">
        <time>2019-04-24T08:03:28.146Z</time>
      </trkpt>
      <trkpt lat="42.0078976" lon="-8.88139159">
        <time>2019-04-24T08:03:28.505Z</time>
      </trkpt>
      <trkpt lat="42.0086696" lon="-8.88174782">
        <time>2019-04-24T08:03:30.140Z</time>
      </trkpt>
      <trkpt lat="42.0087192" lon="-8.88178093">
        <time>2019-04-24T08:03:30.251Z</time>
      </trkpt>
      <trkpt lat="42.0094421" lon="-8.88206206">
        <time>2019-04-24T08:03:31.759Z</time>
      </trkpt>
      <trkpt lat="42.0096841" lon="-8.88213775">
        <time>2019-04-24T08:03:32.257Z</time>
      </trkpt>
      <trkpt lat="42.0098449" lon="-8.88214638">
        <time>2019-04-24T08:03:32.579Z</time>
      </trkpt>
      <trkpt lat="42.0102871" lon="-8.88208536">
        <time>2019-04-24T08:03:33.470Z</time>
      </trkpt>
      <trkpt lat="42.0109409" lon="-8.88207874">
        <time>2019-04-24T08:03:34.780Z</time>
      </trkpt>
      <trkpt lat="42.0112243" lon="-8.88205083">
        <time>2019-04-24T08:03:35.349Z</time>
      </trkpt>
      <trkpt lat="42.0115974" lon="-8.88173952">
        <time>2019-04-24T08:03:36.229Z</time>
      </trkpt>
      <trkpt lat="42.0117991" lon="-8.88171932">
        <time>2019-04-24T08:03:36.634Z</time>
      </trkpt>
      <trkpt lat="42.0122163" lon="-8.88196399">
        <time>2019-04-24T08:03:37.546Z</time>
      </trkpt>
      <trkpt lat="42.0123571" lon="-8.88198268">
        <time>2019-04-24T08:03:37.830Z</time>
      </trkpt>
      <trkpt lat="42.012617" lon="-8.88204337">
        <time>2019-04-24T08:03:38.359Z</time>
      </trkpt>
      <trkpt lat="42.0128328" lon="-8.88205175">
        <time>2019-04-24T08:03:38.792Z</time>
      </trkpt>
      <trkpt lat="42.0134528" lon="-8.88222827">
        <time>2019-04-24T08:03:40.062Z</time>
      </trkpt>
      <trkpt lat="42.0136558" lon="-8.8824146">
        <time>2019-04-24T08:03:40.554Z</time>
      </trkpt>
      <trkpt lat="42.0137991" lon="-8.88272808">
        <time>2019-04-24T08:03:41.102Z</time>
      </trkpt>
      <trkpt lat="42.01394" lon="-8.88286798">
        <time>2019-04-24T08:03:41.453Z</time>
      </trkpt>
      <trkpt lat="42.0143261" lon="-8.88305506">
        <time>2019-04-24T08:03:42.275Z</time>
      </trkpt>
      <trkpt lat="42.0145526" lon="-8.88327827">
        <time>2019-04-24T08:03:42.838Z</time>
      </trkpt>
      <trkpt lat="42.0148354" lon="-8.88354306">
        <time>2019-04-24T08:03:43.528Z</time>
      </trkpt>
      <trkpt lat="42.0150151" lon="-8.88356686">
        <time>2019-04-24T08:03:43.890Z</time>
      </trkpt>
      <trkpt lat="42.0153982" lon="-8.88372863">
        <time>2019-04-24T08:03:44.695Z</time>
      </trkpt>
      <trkpt lat="42.0155488" lon="-8.88377121">
        <time>2019-04-24T08:03:45.003Z</time>
      </trkpt>
      <trkpt lat="42.0162556" lon="-8.88377054">
        <time>2019-04-24T08:03:46.419Z</time>
      </trkpt>
      <trkpt lat="42.0167422" lon="-8.88399836">
        <time>2019-04-24T08:03:47.451Z</time>
      </trkpt>
      <trkpt lat="42.0176019" lon="-8.88393055">
        <time>2019-04-24T08:03:49.177Z</time>
      </trkpt>
      <trkpt lat="42.0179099" lon="-8.88393667">
        <time>2019-04-24T08:03:49.794Z</time>
      </trkpt>
      <trkpt lat="42.0184346" lon="-8.88381664">
        <time>2019-04-24T08:03:50.861Z</time>
      </trkpt>
      <trkpt lat="42.0193109" lon="-8.8839158">
        <time>2019-04-24T08:03:52.623Z</time>
      </trkpt>
      <trkpt lat="42.019475" lon="-8.8839277">
        <time>2019-04-24T08:03:52.952Z</time>
      </trkpt>
      <trkpt lat="42.0198116" lon="-8.88383491">
        <time>2019-04-24T08:03:53.641Z</time>
      </trkpt>
      <trkpt lat="42.0204219" lon="-8.88381639">
        <time>2019-04-24T08:03:54.864Z</time>
      </trkpt>
      <trkpt lat="42.0210223" lon="-8.88385361">
        <time>2019-04-24T08:03:56.068Z</time>
      </trkpt>
      <trkpt lat="42.0213758" lon="-8.88401596">
        <time>2019-04-24T08:03:56.816Z</time>
      </trkpt>
      <trkpt lat="42.0214763" lon="-8.884022">
        <time>2019-04-24T08:03:57.018Z</time>
      </trkpt>
      <trkpt lat="42.021729" lon="-8.88403465">
        <time>2019-04-24T08:03:57.525Z</time>
      </trkpt>
      <trkpt lat="42.0224609" lon="-8.88427396">
        <time>2019-04-24T08:03:59.034Z</time>
      </trkpt>
      <trkpt lat="42.0230287" lon="-8.88424982">
        <time>2019-04-24T08:04:00.172Z</time>
      </trkpt>
      <trkpt lat="42.0237923" lon="-8.88407506">
        <time>2019-04-24T08:04:01.724Z</time>
      </trkpt>
      <trkpt lat="42.0244319" lon="-8.88408394">
        <time>2019-04-24T08:04:03.006Z</time>
      </trkpt>
      <trkpt lat="42.0249774" lon="-8.88409777">
        <time>2019-04-24T08:04:04.099Z</time>
      </trkpt>
      <trkpt lat="42.0253043" lon="-8.88423398">
        <time>2019-04-24T08:04:04.785Z</time>
      </trkpt>
      <trkpt lat="42.0254426" lon="-8.88426298">
        <time>2019-04-24T08:04:05.065Z</time>
      </trkpt>
      <trkpt lat="42.02566" lon="-8.88434059">
        <time>2019-04-24T08:04:05.516Z</time>
      </trkpt>
      <trkpt lat="42.0260383" lon="-8.88471778">
        <time>2019-04-24T08:04:06.459Z</time>
      </trkpt>
      <trkpt lat="42.0262085" lon="-8.88479674">
        <time>2019-04-24T08:04:06.820Z</time>
      </trkpt>
      <trkpt lat="42.0270386" lon="-8.88471535">
        <time>2019-04-24T08:04:08.488Z</time>
      </trkpt>
      <trkpt lat="42.0279223" lon="-8.88433238">
        <time>2019-04-24T08:04:10.348Z</time>
      </trkpt>
      <trkpt lat="42.0289646" lon="-8.88387171">
        <time>2019-04-24T08:04:12.546Z</time>
      </trkpt>
      <trkpt lat="42.030204" lon="-8.88333703">
        <time>2019-04-24T08:04:15.154Z</time>
      </trkpt>
      <trkpt lat="42.0306403" lon="-8.88313804">
        <time>2019-04-24T08:04:16.077Z</time>
      </trkpt>
      <trkpt lat="42.0315998" lon="-8.88272155">
        <time>2019-04-24T08:04:18.097Z</time>
      </trkpt>
      <trkpt lat="42.0326339" lon="-8.882283">
        <time>2019-04-24T08:04:20.270Z</time>
      </trkpt>
      <trkpt lat="42.033351" lon="-8.88203892">
        <time>2019-04-24T08:04:21.752Z</time>
      </trkpt>
      <trkpt lat="42.0337987" lon="-8.88194731">
        <time>2019-04-24T08:04:22.659Z</time>
      </trkpt>
      <trkpt lat="42.0338837" lon="-8.88180314">
        <time>2019-04-24T08:04:22.933Z</time>
      </trkpt>
      <trkpt lat="42.0339098" lon="-8.88169954">
        <time>2019-04-24T08:04:23.096Z</time>
      </trkpt>
      <trkpt lat="42.0340134" lon="-8.88163324">
        <time>2019-04-24T08:04:23.326Z</time>
      </trkpt>
      <trkpt lat="42.0344035" lon="-8.88136636">
        <time>2019-04-24T08:04:24.203Z</time>
      </trkpt>
      <trkpt lat="42.0346525" lon="-8.88090494">
        <time>2019-04-24T08:04:25.052Z</time>
      </trkpt>
      <trkpt lat="42.0349315" lon="-8.88066672">
        <time>2019-04-24T08:04:25.714Z</time>
      </trkpt>
      <trkpt lat="42.0350952" lon="-8.88062213">
        <time>2019-04-24T08:04:26.049Z</time>
      </trkpt>
      <trkpt lat="42.0353076" lon="-8.88052565">
        <time>2019-04-24T08:04:26.498Z</time>
      </trkpt>
      <trkpt lat="42.0355275" lon="-8.8803674">
        <time>2019-04-24T08:04:26.998Z</time>
      </trkpt>
      <trkpt lat="42.0356205" lon="-8.88031217">
        <time>2019-04-24T08:04:27.202Z</time>
      </trkpt>
      <trkpt lat="42.0361169" lon="-8.88014964">
        <time>2019-04-24T08:04:28.226Z</time>
      </trkpt>
      <trkpt lat="42.0361612" lon="-8.88014562">
        <time>2019-04-24T08:04:28.315Z</time>
      </trkpt>
      <trkpt lat="42.0365819" lon="-8.87997379">
        <time>2019-04-24T08:04:29.196Z</time>
      </trkpt>
      <trkpt lat="42.0370048" lon="-8.87984421">
        <time>2019-04-24T08:04:30.065Z</time>
      </trkpt>
      <trkpt lat="42.0372235" lon="-8.87978419">
        <time>2019-04-24T08:04:30.512Z</time>
      </trkpt>
      <trkpt lat="42.0374688" lon="-8.87975234">
        <time>2019-04-24T08:04:31.006Z</time>
      </trkpt>
      <trkpt lat="42.0375837" lon="-8.87973164">
        <time>2019-04-24T08:04:31.238Z</time>
      </trkpt>
      <trkpt lat="42.037868" lon="-8.87979744">
        <time>2019-04-24T08:04:31.816Z</time>
      </trkpt>
      <trkpt lat="42.0380137" lon="-8.88010941">
        <time>2019-04-24T08:04:32.364Z</time>
      </trkpt>
      <trkpt lat="42.0382392" lon="-8.88028635">
        <time>2019-04-24T08:04:32.887Z</time>
      </trkpt>
      <trkpt lat="42.038527" lon="-8.88051291">
        <time>2019-04-24T08:04:33.555Z</time>
      </trkpt>
      <trkpt lat="42.0386451" lon="-8.88056849">
        <time>2019-04-24T08:04:33.806Z</time>
      </trkpt>
      <trkpt lat="42.0388174" lon="-8.8804379">
        <time>2019-04-24T08:04:34.202Z</time>
      </trkpt>
      <trkpt lat="42.0388203" lon="-8.88043362">
        <time>2019-04-24T08:04:34.211Z</time>
      </trkpt>
      <trkpt lat="42.0387938" lon="-8.88042641">
        <time>2019-04-24T08:04:34.265Z</time>
      </trkpt>
      <trkpt lat="42.0387003" lon="-8.88053613">
        <time>2019-04-24T08:04:34.514Z</time>
      </trkpt>
      <trkpt lat="42.0386334" lon="-8.88059657">
        <time>2019-04-24T08:04:34.675Z</time>
      </trkpt>
      <trkpt lat="42.0386809" lon="-8.88058391">
        <time>2019-04-24T08:04:34.772Z</time>
      </trkpt>
      <trkpt lat="42.0387979" lon="-8.8804534">
        <time>2019-04-24T08:04:35.076Z</time>
      </trkpt>
      <trkpt lat="42.0389041" lon="-8.88004671">
        <time>2019-04-24T08:04:35.718Z</time>
      </trkpt>
      <trkpt lat="42.0391015" lon="-8.87969501">
        <time>2019-04-24T08:04:36.374Z</time>
      </trkpt>
      <trkpt lat="42.0393265" lon="-8.87955528">
        <time>2019-04-24T08:04:36.871Z</time>
      </trkpt>
      <trkpt lat="42.0396719" lon="-8.87913811">
        <time>2019-04-24T08:04:37.801Z</time>
      </trkpt>
      <trkpt lat="42.0398775" lon="-8.879047">
        <time>2019-04-24T08:04:38.235Z</time>
      </trkpt>
      <trkpt lat="42.0399721" lon="-8.87904399">
        <time>2019-04-24T08:04:38.425Z</time>
      </trkpt>
      <trkpt lat="42.0405375" lon="-8.87883896">
        <time>2019-04-24T08:04:39.598Z</time>
      </trkpt>
      <trkpt lat="42.0410373" lon="-8.8787336">
        <time>2019-04-24T08:04:40.612Z</time>
      </trkpt>
      <trkpt lat="42.0413191" lon="-8.87842666">
        <time>2019-04-24T08:04:41.338Z</time>
      </trkpt>
      <trkpt lat="42.0413908" lon="-8.87832348">
        <time>2019-04-24T08:04:41.548Z</time>
      </trkpt>
      <trkpt lat="42.0414695" lon="-8.87805744">
        <time>2019-04-24T08:04:41.974Z</time>
      </trkpt>
      <trkpt lat="42.0415328" lon="-8.87791561">
        <time>2019-04-24T08:04:42.220Z</time>
      </trkpt>
      <trkpt lat="42.0419958" lon="-8.8780825">
        <time>2019-04-24T08:04:43.180Z</time>
      </trkpt>
      <trkpt lat="42.0425991" lon="-8.87847058">
        <time>2019-04-24T08:04:44.520Z</time>
      </trkpt>
      <trkpt lat="42.0429263" lon="-8.87857804">
        <time>2019-04-24T08:04:45.195Z</time>
      </trkpt>
      <trkpt lat="42.0436635" lon="-8.87889035">
        <time>2019-04-24T08:04:46.744Z</time>
      </trkpt>
      <trkpt lat="42.0439071" lon="-8.8791014">
        <time>2019-04-24T08:04:47.324Z</time>
      </trkpt>
      <trkpt lat="42.044508" lon="-8.87968478">
        <time>2019-04-24T08:04:48.808Z</time>
      </trkpt>
      <trkpt lat="42.0447996" lon="-8.87994018">
        <time>2019-04-24T08:04:49.505Z</time>
      </trkpt>
      <trkpt lat="42.0449142" lon="-8.88032055">
        <time>2019-04-24T08:04:50.116Z</time>
      </trkpt>
      <trkpt lat="42.0452178" lon="-8.88056673">
        <time>2019-04-24T08:04:50.826Z</time>
      </trkpt>
      <trkpt lat="42.0452311" lon="-8.88064065">
        <time>2019-04-24T08:04:50.939Z</time>
      </trkpt>
      <trkpt lat="42.0451922" lon="-8.88064795">
        <time>2019-04-24T08:04:51.018Z</time>
      </trkpt>
      <trkpt lat="42.0451831" lon="-8.88068391">
        <time>2019-04-24T08:04:51.075Z</time>
      </trkpt>
      <trkpt lat="42.0454609" lon="-8.88048525">
        <time>2019-04-24T08:04:51.705Z</time>
      </trkpt>
      <trkpt lat="42.0455529" lon="-8.88049146">
        <time>2019-04-24T08:04:51.890Z</time>
      </trkpt>
      <trkpt lat="42.0455377" lon="-8.88078239">
        <time>2019-04-24T08:04:52.324Z</time>
      </trkpt>
      <trkpt lat="42.0455442" lon="-8.8813221">
        <time>2019-04-24T08:04:53.127Z</time>
      </trkpt>
      <trkpt lat="42.0455634" lon="-8.88186844">
        <time>2019-04-24T08:04:53.941Z</time>
      </trkpt>
      <trkpt lat="42.0456316" lon="-8.88252415">
        <time>2019-04-24T08:04:54.926Z</time>
      </trkpt>
      <trkpt lat="42.0457186" lon="-8.88299547">
        <time>2019-04-24T08:04:55.649Z</time>
      </trkpt>
      <trkpt lat="42.0457241" lon="-8.88311793">
        <time>2019-04-24T08:04:55.832Z</time>
      </trkpt>
      <trkpt lat="42.0458553" lon="-8.88319512">
        <time>2019-04-24T08:04:56.119Z</time>
      </trkpt>
      <trkpt lat="42.0461526" lon="-8.88326117">
        <time>2019-04-24T08:04:56.723Z</time>
      </trkpt>
      <trkpt lat="42.046495" lon="-8.88324692">
        <time>2019-04-24T08:04:57.409Z</time>
      </trkpt>
      <trkpt lat="42.0469656" lon="-8.88318381">
        <time>2019-04-24T08:04:58.357Z</time>
      </trkpt>
      <trkpt lat="42.0476217" lon="-8.88339553">
        <time>2019-04-24T08:04:59.709Z</time>
      </trkpt>
      <trkpt lat="42.0481438" lon="-8.88372645">
        <time>2019-04-24T08:05:00.865Z</time>
      </trkpt>
      <trkpt lat="42.0484469" lon="-8.88409945">
        <time>2019-04-24T08:05:01.688Z</time>
      </trkpt>
      <trkpt lat="42.0488166" lon="-8.88425024">
        <time>2019-04-24T08:05:02.462Z</time>
      </trkpt>
      <trkpt lat="42.0492133" lon="-8.8844628">
        <time>2019-04-24T08:05:03.318Z</time>
      </trkpt>
      <trkpt lat="42.0497861" lon="-8.8846384">
        <time>2019-04-24T08:05:04.495Z</time>
      </trkpt>
      <trkpt lat="42.0502133" lon="-8.88473815">
        <time>2019-04-24T08:05:05.364Z</time>
      </trkpt>
      <trkpt lat="42.0503803" lon="-8.88460529">
        <time>2019-04-24T08:05:05.753Z</time>
      </trkpt>
      <trkpt lat="42.0504252" lon="-8.88450119">
        <time>2019-04-24T08:05:05.932Z</time>
      </trkpt>
      <trkpt lat="42.0505256" lon="-8.88453765">
        <time>2019-04-24T08:05:06.140Z</time>
      </trkpt>
      <trkpt lat="42.0509845" lon="-8.88463463">
        <time>2019-04-24T08:05:07.071Z</time>
      </trkpt>
      <trkpt lat="42.0514477" lon="-8.88472616">
        <time>2019-04-24T08:05:08.009Z</time>
      </trkpt>
      <trkpt lat="42.0514835" lon="-8.88473848">
        <time>2019-04-24T08:05:08.083Z</time>
      </trkpt>
      <trkpt lat="42.0517643" lon="-8.88559821">
        <time>2019-04-24T08:05:09.481Z</time>
      </trkpt>
      <trkpt lat="42.0520176" lon="-8.8869021">
        <time>2019-04-24T08:05:11.486Z</time>
      </trkpt>
      <trkpt lat="42.0521607" lon="-8.88720234">
        <time>2019-04-24T08:05:12.017Z</time>
      </trkpt>
      <trkpt lat="42.0523137" lon="-8.88736847">
        <time>2019-04-24T08:05:12.411Z</time>
      </trkpt>
      <trkpt lat="42.0526440543547" lon="-8.887713672302796">
        <time>2019-04-24T08:05:13.249Z</time>
      </trkpt>
      <trkpt lat="42.0526441" lon="-8.88771372">
        <time>2019-04-24T08:05:13.249Z</time>
      </trkpt>
      <trkpt lat="42.0530581" lon="-8.88814908">
        <time>2019-04-24T08:05:14.302Z</time>
      </trkpt>
      <trkpt lat="42.0535679" lon="-8.88867865">
        <time>2019-04-24T08:05:15.592Z</time>
      </trkpt>
      <trkpt lat="42.0538606" lon="-8.88882173">
        <time>2019-04-24T08:05:16.216Z</time>
      </trkpt>
      <trkpt lat="42.0538898" lon="-8.88885291">
        <time>2019-04-24T08:05:16.291Z</time>
      </trkpt>
      <trkpt lat="42.0538917" lon="-8.88884495">
        <time>2019-04-24T08:05:16.303Z</time>
      </trkpt>
      <trkpt lat="42.0539134" lon="-8.88886313">
        <time>2019-04-24T08:05:16.354Z</time>
      </trkpt>
      <trkpt lat="42.0539398" lon="-8.88897671">
        <time>2019-04-24T08:05:16.531Z</time>
      </trkpt>
      <trkpt lat="42.0539404" lon="-8.88897679">
        <time>2019-04-24T08:05:16.533Z</time>
      </trkpt>
      <trkpt lat="42.0539406" lon="-8.88896799">
        <time>2019-04-24T08:05:16.546Z</time>
      </trkpt>
      <trkpt lat="42.0538996" lon="-8.88893161">
        <time>2019-04-24T08:05:16.644Z</time>
      </trkpt>
      <trkpt lat="42.0539125" lon="-8.88887244">
        <time>2019-04-24T08:05:16.736Z</time>
      </trkpt>
      <trkpt lat="42.0539125" lon="-8.888868">
        <time>2019-04-24T08:05:16.743Z</time>
      </trkpt>
      <trkpt lat="42.0539064" lon="-8.88883455">
        <time>2019-04-24T08:05:16.794Z</time>
      </trkpt>
      <trkpt lat="42.0538891" lon="-8.88884453">
        <time>2019-04-24T08:05:16.832Z</time>
      </trkpt>
      <trkpt lat="42.0538926" lon="-8.88884369">
        <time>2019-04-24T08:05:16.839Z</time>
      </trkpt>
      <trkpt lat="42.0539023" lon="-8.88883598">
        <time>2019-04-24T08:05:16.862Z</time>
      </trkpt>
      <trkpt lat="42.0541628" lon="-8.88867328">
        <time>2019-04-24T08:05:17.437Z</time>
      </trkpt>
      <trkpt lat="42.0547207" lon="-8.88825067">
        <time>2019-04-24T08:05:18.720Z</time>
      </trkpt>
      <trkpt lat="42.0549257" lon="-8.8881246">
        <time>2019-04-24T08:05:19.172Z</time>
      </trkpt>
      <trkpt lat="42.0551195" lon="-8.88806752">
        <time>2019-04-24T08:05:19.570Z</time>
      </trkpt>
      <trkpt lat="42.0556669" lon="-8.88820071">
        <time>2019-04-24T08:05:20.685Z</time>
      </trkpt>
      <trkpt lat="42.0563689" lon="-8.88849844">
        <time>2019-04-24T08:05:22.160Z</time>
      </trkpt>
      <trkpt lat="42.057285" lon="-8.88886255">
        <time>2019-04-24T08:05:24.074Z</time>
      </trkpt>
      <trkpt lat="42.0583521" lon="-8.88935188">
        <time>2019-04-24T08:05:26.333Z</time>
      </trkpt>
      <trkpt lat="42.0591743" lon="-8.8896657">
        <time>2019-04-24T08:05:28.046Z</time>
      </trkpt>
      <trkpt lat="42.059228" lon="-8.8896802">
        <time>2019-04-24T08:05:28.156Z</time>
      </trkpt>
      <trkpt lat="42.0598923" lon="-8.88987206">
        <time>2019-04-24T08:05:29.517Z</time>
      </trkpt>
      <trkpt lat="42.060364" lon="-8.89007373">
        <time>2019-04-24T08:05:30.509Z</time>
      </trkpt>
      <trkpt lat="42.0611076" lon="-8.89036417">
        <time>2019-04-24T08:05:32.061Z</time>
      </trkpt>
      <trkpt lat="42.0615511" lon="-8.89052049">
        <time>2019-04-24T08:05:32.980Z</time>
      </trkpt>
      <trkpt lat="42.0624104" lon="-8.89090597">
        <time>2019-04-24T08:05:34.795Z</time>
      </trkpt>
      <trkpt lat="42.0632014" lon="-8.89123354">
        <time>2019-04-24T08:05:36.453Z</time>
      </trkpt>
      <trkpt lat="42.0639569" lon="-8.89155867">
        <time>2019-04-24T08:05:38.042Z</time>
      </trkpt>
      <trkpt lat="42.0649707" lon="-8.89199922">
        <time>2019-04-24T08:05:40.177Z</time>
      </trkpt>
      <trkpt lat="42.0657411" lon="-8.8923034">
        <time>2019-04-24T08:05:41.786Z</time>
      </trkpt>
      <trkpt lat="42.0662719" lon="-8.89252049">
        <time>2019-04-24T08:05:42.898Z</time>
      </trkpt>
      <trkpt lat="42.0676072" lon="-8.89304964">
        <time>2019-04-24T08:05:45.687Z</time>
      </trkpt>
      <trkpt lat="42.0684996" lon="-8.8930934">
        <time>2019-04-24T08:05:47.476Z</time>
      </trkpt>
      <trkpt lat="42.0694431" lon="-8.89290053">
        <time>2019-04-24T08:05:49.388Z</time>
      </trkpt>
      <trkpt lat="42.0696418" lon="-8.89292417">
        <time>2019-04-24T08:05:49.788Z</time>
      </trkpt>
      <trkpt lat="42.0698372" lon="-8.89297144">
        <time>2019-04-24T08:05:50.186Z</time>
      </trkpt>
      <trkpt lat="42.070181" lon="-8.89298661">
        <time>2019-04-24T08:05:50.875Z</time>
      </trkpt>
      <trkpt lat="42.0704975" lon="-8.89278586">
        <time>2019-04-24T08:05:51.576Z</time>
      </trkpt>
      <trkpt lat="42.0706298" lon="-8.89268008">
        <time>2019-04-24T08:05:51.884Z</time>
      </trkpt>
      <trkpt lat="42.0710278" lon="-8.89259912">
        <time>2019-04-24T08:05:52.691Z</time>
      </trkpt>
      <trkpt lat="42.0719561" lon="-8.8924474">
        <time>2019-04-24T08:05:54.565Z</time>
      </trkpt>
      <trkpt lat="42.0733435" lon="-8.89254857">
        <time>2019-04-24T08:05:57.349Z</time>
      </trkpt>
      <trkpt lat="42.0746428" lon="-8.89265242">
        <time>2019-04-24T08:05:59.957Z</time>
      </trkpt>
      <trkpt lat="42.0756321" lon="-8.89280196">
        <time>2019-04-24T08:06:01.952Z</time>
      </trkpt>
      <trkpt lat="42.0767368" lon="-8.89313858">
        <time>2019-04-24T08:06:04.222Z</time>
      </trkpt>
      <trkpt lat="42.0774705" lon="-8.89360084">
        <time>2019-04-24T08:06:05.845Z</time>
      </trkpt>
      <trkpt lat="42.078202" lon="-8.89366337">
        <time>2019-04-24T08:06:07.314Z</time>
      </trkpt>
      <trkpt lat="42.0787461" lon="-8.89334125">
        <time>2019-04-24T08:06:08.505Z</time>
      </trkpt>
      <trkpt lat="42.0791446" lon="-8.8929566">
        <time>2019-04-24T08:06:09.487Z</time>
      </trkpt>
      <trkpt lat="42.0798194" lon="-8.89222042">
        <time>2019-04-24T08:06:11.227Z</time>
      </trkpt>
      <trkpt lat="42.0803972" lon="-8.89131375">
        <time>2019-04-24T08:06:13.004Z</time>
      </trkpt>
      <trkpt lat="42.0807951" lon="-8.8908742">
        <time>2019-04-24T08:06:14.035Z</time>
      </trkpt>
      <trkpt lat="42.0812786" lon="-8.89050448">
        <time>2019-04-24T08:06:15.149Z</time>
      </trkpt>
      <trkpt lat="42.0818249" lon="-8.89012394">
        <time>2019-04-24T08:06:16.381Z</time>
      </trkpt>
      <trkpt lat="42.0825406" lon="-8.88996401">
        <time>2019-04-24T08:06:17.835Z</time>
      </trkpt>
      <trkpt lat="42.0831367" lon="-8.89014665">
        <time>2019-04-24T08:06:19.060Z</time>
      </trkpt>
      <trkpt lat="42.0834804" lon="-8.89037305">
        <time>2019-04-24T08:06:19.827Z</time>
      </trkpt>
      <trkpt lat="42.083719" lon="-8.89045251">
        <time>2019-04-24T08:06:20.320Z</time>
      </trkpt>
      <trkpt lat="42.0838752" lon="-8.89055745">
        <time>2019-04-24T08:06:20.670Z</time>
      </trkpt>
      <trkpt lat="42.0840409" lon="-8.89046299">
        <time>2019-04-24T08:06:21.031Z</time>
      </trkpt>
      <trkpt lat="42.0840382" lon="-8.8904681">
        <time>2019-04-24T08:06:21.041Z</time>
      </trkpt>
      <trkpt lat="42.0842914" lon="-8.89054647">
        <time>2019-04-24T08:06:21.562Z</time>
      </trkpt>
      <trkpt lat="42.0850075" lon="-8.89074814">
        <time>2019-04-24T08:06:23.028Z</time>
      </trkpt>
      <trkpt lat="42.085785" lon="-8.89101075">
        <time>2019-04-24T08:06:24.634Z</time>
      </trkpt>
      <trkpt lat="42.0864871" lon="-8.89117134">
        <time>2019-04-24T08:06:26.061Z</time>
      </trkpt>
      <trkpt lat="42.0871108" lon="-8.89112516">
        <time>2019-04-24T08:06:27.313Z</time>
      </trkpt>
      <trkpt lat="42.0877867" lon="-8.89134661">
        <time>2019-04-24T08:06:28.707Z</time>
      </trkpt>
      <trkpt lat="42.0884456" lon="-8.89171684">
        <time>2019-04-24T08:06:30.138Z</time>
      </trkpt>
      <trkpt lat="42.0892511" lon="-8.89218614">
        <time>2019-04-24T08:06:31.897Z</time>
      </trkpt>
      <trkpt lat="42.0898909" lon="-8.89253022">
        <time>2019-04-24T08:06:33.277Z</time>
      </trkpt>
      <trkpt lat="42.0904866" lon="-8.89276231">
        <time>2019-04-24T08:06:34.520Z</time>
      </trkpt>
      <trkpt lat="42.0910003" lon="-8.89296121">
        <time>2019-04-24T08:06:35.591Z</time>
      </trkpt>
      <trkpt lat="42.091159" lon="-8.89301721">
        <time>2019-04-24T08:06:35.920Z</time>
      </trkpt>
      <trkpt lat="42.0915423" lon="-8.89316028">
        <time>2019-04-24T08:06:36.717Z</time>
      </trkpt>
      <trkpt lat="42.0916103" lon="-8.893197">
        <time>2019-04-24T08:06:36.864Z</time>
      </trkpt>
      <trkpt lat="42.0916173" lon="-8.89319607">
        <time>2019-04-24T08:06:36.878Z</time>
      </trkpt>
      <trkpt lat="42.0916861" lon="-8.89320395">
        <time>2019-04-24T08:06:37.016Z</time>
      </trkpt>
      <trkpt lat="42.0917718" lon="-8.89319825">
        <time>2019-04-24T08:06:37.188Z</time>
      </trkpt>
      <trkpt lat="42.091816" lon="-8.89311502">
        <time>2019-04-24T08:06:37.340Z</time>
      </trkpt>
      <trkpt lat="42.092255" lon="-8.89314184">
        <time>2019-04-24T08:06:38.221Z</time>
      </trkpt>
      <trkpt lat="42.0924244" lon="-8.89313698">
        <time>2019-04-24T08:06:38.561Z</time>
      </trkpt>
      <trkpt lat="42.09256" lon="-8.89310278">
        <time>2019-04-24T08:06:38.837Z</time>
      </trkpt>
      <trkpt lat="42.0927763" lon="-8.89301838">
        <time>2019-04-24T08:06:39.288Z</time>
      </trkpt>
      <trkpt lat="42.0928718" lon="-8.89294051">
        <time>2019-04-24T08:06:39.512Z</time>
      </trkpt>
      <trkpt lat="42.0928891" lon="-8.89292526">
        <time>2019-04-24T08:06:39.553Z</time>
      </trkpt>
      <trkpt lat="42.092888" lon="-8.8929048">
        <time>2019-04-24T08:06:39.584Z</time>
      </trkpt>
      <trkpt lat="42.0929084" lon="-8.8928981">
        <time>2019-04-24T08:06:39.626Z</time>
      </trkpt>
      <trkpt lat="42.0931004" lon="-8.89285007">
        <time>2019-04-24T08:06:40.017Z</time>
      </trkpt>
      <trkpt lat="42.0932114" lon="-8.89281344">
        <time>2019-04-24T08:06:40.246Z</time>
      </trkpt>
      <trkpt lat="42.0933565" lon="-8.89273976">
        <time>2019-04-24T08:06:40.557Z</time>
      </trkpt>
      <trkpt lat="42.0934583" lon="-8.89272602">
        <time>2019-04-24T08:06:40.762Z</time>
      </trkpt>
      <trkpt lat="42.093673" lon="-8.89265645">
        <time>2019-04-24T08:06:41.205Z</time>
      </trkpt>
      <trkpt lat="42.093774" lon="-8.89264957">
        <time>2019-04-24T08:06:41.408Z</time>
      </trkpt>
      <trkpt lat="42.0939335" lon="-8.89260339">
        <time>2019-04-24T08:06:41.735Z</time>
      </trkpt>
      <trkpt lat="42.0940657" lon="-8.89255587">
        <time>2019-04-24T08:06:42.009Z</time>
      </trkpt>
      <trkpt lat="42.0941962" lon="-8.89247775">
        <time>2019-04-24T08:06:42.295Z</time>
      </trkpt>
      <trkpt lat="42.0943347" lon="-8.89236073">
        <time>2019-04-24T08:06:42.623Z</time>
      </trkpt>
      <trkpt lat="42.0945555" lon="-8.89215881">
        <time>2019-04-24T08:06:43.158Z</time>
      </trkpt>
      <trkpt lat="42.094599" lon="-8.89208623">
        <time>2019-04-24T08:06:43.297Z</time>
      </trkpt>
      <trkpt lat="42.0946533" lon="-8.89203174">
        <time>2019-04-24T08:06:43.433Z</time>
      </trkpt>
      <trkpt lat="42.0949569" lon="-8.89179504">
        <time>2019-04-24T08:06:44.136Z</time>
      </trkpt>
      <trkpt lat="42.0951132" lon="-8.8917885">
        <time>2019-04-24T08:06:44.449Z</time>
      </trkpt>
      <trkpt lat="42.0953497" lon="-8.89179236">
        <time>2019-04-24T08:06:44.923Z</time>
      </trkpt>
      <trkpt lat="42.0954483" lon="-8.89176998">
        <time>2019-04-24T08:06:45.123Z</time>
      </trkpt>
      <trkpt lat="42.0956875" lon="-8.89159773">
        <time>2019-04-24T08:06:45.666Z</time>
      </trkpt>
      <trkpt lat="42.0958411" lon="-8.89126069">
        <time>2019-04-24T08:06:46.254Z</time>
      </trkpt>
      <trkpt lat="42.095855" lon="-8.89108551">
        <time>2019-04-24T08:06:46.516Z</time>
      </trkpt>
      <trkpt lat="42.0959296" lon="-8.89083716">
        <time>2019-04-24T08:06:46.914Z</time>
      </trkpt>
      <trkpt lat="42.0959559" lon="-8.89076909">
        <time>2019-04-24T08:06:47.028Z</time>
      </trkpt>
      <trkpt lat="42.0961488" lon="-8.89060121">
        <time>2019-04-24T08:06:47.488Z</time>
      </trkpt>
      <trkpt lat="42.0963062" lon="-8.89053264">
        <time>2019-04-24T08:06:47.819Z</time>
      </trkpt>
      <trkpt lat="42.0963597" lon="-8.89050163">
        <time>2019-04-24T08:06:47.936Z</time>
      </trkpt>
      <trkpt lat="42.09657" lon="-8.89033793">
        <time>2019-04-24T08:06:48.423Z</time>
      </trkpt>
      <trkpt lat="42.0966219" lon="-8.89027322">
        <time>2019-04-24T08:06:48.565Z</time>
      </trkpt>
      <trkpt lat="42.0967955" lon="-8.89002101">
        <time>2019-04-24T08:06:49.077Z</time>
      </trkpt>
      <trkpt lat="42.09684" lon="-8.88996552">
        <time>2019-04-24T08:06:49.198Z</time>
      </trkpt>
      <trkpt lat="42.097036" lon="-8.88986427">
        <time>2019-04-24T08:06:49.619Z</time>
      </trkpt>
      <trkpt lat="42.0971512" lon="-8.88987441">
        <time>2019-04-24T08:06:49.850Z</time>
      </trkpt>
      <trkpt lat="42.0974267" lon="-8.89000433">
        <time>2019-04-24T08:06:50.435Z</time>
      </trkpt>
      <trkpt lat="42.0974879" lon="-8.88998597">
        <time>2019-04-24T08:06:50.561Z</time>
      </trkpt>
      <trkpt lat="42.0977092" lon="-8.88998078">
        <time>2019-04-24T08:06:51.005Z</time>
      </trkpt>
      <trkpt lat="42.098013" lon="-8.89001456">
        <time>2019-04-24T08:06:51.616Z</time>
      </trkpt>
      <trkpt lat="42.0981082" lon="-8.89004892">
        <time>2019-04-24T08:06:51.813Z</time>
      </trkpt>
      <trkpt lat="42.0983776" lon="-8.89013618">
        <time>2019-04-24T08:06:52.368Z</time>
      </trkpt>
      <trkpt lat="42.0985411" lon="-8.89011614">
        <time>2019-04-24T08:06:52.697Z</time>
      </trkpt>
      <trkpt lat="42.0988866" lon="-8.89016493">
        <time>2019-04-24T08:06:53.393Z</time>
      </trkpt>
      <trkpt lat="42.0990396" lon="-8.89014481">
        <time>2019-04-24T08:06:53.701Z</time>
      </trkpt>
      <trkpt lat="42.0990439" lon="-8.89014598">
        <time>2019-04-24T08:06:53.710Z</time>
      </trkpt>
      <trkpt lat="42.0990881" lon="-8.89014867">
        <time>2019-04-24T08:06:53.799Z</time>
      </trkpt>
      <trkpt lat="42.0992074" lon="-8.89024405">
        <time>2019-04-24T08:06:54.077Z</time>
      </trkpt>
      <trkpt lat="42.0993307" lon="-8.89025495">
        <time>2019-04-24T08:06:54.325Z</time>
      </trkpt>
      <trkpt lat="42.0995248" lon="-8.89029175">
        <time>2019-04-24T08:06:54.718Z</time>
      </trkpt>
      <trkpt lat="42.0995259" lon="-8.89029133">
        <time>2019-04-24T08:06:54.720Z</time>
      </trkpt>
      <trkpt lat="42.0996016" lon="-8.89030591">
        <time>2019-04-24T08:06:54.873Z</time>
      </trkpt>
      <trkpt lat="42.0996393" lon="-8.89028412">
        <time>2019-04-24T08:06:54.955Z</time>
      </trkpt>
      <trkpt lat="42.099657" lon="-8.89028043">
        <time>2019-04-24T08:06:54.991Z</time>
      </trkpt>
      <trkpt lat="42.0997388" lon="-8.89033072">
        <time>2019-04-24T08:06:55.171Z</time>
      </trkpt>
      <trkpt lat="42.0997594" lon="-8.89037707">
        <time>2019-04-24T08:06:55.251Z</time>
      </trkpt>
      <trkpt lat="42.0997357" lon="-8.89039048">
        <time>2019-04-24T08:06:55.302Z</time>
      </trkpt>
      <trkpt lat="42.0997171" lon="-8.89036894">
        <time>2019-04-24T08:06:55.351Z</time>
      </trkpt>
      <trkpt lat="42.0997356" lon="-8.89035528">
        <time>2019-04-24T08:06:55.393Z</time>
      </trkpt>
      <trkpt lat="42.0997711" lon="-8.89035268">
        <time>2019-04-24T08:06:55.464Z</time>
      </trkpt>
      <trkpt lat="42.099939" lon="-8.89032712">
        <time>2019-04-24T08:06:55.803Z</time>
      </trkpt>
      <trkpt lat="42.1000044" lon="-8.89037565">
        <time>2019-04-24T08:06:55.953Z</time>
      </trkpt>
      <trkpt lat="42.1000075" lon="-8.89038529">
        <time>2019-04-24T08:06:55.969Z</time>
      </trkpt>
      <trkpt lat="42.1000212" lon="-8.89049459">
        <time>2019-04-24T08:06:56.134Z</time>
      </trkpt>
      <trkpt lat="42.1000136" lon="-8.89051353">
        <time>2019-04-24T08:06:56.166Z</time>
      </trkpt>
      <trkpt lat="42.1000721" lon="-8.89054982">
        <time>2019-04-24T08:06:56.295Z</time>
      </trkpt>
      <trkpt lat="42.1000993" lon="-8.89055058">
        <time>2019-04-24T08:06:56.350Z</time>
      </trkpt>
      <trkpt lat="42.1000816" lon="-8.89056877">
        <time>2019-04-24T08:06:56.395Z</time>
      </trkpt>
      <trkpt lat="42.1000723" lon="-8.8905572">
        <time>2019-04-24T08:06:56.420Z</time>
      </trkpt>
      <trkpt lat="42.1000302" lon="-8.89049937">
        <time>2019-04-24T08:06:56.540Z</time>
      </trkpt>
      <trkpt lat="42.1000145" lon="-8.89046986">
        <time>2019-04-24T08:06:56.594Z</time>
      </trkpt>
      <trkpt lat="42.1000176" lon="-8.89039107">
        <time>2019-04-24T08:06:56.711Z</time>
      </trkpt>
      <trkpt lat="42.1000208" lon="-8.89038168">
        <time>2019-04-24T08:06:56.726Z</time>
      </trkpt>
      <trkpt lat="42.1000779" lon="-8.89032645">
        <time>2019-04-24T08:06:56.867Z</time>
      </trkpt>
      <trkpt lat="42.1001979" lon="-8.89024246">
        <time>2019-04-24T08:06:57.138Z</time>
      </trkpt>
      <trkpt lat="42.1002743" lon="-8.89021086">
        <time>2019-04-24T08:06:57.298Z</time>
      </trkpt>
      <trkpt lat="42.1003274" lon="-8.89018865">
        <time>2019-04-24T08:06:57.409Z</time>
      </trkpt>
      <trkpt lat="42.100379" lon="-8.89019225">
        <time>2019-04-24T08:06:57.513Z</time>
      </trkpt>
      <trkpt lat="42.1003996" lon="-8.89023684">
        <time>2019-04-24T08:06:57.591Z</time>
      </trkpt>
      <trkpt lat="42.1004226" lon="-8.89027808">
        <time>2019-04-24T08:06:57.668Z</time>
      </trkpt>
      <trkpt lat="42.1004508" lon="-8.89032393">
        <time>2019-04-24T08:06:57.757Z</time>
      </trkpt>
      <trkpt lat="42.1007773" lon="-8.89034656">
        <time>2019-04-24T08:06:58.412Z</time>
      </trkpt>
      <trkpt lat="42.101135" lon="-8.89005856">
        <time>2019-04-24T08:06:59.247Z</time>
      </trkpt>
      <trkpt lat="42.1012053" lon="-8.88997692">
        <time>2019-04-24T08:06:59.433Z</time>
      </trkpt>
      <trkpt lat="42.1014733" lon="-8.88979663">
        <time>2019-04-24T08:07:00.033Z</time>
      </trkpt>
      <trkpt lat="42.1017646" lon="-8.88956545">
        <time>2019-04-24T08:07:00.710Z</time>
      </trkpt>
      <trkpt lat="42.1018437" lon="-8.88942506">
        <time>2019-04-24T08:07:00.972Z</time>
      </trkpt>
      <trkpt lat="42.10186" lon="-8.88931282">
        <time>2019-04-24T08:07:01.142Z</time>
      </trkpt>
      <trkpt lat="42.1018562" lon="-8.88919573">
        <time>2019-04-24T08:07:01.316Z</time>
      </trkpt>
      <trkpt lat="42.1018544" lon="-8.88916723">
        <time>2019-04-24T08:07:01.359Z</time>
      </trkpt>
      <trkpt lat="42.1018522" lon="-8.88906019">
        <time>2019-04-24T08:07:01.518Z</time>
      </trkpt>
      <trkpt lat="42.1018549" lon="-8.88904117">
        <time>2019-04-24T08:07:01.547Z</time>
      </trkpt>
      <trkpt lat="42.102037" lon="-8.88885417">
        <time>2019-04-24T08:07:02.006Z</time>
      </trkpt>
      <trkpt lat="42.1021477" lon="-8.88880714">
        <time>2019-04-24T08:07:02.239Z</time>
      </trkpt>
      <trkpt lat="42.1021702" lon="-8.88880605">
        <time>2019-04-24T08:07:02.284Z</time>
      </trkpt>
      <trkpt lat="42.1021708" lon="-8.8888006">
        <time>2019-04-24T08:07:02.292Z</time>
      </trkpt>
      <trkpt lat="42.102163" lon="-8.8888084">
        <time>2019-04-24T08:07:02.312Z</time>
      </trkpt>
      <trkpt lat="42.1022475" lon="-8.88879147">
        <time>2019-04-24T08:07:02.483Z</time>
      </trkpt>
      <trkpt lat="42.1023352" lon="-8.88873036">
        <time>2019-04-24T08:07:02.681Z</time>
      </trkpt>
      <trkpt lat="42.1024404" lon="-8.88866859">
        <time>2019-04-24T08:07:02.911Z</time>
      </trkpt>
      <trkpt lat="42.1025365" lon="-8.88857404">
        <time>2019-04-24T08:07:03.149Z</time>
      </trkpt>
      <trkpt lat="42.1026368" lon="-8.88846868">
        <time>2019-04-24T08:07:03.404Z</time>
      </trkpt>
      <trkpt lat="42.1027461" lon="-8.8883101">
        <time>2019-04-24T08:07:03.726Z</time>
      </trkpt>
      <trkpt lat="42.1028354" lon="-8.88818806">
        <time>2019-04-24T08:07:03.981Z</time>
      </trkpt>
      <trkpt lat="42.1028782" lon="-8.88815444">
        <time>2019-04-24T08:07:04.080Z</time>
      </trkpt>
      <trkpt lat="42.1028846" lon="-8.88812779">
        <time>2019-04-24T08:07:04.122Z</time>
      </trkpt>
      <trkpt lat="42.1029969" lon="-8.8879749">
        <time>2019-04-24T08:07:04.442Z</time>
      </trkpt>
      <trkpt lat="42.1030262" lon="-8.88791698">
        <time>2019-04-24T08:07:04.546Z</time>
      </trkpt>
      <trkpt lat="42.1031785" lon="-8.88780433">
        <time>2019-04-24T08:07:04.894Z</time>
      </trkpt>
      <trkpt lat="42.1033074" lon="-8.88764549">
        <time>2019-04-24T08:07:05.244Z</time>
      </trkpt>
      <trkpt lat="42.1033961" lon="-8.88755463">
        <time>2019-04-24T08:07:05.467Z</time>
      </trkpt>
      <trkpt lat="42.1034786" lon="-8.88746671">
        <time>2019-04-24T08:07:05.678Z</time>
      </trkpt>
      <trkpt lat="42.1036504" lon="-8.88720561">
        <time>2019-04-24T08:07:06.197Z</time>
      </trkpt>
      <trkpt lat="42.1038067" lon="-8.88692331">
        <time>2019-04-24T08:07:06.721Z</time>
      </trkpt>
      <trkpt lat="42.1038758" lon="-8.88681275">
        <time>2019-04-24T08:07:06.936Z</time>
      </trkpt>
      <trkpt lat="42.1038917" lon="-8.88677277">
        <time>2019-04-24T08:07:07.003Z</time>
      </trkpt>
      <trkpt lat="42.1040325" lon="-8.88651955">
        <time>2019-04-24T08:07:07.473Z</time>
      </trkpt>
      <trkpt lat="42.1041035" lon="-8.8864385">
        <time>2019-04-24T08:07:07.659Z</time>
      </trkpt>
      <trkpt lat="42.1041529" lon="-8.88640313">
        <time>2019-04-24T08:07:07.771Z</time>
      </trkpt>
      <trkpt lat="42.1042096" lon="-8.88626659">
        <time>2019-04-24T08:07:08.004Z</time>
      </trkpt>
      <trkpt lat="42.1042609" lon="-8.88620213">
        <time>2019-04-24T08:07:08.145Z</time>
      </trkpt>
      <trkpt lat="42.1042976" lon="-8.88615301">
        <time>2019-04-24T08:07:08.249Z</time>
      </trkpt>
      <trkpt lat="42.1043842" lon="-8.88609602">
        <time>2019-04-24T08:07:08.442Z</time>
      </trkpt>
      <trkpt lat="42.1045107" lon="-8.88600625">
        <time>2019-04-24T08:07:08.728Z</time>
      </trkpt>
      <trkpt lat="42.1045583" lon="-8.88596425">
        <time>2019-04-24T08:07:08.842Z</time>
      </trkpt>
      <trkpt lat="42.1047299" lon="-8.88586753">
        <time>2019-04-24T08:07:09.215Z</time>
      </trkpt>
      <trkpt lat="42.1050545" lon="-8.88554717">
        <time>2019-04-24T08:07:10.021Z</time>
      </trkpt>
      <trkpt lat="42.1053" lon="-8.88515431">
        <time>2019-04-24T08:07:10.785Z</time>
      </trkpt>
      <trkpt lat="42.1055204" lon="-8.88473941">
        <time>2019-04-24T08:07:11.544Z</time>
      </trkpt>
      <trkpt lat="42.1057268" lon="-8.88410615">
        <time>2019-04-24T08:07:12.572Z</time>
      </trkpt>
      <trkpt lat="42.1058752" lon="-8.8835589">
        <time>2019-04-24T08:07:13.438Z</time>
      </trkpt>
      <trkpt lat="42.1062292" lon="-8.88312371">
        <time>2019-04-24T08:07:14.398Z</time>
      </trkpt>
      <trkpt lat="42.1065252" lon="-8.88268953">
        <time>2019-04-24T08:07:15.275Z</time>
      </trkpt>
      <trkpt lat="42.1067432" lon="-8.88236255">
        <time>2019-04-24T08:07:15.929Z</time>
      </trkpt>
      <trkpt lat="42.1067759" lon="-8.881909">
        <time>2019-04-24T08:07:16.606Z</time>
      </trkpt>
      <trkpt lat="42.1067953" lon="-8.88179375">
        <time>2019-04-24T08:07:16.782Z</time>
      </trkpt>
      <trkpt lat="42.1067704" lon="-8.88179476">
        <time>2019-04-24T08:07:16.832Z</time>
      </trkpt>
      <trkpt lat="42.1067908" lon="-8.88165713">
        <time>2019-04-24T08:07:17.041Z</time>
      </trkpt>
      <trkpt lat="42.1069321" lon="-8.88107442">
        <time>2019-04-24T08:07:17.952Z</time>
      </trkpt>
      <trkpt lat="42.1070742" lon="-8.88055524">
        <time>2019-04-24T08:07:18.775Z</time>
      </trkpt>
      <trkpt lat="42.1073607" lon="-8.88031871">
        <time>2019-04-24T08:07:19.448Z</time>
      </trkpt>
      <trkpt lat="42.1075337" lon="-8.88001553">
        <time>2019-04-24T08:07:20.017Z</time>
      </trkpt>
      <trkpt lat="42.1076509" lon="-8.87968554">
        <time>2019-04-24T08:07:20.561Z</time>
      </trkpt>
      <trkpt lat="42.1076829" lon="-8.87931246">
        <time>2019-04-24T08:07:21.119Z</time>
      </trkpt>
      <trkpt lat="42.1077678" lon="-8.87887928">
        <time>2019-04-24T08:07:21.785Z</time>
      </trkpt>
      <trkpt lat="42.1078169" lon="-8.8784145">
        <time>2019-04-24T08:07:22.483Z</time>
      </trkpt>
      <trkpt lat="42.1078349" lon="-8.87804252">
        <time>2019-04-24T08:07:23.037Z</time>
      </trkpt>
      <trkpt lat="42.1078786" lon="-8.87780187">
        <time>2019-04-24T08:07:23.405Z</time>
      </trkpt>
      <trkpt lat="42.1079422" lon="-8.87731002">
        <time>2019-04-24T08:07:24.147Z</time>
      </trkpt>
      <trkpt lat="42.1080085" lon="-8.87681532">
        <time>2019-04-24T08:07:24.894Z</time>
      </trkpt>
      <trkpt lat="42.1082087" lon="-8.87637242">
        <time>2019-04-24T08:07:25.665Z</time>
      </trkpt>
      <trkpt lat="42.1083424" lon="-8.87598132">
        <time>2019-04-24T08:07:26.305Z</time>
      </trkpt>
      <trkpt lat="42.1084959" lon="-8.87560296">
        <time>2019-04-24T08:07:26.946Z</time>
      </trkpt>
      <trkpt lat="42.1086863" lon="-8.87517808">
        <time>2019-04-24T08:07:27.684Z</time>
      </trkpt>
      <trkpt lat="42.1089291" lon="-8.87487349">
        <time>2019-04-24T08:07:28.349Z</time>
      </trkpt>
      <trkpt lat="42.108978" lon="-8.87482102">
        <time>2019-04-24T08:07:28.474Z</time>
      </trkpt>
      <trkpt lat="42.109054" lon="-8.87452773">
        <time>2019-04-24T08:07:28.936Z</time>
      </trkpt>
      <trkpt lat="42.1090292" lon="-8.87377629">
        <time>2019-04-24T08:07:30.054Z</time>
      </trkpt>
      <trkpt lat="42.1091282" lon="-8.87345837">
        <time>2019-04-24T08:07:30.567Z</time>
      </trkpt>
      <trkpt lat="42.1092866" lon="-8.87332317">
        <time>2019-04-24T08:07:30.943Z</time>
      </trkpt>
      <trkpt lat="42.1094076" lon="-8.87325896">
        <time>2019-04-24T08:07:31.204Z</time>
      </trkpt>
      <trkpt lat="42.1097311" lon="-8.87317012">
        <time>2019-04-24T08:07:31.866Z</time>
      </trkpt>
      <trkpt lat="42.1099653" lon="-8.87276477">
        <time>2019-04-24T08:07:32.630Z</time>
      </trkpt>
      <trkpt lat="42.1099977" lon="-8.87259067">
        <time>2019-04-24T08:07:32.897Z</time>
      </trkpt>
      <trkpt lat="42.1100316" lon="-8.87215021">
        <time>2019-04-24T08:07:33.555Z</time>
      </trkpt>
      <trkpt lat="42.1100333" lon="-8.87205432">
        <time>2019-04-24T08:07:33.698Z</time>
      </trkpt>
      <trkpt lat="42.1100725" lon="-8.87185684">
        <time>2019-04-24T08:07:34.002Z</time>
      </trkpt>
      <trkpt lat="42.1104326" lon="-8.87154076">
        <time>2019-04-24T08:07:34.863Z</time>
      </trkpt>
      <trkpt lat="42.1107234" lon="-8.87135619">
        <time>2019-04-24T08:07:35.507Z</time>
      </trkpt>
      <trkpt lat="42.1108648" lon="-8.87118972">
        <time>2019-04-24T08:07:35.883Z</time>
      </trkpt>
      <trkpt lat="42.1109874" lon="-8.87093005">
        <time>2019-04-24T08:07:36.341Z</time>
      </trkpt>
      <trkpt lat="42.1110229" lon="-8.87081354">
        <time>2019-04-24T08:07:36.528Z</time>
      </trkpt>
      <trkpt lat="42.1111589" lon="-8.87052194">
        <time>2019-04-24T08:07:37.040Z</time>
      </trkpt>
      <trkpt lat="42.1113408" lon="-8.87009463">
        <time>2019-04-24T08:07:37.772Z</time>
      </trkpt>
      <trkpt lat="42.1113328" lon="-8.86972256">
        <time>2019-04-24T08:07:38.325Z</time>
      </trkpt>
      <trkpt lat="42.111258" lon="-8.86952768">
        <time>2019-04-24T08:07:38.651Z</time>
      </trkpt>
      <trkpt lat="42.1115005" lon="-8.86894547">
        <time>2019-04-24T08:07:39.644Z</time>
      </trkpt>
      <trkpt lat="42.1116247" lon="-8.86886802">
        <time>2019-04-24T08:07:39.918Z</time>
      </trkpt>
      <trkpt lat="42.1118651" lon="-8.86872058">
        <time>2019-04-24T08:07:40.447Z</time>
      </trkpt>
      <trkpt lat="42.1120107" lon="-8.86843157">
        <time>2019-04-24T08:07:40.966Z</time>
      </trkpt>
      <trkpt lat="42.112309" lon="-8.86761903">
        <time>2019-04-24T08:07:42.314Z</time>
      </trkpt>
      <trkpt lat="42.1123289" lon="-8.86753605">
        <time>2019-04-24T08:07:42.444Z</time>
      </trkpt>
      <trkpt lat="42.1121052" lon="-8.86749238">
        <time>2019-04-24T08:07:42.897Z</time>
      </trkpt>
      <trkpt lat="42.1118904" lon="-8.86773604">
        <time>2019-04-24T08:07:43.460Z</time>
      </trkpt>
      <trkpt lat="42.1117329" lon="-8.86787552">
        <time>2019-04-24T08:07:43.838Z</time>
      </trkpt>
      <trkpt lat="42.1114167" lon="-8.86791525">
        <time>2019-04-24T08:07:44.474Z</time>
      </trkpt>
      <trkpt lat="42.1108597" lon="-8.86762188">
        <time>2019-04-24T08:07:45.672Z</time>
      </trkpt>
      <trkpt lat="42.1104885" lon="-8.86738283">
        <time>2019-04-24T08:07:46.496Z</time>
      </trkpt>
      <trkpt lat="42.1101703" lon="-8.86727487">
        <time>2019-04-24T08:07:47.154Z</time>
      </trkpt>
      <trkpt lat="42.1096968" lon="-8.86728158">
        <time>2019-04-24T08:07:48.103Z</time>
      </trkpt>
      <trkpt lat="42.1094846" lon="-8.86737571">
        <time>2019-04-24T08:07:48.551Z</time>
      </trkpt>
      <trkpt lat="42.1094109" lon="-8.86734377">
        <time>2019-04-24T08:07:48.706Z</time>
      </trkpt>
      <trkpt lat="42.1094916" lon="-8.86728242">
        <time>2019-04-24T08:07:48.892Z</time>
      </trkpt>
      <trkpt lat="42.1098109" lon="-8.86701981">
        <time>2019-04-24T08:07:49.642Z</time>
      </trkpt>
      <trkpt lat="42.1102199" lon="-8.86675897">
        <time>2019-04-24T08:07:50.549Z</time>
      </trkpt>
      <trkpt lat="42.1107559" lon="-8.86650927">
        <time>2019-04-24T08:07:51.685Z</time>
      </trkpt>
      <trkpt lat="42.1114496" lon="-8.8664433">
        <time>2019-04-24T08:07:53.079Z</time>
      </trkpt>
      <trkpt lat="42.1116238" lon="-8.86634959">
        <time>2019-04-24T08:07:53.455Z</time>
      </trkpt>
      <trkpt lat="42.1119057" lon="-8.86603351">
        <time>2019-04-24T08:07:54.190Z</time>
      </trkpt>
      <trkpt lat="42.1119386" lon="-8.86601029">
        <time>2019-04-24T08:07:54.264Z</time>
      </trkpt>
      <trkpt lat="42.111944" lon="-8.8659994">
        <time>2019-04-24T08:07:54.284Z</time>
      </trkpt>
      <trkpt lat="42.1119249" lon="-8.86601289">
        <time>2019-04-24T08:07:54.327Z</time>
      </trkpt>
      <trkpt lat="42.1119731" lon="-8.86593117">
        <time>2019-04-24T08:07:54.482Z</time>
      </trkpt>
      <trkpt lat="42.1120557" lon="-8.8658761">
        <time>2019-04-24T08:07:54.667Z</time>
      </trkpt>
      <trkpt lat="42.1120585" lon="-8.86589027">
        <time>2019-04-24T08:07:54.689Z</time>
      </trkpt>
      <trkpt lat="42.1120704" lon="-8.8658818">
        <time>2019-04-24T08:07:54.716Z</time>
      </trkpt>
      <trkpt lat="42.1125765" lon="-8.86535449">
        <time>2019-04-24T08:07:55.998Z</time>
      </trkpt>
      <trkpt lat="42.1130823" lon="-8.86482576">
        <time>2019-04-24T08:07:57.281Z</time>
      </trkpt>
      <trkpt lat="42.1132401" lon="-8.86463851">
        <time>2019-04-24T08:07:57.702Z</time>
      </trkpt>
      <trkpt lat="42.1136145" lon="-8.86415647">
        <time>2019-04-24T08:07:58.739Z</time>
      </trkpt>
      <trkpt lat="42.1140378" lon="-8.86361517">
        <time>2019-04-24T08:07:59.908Z</time>
      </trkpt>
      <trkpt lat="42.1141265" lon="-8.86347301">
        <time>2019-04-24T08:08:00.184Z</time>
      </trkpt>
      <trkpt lat="42.11421" lon="-8.86321585">
        <time>2019-04-24T08:08:00.601Z</time>
      </trkpt>
      <trkpt lat="42.114172" lon="-8.86301645">
        <time>2019-04-24T08:08:00.907Z</time>
      </trkpt>
      <trkpt lat="42.1141409" lon="-8.86285434">
        <time>2019-04-24T08:08:01.156Z</time>
      </trkpt>
      <trkpt lat="42.1141591" lon="-8.86282433">
        <time>2019-04-24T08:08:01.214Z</time>
      </trkpt>
      <trkpt lat="42.1144362" lon="-8.86252317">
        <time>2019-04-24T08:08:01.927Z</time>
      </trkpt>
      <trkpt lat="42.1146988" lon="-8.86224774">
        <time>2019-04-24T08:08:02.594Z</time>
      </trkpt>
      <trkpt lat="42.1148396" lon="-8.86215462">
        <time>2019-04-24T08:08:02.908Z</time>
      </trkpt>
      <trkpt lat="42.1148556" lon="-8.86212947">
        <time>2019-04-24T08:08:02.957Z</time>
      </trkpt>
      <trkpt lat="42.1148497" lon="-8.86211514">
        <time>2019-04-24T08:08:02.981Z</time>
      </trkpt>
      <trkpt lat="42.1148261" lon="-8.86210558">
        <time>2019-04-24T08:08:03.030Z</time>
      </trkpt>
      <trkpt lat="42.1148034" lon="-8.86212377">
        <time>2019-04-24T08:08:03.083Z</time>
      </trkpt>
      <trkpt lat="42.1148828" lon="-8.86210726">
        <time>2019-04-24T08:08:03.244Z</time>
      </trkpt>
      <trkpt lat="42.1149327" lon="-8.8619993">
        <time>2019-04-24T08:08:03.433Z</time>
      </trkpt>
      <trkpt lat="42.1149661" lon="-8.86193694">
        <time>2019-04-24T08:08:03.547Z</time>
      </trkpt>
      <trkpt lat="42.1151574" lon="-8.86124761">
        <time>2019-04-24T08:08:04.641Z</time>
      </trkpt>
      <trkpt lat="42.1151355" lon="-8.86060246">
        <time>2019-04-24T08:08:05.601Z</time>
      </trkpt>
      <trkpt lat="42.1149622" lon="-8.86031714">
        <time>2019-04-24T08:08:06.149Z</time>
      </trkpt>
      <trkpt lat="42.1147672" lon="-8.86014145">
        <time>2019-04-24T08:08:06.619Z</time>
      </trkpt>
      <trkpt lat="42.1146083" lon="-8.85996652">
        <time>2019-04-24T08:08:07.030Z</time>
      </trkpt>
      <trkpt lat="42.1143753" lon="-8.85976217">
        <time>2019-04-24T08:08:07.587Z</time>
      </trkpt>
      <trkpt lat="42.1141171" lon="-8.85963116">
        <time>2019-04-24T08:08:08.140Z</time>
      </trkpt>
      <trkpt lat="42.1139263" lon="-8.85941935">
        <time>2019-04-24T08:08:08.635Z</time>
      </trkpt>
      <trkpt lat="42.1138601" lon="-8.8593466">
        <time>2019-04-24T08:08:08.806Z</time>
      </trkpt>
      <trkpt lat="42.1138027" lon="-8.85925943">
        <time>2019-04-24T08:08:08.979Z</time>
      </trkpt>
      <trkpt lat="42.1138058" lon="-8.85925666">
        <time>2019-04-24T08:08:08.987Z</time>
      </trkpt>
      <trkpt lat="42.1136749" lon="-8.85912096">
        <time>2019-04-24T08:08:09.318Z</time>
      </trkpt>
      <trkpt lat="42.1135842" lon="-8.85889758">
        <time>2019-04-24T08:08:09.697Z</time>
      </trkpt>
      <trkpt lat="42.1135955" lon="-8.85874654">
        <time>2019-04-24T08:08:09.923Z</time>
      </trkpt>
      <trkpt lat="42.1138675" lon="-8.85869356">
        <time>2019-04-24T08:08:10.474Z</time>
      </trkpt>
      <trkpt lat="42.1141154" lon="-8.85855224">
        <time>2019-04-24T08:08:11.013Z</time>
      </trkpt>
      <trkpt lat="42.114151" lon="-8.85825385">
        <time>2019-04-24T08:08:11.462Z</time>
      </trkpt>
      <trkpt lat="42.1142342" lon="-8.85804564">
        <time>2019-04-24T08:08:11.814Z</time>
      </trkpt>
      <trkpt lat="42.1145823" lon="-8.85803089">
        <time>2019-04-24T08:08:12.512Z</time>
      </trkpt>
      <trkpt lat="42.1146661" lon="-8.857431">
        <time>2019-04-24T08:08:13.419Z</time>
      </trkpt>
      <trkpt lat="42.1149369" lon="-8.85709631">
        <time>2019-04-24T08:08:14.155Z</time>
      </trkpt>
      <trkpt lat="42.1152137" lon="-8.85700503">
        <time>2019-04-24T08:08:14.726Z</time>
      </trkpt>
      <trkpt lat="42.1154929" lon="-8.85666858">
        <time>2019-04-24T08:08:15.476Z</time>
      </trkpt>
      <trkpt lat="42.1156398" lon="-8.85627463">
        <time>2019-04-24T08:08:16.131Z</time>
      </trkpt>
      <trkpt lat="42.1157691" lon="-8.85599593">
        <time>2019-04-24T08:08:16.620Z</time>
      </trkpt>
      <trkpt lat="42.115894" lon="-8.85563903">
        <time>2019-04-24T08:08:17.207Z</time>
      </trkpt>
      <trkpt lat="42.1157465" lon="-8.85514617">
        <time>2019-04-24T08:08:17.997Z</time>
      </trkpt>
      <trkpt lat="42.1156096" lon="-8.85485876">
        <time>2019-04-24T08:08:18.505Z</time>
      </trkpt>
      <trkpt lat="42.1155296" lon="-8.85460655">
        <time>2019-04-24T08:08:18.913Z</time>
      </trkpt>
      <trkpt lat="42.1154806" lon="-8.85438325">
        <time>2019-04-24T08:08:19.259Z</time>
      </trkpt>
      <trkpt lat="42.1155635" lon="-8.8543592">
        <time>2019-04-24T08:08:19.429Z</time>
      </trkpt>
      <trkpt lat="42.115805" lon="-8.85446841">
        <time>2019-04-24T08:08:19.939Z</time>
      </trkpt>
      <trkpt lat="42.1160437" lon="-8.85465634">
        <time>2019-04-24T08:08:20.493Z</time>
      </trkpt>
      <trkpt lat="42.1163062" lon="-8.85477402">
        <time>2019-04-24T08:08:21.047Z</time>
      </trkpt>
      <trkpt lat="42.1165655" lon="-8.85468953">
        <time>2019-04-24T08:08:21.582Z</time>
      </trkpt>
      <trkpt lat="42.1167544" lon="-8.85453153">
        <time>2019-04-24T08:08:22.027Z</time>
      </trkpt>
      <trkpt lat="42.1170509" lon="-8.8542654">
        <time>2019-04-24T08:08:22.741Z</time>
      </trkpt>
      <trkpt lat="42.1174513" lon="-8.8541727">
        <time>2019-04-24T08:08:23.555Z</time>
      </trkpt>
      <trkpt lat="42.117818" lon="-8.85417329">
        <time>2019-04-24T08:08:24.290Z</time>
      </trkpt>
      <trkpt lat="42.1181074" lon="-8.8542333">
        <time>2019-04-24T08:08:24.877Z</time>
      </trkpt>
      <trkpt lat="42.1182365" lon="-8.85431846">
        <time>2019-04-24T08:08:25.165Z</time>
      </trkpt>
      <trkpt lat="42.1183612" lon="-8.85419701">
        <time>2019-04-24T08:08:25.473Z</time>
      </trkpt>
      <trkpt lat="42.118069" lon="-8.85362628">
        <time>2019-04-24T08:08:26.504Z</time>
      </trkpt>
      <trkpt lat="42.1177891" lon="-8.85277435">
        <time>2019-04-24T08:08:27.889Z</time>
      </trkpt>
      <trkpt lat="42.1177131" lon="-8.85254594">
        <time>2019-04-24T08:08:28.261Z</time>
      </trkpt>
      <trkpt lat="42.1178648" lon="-8.85223086">
        <time>2019-04-24T08:08:28.819Z</time>
      </trkpt>
      <trkpt lat="42.1180221" lon="-8.85188855">
        <time>2019-04-24T08:08:29.418Z</time>
      </trkpt>
      <trkpt lat="42.1181072" lon="-8.85159954">
        <time>2019-04-24T08:08:29.880Z</time>
      </trkpt>
      <trkpt lat="42.1181155" lon="-8.85143383">
        <time>2019-04-24T08:08:30.127Z</time>
      </trkpt>
      <trkpt lat="42.1180865" lon="-8.8514516">
        <time>2019-04-24T08:08:30.191Z</time>
      </trkpt>
      <trkpt lat="42.1180977" lon="-8.85144473">
        <time>2019-04-24T08:08:30.216Z</time>
      </trkpt>
      <trkpt lat="42.1181074" lon="-8.85144724">
        <time>2019-04-24T08:08:30.236Z</time>
      </trkpt>
      <trkpt lat="42.11811" lon="-8.85144707">
        <time>2019-04-24T08:08:30.241Z</time>
      </trkpt>
      <trkpt lat="42.1180936" lon="-8.85143651">
        <time>2019-04-24T08:08:30.277Z</time>
      </trkpt>
      <trkpt lat="42.1180959" lon="-8.85142595">
        <time>2019-04-24T08:08:30.293Z</time>
      </trkpt>
      <trkpt lat="42.118088" lon="-8.85139712">
        <time>2019-04-24T08:08:30.339Z</time>
      </trkpt>
      <trkpt lat="42.1180884" lon="-8.85140684">
        <time>2019-04-24T08:08:30.354Z</time>
      </trkpt>
      <trkpt lat="42.1180895" lon="-8.85141623">
        <time>2019-04-24T08:08:30.368Z</time>
      </trkpt>
      <trkpt lat="42.1180861" lon="-8.85143006">
        <time>2019-04-24T08:08:30.390Z</time>
      </trkpt>
      <trkpt lat="42.1180926" lon="-8.85142637">
        <time>2019-04-24T08:08:30.404Z</time>
      </trkpt>
      <trkpt lat="42.1181037" lon="-8.85143517">
        <time>2019-04-24T08:08:30.430Z</time>
      </trkpt>
      <trkpt lat="42.1181465" lon="-8.85154305">
        <time>2019-04-24T08:08:30.612Z</time>
      </trkpt>
      <trkpt lat="42.1180665" lon="-8.85130299">
        <time>2019-04-24T08:08:31.003Z</time>
      </trkpt>
      <trkpt lat="42.1180607" lon="-8.8512765">
        <time>2019-04-24T08:08:31.044Z</time>
      </trkpt>
      <trkpt lat="42.1180552" lon="-8.85115236">
        <time>2019-04-24T08:08:31.229Z</time>
      </trkpt>
      <trkpt lat="42.1180474" lon="-8.85105622">
        <time>2019-04-24T08:08:31.373Z</time>
      </trkpt>
      <trkpt lat="42.118023" lon="-8.8511361">
        <time>2019-04-24T08:08:31.501Z</time>
      </trkpt>
      <trkpt lat="42.1181012" lon="-8.85129804">
        <time>2019-04-24T08:08:31.788Z</time>
      </trkpt>
      <trkpt lat="42.1181797" lon="-8.8512615">
        <time>2019-04-24T08:08:31.954Z</time>
      </trkpt>
      <trkpt lat="42.1182364" lon="-8.85083955">
        <time>2019-04-24T08:08:32.591Z</time>
      </trkpt>
      <trkpt lat="42.1182225" lon="-8.85029858">
        <time>2019-04-24T08:08:33.396Z</time>
      </trkpt>
      <trkpt lat="42.11824" lon="-8.8502379">
        <time>2019-04-24T08:08:33.493Z</time>
      </trkpt>
      <trkpt lat="42.1182434" lon="-8.85023036">
        <time>2019-04-24T08:08:33.506Z</time>
      </trkpt>
      <trkpt lat="42.1183606" lon="-8.85015467">
        <time>2019-04-24T08:08:33.766Z</time>
      </trkpt>
      <trkpt lat="42.1185239" lon="-8.85009767">
        <time>2019-04-24T08:08:34.104Z</time>
      </trkpt>
      <trkpt lat="42.118786" lon="-8.84996876">
        <time>2019-04-24T08:08:34.663Z</time>
      </trkpt>
      <trkpt lat="42.1188319" lon="-8.8498318">
        <time>2019-04-24T08:08:34.886Z</time>
      </trkpt>
      <trkpt lat="42.1188841" lon="-8.84982031">
        <time>2019-04-24T08:08:34.992Z</time>
      </trkpt>
      <trkpt lat="42.1191422" lon="-8.84970305">
        <time>2019-04-24T08:08:35.538Z</time>
      </trkpt>
      <trkpt lat="42.1192469" lon="-8.84966516">
        <time>2019-04-24T08:08:35.755Z</time>
      </trkpt>
      <trkpt lat="42.1192972" lon="-8.84968025">
        <time>2019-04-24T08:08:35.858Z</time>
      </trkpt>
      <trkpt lat="42.119416" lon="-8.84962434">
        <time>2019-04-24T08:08:36.110Z</time>
      </trkpt>
      <trkpt lat="42.119495" lon="-8.84945159">
        <time>2019-04-24T08:08:36.412Z</time>
      </trkpt>
      <trkpt lat="42.1197055" lon="-8.8492205">
        <time>2019-04-24T08:08:36.956Z</time>
      </trkpt>
      <trkpt lat="42.1196971" lon="-8.84915823">
        <time>2019-04-24T08:08:37.050Z</time>
      </trkpt>
      <trkpt lat="42.1196522" lon="-8.84906074">
        <time>2019-04-24T08:08:37.221Z</time>
      </trkpt>
      <trkpt lat="42.1195174" lon="-8.84891079">
        <time>2019-04-24T08:08:37.571Z</time>
      </trkpt>
      <trkpt lat="42.1193533" lon="-8.84868021">
        <time>2019-04-24T08:08:38.046Z</time>
      </trkpt>
      <trkpt lat="42.1190673" lon="-8.84822641">
        <time>2019-04-24T08:08:38.931Z</time>
      </trkpt>
      <trkpt lat="42.1189818" lon="-8.8480291">
        <time>2019-04-24T08:08:39.271Z</time>
      </trkpt>
      <trkpt lat="42.1190015" lon="-8.84796339">
        <time>2019-04-24T08:08:39.376Z</time>
      </trkpt>
      <trkpt lat="42.1189757" lon="-8.84792097">
        <time>2019-04-24T08:08:39.458Z</time>
      </trkpt>
      <trkpt lat="42.1188051" lon="-8.84789222">
        <time>2019-04-24T08:08:39.803Z</time>
      </trkpt>
      <trkpt lat="42.1186083" lon="-8.84768762">
        <time>2019-04-24T08:08:40.301Z</time>
      </trkpt>
      <trkpt lat="42.1184104" lon="-8.84753415">
        <time>2019-04-24T08:08:40.759Z</time>
      </trkpt>
      <trkpt lat="42.1183629" lon="-8.84748168">
        <time>2019-04-24T08:08:40.882Z</time>
      </trkpt>
      <trkpt lat="42.1182008" lon="-8.84742049">
        <time>2019-04-24T08:08:41.219Z</time>
      </trkpt>
      <trkpt lat="42.1181305" lon="-8.84743801">
        <time>2019-04-24T08:08:41.362Z</time>
      </trkpt>
      <trkpt lat="42.1179696" lon="-8.84747497">
        <time>2019-04-24T08:08:41.689Z</time>
      </trkpt>
      <trkpt lat="42.1178509" lon="-8.84744413">
        <time>2019-04-24T08:08:41.931Z</time>
      </trkpt>
      <trkpt lat="42.117754" lon="-8.84736039">
        <time>2019-04-24T08:08:42.162Z</time>
      </trkpt>
      <trkpt lat="42.1177721" lon="-8.84728261">
        <time>2019-04-24T08:08:42.283Z</time>
      </trkpt>
      <trkpt lat="42.1177648" lon="-8.84725973">
        <time>2019-04-24T08:08:42.320Z</time>
      </trkpt>
      <trkpt lat="42.1176168" lon="-8.84698312">
        <time>2019-04-24T08:08:42.827Z</time>
      </trkpt>
      <trkpt lat="42.1174054" lon="-8.84665028">
        <time>2019-04-24T08:08:43.478Z</time>
      </trkpt>
      <trkpt lat="42.1173" lon="-8.84650343">
        <time>2019-04-24T08:08:43.782Z</time>
      </trkpt>
      <trkpt lat="42.117256" lon="-8.84643855">
        <time>2019-04-24T08:08:43.913Z</time>
      </trkpt>
      <trkpt lat="42.1170547" lon="-8.84623537">
        <time>2019-04-24T08:08:44.417Z</time>
      </trkpt>
      <trkpt lat="42.1170076" lon="-8.84599548">
        <time>2019-04-24T08:08:44.786Z</time>
      </trkpt>
      <trkpt lat="42.1169946" lon="-8.84587051">
        <time>2019-04-24T08:08:44.974Z</time>
      </trkpt>
      <trkpt lat="42.1169658" lon="-8.84581544">
        <time>2019-04-24T08:08:45.074Z</time>
      </trkpt>
      <trkpt lat="42.1167139" lon="-8.84547555">
        <time>2019-04-24T08:08:45.788Z</time>
      </trkpt>
      <trkpt lat="42.1166745" lon="-8.84535544">
        <time>2019-04-24T08:08:45.983Z</time>
      </trkpt>
      <trkpt lat="42.1166518" lon="-8.8452997">
        <time>2019-04-24T08:08:46.078Z</time>
      </trkpt>
      <trkpt lat="42.1166443" lon="-8.8452878">
        <time>2019-04-24T08:08:46.101Z</time>
      </trkpt>
      <trkpt lat="42.1166594" lon="-8.84528126">
        <time>2019-04-24T08:08:46.133Z</time>
      </trkpt>
      <trkpt lat="42.116666" lon="-8.8452831">
        <time>2019-04-24T08:08:46.147Z</time>
      </trkpt>
      <trkpt lat="42.1166564" lon="-8.84532233">
        <time>2019-04-24T08:08:46.208Z</time>
      </trkpt>
      <trkpt lat="42.1166576" lon="-8.84533247">
        <time>2019-04-24T08:08:46.223Z</time>
      </trkpt>
      <trkpt lat="42.1166527" lon="-8.84532351">
        <time>2019-04-24T08:08:46.240Z</time>
      </trkpt>
      <trkpt lat="42.116544" lon="-8.84520675">
        <time>2019-04-24T08:08:46.519Z</time>
      </trkpt>
      <trkpt lat="42.1165366" lon="-8.84519954">
        <time>2019-04-24T08:08:46.537Z</time>
      </trkpt>
      <trkpt lat="42.1165326" lon="-8.84519065">
        <time>2019-04-24T08:08:46.552Z</time>
      </trkpt>
      <trkpt lat="42.1165455" lon="-8.84526391">
        <time>2019-04-24T08:08:46.664Z</time>
      </trkpt>
      <trkpt lat="42.1165413" lon="-8.84528361">
        <time>2019-04-24T08:08:46.694Z</time>
      </trkpt>
      <trkpt lat="42.1165524" lon="-8.84531051">
        <time>2019-04-24T08:08:46.740Z</time>
      </trkpt>
      <trkpt lat="42.1165611" lon="-8.84533164">
        <time>2019-04-24T08:08:46.776Z</time>
      </trkpt>
      <trkpt lat="42.1165717" lon="-8.84535695">
        <time>2019-04-24T08:08:46.819Z</time>
      </trkpt>
      <trkpt lat="42.1165719" lon="-8.84525771">
        <time>2019-04-24T08:08:46.967Z</time>
      </trkpt>
      <trkpt lat="42.1166884" lon="-8.84504363">
        <time>2019-04-24T08:08:47.362Z</time>
      </trkpt>
      <trkpt lat="42.1167068" lon="-8.84480777">
        <time>2019-04-24T08:08:47.715Z</time>
      </trkpt>
      <trkpt lat="42.1164086" lon="-8.84463208">
        <time>2019-04-24T08:08:48.367Z</time>
      </trkpt>
      <trkpt lat="42.1162402" lon="-8.84430259">
        <time>2019-04-24T08:08:48.962Z</time>
      </trkpt>
      <trkpt lat="42.1161006" lon="-8.84377394">
        <time>2019-04-24T08:08:49.796Z</time>
      </trkpt>
      <trkpt lat="42.1158664" lon="-8.84325334">
        <time>2019-04-24T08:08:50.701Z</time>
      </trkpt>
      <trkpt lat="42.1156024" lon="-8.84285881">
        <time>2019-04-24T08:08:51.491Z</time>
      </trkpt>
      <trkpt lat="42.11541" lon="-8.84255178">
        <time>2019-04-24T08:08:52.088Z</time>
      </trkpt>
      <trkpt lat="42.1151448" lon="-8.84230602">
        <time>2019-04-24T08:08:52.733Z</time>
      </trkpt>
      <trkpt lat="42.1147787" lon="-8.84207803">
        <time>2019-04-24T08:08:53.541Z</time>
      </trkpt>
      <trkpt lat="42.1142571" lon="-8.84159138">
        <time>2019-04-24T08:08:54.812Z</time>
      </trkpt>
      <trkpt lat="42.1141073" lon="-8.84147386">
        <time>2019-04-24T08:08:55.159Z</time>
      </trkpt>
      <trkpt lat="42.1135028" lon="-8.84109945">
        <time>2019-04-24T08:08:56.492Z</time>
      </trkpt>
      <trkpt lat="42.1133825" lon="-8.84097204">
        <time>2019-04-24T08:08:56.799Z</time>
      </trkpt>
      <trkpt lat="42.1129197" lon="-8.84037139">
        <time>2019-04-24T08:08:58.086Z</time>
      </trkpt>
      <trkpt lat="42.1128404" lon="-8.84002958">
        <time>2019-04-24T08:08:58.618Z</time>
      </trkpt>
      <trkpt lat="42.1128601" lon="-8.83946154">
        <time>2019-04-24T08:08:59.463Z</time>
      </trkpt>
      <trkpt lat="42.1128654" lon="-8.83893373">
        <time>2019-04-24T08:09:00.248Z</time>
      </trkpt>
      <trkpt lat="42.1128356" lon="-8.83867867">
        <time>2019-04-24T08:09:00.632Z</time>
      </trkpt>
      <trkpt lat="42.1128096" lon="-8.83853551">
        <time>2019-04-24T08:09:00.851Z</time>
      </trkpt>
      <trkpt lat="42.1127818" lon="-8.83819864">
        <time>2019-04-24T08:09:01.355Z</time>
      </trkpt>
      <trkpt lat="42.1126801" lon="-8.83800074">
        <time>2019-04-24T08:09:01.713Z</time>
      </trkpt>
      <trkpt lat="42.1126014" lon="-8.83794232">
        <time>2019-04-24T08:09:01.893Z</time>
      </trkpt>
      <trkpt lat="42.1119791" lon="-8.83781265">
        <time>2019-04-24T08:09:03.155Z</time>
      </trkpt>
      <trkpt lat="42.1116672" lon="-8.83763889">
        <time>2019-04-24T08:09:03.831Z</time>
      </trkpt>
      <trkpt lat="42.111381" lon="-8.83724352">
        <time>2019-04-24T08:09:04.652Z</time>
      </trkpt>
      <trkpt lat="42.1110896" lon="-8.83664891">
        <time>2019-04-24T08:09:05.711Z</time>
      </trkpt>
      <trkpt lat="42.11079" lon="-8.83613225">
        <time>2019-04-24T08:09:06.686Z</time>
      </trkpt>
      <trkpt lat="42.1103935" lon="-8.83557845">
        <time>2019-04-24T08:09:07.830Z</time>
      </trkpt>
      <trkpt lat="42.1102799" lon="-8.83494101">
        <time>2019-04-24T08:09:08.805Z</time>
      </trkpt>
      <trkpt lat="42.1103021" lon="-8.83422201">
        <time>2019-04-24T08:09:09.875Z</time>
      </trkpt>
      <trkpt lat="42.1102341" lon="-8.83362581">
        <time>2019-04-24T08:09:10.772Z</time>
      </trkpt>
      <trkpt lat="42.1099521" lon="-8.83313848">
        <time>2019-04-24T08:09:11.691Z</time>
      </trkpt>
      <trkpt lat="42.1097128" lon="-8.83288962">
        <time>2019-04-24T08:09:12.297Z</time>
      </trkpt>
      <trkpt lat="42.1096132" lon="-8.83273372">
        <time>2019-04-24T08:09:12.603Z</time>
      </trkpt>
      <trkpt lat="42.1095045284107" lon="-8.832272401598958">
        <time>2019-04-24T08:09:13.323Z</time>
      </trkpt>
      <trkpt lat="42.1095047" lon="-8.83227313">
        <time>2019-04-24T08:09:13.325Z</time>
      </trkpt>
      <trkpt lat="42.1095636" lon="-8.83188187">
        <time>2019-04-24T08:09:13.919Z</time>
      </trkpt>
      <trkpt lat="42.1095677" lon="-8.83182805">
        <time>2019-04-24T08:09:13.999Z</time>
      </trkpt>
      <trkpt lat="42.1095358" lon="-8.83070211">
        <time>2019-04-24T08:09:15.674Z</time>
      </trkpt>
      <trkpt lat="42.1096737" lon="-8.82986795">
        <time>2019-04-24T08:09:16.945Z</time>
      </trkpt>
      <trkpt lat="42.1096686" lon="-8.82935187">
        <time>2019-04-24T08:09:17.712Z</time>
      </trkpt>
      <trkpt lat="42.1096468" lon="-8.82927434">
        <time>2019-04-24T08:09:17.835Z</time>
      </trkpt>
      <trkpt lat="42.1095598" lon="-8.82899983">
        <time>2019-04-24T08:09:18.279Z</time>
      </trkpt>
      <trkpt lat="42.1093669" lon="-8.82854897">
        <time>2019-04-24T08:09:19.053Z</time>
      </trkpt>
      <trkpt lat="42.1093543" lon="-8.82826298">
        <time>2019-04-24T08:09:19.479Z</time>
      </trkpt>
      <trkpt lat="42.1093505" lon="-8.82815703">
        <time>2019-04-24T08:09:19.637Z</time>
      </trkpt>
      <trkpt lat="42.1093857" lon="-8.82794128">
        <time>2019-04-24T08:09:19.965Z</time>
      </trkpt>
      <trkpt lat="42.1095527" lon="-8.8278029">
        <time>2019-04-24T08:09:20.358Z</time>
      </trkpt>
      <trkpt lat="42.109474" lon="-8.82736511">
        <time>2019-04-24T08:09:21.028Z</time>
      </trkpt>
      <trkpt lat="42.1094919" lon="-8.82725832">
        <time>2019-04-24T08:09:21.191Z</time>
      </trkpt>
      <trkpt lat="42.1095371" lon="-8.82684501">
        <time>2019-04-24T08:09:21.812Z</time>
      </trkpt>
      <trkpt lat="42.1095485" lon="-8.82608804">
        <time>2019-04-24T08:09:22.938Z</time>
      </trkpt>
      <trkpt lat="42.109598" lon="-8.8257443">
        <time>2019-04-24T08:09:23.459Z</time>
      </trkpt>
      <trkpt lat="42.1096555" lon="-8.82545848">
        <time>2019-04-24T08:09:23.899Z</time>
      </trkpt>
      <trkpt lat="42.1097422" lon="-8.82507476">
        <time>2019-04-24T08:09:24.495Z</time>
      </trkpt>
      <trkpt lat="42.1097834" lon="-8.82497384">
        <time>2019-04-24T08:09:24.666Z</time>
      </trkpt>
      <trkpt lat="42.1098254" lon="-8.82487384">
        <time>2019-04-24T08:09:24.837Z</time>
      </trkpt>
      <trkpt lat="42.109879" lon="-8.82464485">
        <time>2019-04-24T08:09:25.194Z</time>
      </trkpt>
      <trkpt lat="42.1098935" lon="-8.82445785">
        <time>2019-04-24T08:09:25.474Z</time>
      </trkpt>
      <trkpt lat="42.1100108" lon="-8.82390934">
        <time>2019-04-24T08:09:26.323Z</time>
      </trkpt>
      <trkpt lat="42.1100202" lon="-8.82376701">
        <time>2019-04-24T08:09:26.535Z</time>
      </trkpt>
      <trkpt lat="42.1100173" lon="-8.8236184">
        <time>2019-04-24T08:09:26.756Z</time>
      </trkpt>
      <trkpt lat="42.1100314" lon="-8.82349058">
        <time>2019-04-24T08:09:26.948Z</time>
      </trkpt>
      <trkpt lat="42.1101222" lon="-8.82241535">
        <time>2019-04-24T08:09:28.557Z</time>
      </trkpt>
      <trkpt lat="42.110268" lon="-8.82134716">
        <time>2019-04-24T08:09:30.172Z</time>
      </trkpt>
      <trkpt lat="42.1103102" lon="-8.82108028">
        <time>2019-04-24T08:09:30.578Z</time>
      </trkpt>
      <trkpt lat="42.1104184" lon="-8.82025868">
        <time>2019-04-24T08:09:31.819Z</time>
      </trkpt>
      <trkpt lat="42.1103987" lon="-8.82013396">
        <time>2019-04-24T08:09:32.009Z</time>
      </trkpt>
      <trkpt lat="42.1102742" lon="-8.8201203">
        <time>2019-04-24T08:09:32.259Z</time>
      </trkpt>
      <trkpt lat="42.1102652" lon="-8.82000479">
        <time>2019-04-24T08:09:32.432Z</time>
      </trkpt>
      <trkpt lat="42.1102028" lon="-8.81892847">
        <time>2019-04-24T08:09:34.037Z</time>
      </trkpt>
      <trkpt lat="42.1101429" lon="-8.8186714">
        <time>2019-04-24T08:09:34.438Z</time>
      </trkpt>
      <trkpt lat="42.109961" lon="-8.81800479">
        <time>2019-04-24T08:09:35.494Z</time>
      </trkpt>
      <trkpt lat="42.1098809" lon="-8.81762257">
        <time>2019-04-24T08:09:36.084Z</time>
      </trkpt>
      <trkpt lat="42.1098513" lon="-8.81711228">
        <time>2019-04-24T08:09:36.845Z</time>
      </trkpt>
      <trkpt lat="42.1098453" lon="-8.8169247">
        <time>2019-04-24T08:09:37.124Z</time>
      </trkpt>
      <trkpt lat="42.1096494" lon="-8.81664415">
        <time>2019-04-24T08:09:37.697Z</time>
      </trkpt>
      <trkpt lat="42.1095721" lon="-8.81660275">
        <time>2019-04-24T08:09:37.864Z</time>
      </trkpt>
      <trkpt lat="42.1094507" lon="-8.81648959">
        <time>2019-04-24T08:09:38.160Z</time>
      </trkpt>
      <trkpt lat="42.1093981" lon="-8.81646671">
        <time>2019-04-24T08:09:38.271Z</time>
      </trkpt>
      <trkpt lat="42.1091921" lon="-8.81635322">
        <time>2019-04-24T08:09:38.717Z</time>
      </trkpt>
      <trkpt lat="42.1085787" lon="-8.81597427">
        <time>2019-04-24T08:09:40.069Z</time>
      </trkpt>
      <trkpt lat="42.1083842" lon="-8.81573053">
        <time>2019-04-24T08:09:40.601Z</time>
      </trkpt>
      <trkpt lat="42.1083191" lon="-8.81554545">
        <time>2019-04-24T08:09:40.906Z</time>
      </trkpt>
      <trkpt lat="42.1084729" lon="-8.81529936">
        <time>2019-04-24T08:09:41.384Z</time>
      </trkpt>
      <trkpt lat="42.10857" lon="-8.81487742">
        <time>2019-04-24T08:09:42.041Z</time>
      </trkpt>
      <trkpt lat="42.1086237" lon="-8.8147024">
        <time>2019-04-24T08:09:42.323Z</time>
      </trkpt>
      <trkpt lat="42.1088237" lon="-8.81463191">
        <time>2019-04-24T08:09:42.737Z</time>
      </trkpt>
      <trkpt lat="42.1089246" lon="-8.81453619">
        <time>2019-04-24T08:09:42.984Z</time>
      </trkpt>
      <trkpt lat="42.1089626" lon="-8.81449663">
        <time>2019-04-24T08:09:43.080Z</time>
      </trkpt>
      <trkpt lat="42.1090263" lon="-8.81460098">
        <time>2019-04-24T08:09:43.281Z</time>
      </trkpt>
      <trkpt lat="42.1090148" lon="-8.81451339">
        <time>2019-04-24T08:09:43.413Z</time>
      </trkpt>
      <trkpt lat="42.1090351" lon="-8.81451523">
        <time>2019-04-24T08:09:43.454Z</time>
      </trkpt>
      <trkpt lat="42.109391" lon="-8.81449855">
        <time>2019-04-24T08:09:44.168Z</time>
      </trkpt>
      <trkpt lat="42.1097048" lon="-8.81433821">
        <time>2019-04-24T08:09:44.840Z</time>
      </trkpt>
      <trkpt lat="42.1098588" lon="-8.81377126">
        <time>2019-04-24T08:09:45.738Z</time>
      </trkpt>
      <trkpt lat="42.1100959" lon="-8.81355877">
        <time>2019-04-24T08:09:46.309Z</time>
      </trkpt>
      <trkpt lat="42.1105932" lon="-8.81347697">
        <time>2019-04-24T08:09:47.313Z</time>
      </trkpt>
      <trkpt lat="42.1111973" lon="-8.81351619">
        <time>2019-04-24T08:09:48.525Z</time>
      </trkpt>
      <trkpt lat="42.1116426" lon="-8.8134944">
        <time>2019-04-24T08:09:49.418Z</time>
      </trkpt>
      <trkpt lat="42.1120335" lon="-8.81323305">
        <time>2019-04-24T08:09:50.292Z</time>
      </trkpt>
      <trkpt lat="42.112352" lon="-8.81282628">
        <time>2019-04-24T08:09:51.171Z</time>
      </trkpt>
      <trkpt lat="42.1126758" lon="-8.8125558">
        <time>2019-04-24T08:09:51.934Z</time>
      </trkpt>
      <trkpt lat="42.1129991" lon="-8.81249788">
        <time>2019-04-24T08:09:52.588Z</time>
      </trkpt>
      <trkpt lat="42.1131939" lon="-8.81247114">
        <time>2019-04-24T08:09:52.980Z</time>
      </trkpt>
      <trkpt lat="42.1133214" lon="-8.81241708">
        <time>2019-04-24T08:09:53.248Z</time>
      </trkpt>
      <trkpt lat="42.113463" lon="-8.81237366">
        <time>2019-04-24T08:09:53.539Z</time>
      </trkpt>
      <trkpt lat="42.1135579" lon="-8.81239386">
        <time>2019-04-24T08:09:53.732Z</time>
      </trkpt>
      <trkpt lat="42.1136364" lon="-8.81241615">
        <time>2019-04-24T08:09:53.893Z</time>
      </trkpt>
      <trkpt lat="42.1136954" lon="-8.81243091">
        <time>2019-04-24T08:09:54.013Z</time>
      </trkpt>
      <trkpt lat="42.1137483" lon="-8.81248237">
        <time>2019-04-24T08:09:54.144Z</time>
      </trkpt>
      <trkpt lat="42.1139191" lon="-8.81246024">
        <time>2019-04-24T08:09:54.488Z</time>
      </trkpt>
      <trkpt lat="42.1140754" lon="-8.81240744">
        <time>2019-04-24T08:09:54.811Z</time>
      </trkpt>
      <trkpt lat="42.1141406" lon="-8.81238589">
        <time>2019-04-24T08:09:54.946Z</time>
      </trkpt>
      <trkpt lat="42.1142456" lon="-8.81233384">
        <time>2019-04-24T08:09:55.170Z</time>
      </trkpt>
      <trkpt lat="42.114612" lon="-8.81252311">
        <time>2019-04-24T08:09:55.956Z</time>
      </trkpt>
      <trkpt lat="42.1148812" lon="-8.81270952">
        <time>2019-04-24T08:09:56.562Z</time>
      </trkpt>
      <trkpt lat="42.1149174" lon="-8.8127319">
        <time>2019-04-24T08:09:56.642Z</time>
      </trkpt>
      <trkpt lat="42.1149822" lon="-8.81275612">
        <time>2019-04-24T08:09:56.777Z</time>
      </trkpt>
      <trkpt lat="42.1150101" lon="-8.81276224">
        <time>2019-04-24T08:09:56.834Z</time>
      </trkpt>
      <trkpt lat="42.1150376" lon="-8.81275914">
        <time>2019-04-24T08:09:56.889Z</time>
      </trkpt>
      <trkpt lat="42.1150386" lon="-8.81273986">
        <time>2019-04-24T08:09:56.918Z</time>
      </trkpt>
      <trkpt lat="42.115039" lon="-8.81275881">
        <time>2019-04-24T08:09:56.946Z</time>
      </trkpt>
      <trkpt lat="42.1150454" lon="-8.81278311">
        <time>2019-04-24T08:09:56.984Z</time>
      </trkpt>
      <trkpt lat="42.1150362" lon="-8.81279401">
        <time>2019-04-24T08:09:57.009Z</time>
      </trkpt>
      <trkpt lat="42.1150582" lon="-8.81282377">
        <time>2019-04-24T08:09:57.071Z</time>
      </trkpt>
      <trkpt lat="42.1151968" lon="-8.81275202">
        <time>2019-04-24T08:09:57.369Z</time>
      </trkpt>
      <trkpt lat="42.115489" lon="-8.8126407">
        <time>2019-04-24T08:09:57.977Z</time>
      </trkpt>
      <trkpt lat="42.1157015" lon="-8.81251975">
        <time>2019-04-24T08:09:58.439Z</time>
      </trkpt>
      <trkpt lat="42.1158025" lon="-8.81245899">
        <time>2019-04-24T08:09:58.661Z</time>
      </trkpt>
      <trkpt lat="42.1158068" lon="-8.81246921">
        <time>2019-04-24T08:09:58.678Z</time>
      </trkpt>
      <trkpt lat="42.1157998" lon="-8.81244784">
        <time>2019-04-24T08:09:58.713Z</time>
      </trkpt>
      <trkpt lat="42.1158117" lon="-8.81247977">
        <time>2019-04-24T08:09:58.766Z</time>
      </trkpt>
      <trkpt lat="42.1158344" lon="-8.81247256">
        <time>2019-04-24T08:09:58.813Z</time>
      </trkpt>
      <trkpt lat="42.116012" lon="-8.81253794">
        <time>2019-04-24T08:09:59.182Z</time>
      </trkpt>
      <trkpt lat="42.1160404" lon="-8.81253585">
        <time>2019-04-24T08:09:59.239Z</time>
      </trkpt>
      <trkpt lat="42.1162285" lon="-8.81255814">
        <time>2019-04-24T08:09:59.617Z</time>
      </trkpt>
      <trkpt lat="42.1162846" lon="-8.81223913">
        <time>2019-04-24T08:10:00.104Z</time>
      </trkpt>
      <trkpt lat="42.1163817" lon="-8.81215522">
        <time>2019-04-24T08:10:00.335Z</time>
      </trkpt>
      <trkpt lat="42.1166672" lon="-8.81191902">
        <time>2019-04-24T08:10:01.006Z</time>
      </trkpt>
      <trkpt lat="42.1172997" lon="-8.81136934">
        <time>2019-04-24T08:10:02.514Z</time>
      </trkpt>
      <trkpt lat="42.1173733" lon="-8.81131075">
        <time>2019-04-24T08:10:02.685Z</time>
      </trkpt>
      <trkpt lat="42.1176172" lon="-8.81112383">
        <time>2019-04-24T08:10:03.247Z</time>
      </trkpt>
      <trkpt lat="42.1177848" lon="-8.81092057">
        <time>2019-04-24T08:10:03.699Z</time>
      </trkpt>
      <trkpt lat="42.1178674" lon="-8.81083801">
        <time>2019-04-24T08:10:03.905Z</time>
      </trkpt>
      <trkpt lat="42.1181414" lon="-8.81060382">
        <time>2019-04-24T08:10:04.555Z</time>
      </trkpt>
      <trkpt lat="42.1183883" lon="-8.81043777">
        <time>2019-04-24T08:10:05.108Z</time>
      </trkpt>
      <trkpt lat="42.1184917" lon="-8.81035312">
        <time>2019-04-24T08:10:05.350Z</time>
      </trkpt>
      <trkpt lat="42.1185922" lon="-8.81033359">
        <time>2019-04-24T08:10:05.553Z</time>
      </trkpt>
      <trkpt lat="42.1186898" lon="-8.81027751">
        <time>2019-04-24T08:10:05.766Z</time>
      </trkpt>
      <trkpt lat="42.1186848" lon="-8.81026418">
        <time>2019-04-24T08:10:05.788Z</time>
      </trkpt>
      <trkpt lat="42.1186948" lon="-8.81026175">
        <time>2019-04-24T08:10:05.808Z</time>
      </trkpt>
      <trkpt lat="42.1186975" lon="-8.81025941">
        <time>2019-04-24T08:10:05.814Z</time>
      </trkpt>
      <trkpt lat="42.1186879" lon="-8.81025672">
        <time>2019-04-24T08:10:05.834Z</time>
      </trkpt>
      <trkpt lat="42.1187094" lon="-8.81026821">
        <time>2019-04-24T08:10:05.880Z</time>
      </trkpt>
      <trkpt lat="42.1187138" lon="-8.81029226">
        <time>2019-04-24T08:10:05.917Z</time>
      </trkpt>
      <trkpt lat="42.1187155" lon="-8.81029142">
        <time>2019-04-24T08:10:05.920Z</time>
      </trkpt>
      <trkpt lat="42.1187049" lon="-8.8102879">
        <time>2019-04-24T08:10:05.942Z</time>
      </trkpt>
      <trkpt lat="42.1186939" lon="-8.8102905">
        <time>2019-04-24T08:10:05.964Z</time>
      </trkpt>
      <trkpt lat="42.1186994" lon="-8.81026385">
        <time>2019-04-24T08:10:06.005Z</time>
      </trkpt>
      <trkpt lat="42.1187134" lon="-8.81025102">
        <time>2019-04-24T08:10:06.039Z</time>
      </trkpt>
      <trkpt lat="42.1187239" lon="-8.81025865">
        <time>2019-04-24T08:10:06.063Z</time>
      </trkpt>
      <trkpt lat="42.1187844" lon="-8.810319">
        <time>2019-04-24T08:10:06.214Z</time>
      </trkpt>
      <trkpt lat="42.1188272" lon="-8.81032194">
        <time>2019-04-24T08:10:06.300Z</time>
      </trkpt>
      <trkpt lat="42.118819" lon="-8.8103268">
        <time>2019-04-24T08:10:06.318Z</time>
      </trkpt>
      <trkpt lat="42.1187991" lon="-8.81033602">
        <time>2019-04-24T08:10:06.360Z</time>
      </trkpt>
      <trkpt lat="42.1187797" lon="-8.81034951">
        <time>2019-04-24T08:10:06.404Z</time>
      </trkpt>
      <trkpt lat="42.1187868" lon="-8.81034784">
        <time>2019-04-24T08:10:06.419Z</time>
      </trkpt>
      <trkpt lat="42.1187782" lon="-8.81036359">
        <time>2019-04-24T08:10:06.448Z</time>
      </trkpt>
      <trkpt lat="42.1187424" lon="-8.81037918">
        <time>2019-04-24T08:10:06.523Z</time>
      </trkpt>
      <trkpt lat="42.1185238" lon="-8.81037323">
        <time>2019-04-24T08:10:06.961Z</time>
      </trkpt>
      <trkpt lat="42.1184501" lon="-8.81037801">
        <time>2019-04-24T08:10:07.109Z</time>
      </trkpt>
      <trkpt lat="42.1184344" lon="-8.81039">
        <time>2019-04-24T08:10:07.145Z</time>
      </trkpt>
      <trkpt lat="42.1183998" lon="-8.81035731">
        <time>2019-04-24T08:10:07.230Z</time>
      </trkpt>
      <trkpt lat="42.1183402" lon="-8.81007475">
        <time>2019-04-24T08:10:07.667Z</time>
      </trkpt>
      <trkpt lat="42.1183521" lon="-8.80958475">
        <time>2019-04-24T08:10:08.396Z</time>
      </trkpt>
      <trkpt lat="42.1184218" lon="-8.80934561">
        <time>2019-04-24T08:10:08.778Z</time>
      </trkpt>
      <trkpt lat="42.1184592" lon="-8.80893096">
        <time>2019-04-24T08:10:09.399Z</time>
      </trkpt>
      <trkpt lat="42.1186036" lon="-8.8088282">
        <time>2019-04-24T08:10:09.726Z</time>
      </trkpt>
      <trkpt lat="42.1187821" lon="-8.80872535">
        <time>2019-04-24T08:10:10.115Z</time>
      </trkpt>
      <trkpt lat="42.1191516" lon="-8.80853408">
        <time>2019-04-24T08:10:10.908Z</time>
      </trkpt>
      <trkpt lat="42.1194421" lon="-8.80831841">
        <time>2019-04-24T08:10:11.573Z</time>
      </trkpt>
      <trkpt lat="42.1194485" lon="-8.8083086">
        <time>2019-04-24T08:10:11.593Z</time>
      </trkpt>
      <trkpt lat="42.1194515" lon="-8.80830684">
        <time>2019-04-24T08:10:11.600Z</time>
      </trkpt>
      <trkpt lat="42.119456" lon="-8.80831615">
        <time>2019-04-24T08:10:11.616Z</time>
      </trkpt>
      <trkpt lat="42.1194838" lon="-8.80828312">
        <time>2019-04-24T08:10:11.690Z</time>
      </trkpt>
      <trkpt lat="42.1194702" lon="-8.80830709">
        <time>2019-04-24T08:10:11.735Z</time>
      </trkpt>
      <trkpt lat="42.1195308" lon="-8.80826812">
        <time>2019-04-24T08:10:11.870Z</time>
      </trkpt>
      <trkpt lat="42.1195327" lon="-8.80826468">
        <time>2019-04-24T08:10:11.876Z</time>
      </trkpt>
      <trkpt lat="42.1195293" lon="-8.80826753">
        <time>2019-04-24T08:10:11.884Z</time>
      </trkpt>
      <trkpt lat="42.1199606" lon="-8.80803795">
        <time>2019-04-24T08:10:12.813Z</time>
      </trkpt>
      <trkpt lat="42.120126" lon="-8.80797919">
        <time>2019-04-24T08:10:13.156Z</time>
      </trkpt>
      <trkpt lat="42.1204039" lon="-8.80779571">
        <time>2019-04-24T08:10:13.776Z</time>
      </trkpt>
      <trkpt lat="42.1205448" lon="-8.80761014">
        <time>2019-04-24T08:10:14.171Z</time>
      </trkpt>
      <trkpt lat="42.1206152" lon="-8.8073513">
        <time>2019-04-24T08:10:14.581Z</time>
      </trkpt>
      <trkpt lat="42.1206734" lon="-8.80696104">
        <time>2019-04-24T08:10:15.173Z</time>
      </trkpt>
      <trkpt lat="42.1207281" lon="-8.80681042">
        <time>2019-04-24T08:10:15.422Z</time>
      </trkpt>
      <trkpt lat="42.1210634" lon="-8.80610818">
        <time>2019-04-24T08:10:16.663Z</time>
      </trkpt>
      <trkpt lat="42.1213075" lon="-8.80580828">
        <time>2019-04-24T08:10:17.325Z</time>
      </trkpt>
      <trkpt lat="42.1216449" lon="-8.80554559">
        <time>2019-04-24T08:10:18.106Z</time>
      </trkpt>
      <trkpt lat="42.1219363" lon="-8.80531433">
        <time>2019-04-24T08:10:18.784Z</time>
      </trkpt>
      <trkpt lat="42.1222603" lon="-8.80525767">
        <time>2019-04-24T08:10:19.439Z</time>
      </trkpt>
      <trkpt lat="42.1224417" lon="-8.80526362">
        <time>2019-04-24T08:10:19.803Z</time>
      </trkpt>
      <trkpt lat="42.122784" lon="-8.80510236">
        <time>2019-04-24T08:10:20.530Z</time>
      </trkpt>
      <trkpt lat="42.1231871" lon="-8.80460623">
        <time>2019-04-24T08:10:21.624Z</time>
      </trkpt>
      <trkpt lat="42.1232722" lon="-8.80436165">
        <time>2019-04-24T08:10:22.026Z</time>
      </trkpt>
      <trkpt lat="42.1233081" lon="-8.80395521">
        <time>2019-04-24T08:10:22.634Z</time>
      </trkpt>
      <trkpt lat="42.1233205" lon="-8.80358624">
        <time>2019-04-24T08:10:23.183Z</time>
      </trkpt>
      <trkpt lat="42.1233588" lon="-8.80338474">
        <time>2019-04-24T08:10:23.492Z</time>
      </trkpt>
      <trkpt lat="42.1233949" lon="-8.80310134">
        <time>2019-04-24T08:10:23.919Z</time>
      </trkpt>
      <trkpt lat="42.1234139" lon="-8.8029907">
        <time>2019-04-24T08:10:24.088Z</time>
      </trkpt>
      <trkpt lat="42.1233872" lon="-8.80257974">
        <time>2019-04-24T08:10:24.701Z</time>
      </trkpt>
      <trkpt lat="42.1233426" lon="-8.80254697">
        <time>2019-04-24T08:10:24.803Z</time>
      </trkpt>
      <trkpt lat="42.1235351" lon="-8.80272156">
        <time>2019-04-24T08:10:25.268Z</time>
      </trkpt>
      <trkpt lat="42.1235932" lon="-8.80287939">
        <time>2019-04-24T08:10:25.530Z</time>
      </trkpt>
      <trkpt lat="42.123845" lon="-8.80339823">
        <time>2019-04-24T08:10:26.452Z</time>
      </trkpt>
      <trkpt lat="42.1239603" lon="-8.80354709">
        <time>2019-04-24T08:10:26.772Z</time>
      </trkpt>
      <trkpt lat="42.1242206" lon="-8.80379361">
        <time>2019-04-24T08:10:27.409Z</time>
      </trkpt>
      <trkpt lat="42.1244157" lon="-8.80405663">
        <time>2019-04-24T08:10:27.962Z</time>
      </trkpt>
      <trkpt lat="42.1246284" lon="-8.80416761">
        <time>2019-04-24T08:10:28.419Z</time>
      </trkpt>
      <trkpt lat="42.1247172" lon="-8.80415386">
        <time>2019-04-24T08:10:28.598Z</time>
      </trkpt>
      <trkpt lat="42.1249572" lon="-8.80425117">
        <time>2019-04-24T08:10:29.100Z</time>
      </trkpt>
      <trkpt lat="42.1253906" lon="-8.80440817">
        <time>2019-04-24T08:10:29.999Z</time>
      </trkpt>
      <trkpt lat="42.1257702" lon="-8.80435788">
        <time>2019-04-24T08:10:30.763Z</time>
      </trkpt>
      <trkpt lat="42.1259006" lon="-8.80429711">
        <time>2019-04-24T08:10:31.039Z</time>
      </trkpt>
      <trkpt lat="42.1261456" lon="-8.80452007">
        <time>2019-04-24T08:10:31.631Z</time>
      </trkpt>
      <trkpt lat="42.1263203" lon="-8.80520436">
        <time>2019-04-24T08:10:32.707Z</time>
      </trkpt>
      <trkpt lat="42.126356" lon="-8.80538458">
        <time>2019-04-24T08:10:32.984Z</time>
      </trkpt>
      <trkpt lat="42.1263409" lon="-8.80556889">
        <time>2019-04-24T08:10:33.260Z</time>
      </trkpt>
      <trkpt lat="42.126356" lon="-8.80581968">
        <time>2019-04-24T08:10:33.634Z</time>
      </trkpt>
      <trkpt lat="42.1264733" lon="-8.80582773">
        <time>2019-04-24T08:10:33.869Z</time>
      </trkpt>
      <trkpt lat="42.1269865" lon="-8.80556923">
        <time>2019-04-24T08:10:34.967Z</time>
      </trkpt>
      <trkpt lat="42.1274093" lon="-8.80534577">
        <time>2019-04-24T08:10:35.877Z</time>
      </trkpt>
      <trkpt lat="42.1275679" lon="-8.80528039">
        <time>2019-04-24T08:10:36.209Z</time>
      </trkpt>
      <trkpt lat="42.1276316" lon="-8.80524166">
        <time>2019-04-24T08:10:36.349Z</time>
      </trkpt>
      <trkpt lat="42.1280136" lon="-8.80498258">
        <time>2019-04-24T08:10:37.206Z</time>
      </trkpt>
      <trkpt lat="42.1284048" lon="-8.80491561">
        <time>2019-04-24T08:10:37.996Z</time>
      </trkpt>
      <trkpt lat="42.1288043" lon="-8.80477027">
        <time>2019-04-24T08:10:38.825Z</time>
      </trkpt>
      <trkpt lat="42.1291004" lon="-8.80476616">
        <time>2019-04-24T08:10:39.418Z</time>
      </trkpt>
      <trkpt lat="42.1293552" lon="-8.8047768">
        <time>2019-04-24T08:10:39.929Z</time>
      </trkpt>
      <trkpt lat="42.1295722" lon="-8.8046375">
        <time>2019-04-24T08:10:40.411Z</time>
      </trkpt>
      <trkpt lat="42.1299044" lon="-8.80460154">
        <time>2019-04-24T08:10:41.079Z</time>
      </trkpt>
      <trkpt lat="42.1302453" lon="-8.80451361">
        <time>2019-04-24T08:10:41.775Z</time>
      </trkpt>
      <trkpt lat="42.1304764" lon="-8.80428864">
        <time>2019-04-24T08:10:42.346Z</time>
      </trkpt>
      <trkpt lat="42.1305903" lon="-8.80388916">
        <time>2019-04-24T08:10:42.982Z</time>
      </trkpt>
      <trkpt lat="42.13059" lon="-8.80385396">
        <time>2019-04-24T08:10:43.034Z</time>
      </trkpt>
      <trkpt lat="42.1305391" lon="-8.80353192">
        <time>2019-04-24T08:10:43.523Z</time>
      </trkpt>
      <trkpt lat="42.1305391" lon="-8.80340921">
        <time>2019-04-24T08:10:43.705Z</time>
      </trkpt>
      <trkpt lat="42.130518" lon="-8.8030104">
        <time>2019-04-24T08:10:44.299Z</time>
      </trkpt>
      <trkpt lat="42.1305563" lon="-8.80247807">
        <time>2019-04-24T08:10:45.094Z</time>
      </trkpt>
      <trkpt lat="42.1306768" lon="-8.80230649">
        <time>2019-04-24T08:10:45.445Z</time>
      </trkpt>
      <trkpt lat="42.1309679" lon="-8.80267051">
        <time>2019-04-24T08:10:46.241Z</time>
      </trkpt>
      <trkpt lat="42.1309975" lon="-8.80275643">
        <time>2019-04-24T08:10:46.382Z</time>
      </trkpt>
      <trkpt lat="42.1311997" lon="-8.80345741">
        <time>2019-04-24T08:10:47.500Z</time>
      </trkpt>
      <trkpt lat="42.1314938" lon="-8.80378841">
        <time>2019-04-24T08:10:48.268Z</time>
      </trkpt>
      <trkpt lat="42.1315958" lon="-8.80373636">
        <time>2019-04-24T08:10:48.487Z</time>
      </trkpt>
      <trkpt lat="42.1317504" lon="-8.80375103">
        <time>2019-04-24T08:10:48.798Z</time>
      </trkpt>
      <trkpt lat="42.1320449" lon="-8.80415076">
        <time>2019-04-24T08:10:49.635Z</time>
      </trkpt>
      <trkpt lat="42.1321362" lon="-8.80435645">
        <time>2019-04-24T08:10:49.991Z</time>
      </trkpt>
      <trkpt lat="42.1321606" lon="-8.80433809">
        <time>2019-04-24T08:10:50.047Z</time>
      </trkpt>
      <trkpt lat="42.1321499" lon="-8.80431236">
        <time>2019-04-24T08:10:50.091Z</time>
      </trkpt>
      <trkpt lat="42.1320775" lon="-8.80409326">
        <time>2019-04-24T08:10:50.447Z</time>
      </trkpt>
      <trkpt lat="42.1322074" lon="-8.80399058">
        <time>2019-04-24T08:10:50.749Z</time>
      </trkpt>
      <trkpt lat="42.1324648" lon="-8.80381951">
        <time>2019-04-24T08:10:51.324Z</time>
      </trkpt>
      <trkpt lat="42.1325895" lon="-8.80403869">
        <time>2019-04-24T08:10:51.735Z</time>
      </trkpt>
      <trkpt lat="42.1325891" lon="-8.80402436">
        <time>2019-04-24T08:10:51.756Z</time>
      </trkpt>
      <trkpt lat="42.1324561" lon="-8.80357526">
        <time>2019-04-24T08:10:52.475Z</time>
      </trkpt>
      <trkpt lat="42.1324225" lon="-8.80321978">
        <time>2019-04-24T08:10:53.008Z</time>
      </trkpt>
      <trkpt lat="42.1324907" lon="-8.80311325">
        <time>2019-04-24T08:10:53.217Z</time>
      </trkpt>
      <trkpt lat="42.1325867" lon="-8.80295114">
        <time>2019-04-24T08:10:53.525Z</time>
      </trkpt>
      <trkpt lat="42.1327641" lon="-8.8027519">
        <time>2019-04-24T08:10:53.988Z</time>
      </trkpt>
      <trkpt lat="42.1331101" lon="-8.80236634">
        <time>2019-04-24T08:10:54.887Z</time>
      </trkpt>
      <trkpt lat="42.1333627" lon="-8.80206241">
        <time>2019-04-24T08:10:55.565Z</time>
      </trkpt>
      <trkpt lat="42.1337407" lon="-8.8016527">
        <time>2019-04-24T08:10:56.537Z</time>
      </trkpt>
      <trkpt lat="42.1339414" lon="-8.80155564">
        <time>2019-04-24T08:10:56.964Z</time>
      </trkpt>
      <trkpt lat="42.1340408" lon="-8.80154307">
        <time>2019-04-24T08:10:57.164Z</time>
      </trkpt>
      <trkpt lat="42.1343057" lon="-8.80118868">
        <time>2019-04-24T08:10:57.912Z</time>
      </trkpt>
      <trkpt lat="42.134335" lon="-8.80101392">
        <time>2019-04-24T08:10:58.178Z</time>
      </trkpt>
      <trkpt lat="42.1344235" lon="-8.80086572">
        <time>2019-04-24T08:10:58.461Z</time>
      </trkpt>
      <trkpt lat="42.1346272" lon="-8.8007265">
        <time>2019-04-24T08:10:58.919Z</time>
      </trkpt>
      <trkpt lat="42.135369" lon="-8.80023951">
        <time>2019-04-24T08:11:00.572Z</time>
      </trkpt>
      <trkpt lat="42.1360413" lon="-8.79993148">
        <time>2019-04-24T08:11:01.995Z</time>
      </trkpt>
      <trkpt lat="42.1361715" lon="-8.79976149">
        <time>2019-04-24T08:11:02.358Z</time>
      </trkpt>
      <trkpt lat="42.1362427" lon="-8.79960659">
        <time>2019-04-24T08:11:02.629Z</time>
      </trkpt>
      <trkpt lat="42.136275" lon="-8.79949444">
        <time>2019-04-24T08:11:02.808Z</time>
      </trkpt>
      <trkpt lat="42.1363976" lon="-8.79913654">
        <time>2019-04-24T08:11:03.394Z</time>
      </trkpt>
      <trkpt lat="42.1365879" lon="-8.79891618">
        <time>2019-04-24T08:11:03.897Z</time>
      </trkpt>
      <trkpt lat="42.1366205" lon="-8.79888407">
        <time>2019-04-24T08:11:03.978Z</time>
      </trkpt>
      <trkpt lat="42.1373402" lon="-8.79824663">
        <time>2019-04-24T08:11:05.703Z</time>
      </trkpt>
      <trkpt lat="42.1381013" lon="-8.79770784">
        <time>2019-04-24T08:11:07.426Z</time>
      </trkpt>
      <trkpt lat="42.1386202" lon="-8.79751137">
        <time>2019-04-24T08:11:08.506Z</time>
      </trkpt>
      <trkpt lat="42.1389908" lon="-8.79752193">
        <time>2019-04-24T08:11:09.249Z</time>
      </trkpt>
      <trkpt lat="42.1390623" lon="-8.79755848">
        <time>2019-04-24T08:11:09.402Z</time>
      </trkpt>
      <trkpt lat="42.1397011" lon="-8.7978153">
        <time>2019-04-24T08:11:10.738Z</time>
      </trkpt>
      <trkpt lat="42.1399025" lon="-8.79797372">
        <time>2019-04-24T08:11:11.205Z</time>
      </trkpt>
      <trkpt lat="42.1402106" lon="-8.79826742">
        <time>2019-04-24T08:11:11.961Z</time>
      </trkpt>
      <trkpt lat="42.1402203" lon="-8.79843137">
        <time>2019-04-24T08:11:12.205Z</time>
      </trkpt>
      <trkpt lat="42.140354" lon="-8.79841427">
        <time>2019-04-24T08:11:12.474Z</time>
      </trkpt>
      <trkpt lat="42.141054" lon="-8.79811353">
        <time>2019-04-24T08:11:13.946Z</time>
      </trkpt>
      <trkpt lat="42.1414406" lon="-8.79768152">
        <time>2019-04-24T08:11:14.952Z</time>
      </trkpt>
      <trkpt lat="42.1416067" lon="-8.79757683">
        <time>2019-04-24T08:11:15.319Z</time>
      </trkpt>
      <trkpt lat="42.1417008" lon="-8.79734943">
        <time>2019-04-24T08:11:15.706Z</time>
      </trkpt>
      <trkpt lat="42.141684" lon="-8.79696034">
        <time>2019-04-24T08:11:16.285Z</time>
      </trkpt>
      <trkpt lat="42.1417276" lon="-8.79669715">
        <time>2019-04-24T08:11:16.686Z</time>
      </trkpt>
      <trkpt lat="42.1418066" lon="-8.79626708">
        <time>2019-04-24T08:11:17.344Z</time>
      </trkpt>
      <trkpt lat="42.1420555" lon="-8.7962043">
        <time>2019-04-24T08:11:17.851Z</time>
      </trkpt>
      <trkpt lat="42.1425299" lon="-8.79606415">
        <time>2019-04-24T08:11:18.824Z</time>
      </trkpt>
      <trkpt lat="42.1425947" lon="-8.79596575">
        <time>2019-04-24T08:11:19.020Z</time>
      </trkpt>
      <trkpt lat="42.1425897" lon="-8.79592769">
        <time>2019-04-24T08:11:19.077Z</time>
      </trkpt>
      <trkpt lat="42.1426105" lon="-8.79560616">
        <time>2019-04-24T08:11:19.557Z</time>
      </trkpt>
      <trkpt lat="42.1431355" lon="-8.79543375">
        <time>2019-04-24T08:11:20.640Z</time>
      </trkpt>
      <trkpt lat="42.1439948" lon="-8.79511549">
        <time>2019-04-24T08:11:22.426Z</time>
      </trkpt>
      <trkpt lat="42.1446854" lon="-8.79490074">
        <time>2019-04-24T08:11:23.846Z</time>
      </trkpt>
      <trkpt lat="42.1448044" lon="-8.79486395">
        <time>2019-04-24T08:11:24.091Z</time>
      </trkpt>
      <trkpt lat="42.1455177" lon="-8.79475205">
        <time>2019-04-24T08:11:25.530Z</time>
      </trkpt>
      <trkpt lat="42.1457055" lon="-8.79465389">
        <time>2019-04-24T08:11:25.934Z</time>
      </trkpt>
      <trkpt lat="42.1459318" lon="-8.79455314">
        <time>2019-04-24T08:11:26.412Z</time>
      </trkpt>
      <trkpt lat="42.1461437" lon="-8.79451073">
        <time>2019-04-24T08:11:26.841Z</time>
      </trkpt>
      <trkpt lat="42.1463223" lon="-8.79456689">
        <time>2019-04-24T08:11:27.208Z</time>
      </trkpt>
      <trkpt lat="42.1468018" lon="-8.79466999">
        <time>2019-04-24T08:11:28.181Z</time>
      </trkpt>
      <trkpt lat="42.1469494" lon="-8.79472648">
        <time>2019-04-24T08:11:28.488Z</time>
      </trkpt>
      <trkpt lat="42.1471412" lon="-8.79475146">
        <time>2019-04-24T08:11:28.874Z</time>
      </trkpt>
      <trkpt lat="42.1478385" lon="-8.79490091">
        <time>2019-04-24T08:11:30.289Z</time>
      </trkpt>
      <trkpt lat="42.1480827" lon="-8.7949253">
        <time>2019-04-24T08:11:30.780Z</time>
      </trkpt>
      <trkpt lat="42.1481982" lon="-8.79487912">
        <time>2019-04-24T08:11:31.021Z</time>
      </trkpt>
      <trkpt lat="42.1483032" lon="-8.79482028">
        <time>2019-04-24T08:11:31.249Z</time>
      </trkpt>
      <trkpt lat="42.1483928" lon="-8.79447083">
        <time>2019-04-24T08:11:31.798Z</time>
      </trkpt>
      <trkpt lat="42.1484242" lon="-8.79432884">
        <time>2019-04-24T08:11:32.018Z</time>
      </trkpt>
      <trkpt lat="42.148829" lon="-8.79480502">
        <time>2019-04-24T08:11:33.094Z</time>
      </trkpt>
      <trkpt lat="42.1491142" lon="-8.79502756">
        <time>2019-04-24T08:11:33.754Z</time>
      </trkpt>
      <trkpt lat="42.1491677" lon="-8.79505866">
        <time>2019-04-24T08:11:33.871Z</time>
      </trkpt>
      <trkpt lat="42.1494726" lon="-8.79540919">
        <time>2019-04-24T08:11:34.674Z</time>
      </trkpt>
      <trkpt lat="42.1495208" lon="-8.7954402">
        <time>2019-04-24T08:11:34.781Z</time>
      </trkpt>
      <trkpt lat="42.149765" lon="-8.79570633">
        <time>2019-04-24T08:11:35.410Z</time>
      </trkpt>
      <trkpt lat="42.149787" lon="-8.79580339">
        <time>2019-04-24T08:11:35.561Z</time>
      </trkpt>
      <trkpt lat="42.149747" lon="-8.79599466">
        <time>2019-04-24T08:11:35.856Z</time>
      </trkpt>
      <trkpt lat="42.1497254" lon="-8.7964902">
        <time>2019-04-24T08:11:36.593Z</time>
      </trkpt>
      <trkpt lat="42.1498406" lon="-8.79699697">
        <time>2019-04-24T08:11:37.381Z</time>
      </trkpt>
      <trkpt lat="42.1497855" lon="-8.79739494">
        <time>2019-04-24T08:11:37.982Z</time>
      </trkpt>
      <trkpt lat="42.1496953" lon="-8.79751883">
        <time>2019-04-24T08:11:38.240Z</time>
      </trkpt>
      <trkpt lat="42.1496609" lon="-8.79755588">
        <time>2019-04-24T08:11:38.328Z</time>
      </trkpt>
      <trkpt lat="42.1494109" lon="-8.79790482">
        <time>2019-04-24T08:11:39.049Z</time>
      </trkpt>
      <trkpt lat="42.1492697" lon="-8.79831687">
        <time>2019-04-24T08:11:39.723Z</time>
      </trkpt>
      <trkpt lat="42.1492797" lon="-8.79860236">
        <time>2019-04-24T08:11:40.148Z</time>
      </trkpt>
      <trkpt lat="42.1493033" lon="-8.7986037">
        <time>2019-04-24T08:11:40.195Z</time>
      </trkpt>
      <trkpt lat="42.1495333" lon="-8.79866556">
        <time>2019-04-24T08:11:40.665Z</time>
      </trkpt>
      <trkpt lat="42.1498025" lon="-8.79870353">
        <time>2019-04-24T08:11:41.207Z</time>
      </trkpt>
      <trkpt lat="42.1498948" lon="-8.79874351">
        <time>2019-04-24T08:11:41.401Z</time>
      </trkpt>
      <trkpt lat="42.1500658" lon="-8.79890134">
        <time>2019-04-24T08:11:41.816Z</time>
      </trkpt>
      <trkpt lat="42.150238" lon="-8.79922815">
        <time>2019-04-24T08:11:42.412Z</time>
      </trkpt>
      <trkpt lat="42.1502939" lon="-8.7993942">
        <time>2019-04-24T08:11:42.683Z</time>
      </trkpt>
      <trkpt lat="42.1503777" lon="-8.79960726">
        <time>2019-04-24T08:11:43.041Z</time>
      </trkpt>
      <trkpt lat="42.1505232" lon="-8.79991714">
        <time>2019-04-24T08:11:43.586Z</time>
      </trkpt>
      <trkpt lat="42.1509577" lon="-8.80012912">
        <time>2019-04-24T08:11:44.512Z</time>
      </trkpt>
      <trkpt lat="42.1510905" lon="-8.80015854">
        <time>2019-04-24T08:11:44.782Z</time>
      </trkpt>
      <trkpt lat="42.1511916" lon="-8.80013943">
        <time>2019-04-24T08:11:44.987Z</time>
      </trkpt>
      <trkpt lat="42.1514244" lon="-8.8003173">
        <time>2019-04-24T08:11:45.523Z</time>
      </trkpt>
      <trkpt lat="42.1516133" lon="-8.80041101">
        <time>2019-04-24T08:11:45.926Z</time>
      </trkpt>
      <trkpt lat="42.1516454" lon="-8.80042701">
        <time>2019-04-24T08:11:45.995Z</time>
      </trkpt>
      <trkpt lat="42.1517869" lon="-8.80048066">
        <time>2019-04-24T08:11:46.290Z</time>
      </trkpt>
      <trkpt lat="42.152006" lon="-8.80056708">
        <time>2019-04-24T08:11:46.747Z</time>
      </trkpt>
      <trkpt lat="42.1522939" lon="-8.80078249">
        <time>2019-04-24T08:11:47.407Z</time>
      </trkpt>
      <trkpt lat="42.1523665" lon="-8.80085365">
        <time>2019-04-24T08:11:47.587Z</time>
      </trkpt>
      <trkpt lat="42.1524823" lon="-8.80095868">
        <time>2019-04-24T08:11:47.867Z</time>
      </trkpt>
      <trkpt lat="42.152598" lon="-8.80107502">
        <time>2019-04-24T08:11:48.156Z</time>
      </trkpt>
      <trkpt lat="42.1527548" lon="-8.80119513">
        <time>2019-04-24T08:11:48.517Z</time>
      </trkpt>
      <trkpt lat="42.1529108" lon="-8.801287">
        <time>2019-04-24T08:11:48.858Z</time>
      </trkpt>
      <trkpt lat="42.1532397" lon="-8.80134265">
        <time>2019-04-24T08:11:49.522Z</time>
      </trkpt>
      <trkpt lat="42.1533886" lon="-8.80141298">
        <time>2019-04-24T08:11:49.838Z</time>
      </trkpt>
      <trkpt lat="42.1537705" lon="-8.80168153">
        <time>2019-04-24T08:11:50.701Z</time>
      </trkpt>
      <trkpt lat="42.154053" lon="-8.80178287">
        <time>2019-04-24T08:11:51.287Z</time>
      </trkpt>
      <trkpt lat="42.1541919" lon="-8.80179787">
        <time>2019-04-24T08:11:51.566Z</time>
      </trkpt>
      <trkpt lat="42.1543582" lon="-8.8018216">
        <time>2019-04-24T08:11:51.901Z</time>
      </trkpt>
      <trkpt lat="42.1546617" lon="-8.80188312">
        <time>2019-04-24T08:11:52.516Z</time>
      </trkpt>
      <trkpt lat="42.154758" lon="-8.80193576">
        <time>2019-04-24T08:11:52.724Z</time>
      </trkpt>
      <trkpt lat="42.1549308" lon="-8.80196803">
        <time>2019-04-24T08:11:53.074Z</time>
      </trkpt>
      <trkpt lat="42.1552974" lon="-8.801906">
        <time>2019-04-24T08:11:53.814Z</time>
      </trkpt>
      <trkpt lat="42.1554293" lon="-8.80177273">
        <time>2019-04-24T08:11:54.144Z</time>
      </trkpt>
      <trkpt lat="42.155661" lon="-8.80157567">
        <time>2019-04-24T08:11:54.693Z</time>
      </trkpt>
      <trkpt lat="42.1559066" lon="-8.80139638">
        <time>2019-04-24T08:11:55.253Z</time>
      </trkpt>
      <trkpt lat="42.1562116" lon="-8.80119957">
        <time>2019-04-24T08:11:55.931Z</time>
      </trkpt>
      <trkpt lat="42.156294" lon="-8.80117166">
        <time>2019-04-24T08:11:56.101Z</time>
      </trkpt>
      <trkpt lat="42.1563722" lon="-8.80114836">
        <time>2019-04-24T08:11:56.261Z</time>
      </trkpt>
      <trkpt lat="42.156583" lon="-8.80109849">
        <time>2019-04-24T08:11:56.690Z</time>
      </trkpt>
      <trkpt lat="42.1566436" lon="-8.80108491">
        <time>2019-04-24T08:11:56.813Z</time>
      </trkpt>
      <trkpt lat="42.1569462" lon="-8.80105935">
        <time>2019-04-24T08:11:57.421Z</time>
      </trkpt>
      <trkpt lat="42.1573699" lon="-8.80106513">
        <time>2019-04-24T08:11:58.270Z</time>
      </trkpt>
      <trkpt lat="42.1573992" lon="-8.80106781">
        <time>2019-04-24T08:11:58.329Z</time>
      </trkpt>
      <trkpt lat="42.1574279" lon="-8.80106681">
        <time>2019-04-24T08:11:58.387Z</time>
      </trkpt>
      <trkpt lat="42.1574528" lon="-8.80106823">
        <time>2019-04-24T08:11:58.437Z</time>
      </trkpt>
      <trkpt lat="42.1574766" lon="-8.80107401">
        <time>2019-04-24T08:11:58.485Z</time>
      </trkpt>
      <trkpt lat="42.1574965" lon="-8.80108566">
        <time>2019-04-24T08:11:58.528Z</time>
      </trkpt>
      <trkpt lat="42.1575155" lon="-8.80110276">
        <time>2019-04-24T08:11:58.574Z</time>
      </trkpt>
      <trkpt lat="42.1575312" lon="-8.80111793">
        <time>2019-04-24T08:11:58.613Z</time>
      </trkpt>
      <trkpt lat="42.1576344" lon="-8.80130326">
        <time>2019-04-24T08:11:58.957Z</time>
      </trkpt>
      <trkpt lat="42.1578155" lon="-8.80159663">
        <time>2019-04-24T08:11:59.524Z</time>
      </trkpt>
      <trkpt lat="42.158078" lon="-8.80164306">
        <time>2019-04-24T08:12:00.055Z</time>
      </trkpt>
      <trkpt lat="42.1583222" lon="-8.80164977">
        <time>2019-04-24T08:12:00.544Z</time>
      </trkpt>
      <trkpt lat="42.1585769" lon="-8.8016605">
        <time>2019-04-24T08:12:01.055Z</time>
      </trkpt>
      <trkpt lat="42.1588429" lon="-8.80165597">
        <time>2019-04-24T08:12:01.588Z</time>
      </trkpt>
      <trkpt lat="42.1588607" lon="-8.8016527">
        <time>2019-04-24T08:12:01.624Z</time>
      </trkpt>
      <trkpt lat="42.1588789" lon="-8.80165572">
        <time>2019-04-24T08:12:01.661Z</time>
      </trkpt>
      <trkpt lat="42.1588965" lon="-8.80167307">
        <time>2019-04-24T08:12:01.705Z</time>
      </trkpt>
      <trkpt lat="42.1589145" lon="-8.80170056">
        <time>2019-04-24T08:12:01.759Z</time>
      </trkpt>
      <trkpt lat="42.1589242" lon="-8.801734">
        <time>2019-04-24T08:12:01.812Z</time>
      </trkpt>
      <trkpt lat="42.1589212" lon="-8.80176896">
        <time>2019-04-24T08:12:01.864Z</time>
      </trkpt>
      <trkpt lat="42.1589162" lon="-8.80180005">
        <time>2019-04-24T08:12:01.911Z</time>
      </trkpt>
      <trkpt lat="42.1589238" lon="-8.80182788">
        <time>2019-04-24T08:12:01.955Z</time>
      </trkpt>
      <trkpt lat="42.1589392" lon="-8.80184188">
        <time>2019-04-24T08:12:01.992Z</time>
      </trkpt>
      <trkpt lat="42.1589538" lon="-8.8018423">
        <time>2019-04-24T08:12:02.021Z</time>
      </trkpt>
      <trkpt lat="42.1589961" lon="-8.80178069">
        <time>2019-04-24T08:12:02.146Z</time>
      </trkpt>
      <trkpt lat="42.1590137" lon="-8.80176234">
        <time>2019-04-24T08:12:02.191Z</time>
      </trkpt>
      <trkpt lat="42.1591038" lon="-8.80163116">
        <time>2019-04-24T08:12:02.457Z</time>
      </trkpt>
      <trkpt lat="42.1594404" lon="-8.80115817">
        <time>2019-04-24T08:12:03.431Z</time>
      </trkpt>
      <trkpt lat="42.1595328" lon="-8.80100746">
        <time>2019-04-24T08:12:03.722Z</time>
      </trkpt>
      <trkpt lat="42.1595629" lon="-8.80097737">
        <time>2019-04-24T08:12:03.797Z</time>
      </trkpt>
      <trkpt lat="42.1595931" lon="-8.80094468">
        <time>2019-04-24T08:12:03.875Z</time>
      </trkpt>
      <trkpt lat="42.1596258" lon="-8.80090579">
        <time>2019-04-24T08:12:03.962Z</time>
      </trkpt>
      <trkpt lat="42.1596523" lon="-8.80086187">
        <time>2019-04-24T08:12:04.046Z</time>
      </trkpt>
      <trkpt lat="42.1596728" lon="-8.80081174">
        <time>2019-04-24T08:12:04.131Z</time>
      </trkpt>
      <trkpt lat="42.1596737" lon="-8.80065576">
        <time>2019-04-24T08:12:04.363Z</time>
      </trkpt>
      <trkpt lat="42.1596711" lon="-8.8006312">
        <time>2019-04-24T08:12:04.400Z</time>
      </trkpt>
      <trkpt lat="42.159673" lon="-8.80059038">
        <time>2019-04-24T08:12:04.461Z</time>
      </trkpt>
      <trkpt lat="42.1596756" lon="-8.80057361">
        <time>2019-04-24T08:12:04.486Z</time>
      </trkpt>
      <trkpt lat="42.1597112" lon="-8.80052349">
        <time>2019-04-24T08:12:04.589Z</time>
      </trkpt>
      <trkpt lat="42.1599097" lon="-8.80036817">
        <time>2019-04-24T08:12:05.049Z</time>
      </trkpt>
      <trkpt lat="42.1603746" lon="-8.80009526">
        <time>2019-04-24T08:12:06.065Z</time>
      </trkpt>
      <trkpt lat="42.1604451" lon="-8.80006793">
        <time>2019-04-24T08:12:06.212Z</time>
      </trkpt>
      <trkpt lat="42.1608877" lon="-8.80010071">
        <time>2019-04-24T08:12:07.100Z</time>
      </trkpt>
      <trkpt lat="42.1615891" lon="-8.8004333">
        <time>2019-04-24T08:12:08.590Z</time>
      </trkpt>
      <trkpt lat="42.1616286" lon="-8.80044881">
        <time>2019-04-24T08:12:08.672Z</time>
      </trkpt>
      <trkpt lat="42.1618035" lon="-8.80048041">
        <time>2019-04-24T08:12:09.026Z</time>
      </trkpt>
      <trkpt lat="42.1618469" lon="-8.80048133">
        <time>2019-04-24T08:12:09.113Z</time>
      </trkpt>
      <trkpt lat="42.1619301" lon="-8.80047395">
        <time>2019-04-24T08:12:09.280Z</time>
      </trkpt>
      <trkpt lat="42.1622991" lon="-8.80048619">
        <time>2019-04-24T08:12:10.020Z</time>
      </trkpt>
      <trkpt lat="42.1630035" lon="-8.80064075">
        <time>2019-04-24T08:12:11.450Z</time>
      </trkpt>
      <trkpt lat="42.1633177" lon="-8.80077067">
        <time>2019-04-24T08:12:12.109Z</time>
      </trkpt>
      <trkpt lat="42.1633583" lon="-8.80078626">
        <time>2019-04-24T08:12:12.194Z</time>
      </trkpt>
      <trkpt lat="42.1633996" lon="-8.80080135">
        <time>2019-04-24T08:12:12.280Z</time>
      </trkpt>
      <trkpt lat="42.163442" lon="-8.80081778">
        <time>2019-04-24T08:12:12.368Z</time>
      </trkpt>
      <trkpt lat="42.1634827" lon="-8.8008322">
        <time>2019-04-24T08:12:12.452Z</time>
      </trkpt>
      <trkpt lat="42.1635256" lon="-8.80083949">
        <time>2019-04-24T08:12:12.539Z</time>
      </trkpt>
      <trkpt lat="42.1636961" lon="-8.80084116">
        <time>2019-04-24T08:12:12.881Z</time>
      </trkpt>
      <trkpt lat="42.1641806" lon="-8.80075022">
        <time>2019-04-24T08:12:13.861Z</time>
      </trkpt>
      <trkpt lat="42.1645345" lon="-8.80042903">
        <time>2019-04-24T08:12:14.716Z</time>
      </trkpt>
      <trkpt lat="42.1648976" lon="-8.80032761">
        <time>2019-04-24T08:12:15.459Z</time>
      </trkpt>
      <trkpt lat="42.165307" lon="-8.80064444">
        <time>2019-04-24T08:12:16.405Z</time>
      </trkpt>
      <trkpt lat="42.1655561" lon="-8.80092046">
        <time>2019-04-24T08:12:17.051Z</time>
      </trkpt>
      <trkpt lat="42.1658226" lon="-8.80117317">
        <time>2019-04-24T08:12:17.704Z</time>
      </trkpt>
      <trkpt lat="42.1661215" lon="-8.80132555">
        <time>2019-04-24T08:12:18.344Z</time>
      </trkpt>
      <trkpt lat="42.1662251" lon="-8.80133394">
        <time>2019-04-24T08:12:18.552Z</time>
      </trkpt>
      <trkpt lat="42.1662646" lon="-8.80133318">
        <time>2019-04-24T08:12:18.631Z</time>
      </trkpt>
      <trkpt lat="42.1664733" lon="-8.80120921">
        <time>2019-04-24T08:12:19.088Z</time>
      </trkpt>
      <trkpt lat="42.1664893" lon="-8.80119647">
        <time>2019-04-24T08:12:19.125Z</time>
      </trkpt>
      <trkpt lat="42.166504" lon="-8.80118315">
        <time>2019-04-24T08:12:19.160Z</time>
      </trkpt>
      <trkpt lat="42.1665257" lon="-8.80115624">
        <time>2019-04-24T08:12:19.219Z</time>
      </trkpt>
      <trkpt lat="42.1664974" lon="-8.8011238">
        <time>2019-04-24T08:12:19.293Z</time>
      </trkpt>
      <trkpt lat="42.1664932" lon="-8.80109639">
        <time>2019-04-24T08:12:19.335Z</time>
      </trkpt>
      <trkpt lat="42.1664968" lon="-8.80105172">
        <time>2019-04-24T08:12:19.402Z</time>
      </trkpt>
      <trkpt lat="42.1665169" lon="-8.80100159">
        <time>2019-04-24T08:12:19.487Z</time>
      </trkpt>
      <trkpt lat="42.1665562" lon="-8.80095533">
        <time>2019-04-24T08:12:19.592Z</time>
      </trkpt>
      <trkpt lat="42.1666594" lon="-8.8008814">
        <time>2019-04-24T08:12:19.826Z</time>
      </trkpt>
      <trkpt lat="42.1667438" lon="-8.80083957">
        <time>2019-04-24T08:12:20.006Z</time>
      </trkpt>
      <trkpt lat="42.1667818" lon="-8.80082138">
        <time>2019-04-24T08:12:20.087Z</time>
      </trkpt>
      <trkpt lat="42.1668215" lon="-8.80079674">
        <time>2019-04-24T08:12:20.175Z</time>
      </trkpt>
      <trkpt lat="42.1668692" lon="-8.80075609">
        <time>2019-04-24T08:12:20.288Z</time>
      </trkpt>
      <trkpt lat="42.1669224" lon="-8.80070102">
        <time>2019-04-24T08:12:20.422Z</time>
      </trkpt>
      <trkpt lat="42.1669791" lon="-8.80063111">
        <time>2019-04-24T08:12:20.576Z</time>
      </trkpt>
      <trkpt lat="42.1670398" lon="-8.80054646">
        <time>2019-04-24T08:12:20.751Z</time>
      </trkpt>
      <trkpt lat="42.1671587" lon="-8.80035426">
        <time>2019-04-24T08:12:21.123Z</time>
      </trkpt>
      <trkpt lat="42.1672245" lon="-8.8002696">
        <time>2019-04-24T08:12:21.305Z</time>
      </trkpt>
      <trkpt lat="42.1675483" lon="-8.80007774">
        <time>2019-04-24T08:12:22.014Z</time>
      </trkpt>
      <trkpt lat="42.1676339" lon="-8.80003399">
        <time>2019-04-24T08:12:22.197Z</time>
      </trkpt>
      <trkpt lat="42.1677087" lon="-8.79997825">
        <time>2019-04-24T08:12:22.368Z</time>
      </trkpt>
      <trkpt lat="42.1678868" lon="-8.79981782">
        <time>2019-04-24T08:12:22.797Z</time>
      </trkpt>
      <trkpt lat="42.1679409" lon="-8.79978236">
        <time>2019-04-24T08:12:22.918Z</time>
      </trkpt>
      <trkpt lat="42.1679901" lon="-8.79977566">
        <time>2019-04-24T08:12:23.017Z</time>
      </trkpt>
      <trkpt lat="42.1680394" lon="-8.79978027">
        <time>2019-04-24T08:12:23.116Z</time>
      </trkpt>
      <trkpt lat="42.1680865" lon="-8.799792">
        <time>2019-04-24T08:12:23.212Z</time>
      </trkpt>
      <trkpt lat="42.1681341" lon="-8.79980097">
        <time>2019-04-24T08:12:23.308Z</time>
      </trkpt>
      <trkpt lat="42.1681758" lon="-8.79979443">
        <time>2019-04-24T08:12:23.392Z</time>
      </trkpt>
      <trkpt lat="42.1682093" lon="-8.79975646">
        <time>2019-04-24T08:12:23.480Z</time>
      </trkpt>
      <trkpt lat="42.1682182" lon="-8.79969544">
        <time>2019-04-24T08:12:23.572Z</time>
      </trkpt>
      <trkpt lat="42.1682098" lon="-8.7996257">
        <time>2019-04-24T08:12:23.677Z</time>
      </trkpt>
      <trkpt lat="42.1681913" lon="-8.79955261">
        <time>2019-04-24T08:12:23.792Z</time>
      </trkpt>
      <trkpt lat="42.1681671" lon="-8.79947986">
        <time>2019-04-24T08:12:23.910Z</time>
      </trkpt>
      <trkpt lat="42.1681483" lon="-8.79940258">
        <time>2019-04-24T08:12:24.031Z</time>
      </trkpt>
      <trkpt lat="42.1681424" lon="-8.79933083">
        <time>2019-04-24T08:12:24.138Z</time>
      </trkpt>
      <trkpt lat="42.1681579" lon="-8.7992745">
        <time>2019-04-24T08:12:24.227Z</time>
      </trkpt>
      <trkpt lat="42.1681922" lon="-8.79922505">
        <time>2019-04-24T08:12:24.328Z</time>
      </trkpt>
      <trkpt lat="42.1682377" lon="-8.7991823">
        <time>2019-04-24T08:12:24.439Z</time>
      </trkpt>
      <trkpt lat="42.1683063" lon="-8.79914467">
        <time>2019-04-24T08:12:24.587Z</time>
      </trkpt>
      <trkpt lat="42.1686312" lon="-8.79901852">
        <time>2019-04-24T08:12:25.265Z</time>
      </trkpt>
      <trkpt lat="42.1688448" lon="-8.79886044">
        <time>2019-04-24T08:12:25.753Z</time>
      </trkpt>
      <trkpt lat="42.1690288" lon="-8.79872079">
        <time>2019-04-24T08:12:26.176Z</time>
      </trkpt>
      <trkpt lat="42.1692319" lon="-8.79869816">
        <time>2019-04-24T08:12:26.584Z</time>
      </trkpt>
      <trkpt lat="42.1694487" lon="-8.79865634">
        <time>2019-04-24T08:12:27.023Z</time>
      </trkpt>
      <trkpt lat="42.1696519" lon="-8.79859029">
        <time>2019-04-24T08:12:27.442Z</time>
      </trkpt>
      <trkpt lat="42.1699961" lon="-8.79845593">
        <time>2019-04-24T08:12:28.160Z</time>
      </trkpt>
      <trkpt lat="42.1702145" lon="-8.7984141">
        <time>2019-04-24T08:12:28.602Z</time>
      </trkpt>
      <trkpt lat="42.1702289" lon="-8.79841125">
        <time>2019-04-24T08:12:28.631Z</time>
      </trkpt>
      <trkpt lat="42.1702481" lon="-8.79841192">
        <time>2019-04-24T08:12:28.670Z</time>
      </trkpt>
      <trkpt lat="42.170259" lon="-8.79842324">
        <time>2019-04-24T08:12:28.698Z</time>
      </trkpt>
      <trkpt lat="42.1702736" lon="-8.79843472">
        <time>2019-04-24T08:12:28.732Z</time>
      </trkpt>
      <trkpt lat="42.1702953" lon="-8.7984462">
        <time>2019-04-24T08:12:28.779Z</time>
      </trkpt>
      <trkpt lat="42.1703971" lon="-8.79842843">
        <time>2019-04-24T08:12:28.985Z</time>
      </trkpt>
      <trkpt lat="42.1704333" lon="-8.79840999">
        <time>2019-04-24T08:12:29.063Z</time>
      </trkpt>
      <trkpt lat="42.1704874" lon="-8.79837839">
        <time>2019-04-24T08:12:29.181Z</time>
      </trkpt>
      <trkpt lat="42.1705334" lon="-8.79834378">
        <time>2019-04-24T08:12:29.287Z</time>
      </trkpt>
      <trkpt lat="42.1706844" lon="-8.79817631">
        <time>2019-04-24T08:12:29.679Z</time>
      </trkpt>
      <trkpt lat="42.170721" lon="-8.79813725">
        <time>2019-04-24T08:12:29.773Z</time>
      </trkpt>
      <trkpt lat="42.1708091" lon="-8.7979909">
        <time>2019-04-24T08:12:30.053Z</time>
      </trkpt>
      <trkpt lat="42.1710493" lon="-8.79772511">
        <time>2019-04-24T08:12:30.676Z</time>
      </trkpt>
      <trkpt lat="42.1711091" lon="-8.79766887">
        <time>2019-04-24T08:12:30.822Z</time>
      </trkpt>
      <trkpt lat="42.1711637" lon="-8.79762117">
        <time>2019-04-24T08:12:30.952Z</time>
      </trkpt>
      <trkpt lat="42.1711844" lon="-8.79759594">
        <time>2019-04-24T08:12:31.008Z</time>
      </trkpt>
      <trkpt lat="42.1711979" lon="-8.79757205">
        <time>2019-04-24T08:12:31.053Z</time>
      </trkpt>
      <trkpt lat="42.1712072" lon="-8.79755328">
        <time>2019-04-24T08:12:31.087Z</time>
      </trkpt>
      <trkpt lat="42.171205" lon="-8.79754548">
        <time>2019-04-24T08:12:31.099Z</time>
      </trkpt>
      <trkpt lat="42.1712029" lon="-8.79753945">
        <time>2019-04-24T08:12:31.109Z</time>
      </trkpt>
      <trkpt lat="42.1712733" lon="-8.79736008">
        <time>2019-04-24T08:12:31.410Z</time>
      </trkpt>
      <trkpt lat="42.1712821" lon="-8.7973387">
        <time>2019-04-24T08:12:31.446Z</time>
      </trkpt>
      <trkpt lat="42.1713233" lon="-8.79708959">
        <time>2019-04-24T08:12:31.825Z</time>
      </trkpt>
      <trkpt lat="42.1712298" lon="-8.79684786">
        <time>2019-04-24T08:12:32.230Z</time>
      </trkpt>
      <trkpt lat="42.1712257" lon="-8.79683151">
        <time>2019-04-24T08:12:32.256Z</time>
      </trkpt>
      <trkpt lat="42.1712394" lon="-8.79670059">
        <time>2019-04-24T08:12:32.452Z</time>
      </trkpt>
      <trkpt lat="42.1712471" lon="-8.79667729">
        <time>2019-04-24T08:12:32.490Z</time>
      </trkpt>
      <trkpt lat="42.1712573" lon="-8.79665834">
        <time>2019-04-24T08:12:32.525Z</time>
      </trkpt>
      <trkpt lat="42.1712702" lon="-8.79664963">
        <time>2019-04-24T08:12:32.554Z</time>
      </trkpt>
      <trkpt lat="42.1712873" lon="-8.79664728">
        <time>2019-04-24T08:12:32.588Z</time>
      </trkpt>
      <trkpt lat="42.1713066" lon="-8.7966446">
        <time>2019-04-24T08:12:32.627Z</time>
      </trkpt>
      <trkpt lat="42.1713238" lon="-8.79663865">
        <time>2019-04-24T08:12:32.663Z</time>
      </trkpt>
      <trkpt lat="42.171342" lon="-8.79663295">
        <time>2019-04-24T08:12:32.700Z</time>
      </trkpt>
      <trkpt lat="42.1713589" lon="-8.79663018">
        <time>2019-04-24T08:12:32.734Z</time>
      </trkpt>
      <trkpt lat="42.1713772" lon="-8.79662716">
        <time>2019-04-24T08:12:32.771Z</time>
      </trkpt>
      <trkpt lat="42.1713919" lon="-8.79662356">
        <time>2019-04-24T08:12:32.801Z</time>
      </trkpt>
      <trkpt lat="42.1714075" lon="-8.79662347">
        <time>2019-04-24T08:12:32.832Z</time>
      </trkpt>
      <trkpt lat="42.1715292" lon="-8.79667393">
        <time>2019-04-24T08:12:33.087Z</time>
      </trkpt>
      <trkpt lat="42.1718231" lon="-8.7966648">
        <time>2019-04-24T08:12:33.676Z</time>
      </trkpt>
      <trkpt lat="42.1720565" lon="-8.79663923">
        <time>2019-04-24T08:12:34.145Z</time>
      </trkpt>
      <trkpt lat="42.1721264" lon="-8.79667125">
        <time>2019-04-24T08:12:34.293Z</time>
      </trkpt>
      <trkpt lat="42.1722352" lon="-8.79667838">
        <time>2019-04-24T08:12:34.511Z</time>
      </trkpt>
      <trkpt lat="42.1725626" lon="-8.79665063">
        <time>2019-04-24T08:12:35.168Z</time>
      </trkpt>
      <trkpt lat="42.1726598" lon="-8.79675901">
        <time>2019-04-24T08:12:35.421Z</time>
      </trkpt>
      <trkpt lat="42.172667" lon="-8.79678005">
        <time>2019-04-24T08:12:35.455Z</time>
      </trkpt>
      <trkpt lat="42.1726722" lon="-8.79680109">
        <time>2019-04-24T08:12:35.488Z</time>
      </trkpt>
      <trkpt lat="42.1727526" lon="-8.79699446">
        <time>2019-04-24T08:12:35.817Z</time>
      </trkpt>
      <trkpt lat="42.1727596" lon="-8.79701374">
        <time>2019-04-24T08:12:35.849Z</time>
      </trkpt>
      <trkpt lat="42.1728411" lon="-8.79721138">
        <time>2019-04-24T08:12:36.185Z</time>
      </trkpt>
      <trkpt lat="42.1728752" lon="-8.79728489">
        <time>2019-04-24T08:12:36.314Z</time>
      </trkpt>
      <trkpt lat="42.1731154" lon="-8.79754465">
        <time>2019-04-24T08:12:36.931Z</time>
      </trkpt>
      <trkpt lat="42.1734218" lon="-8.79780239">
        <time>2019-04-24T08:12:37.655Z</time>
      </trkpt>
      <trkpt lat="42.173701" lon="-8.79794714">
        <time>2019-04-24T08:12:38.254Z</time>
      </trkpt>
      <trkpt lat="42.1738599" lon="-8.79806516">
        <time>2019-04-24T08:12:38.617Z</time>
      </trkpt>
      <trkpt lat="42.1739984" lon="-8.79817396">
        <time>2019-04-24T08:12:38.938Z</time>
      </trkpt>
      <trkpt lat="42.1741622" lon="-8.79829047">
        <time>2019-04-24T08:12:39.309Z</time>
      </trkpt>
      <trkpt lat="42.1743689" lon="-8.79834855">
        <time>2019-04-24T08:12:39.732Z</time>
      </trkpt>
      <trkpt lat="42.1745134" lon="-8.79842936">
        <time>2019-04-24T08:12:40.045Z</time>
      </trkpt>
      <trkpt lat="42.1747439" lon="-8.79845065">
        <time>2019-04-24T08:12:40.508Z</time>
      </trkpt>
      <trkpt lat="42.1749757" lon="-8.79851913">
        <time>2019-04-24T08:12:40.984Z</time>
      </trkpt>
      <trkpt lat="42.1751345" lon="-8.79853698">
        <time>2019-04-24T08:12:41.303Z</time>
      </trkpt>
      <trkpt lat="42.1753468" lon="-8.7985063">
        <time>2019-04-24T08:12:41.731Z</time>
      </trkpt>
      <trkpt lat="42.1755324" lon="-8.79848225">
        <time>2019-04-24T08:12:42.105Z</time>
      </trkpt>
      <trkpt lat="42.1755727" lon="-8.79844821">
        <time>2019-04-24T08:12:42.200Z</time>
      </trkpt>
      <trkpt lat="42.1755152" lon="-8.79848342">
        <time>2019-04-24T08:12:42.327Z</time>
      </trkpt>
      <trkpt lat="42.1755424" lon="-8.79849432">
        <time>2019-04-24T08:12:42.384Z</time>
      </trkpt>
      <trkpt lat="42.1755452" lon="-8.79848669">
        <time>2019-04-24T08:12:42.397Z</time>
      </trkpt>
      <trkpt lat="42.1756306" lon="-8.79846431">
        <time>2019-04-24T08:12:42.571Z</time>
      </trkpt>
      <trkpt lat="42.1756717" lon="-8.79846381">
        <time>2019-04-24T08:12:42.653Z</time>
      </trkpt>
      <trkpt lat="42.1756763" lon="-8.79847143">
        <time>2019-04-24T08:12:42.668Z</time>
      </trkpt>
      <trkpt lat="42.175588" lon="-8.7984747">
        <time>2019-04-24T08:12:42.845Z</time>
      </trkpt>
      <trkpt lat="42.1755829" lon="-8.79851091">
        <time>2019-04-24T08:12:42.900Z</time>
      </trkpt>
      <trkpt lat="42.1756371" lon="-8.7985239">
        <time>2019-04-24T08:12:43.010Z</time>
      </trkpt>
      <trkpt lat="42.175794" lon="-8.79849172">
        <time>2019-04-24T08:12:43.328Z</time>
      </trkpt>
      <trkpt lat="42.175988" lon="-8.79848442">
        <time>2019-04-24T08:12:43.717Z</time>
      </trkpt>
      <trkpt lat="42.1760411" lon="-8.79854695">
        <time>2019-04-24T08:12:43.858Z</time>
      </trkpt>
      <trkpt lat="42.1761114" lon="-8.79851007">
        <time>2019-04-24T08:12:44.009Z</time>
      </trkpt>
      <trkpt lat="42.1762124" lon="-8.79847403">
        <time>2019-04-24T08:12:44.218Z</time>
      </trkpt>
      <trkpt lat="42.1762918" lon="-8.79849038">
        <time>2019-04-24T08:12:44.379Z</time>
      </trkpt>
      <trkpt lat="42.1763101" lon="-8.79850965">
        <time>2019-04-24T08:12:44.426Z</time>
      </trkpt>
      <trkpt lat="42.1763406" lon="-8.79859264">
        <time>2019-04-24T08:12:44.564Z</time>
      </trkpt>
      <trkpt lat="42.1763938" lon="-8.79882439">
        <time>2019-04-24T08:12:44.924Z</time>
      </trkpt>
      <trkpt lat="42.1764682" lon="-8.79881794">
        <time>2019-04-24T08:12:45.073Z</time>
      </trkpt>
      <trkpt lat="42.1767098" lon="-8.79879464">
        <time>2019-04-24T08:12:45.558Z</time>
      </trkpt>
      <trkpt lat="42.1767391" lon="-8.79878668">
        <time>2019-04-24T08:12:45.618Z</time>
      </trkpt>
      <trkpt lat="42.1770036" lon="-8.79859322">
        <time>2019-04-24T08:12:46.221Z</time>
      </trkpt>
      <trkpt lat="42.1772261" lon="-8.79824043">
        <time>2019-04-24T08:12:46.909Z</time>
      </trkpt>
      <trkpt lat="42.1772774" lon="-8.79813079">
        <time>2019-04-24T08:12:47.102Z</time>
      </trkpt>
      <trkpt lat="42.1774087" lon="-8.79757038">
        <time>2019-04-24T08:12:47.975Z</time>
      </trkpt>
      <trkpt lat="42.1773985" lon="-8.79713519">
        <time>2019-04-24T08:12:48.622Z</time>
      </trkpt>
      <trkpt lat="42.1774058" lon="-8.79663454">
        <time>2019-04-24T08:12:49.366Z</time>
      </trkpt>
      <trkpt lat="42.1773256" lon="-8.79621938">
        <time>2019-04-24T08:12:50.003Z</time>
      </trkpt>
      <trkpt lat="42.177234" lon="-8.79619105">
        <time>2019-04-24T08:12:50.191Z</time>
      </trkpt>
      <trkpt lat="42.1772515" lon="-8.79618225">
        <time>2019-04-24T08:12:50.228Z</time>
      </trkpt>
      <trkpt lat="42.1772832" lon="-8.796096">
        <time>2019-04-24T08:12:50.371Z</time>
      </trkpt>
      <trkpt lat="42.1773376" lon="-8.79578109">
        <time>2019-04-24T08:12:50.851Z</time>
      </trkpt>
      <trkpt lat="42.1774093" lon="-8.79554933">
        <time>2019-04-24T08:12:51.224Z</time>
      </trkpt>
      <trkpt lat="42.1775744" lon="-8.79523476">
        <time>2019-04-24T08:12:51.796Z</time>
      </trkpt>
      <trkpt lat="42.177793" lon="-8.79502077">
        <time>2019-04-24T08:12:52.337Z</time>
      </trkpt>
      <trkpt lat="42.1779581" lon="-8.7948564">
        <time>2019-04-24T08:12:52.748Z</time>
      </trkpt>
      <trkpt lat="42.1781116" lon="-8.79467686">
        <time>2019-04-24T08:12:53.155Z</time>
      </trkpt>
      <trkpt lat="42.1783332" lon="-8.7945663">
        <time>2019-04-24T08:12:53.628Z</time>
      </trkpt>
      <trkpt lat="42.1785406" lon="-8.79447955">
        <time>2019-04-24T08:12:54.063Z</time>
      </trkpt>
      <trkpt lat="42.178729" lon="-8.7943073">
        <time>2019-04-24T08:12:54.519Z</time>
      </trkpt>
      <trkpt lat="42.1787408" lon="-8.79429372">
        <time>2019-04-24T08:12:54.550Z</time>
      </trkpt>
      <trkpt lat="42.1788223" lon="-8.79412818">
        <time>2019-04-24T08:12:54.845Z</time>
      </trkpt>
      <trkpt lat="42.1788726" lon="-8.79406389">
        <time>2019-04-24T08:12:54.984Z</time>
      </trkpt>
      <trkpt lat="42.1789064" lon="-8.79402257">
        <time>2019-04-24T08:12:55.075Z</time>
      </trkpt>
      <trkpt lat="42.17901" lon="-8.79381403">
        <time>2019-04-24T08:12:55.448Z</time>
      </trkpt>
      <trkpt lat="42.1790476" lon="-8.79354899">
        <time>2019-04-24T08:12:55.849Z</time>
      </trkpt>
      <trkpt lat="42.179085" lon="-8.79343039">
        <time>2019-04-24T08:12:56.040Z</time>
      </trkpt>
      <trkpt lat="42.1790921" lon="-8.79340466">
        <time>2019-04-24T08:12:56.081Z</time>
      </trkpt>
      <trkpt lat="42.1791589" lon="-8.79316577">
        <time>2019-04-24T08:12:56.460Z</time>
      </trkpt>
      <trkpt lat="42.1792558" lon="-8.79292345">
        <time>2019-04-24T08:12:56.869Z</time>
      </trkpt>
      <trkpt lat="42.1792651" lon="-8.7928833">
        <time>2019-04-24T08:12:56.931Z</time>
      </trkpt>
      <trkpt lat="42.1793554" lon="-8.79272287">
        <time>2019-04-24T08:12:57.230Z</time>
      </trkpt>
      <trkpt lat="42.1794878" lon="-8.7925264">
        <time>2019-04-24T08:12:57.624Z</time>
      </trkpt>
      <trkpt lat="42.1796472" lon="-8.79227855">
        <time>2019-04-24T08:12:58.111Z</time>
      </trkpt>
      <trkpt lat="42.1798787" lon="-8.79205458">
        <time>2019-04-24T08:12:58.682Z</time>
      </trkpt>
      <trkpt lat="42.1801001" lon="-8.79184889">
        <time>2019-04-24T08:12:59.221Z</time>
      </trkpt>
      <trkpt lat="42.1801649" lon="-8.79174613">
        <time>2019-04-24T08:12:59.421Z</time>
      </trkpt>
      <trkpt lat="42.180187" lon="-8.79165996">
        <time>2019-04-24T08:12:59.556Z</time>
      </trkpt>
      <trkpt lat="42.1802513" lon="-8.79148738">
        <time>2019-04-24T08:12:59.843Z</time>
      </trkpt>
      <trkpt lat="42.1803503" lon="-8.79116526">
        <time>2019-04-24T08:13:00.361Z</time>
      </trkpt>
      <trkpt lat="42.1804366" lon="-8.79068456">
        <time>2019-04-24T08:13:01.095Z</time>
      </trkpt>
      <trkpt lat="42.1804406" lon="-8.79063544">
        <time>2019-04-24T08:13:01.168Z</time>
      </trkpt>
      <trkpt lat="42.1804605" lon="-8.79035389">
        <time>2019-04-24T08:13:01.588Z</time>
      </trkpt>
      <trkpt lat="42.1805663" lon="-8.78990052">
        <time>2019-04-24T08:13:02.294Z</time>
      </trkpt>
      <trkpt lat="42.1806054" lon="-8.78984453">
        <time>2019-04-24T08:13:02.408Z</time>
      </trkpt>
      <trkpt lat="42.1808874" lon="-8.78964898">
        <time>2019-04-24T08:13:03.043Z</time>
      </trkpt>
      <trkpt lat="42.1810687" lon="-8.78951906">
        <time>2019-04-24T08:13:03.454Z</time>
      </trkpt>
      <trkpt lat="42.1813273" lon="-8.78929367">
        <time>2019-04-24T08:13:04.071Z</time>
      </trkpt>
      <trkpt lat="42.1813799" lon="-8.78916065">
        <time>2019-04-24T08:13:04.295Z</time>
      </trkpt>
      <trkpt lat="42.1813789" lon="-8.78910885">
        <time>2019-04-24T08:13:04.372Z</time>
      </trkpt>
      <trkpt lat="42.181376" lon="-8.78905973">
        <time>2019-04-24T08:13:04.445Z</time>
      </trkpt>
      <trkpt lat="42.1814027" lon="-8.78875865">
        <time>2019-04-24T08:13:04.895Z</time>
      </trkpt>
      <trkpt lat="42.1813797" lon="-8.78871062">
        <time>2019-04-24T08:13:04.980Z</time>
      </trkpt>
      <trkpt lat="42.1813779" lon="-8.78852739">
        <time>2019-04-24T08:13:05.252Z</time>
      </trkpt>
      <trkpt lat="42.1813822" lon="-8.7883326">
        <time>2019-04-24T08:13:05.541Z</time>
      </trkpt>
      <trkpt lat="42.1814512" lon="-8.78822942">
        <time>2019-04-24T08:13:05.747Z</time>
      </trkpt>
      <trkpt lat="42.1815379" lon="-8.78814342">
        <time>2019-04-24T08:13:05.963Z</time>
      </trkpt>
      <trkpt lat="42.1816107" lon="-8.78806052">
        <time>2019-04-24T08:13:06.154Z</time>
      </trkpt>
      <trkpt lat="42.1817117" lon="-8.78801082">
        <time>2019-04-24T08:13:06.369Z</time>
      </trkpt>
      <trkpt lat="42.1817769" lon="-8.78794385">
        <time>2019-04-24T08:13:06.533Z</time>
      </trkpt>
      <trkpt lat="42.1817713" lon="-8.78785927">
        <time>2019-04-24T08:13:06.659Z</time>
      </trkpt>
      <trkpt lat="42.1818535" lon="-8.78780353">
        <time>2019-04-24T08:13:06.843Z</time>
      </trkpt>
      <trkpt lat="42.1819116" lon="-8.78768174">
        <time>2019-04-24T08:13:07.058Z</time>
      </trkpt>
      <trkpt lat="42.1820375" lon="-8.78753799">
        <time>2019-04-24T08:13:07.388Z</time>
      </trkpt>
      <trkpt lat="42.1821674" lon="-8.78747873">
        <time>2019-04-24T08:13:07.663Z</time>
      </trkpt>
      <trkpt lat="42.1824813" lon="-8.78745501">
        <time>2019-04-24T08:13:08.293Z</time>
      </trkpt>
      <trkpt lat="42.1826182" lon="-8.78750908">
        <time>2019-04-24T08:13:08.579Z</time>
      </trkpt>
      <trkpt lat="42.1826996" lon="-8.78751067">
        <time>2019-04-24T08:13:08.742Z</time>
      </trkpt>
      <trkpt lat="42.1827984" lon="-8.78750631">
        <time>2019-04-24T08:13:08.940Z</time>
      </trkpt>
      <trkpt lat="42.1829679" lon="-8.78751503">
        <time>2019-04-24T08:13:09.280Z</time>
      </trkpt>
      <trkpt lat="42.1833291" lon="-8.78744403">
        <time>2019-04-24T08:13:10.011Z</time>
      </trkpt>
      <trkpt lat="42.1834114" lon="-8.78739399">
        <time>2019-04-24T08:13:10.192Z</time>
      </trkpt>
      <trkpt lat="42.183603" lon="-8.78720649">
        <time>2019-04-24T08:13:10.666Z</time>
      </trkpt>
      <trkpt lat="42.1838382" lon="-8.78692">
        <time>2019-04-24T08:13:11.301Z</time>
      </trkpt>
      <trkpt lat="42.1839248" lon="-8.78682">
        <time>2019-04-24T08:13:11.529Z</time>
      </trkpt>
      <trkpt lat="42.1839619" lon="-8.78677767">
        <time>2019-04-24T08:13:11.626Z</time>
      </trkpt>
      <trkpt lat="42.1839613" lon="-8.78678723">
        <time>2019-04-24T08:13:11.640Z</time>
      </trkpt>
      <trkpt lat="42.1840835" lon="-8.78668094">
        <time>2019-04-24T08:13:11.931Z</time>
      </trkpt>
      <trkpt lat="42.18436487512317" lon="-8.786477834507629">
        <time>2019-04-24T08:13:12.570Z</time>
      </trkpt>
      <trkpt lat="42.1843652" lon="-8.7864776">
        <time>2019-04-24T08:13:12.570Z</time>
      </trkpt>
      <trkpt lat="42.1849156" lon="-8.78606362">
        <time>2019-04-24T08:13:13.833Z</time>
      </trkpt>
      <trkpt lat="42.1853118" lon="-8.78565492">
        <time>2019-04-24T08:13:14.832Z</time>
      </trkpt>
      <trkpt lat="42.1854882" lon="-8.78526172">
        <time>2019-04-24T08:13:15.515Z</time>
      </trkpt>
      <trkpt lat="42.1857897" lon="-8.78478194">
        <time>2019-04-24T08:13:16.449Z</time>
      </trkpt>
      <trkpt lat="42.1858225" lon="-8.78475294">
        <time>2019-04-24T08:13:16.528Z</time>
      </trkpt>
      <trkpt lat="42.1859694" lon="-8.7844392">
        <time>2019-04-24T08:13:17.079Z</time>
      </trkpt>
      <trkpt lat="42.1860622" lon="-8.78408147">
        <time>2019-04-24T08:13:17.642Z</time>
      </trkpt>
      <trkpt lat="42.1860592" lon="-8.78399454">
        <time>2019-04-24T08:13:17.771Z</time>
      </trkpt>
      <trkpt lat="42.1860108" lon="-8.78387913">
        <time>2019-04-24T08:13:17.968Z</time>
      </trkpt>
      <trkpt lat="42.1858507" lon="-8.78343866">
        <time>2019-04-24T08:13:18.696Z</time>
      </trkpt>
      <trkpt lat="42.1858106" lon="-8.7831779">
        <time>2019-04-24T08:13:19.091Z</time>
      </trkpt>
      <trkpt lat="42.1857403" lon="-8.78288998">
        <time>2019-04-24T08:13:19.541Z</time>
      </trkpt>
      <trkpt lat="42.1856045" lon="-8.78255537">
        <time>2019-04-24T08:13:20.107Z</time>
      </trkpt>
      <trkpt lat="42.185439" lon="-8.78203385">
        <time>2019-04-24T08:13:20.949Z</time>
      </trkpt>
      <trkpt lat="42.18543" lon="-8.78173168">
        <time>2019-04-24T08:13:21.398Z</time>
      </trkpt>
      <trkpt lat="42.1854383" lon="-8.78158852">
        <time>2019-04-24T08:13:21.611Z</time>
      </trkpt>
      <trkpt lat="42.1854583" lon="-8.7814472">
        <time>2019-04-24T08:13:21.825Z</time>
      </trkpt>
      <trkpt lat="42.1854595" lon="-8.78136665">
        <time>2019-04-24T08:13:21.945Z</time>
      </trkpt>
      <trkpt lat="42.1854867" lon="-8.78118937">
        <time>2019-04-24T08:13:22.214Z</time>
      </trkpt>
      <trkpt lat="42.1855007" lon="-8.78108804">
        <time>2019-04-24T08:13:22.367Z</time>
      </trkpt>
      <trkpt lat="42.1855067" lon="-8.78099743">
        <time>2019-04-24T08:13:22.502Z</time>
      </trkpt>
      <trkpt lat="42.1854951" lon="-8.7808862">
        <time>2019-04-24T08:13:22.669Z</time>
      </trkpt>
      <trkpt lat="42.1854892" lon="-8.78087136">
        <time>2019-04-24T08:13:22.694Z</time>
      </trkpt>
      <trkpt lat="42.1854787" lon="-8.7807422">
        <time>2019-04-24T08:13:22.887Z</time>
      </trkpt>
      <trkpt lat="42.1854947" lon="-8.78058747">
        <time>2019-04-24T08:13:23.119Z</time>
      </trkpt>
      <trkpt lat="42.1854989" lon="-8.78041421">
        <time>2019-04-24T08:13:23.376Z</time>
      </trkpt>
      <trkpt lat="42.1854781" lon="-8.78028329">
        <time>2019-04-24T08:13:23.575Z</time>
      </trkpt>
      <trkpt lat="42.1854901" lon="-8.78013686">
        <time>2019-04-24T08:13:23.794Z</time>
      </trkpt>
      <trkpt lat="42.185501" lon="-8.78011154">
        <time>2019-04-24T08:13:23.837Z</time>
      </trkpt>
      <trkpt lat="42.1855032" lon="-8.78010367">
        <time>2019-04-24T08:13:23.850Z</time>
      </trkpt>
      <trkpt lat="42.1855774" lon="-8.77986528">
        <time>2019-04-24T08:13:24.234Z</time>
      </trkpt>
      <trkpt lat="42.1856014" lon="-8.77974802">
        <time>2019-04-24T08:13:24.415Z</time>
      </trkpt>
      <trkpt lat="42.1856439" lon="-8.77945357">
        <time>2019-04-24T08:13:24.860Z</time>
      </trkpt>
      <trkpt lat="42.1858138" lon="-8.77915265">
        <time>2019-04-24T08:13:25.422Z</time>
      </trkpt>
      <trkpt lat="42.1859091" lon="-8.779141">
        <time>2019-04-24T08:13:25.614Z</time>
      </trkpt>
      <trkpt lat="42.1861104" lon="-8.77903137">
        <time>2019-04-24T08:13:26.049Z</time>
      </trkpt>
      <trkpt lat="42.1863763" lon="-8.77880103">
        <time>2019-04-24T08:13:26.682Z</time>
      </trkpt>
      <trkpt lat="42.1869823" lon="-8.77802772">
        <time>2019-04-24T08:13:28.353Z</time>
      </trkpt>
      <trkpt lat="42.1875576" lon="-8.77710202">
        <time>2019-04-24T08:13:30.147Z</time>
      </trkpt>
      <trkpt lat="42.1881711" lon="-8.77672207">
        <time>2019-04-24T08:13:31.500Z</time>
      </trkpt>
      <trkpt lat="42.188545" lon="-8.77658662">
        <time>2019-04-24T08:13:32.276Z</time>
      </trkpt>
      <trkpt lat="42.1890356" lon="-8.77646843">
        <time>2019-04-24T08:13:33.275Z</time>
      </trkpt>
      <trkpt lat="42.1895415" lon="-8.7763469">
        <time>2019-04-24T08:13:34.305Z</time>
      </trkpt>
      <trkpt lat="42.1895704" lon="-8.7763391">
        <time>2019-04-24T08:13:34.364Z</time>
      </trkpt>
      <trkpt lat="42.1899825" lon="-8.77623416">
        <time>2019-04-24T08:13:35.204Z</time>
      </trkpt>
      <trkpt lat="42.1903977" lon="-8.77612913">
        <time>2019-04-24T08:13:36.051Z</time>
      </trkpt>
      <trkpt lat="42.1909743" lon="-8.77593669">
        <time>2019-04-24T08:13:37.241Z</time>
      </trkpt>
      <trkpt lat="42.1913768" lon="-8.7755797">
        <time>2019-04-24T08:13:38.206Z</time>
      </trkpt>
      <trkpt lat="42.1918086" lon="-8.77511451">
        <time>2019-04-24T08:13:39.313Z</time>
      </trkpt>
      <trkpt lat="42.1924763" lon="-8.7743893">
        <time>2019-04-24T08:13:41.030Z</time>
      </trkpt>
      <trkpt lat="42.1926965" lon="-8.7740355">
        <time>2019-04-24T08:13:41.716Z</time>
      </trkpt>
      <trkpt lat="42.1931723" lon="-8.77321324">
        <time>2019-04-24T08:13:43.265Z</time>
      </trkpt>
      <trkpt lat="42.1934274" lon="-8.77284066">
        <time>2019-04-24T08:13:44.018Z</time>
      </trkpt>
      <trkpt lat="42.1936239" lon="-8.77243724">
        <time>2019-04-24T08:13:44.735Z</time>
      </trkpt>
      <trkpt lat="42.1941023" lon="-8.77145019">
        <time>2019-04-24T08:13:46.486Z</time>
      </trkpt>
      <trkpt lat="42.1943571" lon="-8.77083638">
        <time>2019-04-24T08:13:47.531Z</time>
      </trkpt>
      <trkpt lat="42.1945888" lon="-8.7702017">
        <time>2019-04-24T08:13:48.581Z</time>
      </trkpt>
      <trkpt lat="42.1948232" lon="-8.76919009">
        <time>2019-04-24T08:13:50.155Z</time>
      </trkpt>
      <trkpt lat="42.1949758" lon="-8.76858978">
        <time>2019-04-24T08:13:51.097Z</time>
      </trkpt>
      <trkpt lat="42.195351" lon="-8.76775285">
        <time>2019-04-24T08:13:52.549Z</time>
      </trkpt>
      <trkpt lat="42.1955695" lon="-8.76740659">
        <time>2019-04-24T08:13:53.224Z</time>
      </trkpt>
      <trkpt lat="42.1955916" lon="-8.7673817">
        <time>2019-04-24T08:13:53.282Z</time>
      </trkpt>
      <trkpt lat="42.1955871" lon="-8.76739896">
        <time>2019-04-24T08:13:53.309Z</time>
      </trkpt>
      <trkpt lat="42.1956197" lon="-8.7671724">
        <time>2019-04-24T08:13:53.652Z</time>
      </trkpt>
      <trkpt lat="42.1956131" lon="-8.76716645">
        <time>2019-04-24T08:13:53.668Z</time>
      </trkpt>
      <trkpt lat="42.1956583" lon="-8.76705832">
        <time>2019-04-24T08:13:53.852Z</time>
      </trkpt>
      <trkpt lat="42.1956799" lon="-8.76679035">
        <time>2019-04-24T08:13:54.252Z</time>
      </trkpt>
      <trkpt lat="42.1955766" lon="-8.76626238">
        <time>2019-04-24T08:13:55.063Z</time>
      </trkpt>
      <trkpt lat="42.1953939" lon="-8.76569752">
        <time>2019-04-24T08:13:55.978Z</time>
      </trkpt>
      <trkpt lat="42.1953706" lon="-8.76555955">
        <time>2019-04-24T08:13:56.188Z</time>
      </trkpt>
      <trkpt lat="42.1954528" lon="-8.76511707">
        <time>2019-04-24T08:13:56.865Z</time>
      </trkpt>
      <trkpt lat="42.1953043" lon="-8.76456764">
        <time>2019-04-24T08:13:57.733Z</time>
      </trkpt>
      <trkpt lat="42.1952641" lon="-8.76415735">
        <time>2019-04-24T08:13:58.347Z</time>
      </trkpt>
      <trkpt lat="42.1954611" lon="-8.76364094">
        <time>2019-04-24T08:13:59.209Z</time>
      </trkpt>
      <trkpt lat="42.1953999" lon="-8.76328697">
        <time>2019-04-24T08:13:59.749Z</time>
      </trkpt>
      <trkpt lat="42.1952564" lon="-8.7629522">
        <time>2019-04-24T08:14:00.323Z</time>
      </trkpt>
      <trkpt lat="42.1952721" lon="-8.76272639">
        <time>2019-04-24T08:14:00.660Z</time>
      </trkpt>
      <trkpt lat="42.1954163" lon="-8.76261818">
        <time>2019-04-24T08:14:00.991Z</time>
      </trkpt>
      <trkpt lat="42.1953984" lon="-8.7624984">
        <time>2019-04-24T08:14:01.172Z</time>
      </trkpt>
      <trkpt lat="42.1952771" lon="-8.76167915">
        <time>2019-04-24T08:14:02.412Z</time>
      </trkpt>
      <trkpt lat="42.195278" lon="-8.76064617">
        <time>2019-04-24T08:14:03.946Z</time>
      </trkpt>
      <trkpt lat="42.1953929" lon="-8.75984502">
        <time>2019-04-24T08:14:05.157Z</time>
      </trkpt>
      <trkpt lat="42.1954294" lon="-8.7596597">
        <time>2019-04-24T08:14:05.442Z</time>
      </trkpt>
      <trkpt lat="42.1956223" lon="-8.75957454">
        <time>2019-04-24T08:14:05.849Z</time>
      </trkpt>
      <trkpt lat="42.1958341" lon="-8.75926843">
        <time>2019-04-24T08:14:06.471Z</time>
      </trkpt>
      <trkpt lat="42.1960067" lon="-8.75909375">
        <time>2019-04-24T08:14:06.903Z</time>
      </trkpt>
      <trkpt lat="42.1961462" lon="-8.75874783">
        <time>2019-04-24T08:14:07.488Z</time>
      </trkpt>
      <trkpt lat="42.1962814" lon="-8.75822304">
        <time>2019-04-24T08:14:08.313Z</time>
      </trkpt>
      <trkpt lat="42.1966771" lon="-8.75709953">
        <time>2019-04-24T08:14:10.160Z</time>
      </trkpt>
      <trkpt lat="42.1967208" lon="-8.7569443">
        <time>2019-04-24T08:14:10.407Z</time>
      </trkpt>
      <trkpt lat="42.1968443" lon="-8.7563206">
        <time>2019-04-24T08:14:11.365Z</time>
      </trkpt>
      <trkpt lat="42.1968767" lon="-8.75608448">
        <time>2019-04-24T08:14:11.722Z</time>
      </trkpt>
      <trkpt lat="42.1970035" lon="-8.75573563">
        <time>2019-04-24T08:14:12.299Z</time>
      </trkpt>
      <trkpt lat="42.1971817" lon="-8.75579355">
        <time>2019-04-24T08:14:12.666Z</time>
      </trkpt>
      <trkpt lat="42.1974524" lon="-8.75585541">
        <time>2019-04-24T08:14:13.216Z</time>
      </trkpt>
      <trkpt lat="42.1975013" lon="-8.7556938">
        <time>2019-04-24T08:14:13.475Z</time>
      </trkpt>
      <trkpt lat="42.1976138" lon="-8.75530161">
        <time>2019-04-24T08:14:14.099Z</time>
      </trkpt>
      <trkpt lat="42.1977997" lon="-8.75495653">
        <time>2019-04-24T08:14:14.732Z</time>
      </trkpt>
      <trkpt lat="42.1980128" lon="-8.75479007">
        <time>2019-04-24T08:14:15.225Z</time>
      </trkpt>
      <trkpt lat="42.198182" lon="-8.75487992">
        <time>2019-04-24T08:14:15.589Z</time>
      </trkpt>
      <trkpt lat="42.1983804" lon="-8.75505787">
        <time>2019-04-24T08:14:16.066Z</time>
      </trkpt>
      <trkpt lat="42.198374" lon="-8.75515175">
        <time>2019-04-24T08:14:16.206Z</time>
      </trkpt>
      <trkpt lat="42.1984528" lon="-8.7552986">
        <time>2019-04-24T08:14:16.475Z</time>
      </trkpt>
      <trkpt lat="42.1985616" lon="-8.75539499">
        <time>2019-04-24T08:14:16.736Z</time>
      </trkpt>
      <trkpt lat="42.1986341" lon="-8.75538594">
        <time>2019-04-24T08:14:16.882Z</time>
      </trkpt>
      <trkpt lat="42.198675" lon="-8.75535635">
        <time>2019-04-24T08:14:16.975Z</time>
      </trkpt>
      <trkpt lat="42.198685" lon="-8.75534344">
        <time>2019-04-24T08:14:17.003Z</time>
      </trkpt>
      <trkpt lat="42.1986926" lon="-8.75533254">
        <time>2019-04-24T08:14:17.025Z</time>
      </trkpt>
      <trkpt lat="42.1987167" lon="-8.75529734">
        <time>2019-04-24T08:14:17.096Z</time>
      </trkpt>
      <trkpt lat="42.1987352" lon="-8.75527898">
        <time>2019-04-24T08:14:17.142Z</time>
      </trkpt>
      <trkpt lat="42.1987998" lon="-8.75522702">
        <time>2019-04-24T08:14:17.293Z</time>
      </trkpt>
      <trkpt lat="42.1988049" lon="-8.75521503">
        <time>2019-04-24T08:14:17.314Z</time>
      </trkpt>
      <trkpt lat="42.1988726" lon="-8.75513364">
        <time>2019-04-24T08:14:17.496Z</time>
      </trkpt>
      <trkpt lat="42.198913" lon="-8.75510565">
        <time>2019-04-24T08:14:17.587Z</time>
      </trkpt>
      <trkpt lat="42.1989296" lon="-8.75509592">
        <time>2019-04-24T08:14:17.623Z</time>
      </trkpt>
      <trkpt lat="42.1989451" lon="-8.75508201">
        <time>2019-04-24T08:14:17.660Z</time>
      </trkpt>
      <trkpt lat="42.1990378" lon="-8.75490641">
        <time>2019-04-24T08:14:17.980Z</time>
      </trkpt>
      <trkpt lat="42.1991772" lon="-8.75494052">
        <time>2019-04-24T08:14:18.264Z</time>
      </trkpt>
      <trkpt lat="42.1991961" lon="-8.75496827">
        <time>2019-04-24T08:14:18.320Z</time>
      </trkpt>
      <trkpt lat="42.1992414" lon="-8.75491311">
        <time>2019-04-24T08:14:18.442Z</time>
      </trkpt>
      <trkpt lat="42.1993608" lon="-8.75467482">
        <time>2019-04-24T08:14:18.869Z</time>
      </trkpt>
      <trkpt lat="42.1993908" lon="-8.75461514">
        <time>2019-04-24T08:14:18.976Z</time>
      </trkpt>
      <trkpt lat="42.1994169" lon="-8.75455101">
        <time>2019-04-24T08:14:19.085Z</time>
      </trkpt>
      <trkpt lat="42.1994412" lon="-8.7544874">
        <time>2019-04-24T08:14:19.191Z</time>
      </trkpt>
      <trkpt lat="42.1994704" lon="-8.75442755">
        <time>2019-04-24T08:14:19.297Z</time>
      </trkpt>
      <trkpt lat="42.1995025" lon="-8.75437558">
        <time>2019-04-24T08:14:19.397Z</time>
      </trkpt>
      <trkpt lat="42.1995425" lon="-8.75432311">
        <time>2019-04-24T08:14:19.509Z</time>
      </trkpt>
      <trkpt lat="42.1995812" lon="-8.75427441">
        <time>2019-04-24T08:14:19.615Z</time>
      </trkpt>
      <trkpt lat="42.1996149" lon="-8.75421917">
        <time>2019-04-24T08:14:19.721Z</time>
      </trkpt>
      <trkpt lat="42.1999313" lon="-8.75348039">
        <time>2019-04-24T08:14:20.988Z</time>
      </trkpt>
      <trkpt lat="42.2002405" lon="-8.75283977">
        <time>2019-04-24T08:14:22.123Z</time>
      </trkpt>
      <trkpt lat="42.2002637" lon="-8.75277682">
        <time>2019-04-24T08:14:22.227Z</time>
      </trkpt>
      <trkpt lat="42.2002844" lon="-8.75270306">
        <time>2019-04-24T08:14:22.344Z</time>
      </trkpt>
      <trkpt lat="42.2003098" lon="-8.75248714">
        <time>2019-04-24T08:14:22.669Z</time>
      </trkpt>
      <trkpt lat="42.200322" lon="-8.75227474">
        <time>2019-04-24T08:14:22.985Z</time>
      </trkpt>
      <trkpt lat="42.2003274" lon="-8.75220702">
        <time>2019-04-24T08:14:23.086Z</time>
      </trkpt>
      <trkpt lat="42.2003321" lon="-8.75214147">
        <time>2019-04-24T08:14:23.184Z</time>
      </trkpt>
      <trkpt lat="42.2003363" lon="-8.75208129">
        <time>2019-04-24T08:14:23.274Z</time>
      </trkpt>
      <trkpt lat="42.2003456" lon="-8.75202018">
        <time>2019-04-24T08:14:23.367Z</time>
      </trkpt>
      <trkpt lat="42.2004459" lon="-8.75170025">
        <time>2019-04-24T08:14:23.883Z</time>
      </trkpt>
      <trkpt lat="42.2004758" lon="-8.75154501">
        <time>2019-04-24T08:14:24.121Z</time>
      </trkpt>
      <trkpt lat="42.2005358" lon="-8.75133094">
        <time>2019-04-24T08:14:24.461Z</time>
      </trkpt>
      <trkpt lat="42.2005564" lon="-8.75129641">
        <time>2019-04-24T08:14:24.527Z</time>
      </trkpt>
      <trkpt lat="42.2006362" lon="-8.75086029">
        <time>2019-04-24T08:14:25.194Z</time>
      </trkpt>
      <trkpt lat="42.2005148" lon="-8.7505914">
        <time>2019-04-24T08:14:25.661Z</time>
      </trkpt>
      <trkpt lat="42.2004942" lon="-8.7505334">
        <time>2019-04-24T08:14:25.756Z</time>
      </trkpt>
      <trkpt lat="42.2003461" lon="-8.75020575">
        <time>2019-04-24T08:14:26.326Z</time>
      </trkpt>
      <trkpt lat="42.1999757" lon="-8.75007013">
        <time>2019-04-24T08:14:27.095Z</time>
      </trkpt>
      <trkpt lat="42.1999538" lon="-8.75006116">
        <time>2019-04-24T08:14:27.141Z</time>
      </trkpt>
      <trkpt lat="42.1999323" lon="-8.75005421">
        <time>2019-04-24T08:14:27.185Z</time>
      </trkpt>
      <trkpt lat="42.1997716" lon="-8.74997969">
        <time>2019-04-24T08:14:27.526Z</time>
      </trkpt>
      <trkpt lat="42.1994572" lon="-8.74967954">
        <time>2019-04-24T08:14:28.298Z</time>
      </trkpt>
      <trkpt lat="42.1991882" lon="-8.749342">
        <time>2019-04-24T08:14:29.034Z</time>
      </trkpt>
      <trkpt lat="42.1989588" lon="-8.74911745">
        <time>2019-04-24T08:14:29.602Z</time>
      </trkpt>
      <trkpt lat="42.1989451" lon="-8.74910655">
        <time>2019-04-24T08:14:29.634Z</time>
      </trkpt>
      <trkpt lat="42.1989204" lon="-8.74897219">
        <time>2019-04-24T08:14:29.840Z</time>
      </trkpt>
      <trkpt lat="42.1989127" lon="-8.7489452">
        <time>2019-04-24T08:14:29.883Z</time>
      </trkpt>
      <trkpt lat="42.1988984" lon="-8.74891921">
        <time>2019-04-24T08:14:29.931Z</time>
      </trkpt>
      <trkpt lat="42.1988847" lon="-8.74889139">
        <time>2019-04-24T08:14:29.981Z</time>
      </trkpt>
      <trkpt lat="42.1988751" lon="-8.74885836">
        <time>2019-04-24T08:14:30.034Z</time>
      </trkpt>
      <trkpt lat="42.1988708" lon="-8.74882793">
        <time>2019-04-24T08:14:30.080Z</time>
      </trkpt>
      <trkpt lat="42.198873" lon="-8.74879089">
        <time>2019-04-24T08:14:30.135Z</time>
      </trkpt>
      <trkpt lat="42.1988824" lon="-8.74875577">
        <time>2019-04-24T08:14:30.190Z</time>
      </trkpt>
      <trkpt lat="42.1988999" lon="-8.74871285">
        <time>2019-04-24T08:14:30.263Z</time>
      </trkpt>
      <trkpt lat="42.1989366" lon="-8.74858218">
        <time>2019-04-24T08:14:30.470Z</time>
      </trkpt>
      <trkpt lat="42.1989506" lon="-8.748509">
        <time>2019-04-24T08:14:30.582Z</time>
      </trkpt>
      <trkpt lat="42.1989659" lon="-8.74844354">
        <time>2019-04-24T08:14:30.684Z</time>
      </trkpt>
      <trkpt lat="42.1989841" lon="-8.74838587">
        <time>2019-04-24T08:14:30.777Z</time>
      </trkpt>
      <trkpt lat="42.1990029" lon="-8.74832611">
        <time>2019-04-24T08:14:30.873Z</time>
      </trkpt>
      <trkpt lat="42.1990105" lon="-8.74828009">
        <time>2019-04-24T08:14:30.943Z</time>
      </trkpt>
      <trkpt lat="42.1990073" lon="-8.74824455">
        <time>2019-04-24T08:14:30.996Z</time>
      </trkpt>
      <trkpt lat="42.1989911" lon="-8.74821974">
        <time>2019-04-24T08:14:31.045Z</time>
      </trkpt>
      <trkpt lat="42.1989664" lon="-8.74819627">
        <time>2019-04-24T08:14:31.106Z</time>
      </trkpt>
      <trkpt lat="42.198943" lon="-8.7481625">
        <time>2019-04-24T08:14:31.175Z</time>
      </trkpt>
      <trkpt lat="42.198923" lon="-8.74812603">
        <time>2019-04-24T08:14:31.242Z</time>
      </trkpt>
      <trkpt lat="42.1989105" lon="-8.74807633">
        <time>2019-04-24T08:14:31.320Z</time>
      </trkpt>
      <trkpt lat="42.1989917" lon="-8.74789637">
        <time>2019-04-24T08:14:31.633Z</time>
      </trkpt>
      <trkpt lat="42.1991803" lon="-8.7473357">
        <time>2019-04-24T08:14:32.547Z</time>
      </trkpt>
      <trkpt lat="42.1992006" lon="-8.74708291">
        <time>2019-04-24T08:14:32.924Z</time>
      </trkpt>
      <trkpt lat="42.1991872" lon="-8.74681745">
        <time>2019-04-24T08:14:33.319Z</time>
      </trkpt>
      <trkpt lat="42.1991047" lon="-8.74620599">
        <time>2019-04-24T08:14:34.242Z</time>
      </trkpt>
      <trkpt lat="42.1990533" lon="-8.74562907">
        <time>2019-04-24T08:14:35.105Z</time>
      </trkpt>
      <trkpt lat="42.1989547" lon="-8.74536839">
        <time>2019-04-24T08:14:35.540Z</time>
      </trkpt>
      <trkpt lat="42.1988967" lon="-8.74511769">
        <time>2019-04-24T08:14:35.930Z</time>
      </trkpt>
      <trkpt lat="42.1988957" lon="-8.74475064">
        <time>2019-04-24T08:14:36.475Z</time>
      </trkpt>
      <trkpt lat="42.1991376" lon="-8.74437337">
        <time>2019-04-24T08:14:37.216Z</time>
      </trkpt>
      <trkpt lat="42.1993337" lon="-8.74412016">
        <time>2019-04-24T08:14:37.760Z</time>
      </trkpt>
      <trkpt lat="42.1994185" lon="-8.74396819">
        <time>2019-04-24T08:14:38.042Z</time>
      </trkpt>
      <trkpt lat="42.1995034" lon="-8.74378588">
        <time>2019-04-24T08:14:38.362Z</time>
      </trkpt>
      <trkpt lat="42.1994744" lon="-8.74363635">
        <time>2019-04-24T08:14:38.591Z</time>
      </trkpt>
      <trkpt lat="42.1994784" lon="-8.74292842">
        <time>2019-04-24T08:14:39.642Z</time>
      </trkpt>
      <trkpt lat="42.1993969" lon="-8.74227077">
        <time>2019-04-24T08:14:40.632Z</time>
      </trkpt>
      <trkpt lat="42.1994929" lon="-8.74188437">
        <time>2019-04-24T08:14:41.237Z</time>
      </trkpt>
      <trkpt lat="42.1995646" lon="-8.7416164">
        <time>2019-04-24T08:14:41.660Z</time>
      </trkpt>
      <trkpt lat="42.1995733" lon="-8.74147424">
        <time>2019-04-24T08:14:41.872Z</time>
      </trkpt>
      <trkpt lat="42.1996145" lon="-8.74115707">
        <time>2019-04-24T08:14:42.350Z</time>
      </trkpt>
      <trkpt lat="42.1996936" lon="-8.74106445">
        <time>2019-04-24T08:14:42.560Z</time>
      </trkpt>
      <trkpt lat="42.1998987" lon="-8.74104257">
        <time>2019-04-24T08:14:42.972Z</time>
      </trkpt>
      <trkpt lat="42.2000665" lon="-8.74103788">
        <time>2019-04-24T08:14:43.308Z</time>
      </trkpt>
      <trkpt lat="42.2000466" lon="-8.74093713">
        <time>2019-04-24T08:14:43.463Z</time>
      </trkpt>
      <trkpt lat="42.2001361" lon="-8.74052122">
        <time>2019-04-24T08:14:44.106Z</time>
      </trkpt>
      <trkpt lat="42.2002168" lon="-8.74045148">
        <time>2019-04-24T08:14:44.298Z</time>
      </trkpt>
      <trkpt lat="42.2004217" lon="-8.74013238">
        <time>2019-04-24T08:14:44.925Z</time>
      </trkpt>
      <trkpt lat="42.2005716" lon="-8.73958379">
        <time>2019-04-24T08:14:45.793Z</time>
      </trkpt>
      <trkpt lat="42.2005771" lon="-8.73948656">
        <time>2019-04-24T08:14:45.938Z</time>
      </trkpt>
      <trkpt lat="42.200623" lon="-8.73939528">
        <time>2019-04-24T08:14:46.102Z</time>
      </trkpt>
      <trkpt lat="42.2006227" lon="-8.7393765">
        <time>2019-04-24T08:14:46.130Z</time>
      </trkpt>
      <trkpt lat="42.2006558" lon="-8.73912286">
        <time>2019-04-24T08:14:46.512Z</time>
      </trkpt>
      <trkpt lat="42.2008206" lon="-8.73887954">
        <time>2019-04-24T08:14:47.001Z</time>
      </trkpt>
      <trkpt lat="42.2008313" lon="-8.73888918">
        <time>2019-04-24T08:14:47.027Z</time>
      </trkpt>
      <trkpt lat="42.2008524" lon="-8.73886688">
        <time>2019-04-24T08:14:47.081Z</time>
      </trkpt>
      <trkpt lat="42.2009208" lon="-8.73862171">
        <time>2019-04-24T08:14:47.470Z</time>
      </trkpt>
      <trkpt lat="42.2010858" lon="-8.73835927">
        <time>2019-04-24T08:14:47.981Z</time>
      </trkpt>
      <trkpt lat="42.2011144" lon="-8.73822659">
        <time>2019-04-24T08:14:48.186Z</time>
      </trkpt>
      <trkpt lat="42.2011272" lon="-8.73804478">
        <time>2019-04-24T08:14:48.457Z</time>
      </trkpt>
      <trkpt lat="42.2011107" lon="-8.73801277">
        <time>2019-04-24T08:14:48.515Z</time>
      </trkpt>
      <trkpt lat="42.2010112" lon="-8.73772669">
        <time>2019-04-24T08:14:48.984Z</time>
      </trkpt>
      <trkpt lat="42.2010307" lon="-8.73766089">
        <time>2019-04-24T08:14:49.089Z</time>
      </trkpt>
      <trkpt lat="42.2010107" lon="-8.73749359">
        <time>2019-04-24T08:14:49.341Z</time>
      </trkpt>
      <trkpt lat="42.2009752" lon="-8.73731489">
        <time>2019-04-24T08:14:49.616Z</time>
      </trkpt>
      <trkpt lat="42.2009797" lon="-8.73726158">
        <time>2019-04-24T08:14:49.696Z</time>
      </trkpt>
      <trkpt lat="42.2009925" lon="-8.73718053">
        <time>2019-04-24T08:14:49.819Z</time>
      </trkpt>
      <trkpt lat="42.201034" lon="-8.73705019">
        <time>2019-04-24T08:14:50.030Z</time>
      </trkpt>
      <trkpt lat="42.2010611" lon="-8.73696905">
        <time>2019-04-24T08:14:50.162Z</time>
      </trkpt>
      <trkpt lat="42.2010721" lon="-8.73695069">
        <time>2019-04-24T08:14:50.197Z</time>
      </trkpt>
      <trkpt lat="42.2011627" lon="-8.73679152">
        <time>2019-04-24T08:14:50.495Z</time>
      </trkpt>
      <trkpt lat="42.2012244" lon="-8.73671843">
        <time>2019-04-24T08:14:50.659Z</time>
      </trkpt>
      <trkpt lat="42.2012723" lon="-8.73650017">
        <time>2019-04-24T08:14:50.997Z</time>
      </trkpt>
      <trkpt lat="42.2014002" lon="-8.73622239">
        <time>2019-04-24T08:14:51.483Z</time>
      </trkpt>
      <trkpt lat="42.2015767" lon="-8.73602206">
        <time>2019-04-24T08:14:51.945Z</time>
      </trkpt>
      <trkpt lat="42.2017078" lon="-8.73593573">
        <time>2019-04-24T08:14:52.237Z</time>
      </trkpt>
      <trkpt lat="42.2018939" lon="-8.73586884">
        <time>2019-04-24T08:14:52.623Z</time>
      </trkpt>
      <trkpt lat="42.2020835" lon="-8.73551093">
        <time>2019-04-24T08:14:53.276Z</time>
      </trkpt>
      <trkpt lat="42.2023274" lon="-8.73520902">
        <time>2019-04-24T08:14:53.939Z</time>
      </trkpt>
      <trkpt lat="42.2024646" lon="-8.73499503">
        <time>2019-04-24T08:14:54.359Z</time>
      </trkpt>
      <trkpt lat="42.2025431" lon="-8.73493233">
        <time>2019-04-24T08:14:54.542Z</time>
      </trkpt>
      <trkpt lat="42.2026008" lon="-8.73487114">
        <time>2019-04-24T08:14:54.689Z</time>
      </trkpt>
      <trkpt lat="42.2026012" lon="-8.73468968">
        <time>2019-04-24T08:14:54.958Z</time>
      </trkpt>
      <trkpt lat="42.202606" lon="-8.73445875">
        <time>2019-04-24T08:14:55.301Z</time>
      </trkpt>
      <trkpt lat="42.2026398" lon="-8.7343984">
        <time>2019-04-24T08:14:55.413Z</time>
      </trkpt>
      <trkpt lat="42.2026873" lon="-8.73417528">
        <time>2019-04-24T08:14:55.758Z</time>
      </trkpt>
      <trkpt lat="42.2026456" lon="-8.73387672">
        <time>2019-04-24T08:14:56.209Z</time>
      </trkpt>
      <trkpt lat="42.2026278" lon="-8.73363473">
        <time>2019-04-24T08:14:56.570Z</time>
      </trkpt>
      <trkpt lat="42.202623" lon="-8.73353498">
        <time>2019-04-24T08:14:56.718Z</time>
      </trkpt>
      <trkpt lat="42.2026275" lon="-8.73344002">
        <time>2019-04-24T08:14:56.859Z</time>
      </trkpt>
      <trkpt lat="42.2026644" lon="-8.73324321">
        <time>2019-04-24T08:14:57.160Z</time>
      </trkpt>
      <trkpt lat="42.202759" lon="-8.73306635">
        <time>2019-04-24T08:14:57.484Z</time>
      </trkpt>
      <trkpt lat="42.2027772" lon="-8.73296208">
        <time>2019-04-24T08:14:57.643Z</time>
      </trkpt>
      <trkpt lat="42.2027787" lon="-8.7329428">
        <time>2019-04-24T08:14:57.672Z</time>
      </trkpt>
      <trkpt lat="42.2028389" lon="-8.73286988">
        <time>2019-04-24T08:14:57.834Z</time>
      </trkpt>
      <trkpt lat="42.2031148" lon="-8.73267098">
        <time>2019-04-24T08:14:58.461Z</time>
      </trkpt>
      <trkpt lat="42.2034452" lon="-8.73246663">
        <time>2019-04-24T08:14:59.189Z</time>
      </trkpt>
      <trkpt lat="42.2035648" lon="-8.73235741">
        <time>2019-04-24T08:14:59.478Z</time>
      </trkpt>
      <trkpt lat="42.2039449" lon="-8.73230041">
        <time>2019-04-24T08:15:00.244Z</time>
      </trkpt>
      <trkpt lat="42.2042197" lon="-8.73245347">
        <time>2019-04-24T08:15:00.840Z</time>
      </trkpt>
      <trkpt lat="42.2043693" lon="-8.73254894">
        <time>2019-04-24T08:15:01.172Z</time>
      </trkpt>
      <trkpt lat="42.2047308" lon="-8.73262555">
        <time>2019-04-24T08:15:01.905Z</time>
      </trkpt>
      <trkpt lat="42.2052175" lon="-8.73251533">
        <time>2019-04-24T08:15:02.894Z</time>
      </trkpt>
      <trkpt lat="42.2059504" lon="-8.73262362">
        <time>2019-04-24T08:15:04.371Z</time>
      </trkpt>
      <trkpt lat="42.2062071" lon="-8.73256528">
        <time>2019-04-24T08:15:04.893Z</time>
      </trkpt>
      <trkpt lat="42.2064929" lon="-8.73240234">
        <time>2019-04-24T08:15:05.515Z</time>
      </trkpt>
      <trkpt lat="42.2067688" lon="-8.73243805">
        <time>2019-04-24T08:15:06.070Z</time>
      </trkpt>
      <trkpt lat="42.206817" lon="-8.73264952">
        <time>2019-04-24T08:15:06.398Z</time>
      </trkpt>
      <trkpt lat="42.2070516" lon="-8.73325117">
        <time>2019-04-24T08:15:07.407Z</time>
      </trkpt>
      <trkpt lat="42.2072139" lon="-8.73387789">
        <time>2019-04-24T08:15:08.392Z</time>
      </trkpt>
      <trkpt lat="42.2073257" lon="-8.7340327">
        <time>2019-04-24T08:15:08.713Z</time>
      </trkpt>
      <trkpt lat="42.2073376" lon="-8.73428776">
        <time>2019-04-24T08:15:09.092Z</time>
      </trkpt>
      <trkpt lat="42.207682" lon="-8.7344637">
        <time>2019-04-24T08:15:09.830Z</time>
      </trkpt>
      <trkpt lat="42.2078418" lon="-8.73490744">
        <time>2019-04-24T08:15:10.562Z</time>
      </trkpt>
      <trkpt lat="42.2081063" lon="-8.73520064">
        <time>2019-04-24T08:15:11.248Z</time>
      </trkpt>
      <trkpt lat="42.2085472" lon="-8.73542435">
        <time>2019-04-24T08:15:12.192Z</time>
      </trkpt>
      <trkpt lat="42.2090236" lon="-8.73566441">
        <time>2019-04-24T08:15:13.211Z</time>
      </trkpt>
      <trkpt lat="42.2094547" lon="-8.73586214">
        <time>2019-04-24T08:15:14.123Z</time>
      </trkpt>
      <trkpt lat="42.2095568" lon="-8.73591964">
        <time>2019-04-24T08:15:14.345Z</time>
      </trkpt>
      <trkpt lat="42.2096981" lon="-8.73590162">
        <time>2019-04-24T08:15:14.629Z</time>
      </trkpt>
      <trkpt lat="42.2097597" lon="-8.73596993">
        <time>2019-04-24T08:15:14.789Z</time>
      </trkpt>
      <trkpt lat="42.210196" lon="-8.73616154">
        <time>2019-04-24T08:15:15.708Z</time>
      </trkpt>
      <trkpt lat="42.210669" lon="-8.73636974">
        <time>2019-04-24T08:15:16.705Z</time>
      </trkpt>
      <trkpt lat="42.2111654" lon="-8.73654065">
        <time>2019-04-24T08:15:17.732Z</time>
      </trkpt>
      <trkpt lat="42.2112634" lon="-8.73657611">
        <time>2019-04-24T08:15:17.935Z</time>
      </trkpt>
      <trkpt lat="42.2113192" lon="-8.73658658">
        <time>2019-04-24T08:15:18.048Z</time>
      </trkpt>
      <trkpt lat="42.2113714" lon="-8.7363311">
        <time>2019-04-24T08:15:18.441Z</time>
      </trkpt>
      <trkpt lat="42.2114455" lon="-8.7363073">
        <time>2019-04-24T08:15:18.594Z</time>
      </trkpt>
      <trkpt lat="42.2114503" lon="-8.73631333">
        <time>2019-04-24T08:15:18.607Z</time>
      </trkpt>
      <trkpt lat="42.2114562" lon="-8.73632079">
        <time>2019-04-24T08:15:18.623Z</time>
      </trkpt>
      <trkpt lat="42.2114947" lon="-8.73637838">
        <time>2019-04-24T08:15:18.738Z</time>
      </trkpt>
      <trkpt lat="42.2114527" lon="-8.73651618">
        <time>2019-04-24T08:15:18.959Z</time>
      </trkpt>
      <trkpt lat="42.2114465" lon="-8.73682455">
        <time>2019-04-24T08:15:19.417Z</time>
      </trkpt>
      <trkpt lat="42.2114018" lon="-8.73734741">
        <time>2019-04-24T08:15:20.198Z</time>
      </trkpt>
      <trkpt lat="42.2113845" lon="-8.73745688">
        <time>2019-04-24T08:15:20.364Z</time>
      </trkpt>
      <trkpt lat="42.2114666" lon="-8.73787388">
        <time>2019-04-24T08:15:21.004Z</time>
      </trkpt>
      <trkpt lat="42.2117205" lon="-8.73791746">
        <time>2019-04-24T08:15:21.517Z</time>
      </trkpt>
      <trkpt lat="42.2118049" lon="-8.73731371">
        <time>2019-04-24T08:15:22.429Z</time>
      </trkpt>
      <trkpt lat="42.2118865" lon="-8.73711054">
        <time>2019-04-24T08:15:22.772Z</time>
      </trkpt>
      <trkpt lat="42.2120606" lon="-8.73685849">
        <time>2019-04-24T08:15:23.284Z</time>
      </trkpt>
      <trkpt lat="42.2121143" lon="-8.73670309">
        <time>2019-04-24T08:15:23.539Z</time>
      </trkpt>
      <trkpt lat="42.212171" lon="-8.73643546">
        <time>2019-04-24T08:15:23.952Z</time>
      </trkpt>
      <trkpt lat="42.2121277" lon="-8.73639942">
        <time>2019-04-24T08:15:24.054Z</time>
      </trkpt>
      <trkpt lat="42.2120627" lon="-8.73627159">
        <time>2019-04-24T08:15:24.284Z</time>
      </trkpt>
      <trkpt lat="42.2121054" lon="-8.73602852">
        <time>2019-04-24T08:15:24.655Z</time>
      </trkpt>
      <trkpt lat="42.212139" lon="-8.73517071">
        <time>2019-04-24T08:15:25.930Z</time>
      </trkpt>
      <trkpt lat="42.2121596" lon="-8.73504457">
        <time>2019-04-24T08:15:26.122Z</time>
      </trkpt>
      <trkpt lat="42.2121753" lon="-8.73492093">
        <time>2019-04-24T08:15:26.308Z</time>
      </trkpt>
      <trkpt lat="42.2122148" lon="-8.73450058">
        <time>2019-04-24T08:15:26.937Z</time>
      </trkpt>
      <trkpt lat="42.2122185" lon="-8.7344414">
        <time>2019-04-24T08:15:27.025Z</time>
      </trkpt>
      <trkpt lat="42.2122579" lon="-8.73408366">
        <time>2019-04-24T08:15:27.562Z</time>
      </trkpt>
      <trkpt lat="42.2123985" lon="-8.73362652">
        <time>2019-04-24T08:15:28.297Z</time>
      </trkpt>
      <trkpt lat="42.2126052" lon="-8.73320423">
        <time>2019-04-24T08:15:29.048Z</time>
      </trkpt>
      <trkpt lat="42.2126348" lon="-8.73295848">
        <time>2019-04-24T08:15:29.418Z</time>
      </trkpt>
      <trkpt lat="42.21262" lon="-8.73279729">
        <time>2019-04-24T08:15:29.659Z</time>
      </trkpt>
      <trkpt lat="42.2126647" lon="-8.73260191">
        <time>2019-04-24T08:15:29.963Z</time>
      </trkpt>
      <trkpt lat="42.2127128" lon="-8.73236655">
        <time>2019-04-24T08:15:30.325Z</time>
      </trkpt>
      <trkpt lat="42.2126806" lon="-8.73227074">
        <time>2019-04-24T08:15:30.481Z</time>
      </trkpt>
      <trkpt lat="42.2126685" lon="-8.73227619">
        <time>2019-04-24T08:15:30.506Z</time>
      </trkpt>
      <trkpt lat="42.2126579" lon="-8.73228055">
        <time>2019-04-24T08:15:30.528Z</time>
      </trkpt>
      <trkpt lat="42.213023" lon="-8.73224853">
        <time>2019-04-24T08:15:31.261Z</time>
      </trkpt>
      <trkpt lat="42.2131326" lon="-8.73224484">
        <time>2019-04-24T08:15:31.481Z</time>
      </trkpt>
      <trkpt lat="42.2131402" lon="-8.73222087">
        <time>2019-04-24T08:15:31.520Z</time>
      </trkpt>
      <trkpt lat="42.2131538" lon="-8.7322036">
        <time>2019-04-24T08:15:31.557Z</time>
      </trkpt>
      <trkpt lat="42.2132361" lon="-8.73217829">
        <time>2019-04-24T08:15:31.726Z</time>
      </trkpt>
      <trkpt lat="42.2135025" lon="-8.73216605">
        <time>2019-04-24T08:15:32.260Z</time>
      </trkpt>
      <trkpt lat="42.213588" lon="-8.73214652">
        <time>2019-04-24T08:15:32.434Z</time>
      </trkpt>
      <trkpt lat="42.21359" lon="-8.73211559">
        <time>2019-04-24T08:15:32.480Z</time>
      </trkpt>
      <trkpt lat="42.2135836" lon="-8.73194578">
        <time>2019-04-24T08:15:32.732Z</time>
      </trkpt>
      <trkpt lat="42.2137199" lon="-8.73171234">
        <time>2019-04-24T08:15:33.173Z</time>
      </trkpt>
      <trkpt lat="42.21379" lon="-8.73164663">
        <time>2019-04-24T08:15:33.344Z</time>
      </trkpt>
      <trkpt lat="42.2139055" lon="-8.73156758">
        <time>2019-04-24T08:15:33.603Z</time>
      </trkpt>
      <trkpt lat="42.2141386" lon="-8.73135955">
        <time>2019-04-24T08:15:34.163Z</time>
      </trkpt>
      <trkpt lat="42.2141003" lon="-8.73122183">
        <time>2019-04-24T08:15:34.381Z</time>
      </trkpt>
      <trkpt lat="42.2139948" lon="-8.73111773">
        <time>2019-04-24T08:15:34.643Z</time>
      </trkpt>
      <trkpt lat="42.2137869" lon="-8.73121638">
        <time>2019-04-24T08:15:35.085Z</time>
      </trkpt>
      <trkpt lat="42.2135802" lon="-8.73113248">
        <time>2019-04-24T08:15:35.518Z</time>
      </trkpt>
      <trkpt lat="42.2135596" lon="-8.73091991">
        <time>2019-04-24T08:15:35.836Z</time>
      </trkpt>
      <trkpt lat="42.213613" lon="-8.73062211">
        <time>2019-04-24T08:15:36.291Z</time>
      </trkpt>
      <trkpt lat="42.2138376" lon="-8.73053535">
        <time>2019-04-24T08:15:36.759Z</time>
      </trkpt>
      <trkpt lat="42.214046" lon="-8.73046034">
        <time>2019-04-24T08:15:37.191Z</time>
      </trkpt>
      <trkpt lat="42.2142266" lon="-8.73026881">
        <time>2019-04-24T08:15:37.651Z</time>
      </trkpt>
      <trkpt lat="42.2144018" lon="-8.7300513">
        <time>2019-04-24T08:15:38.128Z</time>
      </trkpt>
      <trkpt lat="42.2145077" lon="-8.72981267">
        <time>2019-04-24T08:15:38.541Z</time>
      </trkpt>
      <trkpt lat="42.2146799" lon="-8.72956641">
        <time>2019-04-24T08:15:39.044Z</time>
      </trkpt>
      <trkpt lat="42.2148184" lon="-8.72939298">
        <time>2019-04-24T08:15:39.423Z</time>
      </trkpt>
      <trkpt lat="42.2152283" lon="-8.72903306">
        <time>2019-04-24T08:15:40.403Z</time>
      </trkpt>
      <trkpt lat="42.2155612" lon="-8.72880633">
        <time>2019-04-24T08:15:41.150Z</time>
      </trkpt>
      <trkpt lat="42.2157147" lon="-8.72855898">
        <time>2019-04-24T08:15:41.629Z</time>
      </trkpt>
      <trkpt lat="42.2157903" lon="-8.72839143">
        <time>2019-04-24T08:15:41.920Z</time>
      </trkpt>
      <trkpt lat="42.2158954" lon="-8.72825087">
        <time>2019-04-24T08:15:42.216Z</time>
      </trkpt>
      <trkpt lat="42.2160915" lon="-8.72796999">
        <time>2019-04-24T08:15:42.789Z</time>
      </trkpt>
      <trkpt lat="42.2161551" lon="-8.72792037">
        <time>2019-04-24T08:15:42.936Z</time>
      </trkpt>
      <trkpt lat="42.2163405" lon="-8.7281295">
        <time>2019-04-24T08:15:43.420Z</time>
      </trkpt>
      <trkpt lat="42.2163236" lon="-8.72821692">
        <time>2019-04-24T08:15:43.554Z</time>
      </trkpt>
      <trkpt lat="42.2163415" lon="-8.7282849">
        <time>2019-04-24T08:15:43.661Z</time>
      </trkpt>
      <trkpt lat="42.2163798" lon="-8.72823536">
        <time>2019-04-24T08:15:43.767Z</time>
      </trkpt>
      <trkpt lat="42.2165289" lon="-8.72764477">
        <time>2019-04-24T08:15:44.693Z</time>
      </trkpt>
      <trkpt lat="42.216681" lon="-8.72737211">
        <time>2019-04-24T08:15:45.200Z</time>
      </trkpt>
      <trkpt lat="42.2167776" lon="-8.72718611">
        <time>2019-04-24T08:15:45.537Z</time>
      </trkpt>
      <trkpt lat="42.2169153" lon="-8.72669954">
        <time>2019-04-24T08:15:46.310Z</time>
      </trkpt>
      <trkpt lat="42.2170845" lon="-8.72571995">
        <time>2019-04-24T08:15:47.803Z</time>
      </trkpt>
      <trkpt lat="42.2171149" lon="-8.72554259">
        <time>2019-04-24T08:15:48.073Z</time>
      </trkpt>
      <trkpt lat="42.2172185" lon="-8.72523615">
        <time>2019-04-24T08:15:48.573Z</time>
      </trkpt>
      <trkpt lat="42.2172912" lon="-8.72497723">
        <time>2019-04-24T08:15:48.984Z</time>
      </trkpt>
      <trkpt lat="42.2172912" lon="-8.7248505">
        <time>2019-04-24T08:15:49.172Z</time>
      </trkpt>
      <trkpt lat="42.2171721" lon="-8.7245013">
        <time>2019-04-24T08:15:49.743Z</time>
      </trkpt>
      <trkpt lat="42.2171211" lon="-8.72440584">
        <time>2019-04-24T08:15:49.918Z</time>
      </trkpt>
      <trkpt lat="42.2168279" lon="-8.72396478">
        <time>2019-04-24T08:15:50.798Z</time>
      </trkpt>
      <trkpt lat="42.2167303" lon="-8.72365943">
        <time>2019-04-24T08:15:51.292Z</time>
      </trkpt>
      <trkpt lat="42.2168566" lon="-8.72341811">
        <time>2019-04-24T08:15:51.731Z</time>
      </trkpt>
      <trkpt lat="42.2170979" lon="-8.72317747">
        <time>2019-04-24T08:15:52.332Z</time>
      </trkpt>
      <trkpt lat="42.217044" lon="-8.7227308">
        <time>2019-04-24T08:15:53.004Z</time>
      </trkpt>
      <trkpt lat="42.2170338" lon="-8.72258478">
        <time>2019-04-24T08:15:53.222Z</time>
      </trkpt>
      <trkpt lat="42.2172544" lon="-8.72212336">
        <time>2019-04-24T08:15:54.037Z</time>
      </trkpt>
      <trkpt lat="42.2173721" lon="-8.72203267">
        <time>2019-04-24T08:15:54.309Z</time>
      </trkpt>
      <trkpt lat="42.217489" lon="-8.72192521">
        <time>2019-04-24T08:15:54.592Z</time>
      </trkpt>
      <trkpt lat="42.2175739" lon="-8.72184248">
        <time>2019-04-24T08:15:54.802Z</time>
      </trkpt>
      <trkpt lat="42.2176554" lon="-8.72177232">
        <time>2019-04-24T08:15:54.996Z</time>
      </trkpt>
      <trkpt lat="42.2177875" lon="-8.72166294">
        <time>2019-04-24T08:15:55.307Z</time>
      </trkpt>
      <trkpt lat="42.2183238" lon="-8.72137259">
        <time>2019-04-24T08:15:56.465Z</time>
      </trkpt>
      <trkpt lat="42.2184408" lon="-8.72129548">
        <time>2019-04-24T08:15:56.726Z</time>
      </trkpt>
      <trkpt lat="42.2185585" lon="-8.72125122">
        <time>2019-04-24T08:15:56.971Z</time>
      </trkpt>
      <trkpt lat="42.2186812" lon="-8.72120378">
        <time>2019-04-24T08:15:57.227Z</time>
      </trkpt>
      <trkpt lat="42.2190241" lon="-8.72108241">
        <time>2019-04-24T08:15:57.937Z</time>
      </trkpt>
      <trkpt lat="42.2192872" lon="-8.72080011">
        <time>2019-04-24T08:15:58.610Z</time>
      </trkpt>
      <trkpt lat="42.2194573" lon="-8.72044354">
        <time>2019-04-24T08:15:59.239Z</time>
      </trkpt>
      <trkpt lat="42.2196186" lon="-8.7204039">
        <time>2019-04-24T08:15:59.568Z</time>
      </trkpt>
      <trkpt lat="42.219576" lon="-8.72014246">
        <time>2019-04-24T08:15:59.965Z</time>
      </trkpt>
      <trkpt lat="42.2193389" lon="-8.71967174">
        <time>2019-04-24T08:16:00.810Z</time>
      </trkpt>
      <trkpt lat="42.2191474" lon="-8.71946973">
        <time>2019-04-24T08:16:01.297Z</time>
      </trkpt>
      <trkpt lat="42.2190423" lon="-8.71887596">
        <time>2019-04-24T08:16:02.203Z</time>
      </trkpt>
      <trkpt lat="42.2190112" lon="-8.71875828">
        <time>2019-04-24T08:16:02.388Z</time>
      </trkpt>
      <trkpt lat="42.2189928" lon="-8.71856214">
        <time>2019-04-24T08:16:02.681Z</time>
      </trkpt>
      <trkpt lat="42.2189753" lon="-8.71849089">
        <time>2019-04-24T08:16:02.792Z</time>
      </trkpt>
      <trkpt lat="42.2189507" lon="-8.71820574">
        <time>2019-04-24T08:16:03.218Z</time>
      </trkpt>
      <trkpt lat="42.218952" lon="-8.71818152">
        <time>2019-04-24T08:16:03.254Z</time>
      </trkpt>
      <trkpt lat="42.2189468" lon="-8.71803735">
        <time>2019-04-24T08:16:03.468Z</time>
      </trkpt>
      <trkpt lat="42.2189336" lon="-8.71796049">
        <time>2019-04-24T08:16:03.585Z</time>
      </trkpt>
      <trkpt lat="42.2189399" lon="-8.71792076">
        <time>2019-04-24T08:16:03.645Z</time>
      </trkpt>
      <trkpt lat="42.218924" lon="-8.7178905">
        <time>2019-04-24T08:16:03.700Z</time>
      </trkpt>
      <trkpt lat="42.2189323" lon="-8.71774708">
        <time>2019-04-24T08:16:03.913Z</time>
      </trkpt>
      <trkpt lat="42.2190157" lon="-8.71722648">
        <time>2019-04-24T08:16:04.703Z</time>
      </trkpt>
      <trkpt lat="42.2187686" lon="-8.71695927">
        <time>2019-04-24T08:16:05.337Z</time>
      </trkpt>
      <trkpt lat="42.2186222" lon="-8.71684293">
        <time>2019-04-24T08:16:05.677Z</time>
      </trkpt>
      <trkpt lat="42.2187342" lon="-8.71638653">
        <time>2019-04-24T08:16:06.391Z</time>
      </trkpt>
      <trkpt lat="42.2189484" lon="-8.7160132">
        <time>2019-04-24T08:16:07.092Z</time>
      </trkpt>
      <trkpt lat="42.2190686" lon="-8.71576233">
        <time>2019-04-24T08:16:07.535Z</time>
      </trkpt>
      <trkpt lat="42.2191447" lon="-8.71586903">
        <time>2019-04-24T08:16:07.755Z</time>
      </trkpt>
      <trkpt lat="42.2195007" lon="-8.71629291">
        <time>2019-04-24T08:16:08.706Z</time>
      </trkpt>
      <trkpt lat="42.2200056" lon="-8.7167571">
        <time>2019-04-24T08:16:09.930Z</time>
      </trkpt>
      <trkpt lat="42.2200708" lon="-8.71682499">
        <time>2019-04-24T08:16:10.095Z</time>
      </trkpt>
      <trkpt lat="42.2203894" lon="-8.71689003">
        <time>2019-04-24T08:16:10.741Z</time>
      </trkpt>
      <trkpt lat="42.2207686" lon="-8.71674704">
        <time>2019-04-24T08:16:11.530Z</time>
      </trkpt>
      <trkpt lat="42.2209934" lon="-8.71675115">
        <time>2019-04-24T08:16:11.981Z</time>
      </trkpt>
      <trkpt lat="42.2212392" lon="-8.71673262">
        <time>2019-04-24T08:16:12.474Z</time>
      </trkpt>
      <trkpt lat="42.2214927" lon="-8.7167234">
        <time>2019-04-24T08:16:12.982Z</time>
      </trkpt>
      <trkpt lat="42.22177" lon="-8.7167633">
        <time>2019-04-24T08:16:13.541Z</time>
      </trkpt>
      <trkpt lat="42.2221747" lon="-8.71684745">
        <time>2019-04-24T08:16:14.362Z</time>
      </trkpt>
      <trkpt lat="42.2224848" lon="-8.71690604">
        <time>2019-04-24T08:16:14.989Z</time>
      </trkpt>
      <trkpt lat="42.222832" lon="-8.71690998">
        <time>2019-04-24T08:16:15.685Z</time>
      </trkpt>
      <trkpt lat="42.2232186" lon="-8.71670924">
        <time>2019-04-24T08:16:16.515Z</time>
      </trkpt>
      <trkpt lat="42.2233753" lon="-8.71663162">
        <time>2019-04-24T08:16:16.849Z</time>
      </trkpt>
      <trkpt lat="42.22357" lon="-8.71653255">
        <time>2019-04-24T08:16:17.266Z</time>
      </trkpt>
      <trkpt lat="42.223578" lon="-8.71650983">
        <time>2019-04-24T08:16:17.303Z</time>
      </trkpt>
      <trkpt lat="42.2235851" lon="-8.71651075">
        <time>2019-04-24T08:16:17.317Z</time>
      </trkpt>
      <trkpt lat="42.223585" lon="-8.71648812">
        <time>2019-04-24T08:16:17.351Z</time>
      </trkpt>
      <trkpt lat="42.2235147" lon="-8.71591748">
        <time>2019-04-24T08:16:18.209Z</time>
      </trkpt>
      <trkpt lat="42.2235617" lon="-8.7156563">
        <time>2019-04-24T08:16:18.608Z</time>
      </trkpt>
      <trkpt lat="42.2239033" lon="-8.71476497">
        <time>2019-04-24T08:16:20.097Z</time>
      </trkpt>
      <trkpt lat="42.224005" lon="-8.71441494">
        <time>2019-04-24T08:16:20.655Z</time>
      </trkpt>
      <trkpt lat="42.2239828" lon="-8.71403893">
        <time>2019-04-24T08:16:21.215Z</time>
      </trkpt>
      <trkpt lat="42.2239593" lon="-8.71396861">
        <time>2019-04-24T08:16:21.329Z</time>
      </trkpt>
      <trkpt lat="42.2239289" lon="-8.71389845">
        <time>2019-04-24T08:16:21.450Z</time>
      </trkpt>
      <trkpt lat="42.2237892" lon="-8.71365663">
        <time>2019-04-24T08:16:21.905Z</time>
      </trkpt>
      <trkpt lat="42.2237106" lon="-8.71337525">
        <time>2019-04-24T08:16:22.351Z</time>
      </trkpt>
      <trkpt lat="42.2237666" lon="-8.71323678">
        <time>2019-04-24T08:16:22.585Z</time>
      </trkpt>
      <trkpt lat="42.2237986" lon="-8.71311407">
        <time>2019-04-24T08:16:22.778Z</time>
      </trkpt>
      <trkpt lat="42.2238757" lon="-8.71280645">
        <time>2019-04-24T08:16:23.260Z</time>
      </trkpt>
      <trkpt lat="42.224109" lon="-8.71299865">
        <time>2019-04-24T08:16:23.808Z</time>
      </trkpt>
      <trkpt lat="42.2243673" lon="-8.71320133">
        <time>2019-04-24T08:16:24.407Z</time>
      </trkpt>
      <trkpt lat="42.2244441" lon="-8.71306646">
        <time>2019-04-24T08:16:24.659Z</time>
      </trkpt>
      <trkpt lat="42.2245855" lon="-8.71273479">
        <time>2019-04-24T08:16:25.227Z</time>
      </trkpt>
      <trkpt lat="42.2247344" lon="-8.71234386">
        <time>2019-04-24T08:16:25.879Z</time>
      </trkpt>
      <trkpt lat="42.2248775" lon="-8.71221612">
        <time>2019-04-24T08:16:26.223Z</time>
      </trkpt>
      <trkpt lat="42.2249738" lon="-8.71225518">
        <time>2019-04-24T08:16:26.424Z</time>
      </trkpt>
      <trkpt lat="42.2250424" lon="-8.71220128">
        <time>2019-04-24T08:16:26.583Z</time>
      </trkpt>
      <trkpt lat="42.2250987" lon="-8.71203348">
        <time>2019-04-24T08:16:26.856Z</time>
      </trkpt>
      <trkpt lat="42.2249609" lon="-8.71177347">
        <time>2019-04-24T08:16:27.330Z</time>
      </trkpt>
      <trkpt lat="42.2249667" lon="-8.71171371">
        <time>2019-04-24T08:16:27.419Z</time>
      </trkpt>
      <trkpt lat="42.2250891" lon="-8.71133862">
        <time>2019-04-24T08:16:28.027Z</time>
      </trkpt>
      <trkpt lat="42.2252704" lon="-8.71121205">
        <time>2019-04-24T08:16:28.436Z</time>
      </trkpt>
      <trkpt lat="42.2256633" lon="-8.71112479">
        <time>2019-04-24T08:16:29.234Z</time>
      </trkpt>
      <trkpt lat="42.2258537" lon="-8.71110417">
        <time>2019-04-24T08:16:29.617Z</time>
      </trkpt>
      <trkpt lat="42.226162" lon="-8.71135831">
        <time>2019-04-24T08:16:30.341Z</time>
      </trkpt>
      <trkpt lat="42.2262283" lon="-8.71148211">
        <time>2019-04-24T08:16:30.568Z</time>
      </trkpt>
      <trkpt lat="42.2262663" lon="-8.71133711">
        <time>2019-04-24T08:16:30.796Z</time>
      </trkpt>
      <trkpt lat="42.2263175" lon="-8.71135253">
        <time>2019-04-24T08:16:30.901Z</time>
      </trkpt>
      <trkpt lat="42.2262979" lon="-8.7114459">
        <time>2019-04-24T08:16:31.045Z</time>
      </trkpt>
      <trkpt lat="42.2262948" lon="-8.7115977">
        <time>2019-04-24T08:16:31.270Z</time>
      </trkpt>
      <trkpt lat="42.226283" lon="-8.71164573">
        <time>2019-04-24T08:16:31.345Z</time>
      </trkpt>
      <trkpt lat="42.2263255" lon="-8.71172217">
        <time>2019-04-24T08:16:31.487Z</time>
      </trkpt>
      <trkpt lat="42.2265607" lon="-8.71170373">
        <time>2019-04-24T08:16:31.959Z</time>
      </trkpt>
      <trkpt lat="42.2270982" lon="-8.71110987">
        <time>2019-04-24T08:16:33.351Z</time>
      </trkpt>
      <trkpt lat="42.2271438" lon="-8.71106889">
        <time>2019-04-24T08:16:33.461Z</time>
      </trkpt>
      <trkpt lat="42.2271811" lon="-8.7110864">
        <time>2019-04-24T08:16:33.540Z</time>
      </trkpt>
      <trkpt lat="42.2272079" lon="-8.71112018">
        <time>2019-04-24T08:16:33.613Z</time>
      </trkpt>
      <trkpt lat="42.2273231" lon="-8.71128153">
        <time>2019-04-24T08:16:33.946Z</time>
      </trkpt>
      <trkpt lat="42.2275762" lon="-8.71154414">
        <time>2019-04-24T08:16:34.586Z</time>
      </trkpt>
      <trkpt lat="42.2277446" lon="-8.71154665">
        <time>2019-04-24T08:16:34.923Z</time>
      </trkpt>
      <trkpt lat="42.2279516" lon="-8.71152645">
        <time>2019-04-24T08:16:35.339Z</time>
      </trkpt>
      <trkpt lat="42.2280727" lon="-8.71148329">
        <time>2019-04-24T08:16:35.590Z</time>
      </trkpt>
      <trkpt lat="42.228168" lon="-8.71128497">
        <time>2019-04-24T08:16:35.941Z</time>
      </trkpt>
      <trkpt lat="42.2286217" lon="-8.71137818">
        <time>2019-04-24T08:16:36.861Z</time>
      </trkpt>
      <trkpt lat="42.229042" lon="-8.71154112">
        <time>2019-04-24T08:16:37.737Z</time>
      </trkpt>
      <trkpt lat="42.229067" lon="-8.71153241">
        <time>2019-04-24T08:16:37.789Z</time>
      </trkpt>
      <trkpt lat="42.2292652" lon="-8.7112071">
        <time>2019-04-24T08:16:38.414Z</time>
      </trkpt>
      <trkpt lat="42.2293091" lon="-8.71109629">
        <time>2019-04-24T08:16:38.600Z</time>
      </trkpt>
      <trkpt lat="42.2293946" lon="-8.71077611">
        <time>2019-04-24T08:16:39.105Z</time>
      </trkpt>
      <trkpt lat="42.2293538" lon="-8.71046229">
        <time>2019-04-24T08:16:39.578Z</time>
      </trkpt>
      <trkpt lat="42.2293902" lon="-8.71039423">
        <time>2019-04-24T08:16:39.703Z</time>
      </trkpt>
      <trkpt lat="42.2294857" lon="-8.71002098">
        <time>2019-04-24T08:16:40.289Z</time>
      </trkpt>
      <trkpt lat="42.2297074" lon="-8.70963684">
        <time>2019-04-24T08:16:41.012Z</time>
      </trkpt>
      <trkpt lat="42.229911" lon="-8.70926594">
        <time>2019-04-24T08:16:41.697Z</time>
      </trkpt>
      <trkpt lat="42.2301462" lon="-8.70898012">
        <time>2019-04-24T08:16:42.331Z</time>
      </trkpt>
      <trkpt lat="42.2304359" lon="-8.70867518">
        <time>2019-04-24T08:16:43.067Z</time>
      </trkpt>
      <trkpt lat="42.2304668" lon="-8.70834225">
        <time>2019-04-24T08:16:43.565Z</time>
      </trkpt>
      <trkpt lat="42.2304856" lon="-8.70790656">
        <time>2019-04-24T08:16:44.213Z</time>
      </trkpt>
      <trkpt lat="42.2304339" lon="-8.70771747">
        <time>2019-04-24T08:16:44.512Z</time>
      </trkpt>
      <trkpt lat="42.230461" lon="-8.70766659">
        <time>2019-04-24T08:16:44.605Z</time>
      </trkpt>
      <trkpt lat="42.2304744" lon="-8.70761294">
        <time>2019-04-24T08:16:44.689Z</time>
      </trkpt>
      <trkpt lat="42.230676" lon="-8.70719125">
        <time>2019-04-24T08:16:45.434Z</time>
      </trkpt>
      <trkpt lat="42.2307044" lon="-8.70717943">
        <time>2019-04-24T08:16:45.494Z</time>
      </trkpt>
      <trkpt lat="42.2307943" lon="-8.70723584">
        <time>2019-04-24T08:16:45.693Z</time>
      </trkpt>
      <trkpt lat="42.2308032" lon="-8.70722193">
        <time>2019-04-24T08:16:45.720Z</time>
      </trkpt>
      <trkpt lat="42.2309097" lon="-8.70722008">
        <time>2019-04-24T08:16:45.933Z</time>
      </trkpt>
      <trkpt lat="42.230928" lon="-8.707192">
        <time>2019-04-24T08:16:45.989Z</time>
      </trkpt>
      <trkpt lat="42.2309531" lon="-8.70710316">
        <time>2019-04-24T08:16:46.130Z</time>
      </trkpt>
      <trkpt lat="42.2311496" lon="-8.70694088">
        <time>2019-04-24T08:16:46.592Z</time>
      </trkpt>
      <trkpt lat="42.2311767" lon="-8.70687508">
        <time>2019-04-24T08:16:46.704Z</time>
      </trkpt>
      <trkpt lat="42.231164" lon="-8.70643671">
        <time>2019-04-24T08:16:47.355Z</time>
      </trkpt>
      <trkpt lat="42.2311009" lon="-8.70595366">
        <time>2019-04-24T08:16:48.083Z</time>
      </trkpt>
      <trkpt lat="42.2310869" lon="-8.70585819">
        <time>2019-04-24T08:16:48.227Z</time>
      </trkpt>
      <trkpt lat="42.2311223" lon="-8.70577102">
        <time>2019-04-24T08:16:48.375Z</time>
      </trkpt>
      <trkpt lat="42.2311226" lon="-8.7055696">
        <time>2019-04-24T08:16:48.674Z</time>
      </trkpt>
      <trkpt lat="42.2310725" lon="-8.7050739">
        <time>2019-04-24T08:16:49.416Z</time>
      </trkpt>
      <trkpt lat="42.2310977" lon="-8.70454114">
        <time>2019-04-24T08:16:50.208Z</time>
      </trkpt>
      <trkpt lat="42.231078" lon="-8.70377529">
        <time>2019-04-24T08:16:51.345Z</time>
      </trkpt>
      <trkpt lat="42.2310851" lon="-8.7033116">
        <time>2019-04-24T08:16:52.033Z</time>
      </trkpt>
      <trkpt lat="42.2310956" lon="-8.7030158">
        <time>2019-04-24T08:16:52.472Z</time>
      </trkpt>
      <trkpt lat="42.2311311" lon="-8.70232379">
        <time>2019-04-24T08:16:53.501Z</time>
      </trkpt>
      <trkpt lat="42.231093" lon="-8.70221324">
        <time>2019-04-24T08:16:53.682Z</time>
      </trkpt>
      <trkpt lat="42.2316914" lon="-8.70223662">
        <time>2019-04-24T08:16:54.882Z</time>
      </trkpt>
      <trkpt lat="42.2318868" lon="-8.70212355">
        <time>2019-04-24T08:16:55.308Z</time>
      </trkpt>
      <trkpt lat="42.2318739" lon="-8.7019876">
        <time>2019-04-24T08:16:55.511Z</time>
      </trkpt>
      <trkpt lat="42.2318691" lon="-8.70194745">
        <time>2019-04-24T08:16:55.571Z</time>
      </trkpt>
      <trkpt lat="42.2319477" lon="-8.70178308">
        <time>2019-04-24T08:16:55.861Z</time>
      </trkpt>
      <trkpt lat="42.2319437" lon="-8.70176506">
        <time>2019-04-24T08:16:55.889Z</time>
      </trkpt>
      <trkpt lat="42.2318985" lon="-8.70162047">
        <time>2019-04-24T08:16:56.122Z</time>
      </trkpt>
      <trkpt lat="42.2318841" lon="-8.70156238">
        <time>2019-04-24T08:16:56.213Z</time>
      </trkpt>
      <trkpt lat="42.2317879" lon="-8.70125007">
        <time>2019-04-24T08:16:56.715Z</time>
      </trkpt>
      <trkpt lat="42.2316611" lon="-8.70084405">
        <time>2019-04-24T08:16:57.369Z</time>
      </trkpt>
      <trkpt lat="42.2316323" lon="-8.70075328">
        <time>2019-04-24T08:16:57.516Z</time>
      </trkpt>
      <trkpt lat="42.2313891" lon="-8.70011567">
        <time>2019-04-24T08:16:58.580Z</time>
      </trkpt>
      <trkpt lat="42.2313106" lon="-8.69995784">
        <time>2019-04-24T08:16:58.862Z</time>
      </trkpt>
      <trkpt lat="42.2310348" lon="-8.6997368">
        <time>2019-04-24T08:16:59.505Z</time>
      </trkpt>
      <trkpt lat="42.231056" lon="-8.69927119">
        <time>2019-04-24T08:17:00.197Z</time>
      </trkpt>
      <trkpt lat="42.2312863" lon="-8.69869183">
        <time>2019-04-24T08:17:01.173Z</time>
      </trkpt>
      <trkpt lat="42.2315882" lon="-8.69817945">
        <time>2019-04-24T08:17:02.145Z</time>
      </trkpt>
      <trkpt lat="42.2319461" lon="-8.69762641">
        <time>2019-04-24T08:17:03.235Z</time>
      </trkpt>
      <trkpt lat="42.2320761" lon="-8.69741233">
        <time>2019-04-24T08:17:03.646Z</time>
      </trkpt>
      <trkpt lat="42.2322485" lon="-8.69715149">
        <time>2019-04-24T08:17:04.165Z</time>
      </trkpt>
      <trkpt lat="42.2323561" lon="-8.69697899">
        <time>2019-04-24T08:17:04.500Z</time>
      </trkpt>
      <trkpt lat="42.2324273" lon="-8.69694043">
        <time>2019-04-24T08:17:04.654Z</time>
      </trkpt>
      <trkpt lat="42.2324119" lon="-8.69695284">
        <time>2019-04-24T08:17:04.690Z</time>
      </trkpt>
      <trkpt lat="42.2326521" lon="-8.69686927">
        <time>2019-04-24T08:17:05.187Z</time>
      </trkpt>
      <trkpt lat="42.2328978" lon="-8.69677037">
        <time>2019-04-24T08:17:05.701Z</time>
      </trkpt>
      <trkpt lat="42.2331923" lon="-8.69665746">
        <time>2019-04-24T08:17:06.314Z</time>
      </trkpt>
      <trkpt lat="42.2336091" lon="-8.69649988">
        <time>2019-04-24T08:17:07.181Z</time>
      </trkpt>
      <trkpt lat="42.2340468" lon="-8.69632545">
        <time>2019-04-24T08:17:08.096Z</time>
      </trkpt>
      <trkpt lat="42.234499" lon="-8.69616653">
        <time>2019-04-24T08:17:09.032Z</time>
      </trkpt>
      <trkpt lat="42.2345896" lon="-8.69612253">
        <time>2019-04-24T08:17:09.225Z</time>
      </trkpt>
      <trkpt lat="42.2346566" lon="-8.69609638">
        <time>2019-04-24T08:17:09.365Z</time>
      </trkpt>
      <trkpt lat="42.2347591" lon="-8.69602605">
        <time>2019-04-24T08:17:09.595Z</time>
      </trkpt>
      <trkpt lat="42.2354139" lon="-8.69573403">
        <time>2019-04-24T08:17:10.977Z</time>
      </trkpt>
      <trkpt lat="42.2355426" lon="-8.69570201">
        <time>2019-04-24T08:17:11.239Z</time>
      </trkpt>
      <trkpt lat="42.235549" lon="-8.69569069">
        <time>2019-04-24T08:17:11.260Z</time>
      </trkpt>
      <trkpt lat="42.2355538" lon="-8.69568223">
        <time>2019-04-24T08:17:11.276Z</time>
      </trkpt>
      <trkpt lat="42.2355853" lon="-8.69567125">
        <time>2019-04-24T08:17:11.341Z</time>
      </trkpt>
      <trkpt lat="42.23595784161942" lon="-8.695513316718325">
        <time>2019-04-24T08:17:12.123Z</time>
      </trkpt>
      <trkpt lat="42.2359584" lon="-8.69551308">
        <time>2019-04-24T08:17:12.123Z</time>
      </trkpt>
      <trkpt lat="42.2362528" lon="-8.69525643">
        <time>2019-04-24T08:17:12.825Z</time>
      </trkpt>
      <trkpt lat="42.2364081" lon="-8.69501603">
        <time>2019-04-24T08:17:13.298Z</time>
      </trkpt>
      <trkpt lat="42.2371512" lon="-8.69435923">
        <time>2019-04-24T08:17:15.078Z</time>
      </trkpt>
      <trkpt lat="42.2373267" lon="-8.69424817">
        <time>2019-04-24T08:17:15.466Z</time>
      </trkpt>
      <trkpt lat="42.2373353" lon="-8.69416963">
        <time>2019-04-24T08:17:15.584Z</time>
      </trkpt>
      <trkpt lat="42.237318" lon="-8.6939579">
        <time>2019-04-24T08:17:15.900Z</time>
      </trkpt>
      <trkpt lat="42.2372756" lon="-8.69374668">
        <time>2019-04-24T08:17:16.225Z</time>
      </trkpt>
      <trkpt lat="42.2372133" lon="-8.69339606">
        <time>2019-04-24T08:17:16.760Z</time>
      </trkpt>
      <trkpt lat="42.2371312" lon="-8.69287622">
        <time>2019-04-24T08:17:17.549Z</time>
      </trkpt>
      <trkpt lat="42.2370248" lon="-8.69218504">
        <time>2019-04-24T08:17:18.596Z</time>
      </trkpt>
      <trkpt lat="42.2371482" lon="-8.69178473">
        <time>2019-04-24T08:17:19.239Z</time>
      </trkpt>
      <trkpt lat="42.2378633" lon="-8.69157224">
        <time>2019-04-24T08:17:20.706Z</time>
      </trkpt>
      <trkpt lat="42.2383055" lon="-8.69143042">
        <time>2019-04-24T08:17:21.617Z</time>
      </trkpt>
      <trkpt lat="42.2388808" lon="-8.6914632">
        <time>2019-04-24T08:17:22.771Z</time>
      </trkpt>
      <trkpt lat="42.2390103" lon="-8.69147057">
        <time>2019-04-24T08:17:23.031Z</time>
      </trkpt>
      <trkpt lat="42.2393016" lon="-8.69157359">
        <time>2019-04-24T08:17:23.634Z</time>
      </trkpt>
      <trkpt lat="42.2395499" lon="-8.69175715">
        <time>2019-04-24T08:17:24.201Z</time>
      </trkpt>
      <trkpt lat="42.2395581" lon="-8.6917657">
        <time>2019-04-24T08:17:24.222Z</time>
      </trkpt>
      <trkpt lat="42.2395913" lon="-8.69182144">
        <time>2019-04-24T08:17:24.328Z</time>
      </trkpt>
      <trkpt lat="42.2397769" lon="-8.69197399">
        <time>2019-04-24T08:17:24.763Z</time>
      </trkpt>
      <trkpt lat="42.2399231" lon="-8.69200978">
        <time>2019-04-24T08:17:25.061Z</time>
      </trkpt>
      <trkpt lat="42.2400567" lon="-8.69204138">
        <time>2019-04-24T08:17:25.333Z</time>
      </trkpt>
      <trkpt lat="42.2401862" lon="-8.69211682">
        <time>2019-04-24T08:17:25.616Z</time>
      </trkpt>
      <trkpt lat="42.2404923" lon="-8.69231002">
        <time>2019-04-24T08:17:26.293Z</time>
      </trkpt>
      <trkpt lat="42.2407691" lon="-8.69238479">
        <time>2019-04-24T08:17:26.859Z</time>
      </trkpt>
      <trkpt lat="42.2410026" lon="-8.69238127">
        <time>2019-04-24T08:17:27.327Z</time>
      </trkpt>
      <trkpt lat="42.2417584" lon="-8.69195228">
        <time>2019-04-24T08:17:28.970Z</time>
      </trkpt>
      <trkpt lat="42.2417927" lon="-8.69191716">
        <time>2019-04-24T08:17:29.056Z</time>
      </trkpt>
      <trkpt lat="42.2422811" lon="-8.69158892">
        <time>2019-04-24T08:17:30.149Z</time>
      </trkpt>
      <trkpt lat="42.2426599" lon="-8.6913803">
        <time>2019-04-24T08:17:30.969Z</time>
      </trkpt>
      <trkpt lat="42.2430303" lon="-8.69120294">
        <time>2019-04-24T08:17:31.757Z</time>
      </trkpt>
      <trkpt lat="42.2433397" lon="-8.69105676">
        <time>2019-04-24T08:17:32.414Z</time>
      </trkpt>
      <trkpt lat="42.2436285" lon="-8.69096414">
        <time>2019-04-24T08:17:33.009Z</time>
      </trkpt>
      <trkpt lat="42.2436885" lon="-8.69086372">
        <time>2019-04-24T08:17:33.200Z</time>
      </trkpt>
      <trkpt lat="42.2438517" lon="-8.69060967">
        <time>2019-04-24T08:17:33.699Z</time>
      </trkpt>
      <trkpt lat="42.2443202" lon="-8.69015914">
        <time>2019-04-24T08:17:34.851Z</time>
      </trkpt>
      <trkpt lat="42.2449261" lon="-8.68988027">
        <time>2019-04-24T08:17:36.134Z</time>
      </trkpt>
      <trkpt lat="42.2452373" lon="-8.68960753">
        <time>2019-04-24T08:17:36.877Z</time>
      </trkpt>
      <trkpt lat="42.2452913" lon="-8.68957509">
        <time>2019-04-24T08:17:36.995Z</time>
      </trkpt>
      <trkpt lat="42.2460259" lon="-8.68920687">
        <time>2019-04-24T08:17:38.565Z</time>
      </trkpt>
      <trkpt lat="42.2463468" lon="-8.68892122">
        <time>2019-04-24T08:17:39.335Z</time>
      </trkpt>
      <trkpt lat="42.2465067" lon="-8.68838075">
        <time>2019-04-24T08:17:40.198Z</time>
      </trkpt>
      <trkpt lat="42.2464286" lon="-8.68783199">
        <time>2019-04-24T08:17:41.027Z</time>
      </trkpt>
      <trkpt lat="42.2462324" lon="-8.68748347">
        <time>2019-04-24T08:17:41.677Z</time>
      </trkpt>
      <trkpt lat="42.2458622" lon="-8.68718147">
        <time>2019-04-24T08:17:42.544Z</time>
      </trkpt>
      <trkpt lat="42.2453564" lon="-8.68658694">
        <time>2019-04-24T08:17:43.888Z</time>
      </trkpt>
      <trkpt lat="42.2452413" lon="-8.68620883">
        <time>2019-04-24T08:17:44.494Z</time>
      </trkpt>
      <trkpt lat="42.2452289" lon="-8.68613122">
        <time>2019-04-24T08:17:44.612Z</time>
      </trkpt>
      <trkpt lat="42.2451252" lon="-8.68513528">
        <time>2019-04-24T08:17:46.104Z</time>
      </trkpt>
      <trkpt lat="42.2450949" lon="-8.68492539">
        <time>2019-04-24T08:17:46.421Z</time>
      </trkpt>
      <trkpt lat="42.2450053" lon="-8.68452642">
        <time>2019-04-24T08:17:47.039Z</time>
      </trkpt>
      <trkpt lat="42.2451474" lon="-8.68446556">
        <time>2019-04-24T08:17:47.338Z</time>
      </trkpt>
      <trkpt lat="42.2452083" lon="-8.68444805">
        <time>2019-04-24T08:17:47.463Z</time>
      </trkpt>
      <trkpt lat="42.2456674" lon="-8.68422123">
        <time>2019-04-24T08:17:48.443Z</time>
      </trkpt>
      <trkpt lat="42.2457729" lon="-8.6841323">
        <time>2019-04-24T08:17:48.692Z</time>
      </trkpt>
      <trkpt lat="42.2461936" lon="-8.68400498">
        <time>2019-04-24T08:17:49.556Z</time>
      </trkpt>
      <trkpt lat="42.2467113" lon="-8.68373156">
        <time>2019-04-24T08:17:50.670Z</time>
      </trkpt>
      <trkpt lat="42.2468025" lon="-8.68361321">
        <time>2019-04-24T08:17:50.923Z</time>
      </trkpt>
      <trkpt lat="42.2470404" lon="-8.68330844">
        <time>2019-04-24T08:17:51.580Z</time>
      </trkpt>
      <trkpt lat="42.2475744" lon="-8.68306185">
        <time>2019-04-24T08:17:52.711Z</time>
      </trkpt>
      <trkpt lat="42.2484339" lon="-8.68270352">
        <time>2019-04-24T08:17:54.514Z</time>
      </trkpt>
      <trkpt lat="42.2488147" lon="-8.68254577">
        <time>2019-04-24T08:17:55.312Z</time>
      </trkpt>
      <trkpt lat="42.2490436" lon="-8.6824177">
        <time>2019-04-24T08:17:55.808Z</time>
      </trkpt>
      <trkpt lat="42.2491867" lon="-8.68232918">
        <time>2019-04-24T08:17:56.123Z</time>
      </trkpt>
      <trkpt lat="42.2492239" lon="-8.68230597">
        <time>2019-04-24T08:17:56.205Z</time>
      </trkpt>
      <trkpt lat="42.2497023" lon="-8.68203934">
        <time>2019-04-24T08:17:57.242Z</time>
      </trkpt>
      <trkpt lat="42.2501128" lon="-8.68198804">
        <time>2019-04-24T08:17:58.068Z</time>
      </trkpt>
      <trkpt lat="42.250334" lon="-8.68199734">
        <time>2019-04-24T08:17:58.511Z</time>
      </trkpt>
      <trkpt lat="42.2506007" lon="-8.68187321">
        <time>2019-04-24T08:17:59.076Z</time>
      </trkpt>
      <trkpt lat="42.2508996" lon="-8.68118874">
        <time>2019-04-24T08:18:00.255Z</time>
      </trkpt>
      <trkpt lat="42.2510517" lon="-8.68089621">
        <time>2019-04-24T08:18:00.785Z</time>
      </trkpt>
      <trkpt lat="42.2512946" lon="-8.68062732">
        <time>2019-04-24T08:18:01.414Z</time>
      </trkpt>
      <trkpt lat="42.2515464" lon="-8.68039917">
        <time>2019-04-24T08:18:02.022Z</time>
      </trkpt>
      <trkpt lat="42.2518149" lon="-8.68020102">
        <time>2019-04-24T08:18:02.635Z</time>
      </trkpt>
      <trkpt lat="42.2520825" lon="-8.6799742">
        <time>2019-04-24T08:18:03.268Z</time>
      </trkpt>
      <trkpt lat="42.2524653" lon="-8.67964119">
        <time>2019-04-24T08:18:04.180Z</time>
      </trkpt>
      <trkpt lat="42.2527309" lon="-8.67917926">
        <time>2019-04-24T08:18:05.048Z</time>
      </trkpt>
      <trkpt lat="42.2528178" lon="-8.67870552">
        <time>2019-04-24T08:18:05.772Z</time>
      </trkpt>
      <trkpt lat="42.25282" lon="-8.67860779">
        <time>2019-04-24T08:18:05.917Z</time>
      </trkpt>
      <trkpt lat="42.2530033" lon="-8.67817017">
        <time>2019-04-24T08:18:06.663Z</time>
      </trkpt>
      <trkpt lat="42.2531849" lon="-8.67765376">
        <time>2019-04-24T08:18:07.511Z</time>
      </trkpt>
      <trkpt lat="42.2533678" lon="-8.67719803">
        <time>2019-04-24T08:18:08.280Z</time>
      </trkpt>
      <trkpt lat="42.253568" lon="-8.67684122">
        <time>2019-04-24T08:18:08.944Z</time>
      </trkpt>
      <trkpt lat="42.2537996" lon="-8.67663192">
        <time>2019-04-24T08:18:09.502Z</time>
      </trkpt>
      <trkpt lat="42.254002" lon="-8.67647769">
        <time>2019-04-24T08:18:09.968Z</time>
      </trkpt>
      <trkpt lat="42.2547064" lon="-8.67563372">
        <time>2019-04-24T08:18:11.855Z</time>
      </trkpt>
      <trkpt lat="42.2548599" lon="-8.67530054">
        <time>2019-04-24T08:18:12.437Z</time>
      </trkpt>
      <trkpt lat="42.2550023" lon="-8.6747387">
        <time>2019-04-24T08:18:13.318Z</time>
      </trkpt>
      <trkpt lat="42.2551683" lon="-8.67432648">
        <time>2019-04-24T08:18:14.014Z</time>
      </trkpt>
      <trkpt lat="42.2554518" lon="-8.67344856">
        <time>2019-04-24T08:18:15.435Z</time>
      </trkpt>
      <trkpt lat="42.255459" lon="-8.67312644">
        <time>2019-04-24T08:18:15.913Z</time>
      </trkpt>
      <trkpt lat="42.2557266" lon="-8.67259545">
        <time>2019-04-24T08:18:16.866Z</time>
      </trkpt>
      <trkpt lat="42.256261" lon="-8.67235598">
        <time>2019-04-24T08:18:17.994Z</time>
      </trkpt>
      <trkpt lat="42.2569749" lon="-8.67207267">
        <time>2019-04-24T08:18:19.485Z</time>
      </trkpt>
      <trkpt lat="42.2570464" lon="-8.67200972">
        <time>2019-04-24T08:18:19.656Z</time>
      </trkpt>
      <trkpt lat="42.2574574" lon="-8.67181668">
        <time>2019-04-24T08:18:20.528Z</time>
      </trkpt>
      <trkpt lat="42.2579992" lon="-8.67153128">
        <time>2019-04-24T08:18:21.693Z</time>
      </trkpt>
      <trkpt lat="42.2583188" lon="-8.67112652">
        <time>2019-04-24T08:18:22.571Z</time>
      </trkpt>
      <trkpt lat="42.2586598" lon="-8.67085369">
        <time>2019-04-24T08:18:23.365Z</time>
      </trkpt>
      <trkpt lat="42.2590573" lon="-8.67046183">
        <time>2019-04-24T08:18:24.351Z</time>
      </trkpt>
      <trkpt lat="42.2592767" lon="-8.67004274">
        <time>2019-04-24T08:18:25.112Z</time>
      </trkpt>
      <trkpt lat="42.2593162" lon="-8.66998842">
        <time>2019-04-24T08:18:25.225Z</time>
      </trkpt>
      <trkpt lat="42.259823" lon="-8.66915769">
        <time>2019-04-24T08:18:26.822Z</time>
      </trkpt>
      <trkpt lat="42.2599405" lon="-8.66895971">
        <time>2019-04-24T08:18:27.198Z</time>
      </trkpt>
      <trkpt lat="42.260069" lon="-8.66885444">
        <time>2019-04-24T08:18:27.499Z</time>
      </trkpt>
      <trkpt lat="42.260335" lon="-8.66878428">
        <time>2019-04-24T08:18:28.042Z</time>
      </trkpt>
      <trkpt lat="42.2606219" lon="-8.66850877">
        <time>2019-04-24T08:18:28.747Z</time>
      </trkpt>
      <trkpt lat="42.2608605" lon="-8.66805413">
        <time>2019-04-24T08:18:29.574Z</time>
      </trkpt>
      <trkpt lat="42.2609622" lon="-8.66789563">
        <time>2019-04-24T08:18:29.885Z</time>
      </trkpt>
      <trkpt lat="42.2612618" lon="-8.66748274">
        <time>2019-04-24T08:18:30.743Z</time>
      </trkpt>
      <trkpt lat="42.2613646" lon="-8.66729306">
        <time>2019-04-24T08:18:31.092Z</time>
      </trkpt>
      <trkpt lat="42.2614415" lon="-8.66710723">
        <time>2019-04-24T08:18:31.408Z</time>
      </trkpt>
      <trkpt lat="42.2614454" lon="-8.66690422">
        <time>2019-04-24T08:18:31.709Z</time>
      </trkpt>
      <trkpt lat="42.2612305" lon="-8.66621858">
        <time>2019-04-24T08:18:32.813Z</time>
      </trkpt>
      <trkpt lat="42.2611585" lon="-8.6659232">
        <time>2019-04-24T08:18:33.274Z</time>
      </trkpt>
      <trkpt lat="42.26109" lon="-8.66562279">
        <time>2019-04-24T08:18:33.740Z</time>
      </trkpt>
      <trkpt lat="42.2610093" lon="-8.66508442">
        <time>2019-04-24T08:18:34.555Z</time>
      </trkpt>
      <trkpt lat="42.2610006" lon="-8.66472953">
        <time>2019-04-24T08:18:35.082Z</time>
      </trkpt>
      <trkpt lat="42.2611691" lon="-8.66426509">
        <time>2019-04-24T08:18:35.849Z</time>
      </trkpt>
      <trkpt lat="42.2613703" lon="-8.66383619">
        <time>2019-04-24T08:18:36.602Z</time>
      </trkpt>
      <trkpt lat="42.2613902" lon="-8.66363025">
        <time>2019-04-24T08:18:36.910Z</time>
      </trkpt>
      <trkpt lat="42.2616038" lon="-8.66324108">
        <time>2019-04-24T08:18:37.629Z</time>
      </trkpt>
      <trkpt lat="42.2616548" lon="-8.66301761">
        <time>2019-04-24T08:18:37.976Z</time>
      </trkpt>
      <trkpt lat="42.2616605" lon="-8.66303991">
        <time>2019-04-24T08:18:38.011Z</time>
      </trkpt>
      <trkpt lat="42.2618459" lon="-8.66332531">
        <time>2019-04-24T08:18:38.574Z</time>
      </trkpt>
      <trkpt lat="42.2618944" lon="-8.66343562">
        <time>2019-04-24T08:18:38.764Z</time>
      </trkpt>
      <trkpt lat="42.2619847" lon="-8.66349262">
        <time>2019-04-24T08:18:38.964Z</time>
      </trkpt>
      <trkpt lat="42.2621345" lon="-8.66358641">
        <time>2019-04-24T08:18:39.295Z</time>
      </trkpt>
      <trkpt lat="42.2623683" lon="-8.66362279">
        <time>2019-04-24T08:18:39.767Z</time>
      </trkpt>
      <trkpt lat="42.2628489" lon="-8.66356705">
        <time>2019-04-24T08:18:40.734Z</time>
      </trkpt>
      <trkpt lat="42.2631909" lon="-8.66352841">
        <time>2019-04-24T08:18:41.422Z</time>
      </trkpt>
      <trkpt lat="42.2632825" lon="-8.66351424">
        <time>2019-04-24T08:18:41.607Z</time>
      </trkpt>
      <trkpt lat="42.2636235" lon="-8.66352581">
        <time>2019-04-24T08:18:42.291Z</time>
      </trkpt>
      <trkpt lat="42.2639265" lon="-8.66375145">
        <time>2019-04-24T08:18:42.984Z</time>
      </trkpt>
      <trkpt lat="42.2641634" lon="-8.66374433">
        <time>2019-04-24T08:18:43.459Z</time>
      </trkpt>
      <trkpt lat="42.2644373" lon="-8.66355808">
        <time>2019-04-24T08:18:44.073Z</time>
      </trkpt>
      <trkpt lat="42.2647359" lon="-8.66350729">
        <time>2019-04-24T08:18:44.676Z</time>
      </trkpt>
      <trkpt lat="42.2648666" lon="-8.66351315">
        <time>2019-04-24T08:18:44.938Z</time>
      </trkpt>
      <trkpt lat="42.2652603" lon="-8.66349672">
        <time>2019-04-24T08:18:45.727Z</time>
      </trkpt>
      <trkpt lat="42.2654358" lon="-8.66339572">
        <time>2019-04-24T08:18:46.109Z</time>
      </trkpt>
      <trkpt lat="42.2655509" lon="-8.66325608">
        <time>2019-04-24T08:18:46.419Z</time>
      </trkpt>
      <trkpt lat="42.2656526" lon="-8.66311074">
        <time>2019-04-24T08:18:46.716Z</time>
      </trkpt>
      <trkpt lat="42.2659012" lon="-8.66298015">
        <time>2019-04-24T08:18:47.250Z</time>
      </trkpt>
      <trkpt lat="42.2659981" lon="-8.66300479">
        <time>2019-04-24T08:18:47.448Z</time>
      </trkpt>
      <trkpt lat="42.2661908" lon="-8.66299591">
        <time>2019-04-24T08:18:47.834Z</time>
      </trkpt>
      <trkpt lat="42.2663531" lon="-8.66290186">
        <time>2019-04-24T08:18:48.188Z</time>
      </trkpt>
      <trkpt lat="42.2667143" lon="-8.66258502">
        <time>2019-04-24T08:18:49.051Z</time>
      </trkpt>
      <trkpt lat="42.2668943" lon="-8.66243197">
        <time>2019-04-24T08:18:49.477Z</time>
      </trkpt>
      <trkpt lat="42.2670635" lon="-8.66215294">
        <time>2019-04-24T08:18:50.012Z</time>
      </trkpt>
      <trkpt lat="42.2674263" lon="-8.66181682">
        <time>2019-04-24T08:18:50.893Z</time>
      </trkpt>
      <trkpt lat="42.2676367" lon="-8.66179587">
        <time>2019-04-24T08:18:51.316Z</time>
      </trkpt>
      <trkpt lat="42.2679561" lon="-8.66172538">
        <time>2019-04-24T08:18:51.965Z</time>
      </trkpt>
      <trkpt lat="42.2680616" lon="-8.66169503">
        <time>2019-04-24T08:18:52.181Z</time>
      </trkpt>
      <trkpt lat="42.2682817" lon="-8.66168607">
        <time>2019-04-24T08:18:52.622Z</time>
      </trkpt>
      <trkpt lat="42.2686914" lon="-8.66132061">
        <time>2019-04-24T08:18:53.606Z</time>
      </trkpt>
      <trkpt lat="42.2688286" lon="-8.66087411">
        <time>2019-04-24T08:18:54.323Z</time>
      </trkpt>
      <trkpt lat="42.2689865" lon="-8.66060597">
        <time>2019-04-24T08:18:54.831Z</time>
      </trkpt>
      <trkpt lat="42.2692404" lon="-8.66030372">
        <time>2019-04-24T08:18:55.509Z</time>
      </trkpt>
      <trkpt lat="42.2694405" lon="-8.65998161">
        <time>2019-04-24T08:18:56.133Z</time>
      </trkpt>
      <trkpt lat="42.2695086" lon="-8.65965639">
        <time>2019-04-24T08:18:56.634Z</time>
      </trkpt>
      <trkpt lat="42.2695685" lon="-8.65952588">
        <time>2019-04-24T08:18:56.862Z</time>
      </trkpt>
      <trkpt lat="42.2699698" lon="-8.65964583">
        <time>2019-04-24T08:18:57.686Z</time>
      </trkpt>
      <trkpt lat="42.2703907" lon="-8.65955136">
        <time>2019-04-24T08:18:58.541Z</time>
      </trkpt>
      <trkpt lat="42.2710651" lon="-8.65938498">
        <time>2019-04-24T08:18:59.915Z</time>
      </trkpt>
      <trkpt lat="42.2713425" lon="-8.6594196">
        <time>2019-04-24T08:19:00.473Z</time>
      </trkpt>
      <trkpt lat="42.2718312" lon="-8.65971506">
        <time>2019-04-24T08:19:01.546Z</time>
      </trkpt>
      <trkpt lat="42.2720575" lon="-8.6598879">
        <time>2019-04-24T08:19:02.067Z</time>
      </trkpt>
      <trkpt lat="42.2722107" lon="-8.66006006">
        <time>2019-04-24T08:19:02.466Z</time>
      </trkpt>
      <trkpt lat="42.2723878" lon="-8.66029928">
        <time>2019-04-24T08:19:02.968Z</time>
      </trkpt>
      <trkpt lat="42.272556" lon="-8.66052417">
        <time>2019-04-24T08:19:03.442Z</time>
      </trkpt>
      <trkpt lat="42.2728522" lon="-8.66063833">
        <time>2019-04-24T08:19:04.059Z</time>
      </trkpt>
      <trkpt lat="42.2729391" lon="-8.66068351">
        <time>2019-04-24T08:19:04.246Z</time>
      </trkpt>
      <trkpt lat="42.2730312" lon="-8.66071016">
        <time>2019-04-24T08:19:04.435Z</time>
      </trkpt>
      <trkpt lat="42.2733301" lon="-8.66076674">
        <time>2019-04-24T08:19:05.040Z</time>
      </trkpt>
      <trkpt lat="42.2734077" lon="-8.66077654">
        <time>2019-04-24T08:19:05.196Z</time>
      </trkpt>
      <trkpt lat="42.2738281" lon="-8.66087537">
        <time>2019-04-24T08:19:06.051Z</time>
      </trkpt>
      <trkpt lat="42.2741498" lon="-8.66115138">
        <time>2019-04-24T08:19:06.815Z</time>
      </trkpt>
      <trkpt lat="42.2742719" lon="-8.66132766">
        <time>2019-04-24T08:19:07.173Z</time>
      </trkpt>
      <trkpt lat="42.2742946" lon="-8.6613849">
        <time>2019-04-24T08:19:07.269Z</time>
      </trkpt>
      <trkpt lat="42.2742874" lon="-8.66138759">
        <time>2019-04-24T08:19:07.284Z</time>
      </trkpt>
      <trkpt lat="42.2742927" lon="-8.66137912">
        <time>2019-04-24T08:19:07.300Z</time>
      </trkpt>
      <trkpt lat="42.2743105" lon="-8.66137837">
        <time>2019-04-24T08:19:07.336Z</time>
      </trkpt>
      <trkpt lat="42.2742629" lon="-8.66130712">
        <time>2019-04-24T08:19:07.478Z</time>
      </trkpt>
      <trkpt lat="42.2741812" lon="-8.66118139">
        <time>2019-04-24T08:19:07.726Z</time>
      </trkpt>
      <trkpt lat="42.274184" lon="-8.66120494">
        <time>2019-04-24T08:19:07.761Z</time>
      </trkpt>
      <trkpt lat="42.2742014" lon="-8.66122632">
        <time>2019-04-24T08:19:07.808Z</time>
      </trkpt>
      <trkpt lat="42.2744277" lon="-8.66153578">
        <time>2019-04-24T08:19:08.453Z</time>
      </trkpt>
      <trkpt lat="42.2746573" lon="-8.66173644">
        <time>2019-04-24T08:19:09.001Z</time>
      </trkpt>
      <trkpt lat="42.2747577" lon="-8.66189251">
        <time>2019-04-24T08:19:09.308Z</time>
      </trkpt>
      <trkpt lat="42.274846" lon="-8.66205562">
        <time>2019-04-24T08:19:09.608Z</time>
      </trkpt>
      <trkpt lat="42.2749044" lon="-8.66236173">
        <time>2019-04-24T08:19:10.077Z</time>
      </trkpt>
      <trkpt lat="42.2749684" lon="-8.66273749">
        <time>2019-04-24T08:19:10.649Z</time>
      </trkpt>
      <trkpt lat="42.2751156" lon="-8.66285526">
        <time>2019-04-24T08:19:10.992Z</time>
      </trkpt>
      <trkpt lat="42.275226" lon="-8.66290018">
        <time>2019-04-24T08:19:11.223Z</time>
      </trkpt>
      <trkpt lat="42.2754378" lon="-8.662898">
        <time>2019-04-24T08:19:11.647Z</time>
      </trkpt>
      <trkpt lat="42.2756052" lon="-8.66276809">
        <time>2019-04-24T08:19:12.034Z</time>
      </trkpt>
      <trkpt lat="42.2756934" lon="-8.66273322">
        <time>2019-04-24T08:19:12.218Z</time>
      </trkpt>
      <trkpt lat="42.2759103" lon="-8.66263205">
        <time>2019-04-24T08:19:12.678Z</time>
      </trkpt>
      <trkpt lat="42.276012" lon="-8.66246399">
        <time>2019-04-24T08:19:13.000Z</time>
      </trkpt>
      <trkpt lat="42.2760649" lon="-8.66233516">
        <time>2019-04-24T08:19:13.218Z</time>
      </trkpt>
      <trkpt lat="42.2765202" lon="-8.66164491">
        <time>2019-04-24T08:19:14.589Z</time>
      </trkpt>
      <trkpt lat="42.2767295" lon="-8.66120126">
        <time>2019-04-24T08:19:15.369Z</time>
      </trkpt>
      <trkpt lat="42.2771081" lon="-8.66030724">
        <time>2019-04-24T08:19:16.896Z</time>
      </trkpt>
      <trkpt lat="42.2771302" lon="-8.65989066">
        <time>2019-04-24T08:19:17.515Z</time>
      </trkpt>
      <trkpt lat="42.2770922" lon="-8.65932698">
        <time>2019-04-24T08:19:18.354Z</time>
      </trkpt>
      <trkpt lat="42.2770394" lon="-8.65882717">
        <time>2019-04-24T08:19:19.103Z</time>
      </trkpt>
      <trkpt lat="42.2770163" lon="-8.65846901">
        <time>2019-04-24T08:19:19.636Z</time>
      </trkpt>
      <trkpt lat="42.2770266" lon="-8.65827798">
        <time>2019-04-24T08:19:19.920Z</time>
      </trkpt>
      <trkpt lat="42.2770345" lon="-8.65789133">
        <time>2019-04-24T08:19:20.494Z</time>
      </trkpt>
      <trkpt lat="42.2770302" lon="-8.65775663">
        <time>2019-04-24T08:19:20.694Z</time>
      </trkpt>
      <trkpt lat="42.2769964" lon="-8.6574475">
        <time>2019-04-24T08:19:21.157Z</time>
      </trkpt>
      <trkpt lat="42.2768323" lon="-8.6565814">
        <time>2019-04-24T08:19:22.483Z</time>
      </trkpt>
      <trkpt lat="42.276712" lon="-8.65629164">
        <time>2019-04-24T08:19:22.976Z</time>
      </trkpt>
      <trkpt lat="42.276679" lon="-8.65622425">
        <time>2019-04-24T08:19:23.096Z</time>
      </trkpt>
      <trkpt lat="42.276719" lon="-8.65575134">
        <time>2019-04-24T08:19:23.802Z</time>
      </trkpt>
      <trkpt lat="42.276979" lon="-8.65551665">
        <time>2019-04-24T08:19:24.429Z</time>
      </trkpt>
      <trkpt lat="42.2774629" lon="-8.65479891">
        <time>2019-04-24T08:19:25.869Z</time>
      </trkpt>
      <trkpt lat="42.2775241" lon="-8.65466413">
        <time>2019-04-24T08:19:26.103Z</time>
      </trkpt>
      <trkpt lat="42.2776886" lon="-8.65430907">
        <time>2019-04-24T08:19:26.724Z</time>
      </trkpt>
      <trkpt lat="42.2779709" lon="-8.65405929">
        <time>2019-04-24T08:19:27.400Z</time>
      </trkpt>
      <trkpt lat="42.278135" lon="-8.65387103">
        <time>2019-04-24T08:19:27.831Z</time>
      </trkpt>
      <trkpt lat="42.2784335" lon="-8.65361337">
        <time>2019-04-24T08:19:28.541Z</time>
      </trkpt>
      <trkpt lat="42.2790701" lon="-8.65301725">
        <time>2019-04-24T08:19:30.093Z</time>
      </trkpt>
      <trkpt lat="42.2793001" lon="-8.6527616">
        <time>2019-04-24T08:19:30.690Z</time>
      </trkpt>
      <trkpt lat="42.2793391" lon="-8.65261224">
        <time>2019-04-24T08:19:30.925Z</time>
      </trkpt>
      <trkpt lat="42.2793544" lon="-8.65256957">
        <time>2019-04-24T08:19:30.995Z</time>
      </trkpt>
      <trkpt lat="42.2797073" lon="-8.65243982">
        <time>2019-04-24T08:19:31.728Z</time>
      </trkpt>
      <trkpt lat="42.2800139" lon="-8.6523358">
        <time>2019-04-24T08:19:32.361Z</time>
      </trkpt>
      <trkpt lat="42.2804817" lon="-8.65228517">
        <time>2019-04-24T08:19:33.301Z</time>
      </trkpt>
      <trkpt lat="42.2807453" lon="-8.65232775">
        <time>2019-04-24T08:19:33.833Z</time>
      </trkpt>
      <trkpt lat="42.2807417" lon="-8.6523265">
        <time>2019-04-24T08:19:33.840Z</time>
      </trkpt>
      <trkpt lat="42.280766" lon="-8.65228987">
        <time>2019-04-24T08:19:33.913Z</time>
      </trkpt>
      <trkpt lat="42.2807795" lon="-8.65228861">
        <time>2019-04-24T08:19:33.940Z</time>
      </trkpt>
      <trkpt lat="42.2807784" lon="-8.65231686">
        <time>2019-04-24T08:19:33.982Z</time>
      </trkpt>
      <trkpt lat="42.2807683" lon="-8.65228316">
        <time>2019-04-24T08:19:34.036Z</time>
      </trkpt>
      <trkpt lat="42.2807515" lon="-8.652284">
        <time>2019-04-24T08:19:34.070Z</time>
      </trkpt>
      <trkpt lat="42.2807542" lon="-8.65233647">
        <time>2019-04-24T08:19:34.148Z</time>
      </trkpt>
      <trkpt lat="42.2807701" lon="-8.65232675">
        <time>2019-04-24T08:19:34.183Z</time>
      </trkpt>
      <trkpt lat="42.281085" lon="-8.65213774">
        <time>2019-04-24T08:19:34.873Z</time>
      </trkpt>
      <trkpt lat="42.2815051" lon="-8.65187396">
        <time>2019-04-24T08:19:35.801Z</time>
      </trkpt>
      <trkpt lat="42.2816595" lon="-8.65174446">
        <time>2019-04-24T08:19:36.165Z</time>
      </trkpt>
      <trkpt lat="42.2819003" lon="-8.65144464">
        <time>2019-04-24T08:19:36.821Z</time>
      </trkpt>
      <trkpt lat="42.2822835" lon="-8.65076269">
        <time>2019-04-24T08:19:38.091Z</time>
      </trkpt>
      <trkpt lat="42.2826435" lon="-8.65021971">
        <time>2019-04-24T08:19:39.172Z</time>
      </trkpt>
      <trkpt lat="42.2827325" lon="-8.65002759">
        <time>2019-04-24T08:19:39.508Z</time>
      </trkpt>
      <trkpt lat="42.2828022" lon="-8.64979122">
        <time>2019-04-24T08:19:39.885Z</time>
      </trkpt>
      <trkpt lat="42.2828293" lon="-8.64959777">
        <time>2019-04-24T08:19:40.177Z</time>
      </trkpt>
      <trkpt lat="42.2829342" lon="-8.64910592">
        <time>2019-04-24T08:19:40.936Z</time>
      </trkpt>
      <trkpt lat="42.2829953" lon="-8.64878078">
        <time>2019-04-24T08:19:41.433Z</time>
      </trkpt>
      <trkpt lat="42.2831749" lon="-8.64809129">
        <time>2019-04-24T08:19:42.517Z</time>
      </trkpt>
      <trkpt lat="42.2832319" lon="-8.647869">
        <time>2019-04-24T08:19:42.866Z</time>
      </trkpt>
      <trkpt lat="42.2832362" lon="-8.6477214">
        <time>2019-04-24T08:19:43.085Z</time>
      </trkpt>
      <trkpt lat="42.2833117" lon="-8.64752492">
        <time>2019-04-24T08:19:43.413Z</time>
      </trkpt>
      <trkpt lat="42.2833343" lon="-8.64677265">
        <time>2019-04-24T08:19:44.529Z</time>
      </trkpt>
      <trkpt lat="42.2833425" lon="-8.64624903">
        <time>2019-04-24T08:19:45.305Z</time>
      </trkpt>
      <trkpt lat="42.2830237" lon="-8.64585231">
        <time>2019-04-24T08:19:46.173Z</time>
      </trkpt>
      <trkpt lat="42.2829143" lon="-8.64568174">
        <time>2019-04-24T08:19:46.508Z</time>
      </trkpt>
      <trkpt lat="42.2832319" lon="-8.64497004">
        <time>2019-04-24T08:19:47.740Z</time>
      </trkpt>
      <trkpt lat="42.2833657" lon="-8.64471841">
        <time>2019-04-24T08:19:48.199Z</time>
      </trkpt>
      <trkpt lat="42.2835643" lon="-8.64428683">
        <time>2019-04-24T08:19:48.953Z</time>
      </trkpt>
      <trkpt lat="42.2838322" lon="-8.64375835">
        <time>2019-04-24T08:19:49.903Z</time>
      </trkpt>
      <trkpt lat="42.2841748" lon="-8.64340304">
        <time>2019-04-24T08:19:50.768Z</time>
      </trkpt>
      <trkpt lat="42.2845451" lon="-8.64289686">
        <time>2019-04-24T08:19:51.823Z</time>
      </trkpt>
      <trkpt lat="42.2848014" lon="-8.64233158">
        <time>2019-04-24T08:19:52.806Z</time>
      </trkpt>
      <trkpt lat="42.2848857" lon="-8.64190184">
        <time>2019-04-24T08:19:53.465Z</time>
      </trkpt>
      <trkpt lat="42.284911" lon="-8.64178122">
        <time>2019-04-24T08:19:53.651Z</time>
      </trkpt>
      <trkpt lat="42.2848853" lon="-8.64175876">
        <time>2019-04-24T08:19:53.712Z</time>
      </trkpt>
      <trkpt lat="42.284717" lon="-8.64139574">
        <time>2019-04-24T08:19:54.347Z</time>
      </trkpt>
      <trkpt lat="42.2845417" lon="-8.64101361">
        <time>2019-04-24T08:19:55.014Z</time>
      </trkpt>
      <trkpt lat="42.284291" lon="-8.64062016">
        <time>2019-04-24T08:19:55.784Z</time>
      </trkpt>
      <trkpt lat="42.28398" lon="-8.64031573">
        <time>2019-04-24T08:19:56.553Z</time>
      </trkpt>
      <trkpt lat="42.2839154" lon="-8.64022043">
        <time>2019-04-24T08:19:56.745Z</time>
      </trkpt>
      <trkpt lat="42.2835542" lon="-8.6398901">
        <time>2019-04-24T08:19:57.619Z</time>
      </trkpt>
      <trkpt lat="42.2830438" lon="-8.63960688">
        <time>2019-04-24T08:19:58.725Z</time>
      </trkpt>
      <trkpt lat="42.2828468" lon="-8.63951685">
        <time>2019-04-24T08:19:59.142Z</time>
      </trkpt>
      <trkpt lat="42.2827201" lon="-8.6394581">
        <time>2019-04-24T08:19:59.410Z</time>
      </trkpt>
      <trkpt lat="42.2825822" lon="-8.6394239">
        <time>2019-04-24T08:19:59.691Z</time>
      </trkpt>
      <trkpt lat="42.2823404" lon="-8.63930747">
        <time>2019-04-24T08:20:00.205Z</time>
      </trkpt>
      <trkpt lat="42.2820727" lon="-8.63915283">
        <time>2019-04-24T08:20:00.788Z</time>
      </trkpt>
      <trkpt lat="42.2819244" lon="-8.63897019">
        <time>2019-04-24T08:20:01.190Z</time>
      </trkpt>
      <trkpt lat="42.2818135" lon="-8.6385811">
        <time>2019-04-24T08:20:01.808Z</time>
      </trkpt>
      <trkpt lat="42.2817368" lon="-8.63821875">
        <time>2019-04-24T08:20:02.367Z</time>
      </trkpt>
      <trkpt lat="42.2816708" lon="-8.63795639">
        <time>2019-04-24T08:20:02.778Z</time>
      </trkpt>
      <trkpt lat="42.2815664" lon="-8.63774567">
        <time>2019-04-24T08:20:03.154Z</time>
      </trkpt>
      <trkpt lat="42.2815249" lon="-8.63764526">
        <time>2019-04-24T08:20:03.325Z</time>
      </trkpt>
      <trkpt lat="42.2814593" lon="-8.63743294">
        <time>2019-04-24T08:20:03.666Z</time>
      </trkpt>
      <trkpt lat="42.2813772" lon="-8.63713338">
        <time>2019-04-24T08:20:04.140Z</time>
      </trkpt>
      <trkpt lat="42.2813185" lon="-8.63701502">
        <time>2019-04-24T08:20:04.351Z</time>
      </trkpt>
      <trkpt lat="42.2812546" lon="-8.63691721">
        <time>2019-04-24T08:20:04.544Z</time>
      </trkpt>
      <trkpt lat="42.2811582" lon="-8.63662669">
        <time>2019-04-24T08:20:05.016Z</time>
      </trkpt>
      <trkpt lat="42.2811013" lon="-8.63642854">
        <time>2019-04-24T08:20:05.331Z</time>
      </trkpt>
      <trkpt lat="42.281022" lon="-8.6361967">
        <time>2019-04-24T08:20:05.710Z</time>
      </trkpt>
      <trkpt lat="42.2809474" lon="-8.63592035">
        <time>2019-04-24T08:20:06.146Z</time>
      </trkpt>
      <trkpt lat="42.2808729" lon="-8.63550427">
        <time>2019-04-24T08:20:06.781Z</time>
      </trkpt>
      <trkpt lat="42.2808118" lon="-8.63508584">
        <time>2019-04-24T08:20:07.413Z</time>
      </trkpt>
      <trkpt lat="42.2807206" lon="-8.63494788">
        <time>2019-04-24T08:20:07.687Z</time>
      </trkpt>
      <trkpt lat="42.2804315" lon="-8.63461461">
        <time>2019-04-24T08:20:08.448Z</time>
      </trkpt>
      <trkpt lat="42.2803702" lon="-8.63451235">
        <time>2019-04-24T08:20:08.643Z</time>
      </trkpt>
      <trkpt lat="42.2800912" lon="-8.63419468">
        <time>2019-04-24T08:20:09.374Z</time>
      </trkpt>
      <trkpt lat="42.280027" lon="-8.63382169">
        <time>2019-04-24T08:20:09.942Z</time>
      </trkpt>
      <trkpt lat="42.279802" lon="-8.63330427">
        <time>2019-04-24T08:20:10.832Z</time>
      </trkpt>
      <trkpt lat="42.2797436" lon="-8.63327116">
        <time>2019-04-24T08:20:10.959Z</time>
      </trkpt>
      <trkpt lat="42.2797727" lon="-8.63352681">
        <time>2019-04-24T08:20:11.342Z</time>
      </trkpt>
      <trkpt lat="42.2797757" lon="-8.63359856">
        <time>2019-04-24T08:20:11.449Z</time>
      </trkpt>
      <trkpt lat="42.2797833" lon="-8.6336367">
        <time>2019-04-24T08:20:11.508Z</time>
      </trkpt>
      <trkpt lat="42.2797069" lon="-8.63351625">
        <time>2019-04-24T08:20:11.743Z</time>
      </trkpt>
      <trkpt lat="42.2794081" lon="-8.6328405">
        <time>2019-04-24T08:20:12.910Z</time>
      </trkpt>
      <trkpt lat="42.2792519" lon="-8.63245854">
        <time>2019-04-24T08:20:13.557Z</time>
      </trkpt>
      <trkpt lat="42.2792133" lon="-8.63238126">
        <time>2019-04-24T08:20:13.695Z</time>
      </trkpt>
      <trkpt lat="42.2790357" lon="-8.63204036">
        <time>2019-04-24T08:20:14.313Z</time>
      </trkpt>
      <trkpt lat="42.2789599" lon="-8.63192385">
        <time>2019-04-24T08:20:14.543Z</time>
      </trkpt>
      <trkpt lat="42.2788198" lon="-8.63167868">
        <time>2019-04-24T08:20:15.002Z</time>
      </trkpt>
      <trkpt lat="42.278423" lon="-8.63138289">
        <time>2019-04-24T08:20:15.910Z</time>
      </trkpt>
      <trkpt lat="42.2783905" lon="-8.63130108">
        <time>2019-04-24T08:20:16.048Z</time>
      </trkpt>
      <trkpt lat="42.2783428" lon="-8.63095122">
        <time>2019-04-24T08:20:16.575Z</time>
      </trkpt>
      <trkpt lat="42.2783309" lon="-8.63092901">
        <time>2019-04-24T08:20:16.616Z</time>
      </trkpt>
      <trkpt lat="42.2783128" lon="-8.63088056">
        <time>2019-04-24T08:20:16.696Z</time>
      </trkpt>
      <trkpt lat="42.2782492" lon="-8.63068778">
        <time>2019-04-24T08:20:17.009Z</time>
      </trkpt>
      <trkpt lat="42.2779789" lon="-8.63045082">
        <time>2019-04-24T08:20:17.655Z</time>
      </trkpt>
      <trkpt lat="42.2777078" lon="-8.63025141">
        <time>2019-04-24T08:20:18.274Z</time>
      </trkpt>
      <trkpt lat="42.2774389" lon="-8.63018821">
        <time>2019-04-24T08:20:18.821Z</time>
      </trkpt>
      <trkpt lat="42.2771845" lon="-8.63009853">
        <time>2019-04-24T08:20:19.348Z</time>
      </trkpt>
      <trkpt lat="42.2771357" lon="-8.63007833">
        <time>2019-04-24T08:20:19.450Z</time>
      </trkpt>
      <trkpt lat="42.2770818" lon="-8.63003776">
        <time>2019-04-24T08:20:19.574Z</time>
      </trkpt>
      <trkpt lat="42.2769431" lon="-8.62982293">
        <time>2019-04-24T08:20:19.997Z</time>
      </trkpt>
      <trkpt lat="42.2768437" lon="-8.62966259">
        <time>2019-04-24T08:20:20.307Z</time>
      </trkpt>
      <trkpt lat="42.2767725" lon="-8.62960316">
        <time>2019-04-24T08:20:20.475Z</time>
      </trkpt>
      <trkpt lat="42.2766728" lon="-8.62953769">
        <time>2019-04-24T08:20:20.697Z</time>
      </trkpt>
      <trkpt lat="42.2765765" lon="-8.62942831">
        <time>2019-04-24T08:20:20.949Z</time>
      </trkpt>
      <trkpt lat="42.2764786" lon="-8.62927375">
        <time>2019-04-24T08:20:21.251Z</time>
      </trkpt>
      <trkpt lat="42.2764703" lon="-8.6292652">
        <time>2019-04-24T08:20:21.272Z</time>
      </trkpt>
      <trkpt lat="42.2762765" lon="-8.62916864">
        <time>2019-04-24T08:20:21.686Z</time>
      </trkpt>
      <trkpt lat="42.2761922" lon="-8.62913369">
        <time>2019-04-24T08:20:21.863Z</time>
      </trkpt>
      <trkpt lat="42.2761712" lon="-8.62910167">
        <time>2019-04-24T08:20:21.926Z</time>
      </trkpt>
      <trkpt lat="42.2760262" lon="-8.62919638">
        <time>2019-04-24T08:20:22.249Z</time>
      </trkpt>
      <trkpt lat="42.27599" lon="-8.62917417">
        <time>2019-04-24T08:20:22.329Z</time>
      </trkpt>
      <trkpt lat="42.2759708" lon="-8.62910494">
        <time>2019-04-24T08:20:22.439Z</time>
      </trkpt>
      <trkpt lat="42.2759771" lon="-8.62904408">
        <time>2019-04-24T08:20:22.530Z</time>
      </trkpt>
      <trkpt lat="42.2760338" lon="-8.62897577">
        <time>2019-04-24T08:20:22.682Z</time>
      </trkpt>
      <trkpt lat="42.2762002" lon="-8.62885507">
        <time>2019-04-24T08:20:23.060Z</time>
      </trkpt>
      <trkpt lat="42.276266" lon="-8.628814">
        <time>2019-04-24T08:20:23.205Z</time>
      </trkpt>
      <trkpt lat="42.2764436" lon="-8.62870043">
        <time>2019-04-24T08:20:23.599Z</time>
      </trkpt>
      <trkpt lat="42.2764296" lon="-8.62870831">
        <time>2019-04-24T08:20:23.629Z</time>
      </trkpt>
      <trkpt lat="42.2764908" lon="-8.62854436">
        <time>2019-04-24T08:20:23.901Z</time>
      </trkpt>
      <trkpt lat="42.2764866" lon="-8.62852759">
        <time>2019-04-24T08:20:23.927Z</time>
      </trkpt>
      <trkpt lat="42.2763682" lon="-8.6283499">
        <time>2019-04-24T08:20:24.282Z</time>
      </trkpt>
      <trkpt lat="42.2763104" lon="-8.62833791">
        <time>2019-04-24T08:20:24.399Z</time>
      </trkpt>
      <trkpt lat="42.2762244" lon="-8.62837563">
        <time>2019-04-24T08:20:24.580Z</time>
      </trkpt>
      <trkpt lat="42.276089" lon="-8.62843908">
        <time>2019-04-24T08:20:24.867Z</time>
      </trkpt>
      <trkpt lat="42.2760272" lon="-8.62840916">
        <time>2019-04-24T08:20:24.999Z</time>
      </trkpt>
      <trkpt lat="42.2760154" lon="-8.6283882">
        <time>2019-04-24T08:20:25.038Z</time>
      </trkpt>
      <trkpt lat="42.2760153" lon="-8.62835283">
        <time>2019-04-24T08:20:25.090Z</time>
      </trkpt>
      <trkpt lat="42.2760445" lon="-8.62825937">
        <time>2019-04-24T08:20:25.240Z</time>
      </trkpt>
      <trkpt lat="42.2762419" lon="-8.62814613">
        <time>2019-04-24T08:20:25.670Z</time>
      </trkpt>
      <trkpt lat="42.2763878" lon="-8.62807262">
        <time>2019-04-24T08:20:25.982Z</time>
      </trkpt>
      <trkpt lat="42.2764604" lon="-8.62804194">
        <time>2019-04-24T08:20:26.134Z</time>
      </trkpt>
      <trkpt lat="42.276632" lon="-8.62798235">
        <time>2019-04-24T08:20:26.489Z</time>
      </trkpt>
      <trkpt lat="42.2768521" lon="-8.62791278">
        <time>2019-04-24T08:20:26.942Z</time>
      </trkpt>
      <trkpt lat="42.2770801" lon="-8.62779677">
        <time>2019-04-24T08:20:27.430Z</time>
      </trkpt>
      <trkpt lat="42.2772902" lon="-8.62777934">
        <time>2019-04-24T08:20:27.852Z</time>
      </trkpt>
      <trkpt lat="42.2775115" lon="-8.62781831">
        <time>2019-04-24T08:20:28.299Z</time>
      </trkpt>
      <trkpt lat="42.2777418" lon="-8.62782427">
        <time>2019-04-24T08:20:28.761Z</time>
      </trkpt>
      <trkpt lat="42.277968" lon="-8.62781848">
        <time>2019-04-24T08:20:29.214Z</time>
      </trkpt>
      <trkpt lat="42.2781596" lon="-8.62784237">
        <time>2019-04-24T08:20:29.600Z</time>
      </trkpt>
      <trkpt lat="42.2782519" lon="-8.62780591">
        <time>2019-04-24T08:20:29.793Z</time>
      </trkpt>
      <trkpt lat="42.278175" lon="-8.62762545">
        <time>2019-04-24T08:20:30.102Z</time>
      </trkpt>
      <trkpt lat="42.2781517" lon="-8.62759795">
        <time>2019-04-24T08:20:30.164Z</time>
      </trkpt>
      <trkpt lat="42.2780311" lon="-8.62736879">
        <time>2019-04-24T08:20:30.581Z</time>
      </trkpt>
      <trkpt lat="42.2779901" lon="-8.62728841">
        <time>2019-04-24T08:20:30.726Z</time>
      </trkpt>
      <trkpt lat="42.2778732" lon="-8.62705464">
        <time>2019-04-24T08:20:31.144Z</time>
      </trkpt>
      <trkpt lat="42.277744" lon="-8.62678793">
        <time>2019-04-24T08:20:31.617Z</time>
      </trkpt>
      <trkpt lat="42.2775718" lon="-8.62651929">
        <time>2019-04-24T08:20:32.144Z</time>
      </trkpt>
      <trkpt lat="42.2775334" lon="-8.62644343">
        <time>2019-04-24T08:20:32.280Z</time>
      </trkpt>
      <trkpt lat="42.2773273" lon="-8.62619281">
        <time>2019-04-24T08:20:32.836Z</time>
      </trkpt>
      <trkpt lat="42.2770941" lon="-8.62602006">
        <time>2019-04-24T08:20:33.369Z</time>
      </trkpt>
      <trkpt lat="42.2767501" lon="-8.6257386">
        <time>2019-04-24T08:20:34.175Z</time>
      </trkpt>
      <trkpt lat="42.2766751" lon="-8.62558253">
        <time>2019-04-24T08:20:34.451Z</time>
      </trkpt>
      <trkpt lat="42.2767785" lon="-8.62534306">
        <time>2019-04-24T08:20:34.862Z</time>
      </trkpt>
      <trkpt lat="42.2770217" lon="-8.62460981">
        <time>2019-04-24T08:20:36.053Z</time>
      </trkpt>
      <trkpt lat="42.2769914" lon="-8.62398846">
        <time>2019-04-24T08:20:36.976Z</time>
      </trkpt>
      <trkpt lat="42.2770529" lon="-8.62333165">
        <time>2019-04-24T08:20:37.958Z</time>
      </trkpt>
      <trkpt lat="42.2772644" lon="-8.62261114">
        <time>2019-04-24T08:20:39.107Z</time>
      </trkpt>
      <trkpt lat="42.2774434" lon="-8.62203941">
        <time>2019-04-24T08:20:40.027Z</time>
      </trkpt>
      <trkpt lat="42.2775024" lon="-8.6218426">
        <time>2019-04-24T08:20:40.342Z</time>
      </trkpt>
      <trkpt lat="42.2777945" lon="-8.62133357">
        <time>2019-04-24T08:20:41.297Z</time>
      </trkpt>
      <trkpt lat="42.2780942" lon="-8.62111665">
        <time>2019-04-24T08:20:41.978Z</time>
      </trkpt>
      <trkpt lat="42.2782163" lon="-8.62104138">
        <time>2019-04-24T08:20:42.247Z</time>
      </trkpt>
      <trkpt lat="42.2782979" lon="-8.62101623">
        <time>2019-04-24T08:20:42.415Z</time>
      </trkpt>
      <trkpt lat="42.2783408" lon="-8.62101062">
        <time>2019-04-24T08:20:42.501Z</time>
      </trkpt>
      <trkpt lat="42.2787231" lon="-8.62091624">
        <time>2019-04-24T08:20:43.280Z</time>
      </trkpt>
      <trkpt lat="42.279069" lon="-8.62048566">
        <time>2019-04-24T08:20:44.222Z</time>
      </trkpt>
      <trkpt lat="42.2791417" lon="-8.62036647">
        <time>2019-04-24T08:20:44.451Z</time>
      </trkpt>
      <trkpt lat="42.2791436" lon="-8.62032129">
        <time>2019-04-24T08:20:44.518Z</time>
      </trkpt>
      <trkpt lat="42.2792278" lon="-8.62016857">
        <time>2019-04-24T08:20:44.800Z</time>
      </trkpt>
      <trkpt lat="42.2793965" lon="-8.62002356">
        <time>2019-04-24T08:20:45.201Z</time>
      </trkpt>
      <trkpt lat="42.2796674" lon="-8.61972743">
        <time>2019-04-24T08:20:45.899Z</time>
      </trkpt>
      <trkpt lat="42.2798327" lon="-8.61941336">
        <time>2019-04-24T08:20:46.470Z</time>
      </trkpt>
      <trkpt lat="42.2798426" lon="-8.61939501">
        <time>2019-04-24T08:20:46.504Z</time>
      </trkpt>
      <trkpt lat="42.2799526" lon="-8.61903073">
        <time>2019-04-24T08:20:47.087Z</time>
      </trkpt>
      <trkpt lat="42.2800369" lon="-8.61868648">
        <time>2019-04-24T08:20:47.625Z</time>
      </trkpt>
      <trkpt lat="42.2801686" lon="-8.61810143">
        <time>2019-04-24T08:20:48.532Z</time>
      </trkpt>
      <trkpt lat="42.2802847" lon="-8.61742677">
        <time>2019-04-24T08:20:49.559Z</time>
      </trkpt>
      <trkpt lat="42.2803066" lon="-8.61732115">
        <time>2019-04-24T08:20:49.722Z</time>
      </trkpt>
      <trkpt lat="42.2804001" lon="-8.61687951">
        <time>2019-04-24T08:20:50.403Z</time>
      </trkpt>
      <trkpt lat="42.2804803" lon="-8.61647685">
        <time>2019-04-24T08:20:51.021Z</time>
      </trkpt>
      <trkpt lat="42.2805005" lon="-8.61635833">
        <time>2019-04-24T08:20:51.201Z</time>
      </trkpt>
      <trkpt lat="42.2805607" lon="-8.6162253">
        <time>2019-04-24T08:20:51.432Z</time>
      </trkpt>
      <trkpt lat="42.2806541" lon="-8.61593915">
        <time>2019-04-24T08:20:51.896Z</time>
      </trkpt>
      <trkpt lat="42.2807736" lon="-8.6156602">
        <time>2019-04-24T08:20:52.374Z</time>
      </trkpt>
      <trkpt lat="42.2807916" lon="-8.61560538">
        <time>2019-04-24T08:20:52.463Z</time>
      </trkpt>
      <trkpt lat="42.2808418" lon="-8.61550304">
        <time>2019-04-24T08:20:52.645Z</time>
      </trkpt>
      <trkpt lat="42.2808448" lon="-8.61549222">
        <time>2019-04-24T08:20:52.662Z</time>
      </trkpt>
      <trkpt lat="42.2809477" lon="-8.61540296">
        <time>2019-04-24T08:20:52.907Z</time>
      </trkpt>
      <trkpt lat="42.2809725" lon="-8.61537203">
        <time>2019-04-24T08:20:52.975Z</time>
      </trkpt>
      <trkpt lat="42.2810171" lon="-8.61521378">
        <time>2019-04-24T08:20:53.226Z</time>
      </trkpt>
      <trkpt lat="42.2810618" lon="-8.61506324">
        <time>2019-04-24T08:20:53.467Z</time>
      </trkpt>
      <trkpt lat="42.2811291" lon="-8.61484657">
        <time>2019-04-24T08:20:53.815Z</time>
      </trkpt>
      <trkpt lat="42.2811952" lon="-8.61466627">
        <time>2019-04-24T08:20:54.113Z</time>
      </trkpt>
      <trkpt lat="42.2812423" lon="-8.61451841">
        <time>2019-04-24T08:20:54.352Z</time>
      </trkpt>
      <trkpt lat="42.2812813" lon="-8.61436486">
        <time>2019-04-24T08:20:54.593Z</time>
      </trkpt>
      <trkpt lat="42.2812909" lon="-8.6142631">
        <time>2019-04-24T08:20:54.745Z</time>
      </trkpt>
      <trkpt lat="42.2812509" lon="-8.61409161">
        <time>2019-04-24T08:20:55.012Z</time>
      </trkpt>
      <trkpt lat="42.2812161" lon="-8.61396864">
        <time>2019-04-24T08:20:55.207Z</time>
      </trkpt>
      <trkpt lat="42.2812372" lon="-8.61385742">
        <time>2019-04-24T08:20:55.377Z</time>
      </trkpt>
      <trkpt lat="42.2812806" lon="-8.61383596">
        <time>2019-04-24T08:20:55.470Z</time>
      </trkpt>
      <trkpt lat="42.2813137" lon="-8.61379539">
        <time>2019-04-24T08:20:55.560Z</time>
      </trkpt>
      <trkpt lat="42.2813329" lon="-8.61371912">
        <time>2019-04-24T08:20:55.679Z</time>
      </trkpt>
      <trkpt lat="42.2813231" lon="-8.61355139">
        <time>2019-04-24T08:20:55.928Z</time>
      </trkpt>
      <trkpt lat="42.2813038" lon="-8.6132224">
        <time>2019-04-24T08:20:56.417Z</time>
      </trkpt>
      <trkpt lat="42.2811351" lon="-8.61295351">
        <time>2019-04-24T08:20:56.940Z</time>
      </trkpt>
      <trkpt lat="42.2807806" lon="-8.61288185">
        <time>2019-04-24T08:20:57.658Z</time>
      </trkpt>
      <trkpt lat="42.280483" lon="-8.61282611">
        <time>2019-04-24T08:20:58.260Z</time>
      </trkpt>
      <trkpt lat="42.280015" lon="-8.61273726">
        <time>2019-04-24T08:20:59.207Z</time>
      </trkpt>
      <trkpt lat="42.2795999" lon="-8.61265294">
        <time>2019-04-24T08:21:00.048Z</time>
      </trkpt>
      <trkpt lat="42.2794949" lon="-8.61263575">
        <time>2019-04-24T08:21:00.260Z</time>
      </trkpt>
      <trkpt lat="42.2793982" lon="-8.61259527">
        <time>2019-04-24T08:21:00.463Z</time>
      </trkpt>
      <trkpt lat="42.2793564" lon="-8.61254087">
        <time>2019-04-24T08:21:00.579Z</time>
      </trkpt>
      <trkpt lat="42.2793576" lon="-8.61249913">
        <time>2019-04-24T08:21:00.641Z</time>
      </trkpt>
      <trkpt lat="42.2793596" lon="-8.61248513">
        <time>2019-04-24T08:21:00.662Z</time>
      </trkpt>
      <trkpt lat="42.2793226" lon="-8.61245445">
        <time>2019-04-24T08:21:00.749Z</time>
      </trkpt>
      <trkpt lat="42.2792814" lon="-8.61229469">
        <time>2019-04-24T08:21:01.000Z</time>
      </trkpt>
      <trkpt lat="42.2793852" lon="-8.61199395">
        <time>2019-04-24T08:21:01.492Z</time>
      </trkpt>
      <trkpt lat="42.2794051" lon="-8.61171576">
        <time>2019-04-24T08:21:01.906Z</time>
      </trkpt>
      <trkpt lat="42.2794531" lon="-8.61142289">
        <time>2019-04-24T08:21:02.351Z</time>
      </trkpt>
      <trkpt lat="42.2798466" lon="-8.61137922">
        <time>2019-04-24T08:21:03.142Z</time>
      </trkpt>
      <trkpt lat="42.2800114" lon="-8.61132499">
        <time>2019-04-24T08:21:03.482Z</time>
      </trkpt>
      <trkpt lat="42.2801186" lon="-8.61126322">
        <time>2019-04-24T08:21:03.716Z</time>
      </trkpt>
      <trkpt lat="42.2803146" lon="-8.61111436">
        <time>2019-04-24T08:21:04.167Z</time>
      </trkpt>
      <trkpt lat="42.2804932" lon="-8.61103632">
        <time>2019-04-24T08:21:04.543Z</time>
      </trkpt>
      <trkpt lat="42.2806668" lon="-8.61098041">
        <time>2019-04-24T08:21:04.901Z</time>
      </trkpt>
      <trkpt lat="42.2809655" lon="-8.61087673">
        <time>2019-04-24T08:21:05.519Z</time>
      </trkpt>
      <trkpt lat="42.2812168" lon="-8.61087237">
        <time>2019-04-24T08:21:06.023Z</time>
      </trkpt>
      <trkpt lat="42.2814188" lon="-8.61075695">
        <time>2019-04-24T08:21:06.462Z</time>
      </trkpt>
      <trkpt lat="42.2814623" lon="-8.61064463">
        <time>2019-04-24T08:21:06.650Z</time>
      </trkpt>
      <trkpt lat="42.2814872" lon="-8.61061127">
        <time>2019-04-24T08:21:06.720Z</time>
      </trkpt>
      <trkpt lat="42.2815169" lon="-8.61051388">
        <time>2019-04-24T08:21:06.876Z</time>
      </trkpt>
      <trkpt lat="42.2815361" lon="-8.61049988">
        <time>2019-04-24T08:21:06.920Z</time>
      </trkpt>
      <trkpt lat="42.2816768" lon="-8.61035906">
        <time>2019-04-24T08:21:07.271Z</time>
      </trkpt>
      <trkpt lat="42.2815255" lon="-8.61009151">
        <time>2019-04-24T08:21:07.770Z</time>
      </trkpt>
      <trkpt lat="42.2813939" lon="-8.60988766">
        <time>2019-04-24T08:21:08.171Z</time>
      </trkpt>
      <trkpt lat="42.2813803" lon="-8.60986914">
        <time>2019-04-24T08:21:08.210Z</time>
      </trkpt>
      <trkpt lat="42.2813718" lon="-8.60982304">
        <time>2019-04-24T08:21:08.280Z</time>
      </trkpt>
      <trkpt lat="42.2813394" lon="-8.60978339">
        <time>2019-04-24T08:21:08.368Z</time>
      </trkpt>
      <trkpt lat="42.2813193" lon="-8.60971592">
        <time>2019-04-24T08:21:08.476Z</time>
      </trkpt>
      <trkpt lat="42.2813381" lon="-8.60971181">
        <time>2019-04-24T08:21:08.514Z</time>
      </trkpt>
      <trkpt lat="42.2819035" lon="-8.60938701">
        <time>2019-04-24T08:21:09.745Z</time>
      </trkpt>
      <trkpt lat="42.282004" lon="-8.60929297">
        <time>2019-04-24T08:21:09.990Z</time>
      </trkpt>
      <trkpt lat="42.2820177" lon="-8.60926883">
        <time>2019-04-24T08:21:10.035Z</time>
      </trkpt>
      <trkpt lat="42.2820296" lon="-8.60925005">
        <time>2019-04-24T08:21:10.072Z</time>
      </trkpt>
      <trkpt lat="42.2820337" lon="-8.60923438">
        <time>2019-04-24T08:21:10.097Z</time>
      </trkpt>
      <trkpt lat="42.2820291" lon="-8.60921703">
        <time>2019-04-24T08:21:10.124Z</time>
      </trkpt>
      <trkpt lat="42.2820422" lon="-8.60922893">
        <time>2019-04-24T08:21:10.156Z</time>
      </trkpt>
      <trkpt lat="42.281996" lon="-8.60922826">
        <time>2019-04-24T08:21:10.249Z</time>
      </trkpt>
      <trkpt lat="42.2819817" lon="-8.60922113">
        <time>2019-04-24T08:21:10.280Z</time>
      </trkpt>
      <trkpt lat="42.2819744" lon="-8.60920722">
        <time>2019-04-24T08:21:10.305Z</time>
      </trkpt>
      <trkpt lat="42.2820006" lon="-8.60903983">
        <time>2019-04-24T08:21:10.559Z</time>
      </trkpt>
      <trkpt lat="42.2821229" lon="-8.60873322">
        <time>2019-04-24T08:21:11.075Z</time>
      </trkpt>
      <trkpt lat="42.28213" lon="-8.60872543">
        <time>2019-04-24T08:21:11.093Z</time>
      </trkpt>
      <trkpt lat="42.2821492" lon="-8.60870481">
        <time>2019-04-24T08:21:11.142Z</time>
      </trkpt>
      <trkpt lat="42.2821667766687" lon="-8.60871388631362">
        <time>2019-04-24T08:21:11.180Z</time>
      </trkpt>
      <trkpt lat="42.28214919999999" lon="-8.608704810000043">
        <time>2019-04-24T07:59:51.000Z</time>
      </trkpt>
      <trkpt lat="42.2821669" lon="-8.60871395">
        <time>2019-04-24T07:59:51.038Z</time>
      </trkpt>
      <trkpt lat="42.2822372" lon="-8.60868922">
        <time>2019-04-24T07:59:51.184Z</time>
      </trkpt>
      <trkpt lat="42.2822987" lon="-8.60865795">
        <time>2019-04-24T07:59:51.316Z</time>
      </trkpt>
      <trkpt lat="42.2823148" lon="-8.6086458">
        <time>2019-04-24T07:59:51.353Z</time>
      </trkpt>
      <trkpt lat="42.2823282" lon="-8.60863641">
        <time>2019-04-24T07:59:51.383Z</time>
      </trkpt>
      <trkpt lat="42.2823429" lon="-8.60862359">
        <time>2019-04-24T07:59:51.418Z</time>
      </trkpt>
      <trkpt lat="42.2823945" lon="-8.60861236">
        <time>2019-04-24T07:59:51.523Z</time>
      </trkpt>
      <trkpt lat="42.2825118" lon="-8.60852108">
        <time>2019-04-24T07:59:51.794Z</time>
      </trkpt>
      <trkpt lat="42.2827475" lon="-8.60838194">
        <time>2019-04-24T07:59:52.309Z</time>
      </trkpt>
      <trkpt lat="42.2827583" lon="-8.60836937">
        <time>2019-04-24T07:59:52.338Z</time>
      </trkpt>
      <trkpt lat="42.2827739" lon="-8.60831438">
        <time>2019-04-24T07:59:52.425Z</time>
      </trkpt>
      <trkpt lat="42.2828345" lon="-8.60823861">
        <time>2019-04-24T07:59:52.590Z</time>
      </trkpt>
      <trkpt lat="42.28288" lon="-8.60819896">
        <time>2019-04-24T07:59:52.698Z</time>
      </trkpt>
      <trkpt lat="42.282936" lon="-8.60816099">
        <time>2019-04-24T07:59:52.824Z</time>
      </trkpt>
      <trkpt lat="42.283095" lon="-8.60813199">
        <time>2019-04-24T07:59:53.146Z</time>
      </trkpt>
      <trkpt lat="42.28325" lon="-8.60808899">
        <time>2019-04-24T07:59:53.463Z</time>
      </trkpt>
      <trkpt lat="42.2833059" lon="-8.60804599">
        <time>2019-04-24T07:59:53.592Z</time>
      </trkpt>
      <trkpt lat="42.2833729" lon="-8.60797299">
        <time>2019-04-24T07:59:53.764Z</time>
      </trkpt>
      <trkpt lat="42.2834499" lon="-8.60792697">
        <time>2019-04-24T07:59:53.933Z</time>
      </trkpt>
      <trkpt lat="42.2836749" lon="-8.60779001">
        <time>2019-04-24T07:59:54.427Z</time>
      </trkpt>
      <trkpt lat="42.283729" lon="-8.607774">
        <time>2019-04-24T07:59:54.538Z</time>
      </trkpt>
      <trkpt lat="42.283845" lon="-8.60774701">
        <time>2019-04-24T07:59:54.774Z</time>
      </trkpt>
      <trkpt lat="42.284013" lon="-8.60778297">
        <time>2019-04-24T07:59:55.115Z</time>
      </trkpt>
      <trkpt lat="42.284201" lon="-8.60787299">
        <time>2019-04-24T07:59:55.515Z</time>
      </trkpt>
      <trkpt lat="42.2843539" lon="-8.60787299">
        <time>2019-04-24T07:59:55.821Z</time>
      </trkpt>
      <trkpt lat="42.2845429" lon="-8.60784499">
        <time>2019-04-24T07:59:56.202Z</time>
      </trkpt>
      <trkpt lat="42.2847299" lon="-8.60780996">
        <time>2019-04-24T07:59:56.580Z</time>
      </trkpt>
      <trkpt lat="42.2849129" lon="-8.60776696">
        <time>2019-04-24T07:59:56.952Z</time>
      </trkpt>
      <trkpt lat="42.2851309" lon="-8.60773502">
        <time>2019-04-24T07:59:57.391Z</time>
      </trkpt>
      <trkpt lat="42.28534" lon="-8.60761198">
        <time>2019-04-24T07:59:57.848Z</time>
      </trkpt>
      <trkpt lat="42.285601" lon="-8.60762204">
        <time>2019-04-24T07:59:58.371Z</time>
      </trkpt>
      <trkpt lat="42.2858369" lon="-8.60769999">
        <time>2019-04-24T07:59:58.858Z</time>
      </trkpt>
      <trkpt lat="42.2860339" lon="-8.607716">
        <time>2019-04-24T07:59:59.253Z</time>
      </trkpt>
      <trkpt lat="42.286257" lon="-8.60776302">
        <time>2019-04-24T07:59:59.705Z</time>
      </trkpt>
      <trkpt lat="42.286487" lon="-8.60795496">
        <time>2019-04-24T08:00:00.247Z</time>
      </trkpt>
      <trkpt lat="42.28678" lon="-8.60806703">
        <time>2019-04-24T08:00:00.857Z</time>
      </trkpt>
      <trkpt lat="42.2870439" lon="-8.60816099">
        <time>2019-04-24T08:00:01.404Z</time>
      </trkpt>
      <trkpt lat="42.2873729" lon="-8.60826996">
        <time>2019-04-24T08:00:02.083Z</time>
      </trkpt>
      <trkpt lat="42.287557" lon="-8.60834598">
        <time>2019-04-24T08:00:02.469Z</time>
      </trkpt>
      <trkpt lat="42.2876769" lon="-8.60841496">
        <time>2019-04-24T08:00:02.730Z</time>
      </trkpt>
      <trkpt lat="42.287858" lon="-8.60844296">
        <time>2019-04-24T08:00:03.095Z</time>
      </trkpt>
      <trkpt lat="42.287941" lon="-8.608436">
        <time>2019-04-24T08:00:03.262Z</time>
      </trkpt>
      <trkpt lat="42.2880619" lon="-8.60844497">
        <time>2019-04-24T08:00:03.505Z</time>
      </trkpt>
      <trkpt lat="42.288103" lon="-8.60849903">
        <time>2019-04-24T08:00:03.620Z</time>
      </trkpt>
      <trkpt lat="42.2881369" lon="-8.60858998">
        <time>2019-04-24T08:00:03.771Z</time>
      </trkpt>
      <trkpt lat="42.2882539" lon="-8.60872602">
        <time>2019-04-24T08:00:04.080Z</time>
      </trkpt>
      <trkpt lat="42.2884069" lon="-8.60867899">
        <time>2019-04-24T08:00:04.394Z</time>
      </trkpt>
      <trkpt lat="42.2885989" lon="-8.60861202">
        <time>2019-04-24T08:00:04.791Z</time>
      </trkpt>
      <trkpt lat="42.288605" lon="-8.60864697">
        <time>2019-04-24T08:00:04.844Z</time>
      </trkpt>
      <trkpt lat="42.2886399" lon="-8.60871302">
        <time>2019-04-24T08:00:04.964Z</time>
      </trkpt>
      <trkpt lat="42.2887679" lon="-8.60868897">
        <time>2019-04-24T08:00:05.223Z</time>
      </trkpt>
      <trkpt lat="42.289063" lon="-8.60863097">
        <time>2019-04-24T08:00:05.821Z</time>
      </trkpt>
      <trkpt lat="42.2893469" lon="-8.608579">
        <time>2019-04-24T08:00:06.395Z</time>
      </trkpt>
      <trkpt lat="42.2896319" lon="-8.60848101">
        <time>2019-04-24T08:00:06.984Z</time>
      </trkpt>
      <trkpt lat="42.290015" lon="-8.60843399">
        <time>2019-04-24T08:00:07.755Z</time>
      </trkpt>
      <trkpt lat="42.2903909" lon="-8.60835696">
        <time>2019-04-24T08:00:08.517Z</time>
      </trkpt>
      <trkpt lat="42.290802" lon="-8.60821296">
        <time>2019-04-24T08:00:09.368Z</time>
      </trkpt>
      <trkpt lat="42.2912579" lon="-8.60802596">
        <time>2019-04-24T08:00:10.323Z</time>
      </trkpt>
      <trkpt lat="42.2915139" lon="-8.60795496">
        <time>2019-04-24T08:00:10.847Z</time>
      </trkpt>
      <trkpt lat="42.292072" lon="-8.607846">
        <time>2019-04-24T08:00:11.977Z</time>
      </trkpt>
      <trkpt lat="42.2927359" lon="-8.60766897">
        <time>2019-04-24T08:00:13.333Z</time>
      </trkpt>
      <trkpt lat="42.2929509" lon="-8.60763796">
        <time>2019-04-24T08:00:13.766Z</time>
      </trkpt>
      <trkpt lat="42.29352" lon="-8.60739204">
        <time>2019-04-24T08:00:14.963Z</time>
      </trkpt>
      <trkpt lat="42.2937559" lon="-8.60736496">
        <time>2019-04-24T08:00:15.437Z</time>
      </trkpt>
      <trkpt lat="42.294069" lon="-8.60759798">
        <time>2019-04-24T08:00:16.153Z</time>
      </trkpt>
      <trkpt lat="42.294212" lon="-8.60796896">
        <time>2019-04-24T08:00:16.773Z</time>
      </trkpt>
      <trkpt lat="42.2943789" lon="-8.608321">
        <time>2019-04-24T08:00:17.393Z</time>
      </trkpt>
      <trkpt lat="42.294531" lon="-8.60857196">
        <time>2019-04-24T08:00:17.874Z</time>
      </trkpt>
      <trkpt lat="42.2947059" lon="-8.60884001">
        <time>2019-04-24T08:00:18.404Z</time>
      </trkpt>
      <trkpt lat="42.294899" lon="-8.60904696">
        <time>2019-04-24T08:00:18.898Z</time>
      </trkpt>
      <trkpt lat="42.295146" lon="-8.609298">
        <time>2019-04-24T08:00:19.517Z</time>
      </trkpt>
      <trkpt lat="42.2954289" lon="-8.60951702">
        <time>2019-04-24T08:00:20.170Z</time>
      </trkpt>
      <trkpt lat="42.295679" lon="-8.60976596">
        <time>2019-04-24T08:00:20.792Z</time>
      </trkpt>
      <trkpt lat="42.2958909" lon="-8.61003401">
        <time>2019-04-24T08:00:21.374Z</time>
      </trkpt>
      <trkpt lat="42.296081" lon="-8.610204">
        <time>2019-04-24T08:00:21.831Z</time>
      </trkpt>
      <trkpt lat="42.2964169" lon="-8.61025999">
        <time>2019-04-24T08:00:22.509Z</time>
      </trkpt>
      <trkpt lat="42.296958" lon="-8.61019696">
        <time>2019-04-24T08:00:23.597Z</time>
      </trkpt>
      <trkpt lat="42.297287" lon="-8.61010802">
        <time>2019-04-24T08:00:24.269Z</time>
      </trkpt>
      <trkpt lat="42.297891" lon="-8.60989202">
        <time>2019-04-24T08:00:25.521Z</time>
      </trkpt>
      <trkpt lat="42.2979449" lon="-8.60986797">
        <time>2019-04-24T08:00:25.635Z</time>
      </trkpt>
      <trkpt lat="42.298141" lon="-8.60973">
        <time>2019-04-24T08:00:26.078Z</time>
      </trkpt>
      <trkpt lat="42.298467" lon="-8.60961802">
        <time>2019-04-24T08:00:26.752Z</time>
      </trkpt>
      <trkpt lat="42.2986059" lon="-8.60958399">
        <time>2019-04-24T08:00:27.035Z</time>
      </trkpt>
      <trkpt lat="42.298874" lon="-8.60956999">
        <time>2019-04-24T08:00:27.573Z</time>
      </trkpt>
      <trkpt lat="42.299103" lon="-8.60957301">
        <time>2019-04-24T08:00:28.032Z</time>
      </trkpt>
      <trkpt lat="42.299346" lon="-8.60953697">
        <time>2019-04-24T08:00:28.522Z</time>
      </trkpt>
      <trkpt lat="42.2994249" lon="-8.60952096">
        <time>2019-04-24T08:00:28.682Z</time>
      </trkpt>
      <trkpt lat="42.299489" lon="-8.609442">
        <time>2019-04-24T08:00:28.856Z</time>
      </trkpt>
      <trkpt lat="42.2996129" lon="-8.60915098">
        <time>2019-04-24T08:00:29.354Z</time>
      </trkpt>
      <trkpt lat="42.2997589" lon="-8.60897898">
        <time>2019-04-24T08:00:29.742Z</time>
      </trkpt>
      <trkpt lat="42.299878" lon="-8.608881">
        <time>2019-04-24T08:00:30.021Z</time>
      </trkpt>
      <trkpt lat="42.2999889" lon="-8.60882501">
        <time>2019-04-24T08:00:30.258Z</time>
      </trkpt>
      <trkpt lat="42.3000609" lon="-8.60878704">
        <time>2019-04-24T08:00:30.413Z</time>
      </trkpt>
      <trkpt lat="42.3001189" lon="-8.60869802">
        <time>2019-04-24T08:00:30.589Z</time>
      </trkpt>
      <trkpt lat="42.300223" lon="-8.60851001">
        <time>2019-04-24T08:00:30.937Z</time>
      </trkpt>
      <trkpt lat="42.3002709" lon="-8.60838001">
        <time>2019-04-24T08:00:31.152Z</time>
      </trkpt>
      <trkpt lat="42.3003419" lon="-8.608277">
        <time>2019-04-24T08:00:31.361Z</time>
      </trkpt>
      <trkpt lat="42.3003709" lon="-8.60820299">
        <time>2019-04-24T08:00:31.485Z</time>
      </trkpt>
      <trkpt lat="42.3004139" lon="-8.60817901">
        <time>2019-04-24T08:00:31.578Z</time>
      </trkpt>
      <trkpt lat="42.300453" lon="-8.60814196">
        <time>2019-04-24T08:00:31.674Z</time>
      </trkpt>
      <trkpt lat="42.3006219" lon="-8.60822">
        <time>2019-04-24T08:00:32.032Z</time>
      </trkpt>
      <trkpt lat="42.3007449" lon="-8.60835403">
        <time>2019-04-24T08:00:32.349Z</time>
      </trkpt>
      <trkpt lat="42.300826" lon="-8.60838102">
        <time>2019-04-24T08:00:32.516Z</time>
      </trkpt>
      <trkpt lat="42.3010179" lon="-8.60827297">
        <time>2019-04-24T08:00:32.933Z</time>
      </trkpt>
      <trkpt lat="42.301334" lon="-8.60824003">
        <time>2019-04-24T08:00:33.568Z</time>
      </trkpt>
      <trkpt lat="42.3015789" lon="-8.60815102">
        <time>2019-04-24T08:00:34.076Z</time>
      </trkpt>
      <trkpt lat="42.30173" lon="-8.60805697">
        <time>2019-04-24T08:00:34.409Z</time>
      </trkpt>
      <trkpt lat="42.3018669" lon="-8.60795698">
        <time>2019-04-24T08:00:34.721Z</time>
      </trkpt>
      <trkpt lat="42.3020699" lon="-8.60787701">
        <time>2019-04-24T08:00:35.145Z</time>
      </trkpt>
      <trkpt lat="42.3021449" lon="-8.60779998">
        <time>2019-04-24T08:00:35.334Z</time>
      </trkpt>
      <trkpt lat="42.3022149" lon="-8.60771097">
        <time>2019-04-24T08:00:35.527Z</time>
      </trkpt>
      <trkpt lat="42.3022749" lon="-8.60761499">
        <time>2019-04-24T08:00:35.713Z</time>
      </trkpt>
      <trkpt lat="42.302383" lon="-8.60748197">
        <time>2019-04-24T08:00:36.006Z</time>
      </trkpt>
      <trkpt lat="42.3026019" lon="-8.60724301">
        <time>2019-04-24T08:00:36.570Z</time>
      </trkpt>
      <trkpt lat="42.3027309" lon="-8.60706003">
        <time>2019-04-24T08:00:36.945Z</time>
      </trkpt>
      <trkpt lat="42.3029219" lon="-8.606897">
        <time>2019-04-24T08:00:37.398Z</time>
      </trkpt>
      <trkpt lat="42.3031059" lon="-8.60670195">
        <time>2019-04-24T08:00:37.867Z</time>
      </trkpt>
      <trkpt lat="42.3032619" lon="-8.60648503">
        <time>2019-04-24T08:00:38.315Z</time>
      </trkpt>
      <trkpt lat="42.3034209" lon="-8.606308">
        <time>2019-04-24T08:00:38.728Z</time>
      </trkpt>
      <trkpt lat="42.3035959" lon="-8.60620097">
        <time>2019-04-24T08:00:39.113Z</time>
      </trkpt>
      <trkpt lat="42.3038369" lon="-8.60611296">
        <time>2019-04-24T08:00:39.613Z</time>
      </trkpt>
      <trkpt lat="42.3039699" lon="-8.60603299">
        <time>2019-04-24T08:00:39.905Z</time>
      </trkpt>
      <trkpt lat="42.3040099" lon="-8.60592403">
        <time>2019-04-24T08:00:40.085Z</time>
      </trkpt>
      <trkpt lat="42.30422" lon="-8.60590903">
        <time>2019-04-24T08:00:40.507Z</time>
      </trkpt>
      <trkpt lat="42.304584" lon="-8.60592998">
        <time>2019-04-24T08:00:41.237Z</time>
      </trkpt>
      <trkpt lat="42.304838" lon="-8.60589897">
        <time>2019-04-24T08:00:41.748Z</time>
      </trkpt>
      <trkpt lat="42.3050079" lon="-8.60591003">
        <time>2019-04-24T08:00:42.089Z</time>
      </trkpt>
      <trkpt lat="42.305156" lon="-8.605904">
        <time>2019-04-24T08:00:42.386Z</time>
      </trkpt>
      <trkpt lat="42.3053229" lon="-8.60585303">
        <time>2019-04-24T08:00:42.729Z</time>
      </trkpt>
      <trkpt lat="42.3054499" lon="-8.60582202">
        <time>2019-04-24T08:00:42.988Z</time>
      </trkpt>
      <trkpt lat="42.305642" lon="-8.60578397">
        <time>2019-04-24T08:00:43.377Z</time>
      </trkpt>
      <trkpt lat="42.305848" lon="-8.60573896">
        <time>2019-04-24T08:00:43.795Z</time>
      </trkpt>
      <trkpt lat="42.3062119" lon="-8.60559202">
        <time>2019-04-24T08:00:44.556Z</time>
      </trkpt>
      <trkpt lat="42.3064609" lon="-8.60531902">
        <time>2019-04-24T08:00:45.198Z</time>
      </trkpt>
      <trkpt lat="42.306652" lon="-8.60504896">
        <time>2019-04-24T08:00:45.752Z</time>
      </trkpt>
      <trkpt lat="42.306709" lon="-8.60493396">
        <time>2019-04-24T08:00:45.957Z</time>
      </trkpt>
      <trkpt lat="42.306764" lon="-8.60485299">
        <time>2019-04-24T08:00:46.120Z</time>
      </trkpt>
      <trkpt lat="42.3067739" lon="-8.60484503">
        <time>2019-04-24T08:00:46.143Z</time>
      </trkpt>
      <trkpt lat="42.3068449" lon="-8.60488099">
        <time>2019-04-24T08:00:46.295Z</time>
      </trkpt>
      <trkpt lat="42.3071079" lon="-8.60486003">
        <time>2019-04-24T08:00:46.823Z</time>
      </trkpt>
      <trkpt lat="42.3073329" lon="-8.60475098">
        <time>2019-04-24T08:00:47.302Z</time>
      </trkpt>
      <trkpt lat="42.3075919" lon="-8.60450799">
        <time>2019-04-24T08:00:47.934Z</time>
      </trkpt>
      <trkpt lat="42.3077249" lon="-8.604222">
        <time>2019-04-24T08:00:48.435Z</time>
      </trkpt>
      <trkpt lat="42.3078789" lon="-8.603848">
        <time>2019-04-24T08:00:49.069Z</time>
      </trkpt>
      <trkpt lat="42.3081549" lon="-8.60353703">
        <time>2019-04-24T08:00:49.789Z</time>
      </trkpt>
      <trkpt lat="42.308504" lon="-8.60325003">
        <time>2019-04-24T08:00:50.608Z</time>
      </trkpt>
      <trkpt lat="42.3088729" lon="-8.60317301">
        <time>2019-04-24T08:00:51.356Z</time>
      </trkpt>
      <trkpt lat="42.309237" lon="-8.60315096">
        <time>2019-04-24T08:00:52.086Z</time>
      </trkpt>
      <trkpt lat="42.309613" lon="-8.603129">
        <time>2019-04-24T08:00:52.840Z</time>
      </trkpt>
      <trkpt lat="42.3099209" lon="-8.603085">
        <time>2019-04-24T08:00:53.460Z</time>
      </trkpt>
      <trkpt lat="42.3100939" lon="-8.60306697">
        <time>2019-04-24T08:00:53.808Z</time>
      </trkpt>
      <trkpt lat="42.3102529" lon="-8.60334098">
        <time>2019-04-24T08:00:54.324Z</time>
      </trkpt>
      <trkpt lat="42.3102949" lon="-8.60349001">
        <time>2019-04-24T08:00:54.560Z</time>
      </trkpt>
      <trkpt lat="42.310336" lon="-8.60363996">
        <time>2019-04-24T08:00:54.797Z</time>
      </trkpt>
      <trkpt lat="42.310418" lon="-8.60373903">
        <time>2019-04-24T08:00:55.017Z</time>
      </trkpt>
      <trkpt lat="42.310522" lon="-8.60375798">
        <time>2019-04-24T08:00:55.227Z</time>
      </trkpt>
      <trkpt lat="42.310567" lon="-8.60378799">
        <time>2019-04-24T08:00:55.328Z</time>
      </trkpt>
      <trkpt lat="42.310662" lon="-8.60383903">
        <time>2019-04-24T08:00:55.533Z</time>
      </trkpt>
      <trkpt lat="42.3106999" lon="-8.60388999">
        <time>2019-04-24T08:00:55.640Z</time>
      </trkpt>
      <trkpt lat="42.3107439" lon="-8.60393199">
        <time>2019-04-24T08:00:55.748Z</time>
      </trkpt>
      <trkpt lat="42.310853" lon="-8.60405202">
        <time>2019-04-24T08:00:56.030Z</time>
      </trkpt>
      <trkpt lat="42.3109319" lon="-8.60415503">
        <time>2019-04-24T08:00:56.250Z</time>
      </trkpt>
      <trkpt lat="42.310992" lon="-8.60428302">
        <time>2019-04-24T08:00:56.475Z</time>
      </trkpt>
      <trkpt lat="42.311041" lon="-8.60440397">
        <time>2019-04-24T08:00:56.679Z</time>
      </trkpt>
      <trkpt lat="42.311108" lon="-8.60448402">
        <time>2019-04-24T08:00:56.858Z</time>
      </trkpt>
      <trkpt lat="42.3111569" lon="-8.60450296">
        <time>2019-04-24T08:00:56.960Z</time>
      </trkpt>
      <trkpt lat="42.3112039" lon="-8.60453096">
        <time>2019-04-24T08:00:57.063Z</time>
      </trkpt>
      <trkpt lat="42.3112429" lon="-8.60459198">
        <time>2019-04-24T08:00:57.183Z</time>
      </trkpt>
      <trkpt lat="42.3112919" lon="-8.60463196">
        <time>2019-04-24T08:00:57.298Z</time>
      </trkpt>
      <trkpt lat="42.3113789" lon="-8.60469801">
        <time>2019-04-24T08:00:57.498Z</time>
      </trkpt>
      <trkpt lat="42.311484" lon="-8.60476498">
        <time>2019-04-24T08:00:57.731Z</time>
      </trkpt>
      <trkpt lat="42.3114889" lon="-8.604769">
        <time>2019-04-24T08:00:57.742Z</time>
      </trkpt>
      <trkpt lat="42.3116169" lon="-8.60485198">
        <time>2019-04-24T08:00:58.026Z</time>
      </trkpt>
      <trkpt lat="42.3117209" lon="-8.604985">
        <time>2019-04-24T08:00:58.313Z</time>
      </trkpt>
      <trkpt lat="42.3117939" lon="-8.605084">
        <time>2019-04-24T08:00:58.520Z</time>
      </trkpt>
      <trkpt lat="42.311802" lon="-8.60509699">
        <time>2019-04-24T08:00:58.545Z</time>
      </trkpt>
      <trkpt lat="42.3118469" lon="-8.60516102">
        <time>2019-04-24T08:00:58.676Z</time>
      </trkpt>
      <trkpt lat="42.31199" lon="-8.60539304">
        <time>2019-04-24T08:00:59.124Z</time>
      </trkpt>
      <trkpt lat="42.312231" lon="-8.60561499">
        <time>2019-04-24T08:00:59.708Z</time>
      </trkpt>
      <trkpt lat="42.3124959" lon="-8.60578397">
        <time>2019-04-24T08:01:00.295Z</time>
      </trkpt>
      <trkpt lat="42.3126829" lon="-8.60584599">
        <time>2019-04-24T08:01:00.681Z</time>
      </trkpt>
      <trkpt lat="42.3129009" lon="-8.60592302">
        <time>2019-04-24T08:01:01.133Z</time>
      </trkpt>
      <trkpt lat="42.313067" lon="-8.606006">
        <time>2019-04-24T08:01:01.488Z</time>
      </trkpt>
      <trkpt lat="42.3132169" lon="-8.60606702">
        <time>2019-04-24T08:01:01.802Z</time>
      </trkpt>
      <trkpt lat="42.313439" lon="-8.60609997">
        <time>2019-04-24T08:01:02.250Z</time>
      </trkpt>
      <trkpt lat="42.3136609" lon="-8.60612201">
        <time>2019-04-24T08:01:02.696Z</time>
      </trkpt>
      <trkpt lat="42.3138909" lon="-8.60617599">
        <time>2019-04-24T08:01:03.164Z</time>
      </trkpt>
      <trkpt lat="42.313972" lon="-8.60621103">
        <time>2019-04-24T08:01:03.335Z</time>
      </trkpt>
      <trkpt lat="42.3141629" lon="-8.60628001">
        <time>2019-04-24T08:01:03.731Z</time>
      </trkpt>
      <trkpt lat="42.314329" lon="-8.60639501">
        <time>2019-04-24T08:01:04.105Z</time>
      </trkpt>
      <trkpt lat="42.31453" lon="-8.60656399">
        <time>2019-04-24T08:01:04.579Z</time>
      </trkpt>
      <trkpt lat="42.3146229" lon="-8.60662501">
        <time>2019-04-24T08:01:04.786Z</time>
      </trkpt>
      <trkpt lat="42.3147819" lon="-8.60671604">
        <time>2019-04-24T08:01:05.132Z</time>
      </trkpt>
      <trkpt lat="42.3148859" lon="-8.60678703">
        <time>2019-04-24T08:01:05.365Z</time>
      </trkpt>
      <trkpt lat="42.314964" lon="-8.60687797">
        <time>2019-04-24T08:01:05.572Z</time>
      </trkpt>
      <trkpt lat="42.3152189" lon="-8.60712901">
        <time>2019-04-24T08:01:06.204Z</time>
      </trkpt>
      <trkpt lat="42.3154289" lon="-8.60724602">
        <time>2019-04-24T08:01:06.659Z</time>
      </trkpt>
      <trkpt lat="42.3154769" lon="-8.607299">
        <time>2019-04-24T08:01:06.783Z</time>
      </trkpt>
      <trkpt lat="42.31554" lon="-8.60735298">
        <time>2019-04-24T08:01:06.933Z</time>
      </trkpt>
      <trkpt lat="42.315756" lon="-8.60747301">
        <time>2019-04-24T08:01:07.401Z</time>
      </trkpt>
      <trkpt lat="42.315996" lon="-8.60749103">
        <time>2019-04-24T08:01:07.883Z</time>
      </trkpt>
      <trkpt lat="42.316184" lon="-8.60746999">
        <time>2019-04-24T08:01:08.261Z</time>
      </trkpt>
      <trkpt lat="42.3163789" lon="-8.60744995">
        <time>2019-04-24T08:01:08.653Z</time>
      </trkpt>
      <trkpt lat="42.316447" lon="-8.60746798">
        <time>2019-04-24T08:01:08.792Z</time>
      </trkpt>
      <trkpt lat="42.316604" lon="-8.60747401">
        <time>2019-04-24T08:01:09.107Z</time>
      </trkpt>
      <trkpt lat="42.316661" lon="-8.607457">
        <time>2019-04-24T08:01:09.224Z</time>
      </trkpt>
      <trkpt lat="42.3170259" lon="-8.60723898">
        <time>2019-04-24T08:01:10.023Z</time>
      </trkpt>
      <trkpt lat="42.317334" lon="-8.60707503">
        <time>2019-04-24T08:01:10.686Z</time>
      </trkpt>
      <trkpt lat="42.3175739" lon="-8.60692701">
        <time>2019-04-24T08:01:11.214Z</time>
      </trkpt>
      <trkpt lat="42.318002" lon="-8.606408">
        <time>2019-04-24T08:01:12.366Z</time>
      </trkpt>
      <trkpt lat="42.3181459" lon="-8.60618596">
        <time>2019-04-24T08:01:12.803Z</time>
      </trkpt>
      <trkpt lat="42.3185819" lon="-8.60598798">
        <time>2019-04-24T08:01:13.725Z</time>
      </trkpt>
      <trkpt lat="42.3192589" lon="-8.60616199">
        <time>2019-04-24T08:01:15.106Z</time>
      </trkpt>
      <trkpt lat="42.31938" lon="-8.60618404">
        <time>2019-04-24T08:01:15.351Z</time>
      </trkpt>
      <trkpt lat="42.319669" lon="-8.60634002">
        <time>2019-04-24T08:01:15.975Z</time>
      </trkpt>
      <trkpt lat="42.3199749" lon="-8.606594">
        <time>2019-04-24T08:01:16.694Z</time>
      </trkpt>
      <trkpt lat="42.3202779" lon="-8.60701401">
        <time>2019-04-24T08:01:17.563Z</time>
      </trkpt>
      <trkpt lat="42.3203499" lon="-8.60713899">
        <time>2019-04-24T08:01:17.798Z</time>
      </trkpt>
      <trkpt lat="42.3204759" lon="-8.607299">
        <time>2019-04-24T08:01:18.144Z</time>
      </trkpt>
      <trkpt lat="42.320672" lon="-8.60747703">
        <time>2019-04-24T08:01:18.617Z</time>
      </trkpt>
      <trkpt lat="42.320734" lon="-8.60752799">
        <time>2019-04-24T08:01:18.762Z</time>
      </trkpt>
      <trkpt lat="42.3208979" lon="-8.607558">
        <time>2019-04-24T08:01:19.093Z</time>
      </trkpt>
      <trkpt lat="42.321044" lon="-8.60757602">
        <time>2019-04-24T08:01:19.387Z</time>
      </trkpt>
      <trkpt lat="42.3212859" lon="-8.60755397">
        <time>2019-04-24T08:01:19.873Z</time>
      </trkpt>
      <trkpt lat="42.321562" lon="-8.60745901">
        <time>2019-04-24T08:01:20.444Z</time>
      </trkpt>
      <trkpt lat="42.3218299" lon="-8.60735801">
        <time>2019-04-24T08:01:21.001Z</time>
      </trkpt>
      <trkpt lat="42.3222059" lon="-8.607257">
        <time>2019-04-24T08:01:21.769Z</time>
      </trkpt>
      <trkpt lat="42.322388" lon="-8.60724703">
        <time>2019-04-24T08:01:22.134Z</time>
      </trkpt>
      <trkpt lat="42.3225389" lon="-8.60723102">
        <time>2019-04-24T08:01:22.437Z</time>
      </trkpt>
      <trkpt lat="42.322727" lon="-8.60720504">
        <time>2019-04-24T08:01:22.816Z</time>
      </trkpt>
      <trkpt lat="42.322901" lon="-8.60719799">
        <time>2019-04-24T08:01:23.165Z</time>
      </trkpt>
      <trkpt lat="42.3230399" lon="-8.60721702">
        <time>2019-04-24T08:01:23.445Z</time>
      </trkpt>
      <trkpt lat="42.3232439" lon="-8.607228">
        <time>2019-04-24T08:01:23.854Z</time>
      </trkpt>
      <trkpt lat="42.3233559" lon="-8.60723798">
        <time>2019-04-24T08:01:24.079Z</time>
      </trkpt>
      <trkpt lat="42.3238589" lon="-8.60720302">
        <time>2019-04-24T08:01:25.088Z</time>
      </trkpt>
      <trkpt lat="42.324064" lon="-8.60713899">
        <time>2019-04-24T08:01:25.510Z</time>
      </trkpt>
      <trkpt lat="42.3243189" lon="-8.60710496">
        <time>2019-04-24T08:01:26.023Z</time>
      </trkpt>
      <trkpt lat="42.324469" lon="-8.60707201">
        <time>2019-04-24T08:01:26.328Z</time>
      </trkpt>
      <trkpt lat="42.3247199" lon="-8.60698702">
        <time>2019-04-24T08:01:26.846Z</time>
      </trkpt>
      <trkpt lat="42.324919" lon="-8.606911">
        <time>2019-04-24T08:01:27.261Z</time>
      </trkpt>
      <trkpt lat="42.325248" lon="-8.60677798">
        <time>2019-04-24T08:01:27.949Z</time>
      </trkpt>
      <trkpt lat="42.3255239" lon="-8.60660104">
        <time>2019-04-24T08:01:28.561Z</time>
      </trkpt>
      <trkpt lat="42.3257269" lon="-8.606437">
        <time>2019-04-24T08:01:29.035Z</time>
      </trkpt>
      <trkpt lat="42.326021" lon="-8.60624799">
        <time>2019-04-24T08:01:29.688Z</time>
      </trkpt>
      <trkpt lat="42.3264009" lon="-8.60621698">
        <time>2019-04-24T08:01:30.451Z</time>
      </trkpt>
      <trkpt lat="42.3267039" lon="-8.60611396">
        <time>2019-04-24T08:01:31.077Z</time>
      </trkpt>
      <trkpt lat="42.3269939" lon="-8.60582202">
        <time>2019-04-24T08:01:31.801Z</time>
      </trkpt>
      <trkpt lat="42.327447" lon="-8.60560703">
        <time>2019-04-24T08:01:32.763Z</time>
      </trkpt>
      <trkpt lat="42.327746" lon="-8.60563703">
        <time>2019-04-24T08:01:33.364Z</time>
      </trkpt>
      <trkpt lat="42.3280699" lon="-8.60567199">
        <time>2019-04-24T08:01:34.015Z</time>
      </trkpt>
      <trkpt lat="42.3284189" lon="-8.60580601">
        <time>2019-04-24T08:01:34.742Z</time>
      </trkpt>
      <trkpt lat="42.328654" lon="-8.60593099">
        <time>2019-04-24T08:01:35.248Z</time>
      </trkpt>
      <trkpt lat="42.328899" lon="-8.60611598">
        <time>2019-04-24T08:01:35.810Z</time>
      </trkpt>
      <trkpt lat="42.3292259" lon="-8.606365">
        <time>2019-04-24T08:01:36.562Z</time>
      </trkpt>
      <trkpt lat="42.3296399" lon="-8.60660196">
        <time>2019-04-24T08:01:37.463Z</time>
      </trkpt>
      <trkpt lat="42.330019" lon="-8.606738">
        <time>2019-04-24T08:01:38.249Z</time>
      </trkpt>
      <trkpt lat="42.3303559" lon="-8.60674696">
        <time>2019-04-24T08:01:38.924Z</time>
      </trkpt>
      <trkpt lat="42.3306789" lon="-8.60677203">
        <time>2019-04-24T08:01:39.572Z</time>
      </trkpt>
      <trkpt lat="42.331074" lon="-8.60681897">
        <time>2019-04-24T08:01:40.367Z</time>
      </trkpt>
      <trkpt lat="42.3315639" lon="-8.606854">
        <time>2019-04-24T08:01:41.350Z</time>
      </trkpt>
      <trkpt lat="42.3320249" lon="-8.60682198">
        <time>2019-04-24T08:01:42.275Z</time>
      </trkpt>
      <trkpt lat="42.3323009" lon="-8.60679499">
        <time>2019-04-24T08:01:42.830Z</time>
      </trkpt>
      <trkpt lat="42.332381" lon="-8.60681">
        <time>2019-04-24T08:01:42.992Z</time>
      </trkpt>
      <trkpt lat="42.3327609" lon="-8.60680597">
        <time>2019-04-24T08:01:43.753Z</time>
      </trkpt>
      <trkpt lat="42.332829" lon="-8.606811">
        <time>2019-04-24T08:01:43.890Z</time>
      </trkpt>
      <trkpt lat="42.3329059" lon="-8.60708903">
        <time>2019-04-24T08:01:44.330Z</time>
      </trkpt>
      <trkpt lat="42.3329209" lon="-8.60717402">
        <time>2019-04-24T08:01:44.459Z</time>
      </trkpt>
      <trkpt lat="42.33314" lon="-8.60735298">
        <time>2019-04-24T08:01:44.972Z</time>
      </trkpt>
      <trkpt lat="42.333326" lon="-8.60741299">
        <time>2019-04-24T08:01:45.355Z</time>
      </trkpt>
      <trkpt lat="42.333987" lon="-8.60742297">
        <time>2019-04-24T08:01:46.680Z</time>
      </trkpt>
      <trkpt lat="42.334393" lon="-8.60743101">
        <time>2019-04-24T08:01:47.494Z</time>
      </trkpt>
      <trkpt lat="42.334678" lon="-8.60742196">
        <time>2019-04-24T08:01:48.065Z</time>
      </trkpt>
      <trkpt lat="42.3349759" lon="-8.607529">
        <time>2019-04-24T08:01:48.683Z</time>
      </trkpt>
      <trkpt lat="42.3351759" lon="-8.60769303">
        <time>2019-04-24T08:01:49.152Z</time>
      </trkpt>
      <trkpt lat="42.335302" lon="-8.60784097">
        <time>2019-04-24T08:01:49.486Z</time>
      </trkpt>
      <trkpt lat="42.3353929" lon="-8.60795002">
        <time>2019-04-24T08:01:49.729Z</time>
      </trkpt>
      <trkpt lat="42.335483" lon="-8.60799696">
        <time>2019-04-24T08:01:49.922Z</time>
      </trkpt>
      <trkpt lat="42.3355499" lon="-8.60794197">
        <time>2019-04-24T08:01:50.079Z</time>
      </trkpt>
      <trkpt lat="42.335657" lon="-8.60787902">
        <time>2019-04-24T08:01:50.313Z</time>
      </trkpt>
      <trkpt lat="42.335804" lon="-8.60782303">
        <time>2019-04-24T08:01:50.619Z</time>
      </trkpt>
      <trkpt lat="42.335986" lon="-8.60764802">
        <time>2019-04-24T08:01:51.066Z</time>
      </trkpt>
      <trkpt lat="42.336015" lon="-8.60756495">
        <time>2019-04-24T08:01:51.202Z</time>
      </trkpt>
      <trkpt lat="42.336107" lon="-8.60740696">
        <time>2019-04-24T08:01:51.500Z</time>
      </trkpt>
      <trkpt lat="42.336151" lon="-8.60733496">
        <time>2019-04-24T08:01:51.638Z</time>
      </trkpt>
      <trkpt lat="42.3361109" lon="-8.60723798">
        <time>2019-04-24T08:01:51.803Z</time>
      </trkpt>
      <trkpt lat="42.3361389" lon="-8.60717201">
        <time>2019-04-24T08:01:51.916Z</time>
      </trkpt>
      <trkpt lat="42.3361399" lon="-8.60717302">
        <time>2019-04-24T08:01:51.918Z</time>
      </trkpt>
      <trkpt lat="42.336332" lon="-8.60713899">
        <time>2019-04-24T08:01:52.306Z</time>
      </trkpt>
      <trkpt lat="42.336524" lon="-8.60677898">
        <time>2019-04-24T08:01:52.964Z</time>
      </trkpt>
      <trkpt lat="42.336764" lon="-8.60665099">
        <time>2019-04-24T08:01:53.481Z</time>
      </trkpt>
      <trkpt lat="42.337137" lon="-8.60659601">
        <time>2019-04-24T08:01:54.233Z</time>
      </trkpt>
      <trkpt lat="42.3371739" lon="-8.60671696">
        <time>2019-04-24T08:01:54.427Z</time>
      </trkpt>
      <trkpt lat="42.3372339" lon="-8.60671201">
        <time>2019-04-24T08:01:54.547Z</time>
      </trkpt>
      <trkpt lat="42.3373649" lon="-8.60669701">
        <time>2019-04-24T08:01:54.810Z</time>
      </trkpt>
      <trkpt lat="42.337587" lon="-8.60664797">
        <time>2019-04-24T08:01:55.261Z</time>
      </trkpt>
      <trkpt lat="42.337704" lon="-8.60658">
        <time>2019-04-24T08:01:55.516Z</time>
      </trkpt>
      <trkpt lat="42.337903" lon="-8.60651998">
        <time>2019-04-24T08:01:55.925Z</time>
      </trkpt>
      <trkpt lat="42.3382399" lon="-8.60650397">
        <time>2019-04-24T08:01:56.601Z</time>
      </trkpt>
      <trkpt lat="42.3385119" lon="-8.60652904">
        <time>2019-04-24T08:01:57.147Z</time>
      </trkpt>
      <trkpt lat="42.338752" lon="-8.60643801">
        <time>2019-04-24T08:01:57.647Z</time>
      </trkpt>
      <trkpt lat="42.3390769" lon="-8.60642099">
        <time>2019-04-24T08:01:58.299Z</time>
      </trkpt>
      <trkpt lat="42.339325" lon="-8.60661797">
        <time>2019-04-24T08:01:58.875Z</time>
      </trkpt>
      <trkpt lat="42.3397679" lon="-8.60663901">
        <time>2019-04-24T08:01:59.763Z</time>
      </trkpt>
      <trkpt lat="42.339832" lon="-8.60661897">
        <time>2019-04-24T08:01:59.895Z</time>
      </trkpt>
      <trkpt lat="42.3401959" lon="-8.60690002">
        <time>2019-04-24T08:02:00.735Z</time>
      </trkpt>
      <trkpt lat="42.3403099" lon="-8.606968">
        <time>2019-04-24T08:02:00.985Z</time>
      </trkpt>
      <trkpt lat="42.340488" lon="-8.60705701">
        <time>2019-04-24T08:02:01.365Z</time>
      </trkpt>
      <trkpt lat="42.340609" lon="-8.60710001">
        <time>2019-04-24T08:02:01.616Z</time>
      </trkpt>
      <trkpt lat="42.3408709" lon="-8.60716103">
        <time>2019-04-24T08:02:02.149Z</time>
      </trkpt>
      <trkpt lat="42.340968" lon="-8.60779596">
        <time>2019-04-24T08:02:03.109Z</time>
      </trkpt>
      <trkpt lat="42.341068" lon="-8.60815697">
        <time>2019-04-24T08:02:03.680Z</time>
      </trkpt>
      <trkpt lat="42.341354" lon="-8.60854899">
        <time>2019-04-24T08:02:04.496Z</time>
      </trkpt>
      <trkpt lat="42.3414319" lon="-8.60864899">
        <time>2019-04-24T08:02:04.711Z</time>
      </trkpt>
      <trkpt lat="42.341769" lon="-8.608738">
        <time>2019-04-24T08:02:05.399Z</time>
      </trkpt>
      <trkpt lat="42.34209" lon="-8.60880799">
        <time>2019-04-24T08:02:06.051Z</time>
      </trkpt>
      <trkpt lat="42.3421839" lon="-8.60878896">
        <time>2019-04-24T08:02:06.241Z</time>
      </trkpt>
      <trkpt lat="42.3422989" lon="-8.60892601">
        <time>2019-04-24T08:02:06.548Z</time>
      </trkpt>
      <trkpt lat="42.3423399" lon="-8.60897202">
        <time>2019-04-24T08:02:06.655Z</time>
      </trkpt>
      <trkpt lat="42.3426109" lon="-8.60903397">
        <time>2019-04-24T08:02:07.206Z</time>
      </trkpt>
      <trkpt lat="42.3429269" lon="-8.60899197">
        <time>2019-04-24T08:02:07.842Z</time>
      </trkpt>
      <trkpt lat="42.343282" lon="-8.60894998">
        <time>2019-04-24T08:02:08.556Z</time>
      </trkpt>
      <trkpt lat="42.343383" lon="-8.60889701">
        <time>2019-04-24T08:02:08.773Z</time>
      </trkpt>
      <trkpt lat="42.343451" lon="-8.60884202">
        <time>2019-04-24T08:02:08.932Z</time>
      </trkpt>
      <trkpt lat="42.3436939" lon="-8.608508">
        <time>2019-04-24T08:02:09.626Z</time>
      </trkpt>
      <trkpt lat="42.344074" lon="-8.60815797">
        <time>2019-04-24T08:02:10.547Z</time>
      </trkpt>
      <trkpt lat="42.344216" lon="-8.60784499">
        <time>2019-04-24T08:02:11.091Z</time>
      </trkpt>
      <trkpt lat="42.3443819" lon="-8.60747401">
        <time>2019-04-24T08:02:11.733Z</time>
      </trkpt>
      <trkpt lat="42.34452" lon="-8.60744995">
        <time>2019-04-24T08:02:12.012Z</time>
      </trkpt>
      <trkpt lat="42.3447409" lon="-8.60751701">
        <time>2019-04-24T08:02:12.466Z</time>
      </trkpt>
      <trkpt lat="42.3450819" lon="-8.60733202">
        <time>2019-04-24T08:02:13.202Z</time>
      </trkpt>
      <trkpt lat="42.3452729" lon="-8.60706699">
        <time>2019-04-24T08:02:13.750Z</time>
      </trkpt>
      <trkpt lat="42.345466" lon="-8.606925">
        <time>2019-04-24T08:02:14.190Z</time>
      </trkpt>
      <trkpt lat="42.34613" lon="-8.60680798">
        <time>2019-04-24T08:02:15.532Z</time>
      </trkpt>
      <trkpt lat="42.346254" lon="-8.606781">
        <time>2019-04-24T08:02:15.784Z</time>
      </trkpt>
      <trkpt lat="42.3463789" lon="-8.60677203">
        <time>2019-04-24T08:02:16.035Z</time>
      </trkpt>
      <trkpt lat="42.3465069" lon="-8.60674403">
        <time>2019-04-24T08:02:16.295Z</time>
      </trkpt>
      <trkpt lat="42.346732" lon="-8.606811">
        <time>2019-04-24T08:02:16.757Z</time>
      </trkpt>
      <trkpt lat="42.3467709" lon="-8.60688401">
        <time>2019-04-24T08:02:16.890Z</time>
      </trkpt>
      <trkpt lat="42.3468939" lon="-8.60707403">
        <time>2019-04-24T08:02:17.264Z</time>
      </trkpt>
      <trkpt lat="42.347032" lon="-8.60718903">
        <time>2019-04-24T08:02:17.589Z</time>
      </trkpt>
      <trkpt lat="42.346932" lon="-8.60724099">
        <time>2019-04-24T08:02:17.804Z</time>
      </trkpt>
      <trkpt lat="42.3468939" lon="-8.60739698">
        <time>2019-04-24T08:02:18.047Z</time>
      </trkpt>
      <trkpt lat="42.34692" lon="-8.60759798">
        <time>2019-04-24T08:02:18.349Z</time>
      </trkpt>
      <trkpt lat="42.3469869" lon="-8.60748197">
        <time>2019-04-24T08:02:18.567Z</time>
      </trkpt>
      <trkpt lat="42.347132" lon="-8.60738097">
        <time>2019-04-24T08:02:18.894Z</time>
      </trkpt>
      <trkpt lat="42.3472999" lon="-8.60740603">
        <time>2019-04-24T08:02:19.232Z</time>
      </trkpt>
      <trkpt lat="42.3473119" lon="-8.60755196">
        <time>2019-04-24T08:02:19.449Z</time>
      </trkpt>
      <trkpt lat="42.3472979" lon="-8.60765003">
        <time>2019-04-24T08:02:19.597Z</time>
      </trkpt>
      <trkpt lat="42.3473019" lon="-8.60772899">
        <time>2019-04-24T08:02:19.714Z</time>
      </trkpt>
      <trkpt lat="42.3473739" lon="-8.60772899">
        <time>2019-04-24T08:02:19.858Z</time>
      </trkpt>
      <trkpt lat="42.3474569" lon="-8.60776796">
        <time>2019-04-24T08:02:20.034Z</time>
      </trkpt>
      <trkpt lat="42.3475709" lon="-8.60780702">
        <time>2019-04-24T08:02:20.270Z</time>
      </trkpt>
      <trkpt lat="42.347722" lon="-8.60786796">
        <time>2019-04-24T08:02:20.586Z</time>
      </trkpt>
      <trkpt lat="42.3479339" lon="-8.60785698">
        <time>2019-04-24T08:02:21.011Z</time>
      </trkpt>
      <trkpt lat="42.3482059" lon="-8.60784298">
        <time>2019-04-24T08:02:21.556Z</time>
      </trkpt>
      <trkpt lat="42.3482919" lon="-8.60805203">
        <time>2019-04-24T08:02:21.910Z</time>
      </trkpt>
      <trkpt lat="42.34846" lon="-8.60842896">
        <time>2019-04-24T08:02:22.562Z</time>
      </trkpt>
      <trkpt lat="42.348504" lon="-8.60851102">
        <time>2019-04-24T08:02:22.712Z</time>
      </trkpt>
      <trkpt lat="42.348529" lon="-8.60853801">
        <time>2019-04-24T08:02:22.776Z</time>
      </trkpt>
      <trkpt lat="42.348719" lon="-8.60846199">
        <time>2019-04-24T08:02:23.173Z</time>
      </trkpt>
      <trkpt lat="42.3493579" lon="-8.60839602">
        <time>2019-04-24T08:02:24.457Z</time>
      </trkpt>
      <trkpt lat="42.349706" lon="-8.60820902">
        <time>2019-04-24T08:02:25.208Z</time>
      </trkpt>
      <trkpt lat="42.349821" lon="-8.60833701">
        <time>2019-04-24T08:02:25.506Z</time>
      </trkpt>
      <trkpt lat="42.3498289" lon="-8.60874798">
        <time>2019-04-24T08:02:26.115Z</time>
      </trkpt>
      <trkpt lat="42.349739" lon="-8.60898996">
        <time>2019-04-24T08:02:26.516Z</time>
      </trkpt>
      <trkpt lat="42.3496329" lon="-8.60913396">
        <time>2019-04-24T08:02:26.817Z</time>
      </trkpt>
      <trkpt lat="42.3495749" lon="-8.60913396">
        <time>2019-04-24T08:02:26.933Z</time>
      </trkpt>
      <trkpt lat="42.349452" lon="-8.609183">
        <time>2019-04-24T08:02:27.190Z</time>
      </trkpt>
      <trkpt lat="42.34948" lon="-8.60926003">
        <time>2019-04-24T08:02:27.317Z</time>
      </trkpt>
      <trkpt lat="42.34951" lon="-8.60940503">
        <time>2019-04-24T08:02:27.540Z</time>
      </trkpt>
      <trkpt lat="42.349536" lon="-8.60954099">
        <time>2019-04-24T08:02:27.748Z</time>
      </trkpt>
      <trkpt lat="42.3495979" lon="-8.60958198">
        <time>2019-04-24T08:02:27.886Z</time>
      </trkpt>
      <trkpt lat="42.349798" lon="-8.60972899">
        <time>2019-04-24T08:02:28.342Z</time>
      </trkpt>
      <trkpt lat="42.34991" lon="-8.60984902">
        <time>2019-04-24T08:02:28.628Z</time>
      </trkpt>
      <trkpt lat="42.3499739" lon="-8.609903">
        <time>2019-04-24T08:02:28.779Z</time>
      </trkpt>
      <trkpt lat="42.3500499" lon="-8.60993997">
        <time>2019-04-24T08:02:28.941Z</time>
      </trkpt>
      <trkpt lat="42.350071" lon="-8.61009696">
        <time>2019-04-24T08:02:29.177Z</time>
      </trkpt>
      <trkpt lat="42.3501" lon="-8.610377">
        <time>2019-04-24T08:02:29.596Z</time>
      </trkpt>
      <trkpt lat="42.3501339" lon="-8.610779">
        <time>2019-04-24T08:02:30.195Z</time>
      </trkpt>
      <trkpt lat="42.350255" lon="-8.61104303">
        <time>2019-04-24T08:02:30.655Z</time>
      </trkpt>
      <trkpt lat="42.3503759" lon="-8.611168">
        <time>2019-04-24T08:02:30.960Z</time>
      </trkpt>
      <trkpt lat="42.350932" lon="-8.61142298">
        <time>2019-04-24T08:02:32.137Z</time>
      </trkpt>
      <trkpt lat="42.351175" lon="-8.61155197">
        <time>2019-04-24T08:02:32.660Z</time>
      </trkpt>
      <trkpt lat="42.3512689" lon="-8.61160797">
        <time>2019-04-24T08:02:32.866Z</time>
      </trkpt>
      <trkpt lat="42.351251" lon="-8.611829">
        <time>2019-04-24T08:02:33.195Z</time>
      </trkpt>
      <trkpt lat="42.3511959" lon="-8.61196001">
        <time>2019-04-24T08:02:33.418Z</time>
      </trkpt>
      <trkpt lat="42.3509089" lon="-8.61268202">
        <time>2019-04-24T08:02:34.632Z</time>
      </trkpt>
      <trkpt lat="42.350875" lon="-8.612822">
        <time>2019-04-24T08:02:34.850Z</time>
      </trkpt>
      <trkpt lat="42.3509559" lon="-8.61326197">
        <time>2019-04-24T08:02:35.521Z</time>
      </trkpt>
      <trkpt lat="42.3510559" lon="-8.61337898">
        <time>2019-04-24T08:02:35.786Z</time>
      </trkpt>
      <trkpt lat="42.35149" lon="-8.61414701">
        <time>2019-04-24T08:02:37.218Z</time>
      </trkpt>
      <trkpt lat="42.351748" lon="-8.61429797">
        <time>2019-04-24T08:02:37.781Z</time>
      </trkpt>
      <trkpt lat="42.352685" lon="-8.61429898">
        <time>2019-04-24T08:02:39.659Z</time>
      </trkpt>
      <trkpt lat="42.353062" lon="-8.61420895">
        <time>2019-04-24T08:02:40.426Z</time>
      </trkpt>
      <trkpt lat="42.353163" lon="-8.61398398">
        <time>2019-04-24T08:02:40.816Z</time>
      </trkpt>
      <trkpt lat="42.3531549" lon="-8.61383998">
        <time>2019-04-24T08:02:41.030Z</time>
      </trkpt>
      <trkpt lat="42.353147" lon="-8.61349197">
        <time>2019-04-24T08:02:41.546Z</time>
      </trkpt>
      <trkpt lat="42.353161" lon="-8.61324897">
        <time>2019-04-24T08:02:41.907Z</time>
      </trkpt>
      <trkpt lat="42.3531979" lon="-8.61320899">
        <time>2019-04-24T08:02:42.002Z</time>
      </trkpt>
      <trkpt lat="42.3532259" lon="-8.61321">
        <time>2019-04-24T08:02:42.058Z</time>
      </trkpt>
      <trkpt lat="42.353346" lon="-8.61334302">
        <time>2019-04-24T08:02:42.369Z</time>
      </trkpt>
      <trkpt lat="42.35356" lon="-8.61363203">
        <time>2019-04-24T08:02:42.975Z</time>
      </trkpt>
      <trkpt lat="42.353735" lon="-8.61378399">
        <time>2019-04-24T08:02:43.392Z</time>
      </trkpt>
      <trkpt lat="42.353934" lon="-8.61394803">
        <time>2019-04-24T08:02:43.859Z</time>
      </trkpt>
      <trkpt lat="42.354209" lon="-8.61411499">
        <time>2019-04-24T08:02:44.463Z</time>
      </trkpt>
      <trkpt lat="42.35453" lon="-8.614245">
        <time>2019-04-24T08:02:45.134Z</time>
      </trkpt>
      <trkpt lat="42.3547479" lon="-8.61440098">
        <time>2019-04-24T08:02:45.628Z</time>
      </trkpt>
      <trkpt lat="42.354813" lon="-8.61445697">
        <time>2019-04-24T08:02:45.783Z</time>
      </trkpt>
      <trkpt lat="42.354827" lon="-8.61449402">
        <time>2019-04-24T08:02:45.845Z</time>
      </trkpt>
      <trkpt lat="42.3549069" lon="-8.61459603">
        <time>2019-04-24T08:02:46.065Z</time>
      </trkpt>
      <trkpt lat="42.3549539" lon="-8.61462998">
        <time>2019-04-24T08:02:46.172Z</time>
      </trkpt>
      <trkpt lat="42.355042" lon="-8.61468396">
        <time>2019-04-24T08:02:46.366Z</time>
      </trkpt>
      <trkpt lat="42.355087" lon="-8.614692">
        <time>2019-04-24T08:02:46.457Z</time>
      </trkpt>
      <trkpt lat="42.355158" lon="-8.61471396">
        <time>2019-04-24T08:02:46.603Z</time>
      </trkpt>
      <trkpt lat="42.35516" lon="-8.61471396">
        <time>2019-04-24T08:02:46.607Z</time>
      </trkpt>
      <trkpt lat="42.3552229" lon="-8.61474498">
        <time>2019-04-24T08:02:46.741Z</time>
      </trkpt>
      <trkpt lat="42.3553249" lon="-8.61480499">
        <time>2019-04-24T08:02:46.964Z</time>
      </trkpt>
      <trkpt lat="42.355361" lon="-8.61484003">
        <time>2019-04-24T08:02:47.053Z</time>
      </trkpt>
      <trkpt lat="42.355415" lon="-8.614922">
        <time>2019-04-24T08:02:47.216Z</time>
      </trkpt>
      <trkpt lat="42.3554829" lon="-8.61503801">
        <time>2019-04-24T08:02:47.435Z</time>
      </trkpt>
      <trkpt lat="42.355576" lon="-8.61511697">
        <time>2019-04-24T08:02:47.655Z</time>
      </trkpt>
      <trkpt lat="42.3556259" lon="-8.61516499">
        <time>2019-04-24T08:02:47.778Z</time>
      </trkpt>
      <trkpt lat="42.355706" lon="-8.61523901">
        <time>2019-04-24T08:02:47.972Z</time>
      </trkpt>
      <trkpt lat="42.3557849" lon="-8.61530195">
        <time>2019-04-24T08:02:48.156Z</time>
      </trkpt>
      <trkpt lat="42.355819" lon="-8.61535903">
        <time>2019-04-24T08:02:48.265Z</time>
      </trkpt>
      <trkpt lat="42.355895" lon="-8.61547102">
        <time>2019-04-24T08:02:48.490Z</time>
      </trkpt>
      <trkpt lat="42.3559399" lon="-8.61554402">
        <time>2019-04-24T08:02:48.631Z</time>
      </trkpt>
      <trkpt lat="42.35601" lon="-8.61567696">
        <time>2019-04-24T08:02:48.873Z</time>
      </trkpt>
      <trkpt lat="42.3560699" lon="-8.61576899">
        <time>2019-04-24T08:02:49.055Z</time>
      </trkpt>
      <trkpt lat="42.3561699" lon="-8.61589497">
        <time>2019-04-24T08:02:49.329Z</time>
      </trkpt>
      <trkpt lat="42.35625" lon="-8.61594895">
        <time>2019-04-24T08:02:49.508Z</time>
      </trkpt>
      <trkpt lat="42.356309" lon="-8.61602095">
        <time>2019-04-24T08:02:49.667Z</time>
      </trkpt>
      <trkpt lat="42.356367" lon="-8.61603797">
        <time>2019-04-24T08:02:49.786Z</time>
      </trkpt>
      <trkpt lat="42.356442" lon="-8.61607099">
        <time>2019-04-24T08:02:49.944Z</time>
      </trkpt>
      <trkpt lat="42.35651" lon="-8.61610896">
        <time>2019-04-24T08:02:50.091Z</time>
      </trkpt>
      <trkpt lat="42.356551" lon="-8.61616202">
        <time>2019-04-24T08:02:50.205Z</time>
      </trkpt>
      <trkpt lat="42.356597" lon="-8.616201">
        <time>2019-04-24T08:02:50.314Z</time>
      </trkpt>
      <trkpt lat="42.3566789" lon="-8.61623302">
        <time>2019-04-24T08:02:50.485Z</time>
      </trkpt>
      <trkpt lat="42.3567739" lon="-8.61625296">
        <time>2019-04-24T08:02:50.678Z</time>
      </trkpt>
      <trkpt lat="42.3568629" lon="-8.61623302">
        <time>2019-04-24T08:02:50.859Z</time>
      </trkpt>
      <trkpt lat="42.3569469" lon="-8.61616596">
        <time>2019-04-24T08:02:51.054Z</time>
      </trkpt>
      <trkpt lat="42.3570239" lon="-8.61618901">
        <time>2019-04-24T08:02:51.212Z</time>
      </trkpt>
      <trkpt lat="42.357115" lon="-8.616173">
        <time>2019-04-24T08:02:51.396Z</time>
      </trkpt>
      <trkpt lat="42.357286" lon="-8.61623503">
        <time>2019-04-24T08:02:51.751Z</time>
      </trkpt>
      <trkpt lat="42.357361" lon="-8.61627602">
        <time>2019-04-24T08:02:51.913Z</time>
      </trkpt>
      <trkpt lat="42.357517" lon="-8.61630502">
        <time>2019-04-24T08:02:52.229Z</time>
      </trkpt>
      <trkpt lat="42.357745" lon="-8.61618801">
        <time>2019-04-24T08:02:52.718Z</time>
      </trkpt>
      <trkpt lat="42.358007" lon="-8.61589598">
        <time>2019-04-24T08:02:53.398Z</time>
      </trkpt>
      <trkpt lat="42.3581589" lon="-8.61572097">
        <time>2019-04-24T08:02:53.798Z</time>
      </trkpt>
      <trkpt lat="42.358205" lon="-8.61568199">
        <time>2019-04-24T08:02:53.907Z</time>
      </trkpt>
      <trkpt lat="42.358248" lon="-8.61561896">
        <time>2019-04-24T08:02:54.034Z</time>
      </trkpt>
      <trkpt lat="42.358438" lon="-8.61548996">
        <time>2019-04-24T08:02:54.460Z</time>
      </trkpt>
      <trkpt lat="42.358497" lon="-8.615453">
        <time>2019-04-24T08:02:54.590Z</time>
      </trkpt>
      <trkpt lat="42.3585919" lon="-8.61541603">
        <time>2019-04-24T08:02:54.788Z</time>
      </trkpt>
      <trkpt lat="42.358712" lon="-8.61539097">
        <time>2019-04-24T08:02:55.032Z</time>
      </trkpt>
      <trkpt lat="42.3588229" lon="-8.61536499">
        <time>2019-04-24T08:02:55.258Z</time>
      </trkpt>
      <trkpt lat="42.3589379" lon="-8.61536197">
        <time>2019-04-24T08:02:55.488Z</time>
      </trkpt>
      <trkpt lat="42.358999" lon="-8.61540497">
        <time>2019-04-24T08:02:55.626Z</time>
      </trkpt>
      <trkpt lat="42.359197" lon="-8.61554302">
        <time>2019-04-24T08:02:56.072Z</time>
      </trkpt>
      <trkpt lat="42.3594109" lon="-8.61567696">
        <time>2019-04-24T08:02:56.544Z</time>
      </trkpt>
      <trkpt lat="42.3595959" lon="-8.61574703">
        <time>2019-04-24T08:02:56.929Z</time>
      </trkpt>
      <trkpt lat="42.3598439" lon="-8.61568903">
        <time>2019-04-24T08:02:57.433Z</time>
      </trkpt>
      <trkpt lat="42.3600279" lon="-8.615669">
        <time>2019-04-24T08:02:57.803Z</time>
      </trkpt>
      <trkpt lat="42.360164" lon="-8.61565701">
        <time>2019-04-24T08:02:58.076Z</time>
      </trkpt>
      <trkpt lat="42.3602449" lon="-8.61567202">
        <time>2019-04-24T08:02:58.240Z</time>
      </trkpt>
      <trkpt lat="42.3603119" lon="-8.61577897">
        <time>2019-04-24T08:02:58.448Z</time>
      </trkpt>
      <trkpt lat="42.360379" lon="-8.61588299">
        <time>2019-04-24T08:02:58.652Z</time>
      </trkpt>
      <trkpt lat="42.3604559" lon="-8.61599296">
        <time>2019-04-24T08:02:58.876Z</time>
      </trkpt>
      <trkpt lat="42.360539" lon="-8.61606203">
        <time>2019-04-24T08:02:59.071Z</time>
      </trkpt>
      <trkpt lat="42.3606909" lon="-8.61614903">
        <time>2019-04-24T08:02:59.402Z</time>
      </trkpt>
      <trkpt lat="42.360886" lon="-8.61619798">
        <time>2019-04-24T08:02:59.800Z</time>
      </trkpt>
      <trkpt lat="42.361182" lon="-8.61615196">
        <time>2019-04-24T08:03:00.397Z</time>
      </trkpt>
      <trkpt lat="42.361429" lon="-8.61620703">
        <time>2019-04-24T08:03:00.899Z</time>
      </trkpt>
      <trkpt lat="42.3616209" lon="-8.61629001">
        <time>2019-04-24T08:03:01.303Z</time>
      </trkpt>
      <trkpt lat="42.3618089" lon="-8.61635103">
        <time>2019-04-24T08:03:01.690Z</time>
      </trkpt>
      <trkpt lat="42.362046" lon="-8.61629102">
        <time>2019-04-24T08:03:02.173Z</time>
      </trkpt>
      <trkpt lat="42.3622689" lon="-8.61628398">
        <time>2019-04-24T08:03:02.620Z</time>
      </trkpt>
      <trkpt lat="42.3624729" lon="-8.61626101">
        <time>2019-04-24T08:03:03.030Z</time>
      </trkpt>
      <trkpt lat="42.362684" lon="-8.61632295">
        <time>2019-04-24T08:03:03.463Z</time>
      </trkpt>
      <trkpt lat="42.36285" lon="-8.61639001">
        <time>2019-04-24T08:03:03.810Z</time>
      </trkpt>
      <trkpt lat="42.362995" lon="-8.61646">
        <time>2019-04-24T08:03:04.118Z</time>
      </trkpt>
      <trkpt lat="42.3630749" lon="-8.61648003">
        <time>2019-04-24T08:03:04.281Z</time>
      </trkpt>
      <trkpt lat="42.363173" lon="-8.61650099">
        <time>2019-04-24T08:03:04.480Z</time>
      </trkpt>
      <trkpt lat="42.3632469" lon="-8.61652404">
        <time>2019-04-24T08:03:04.632Z</time>
      </trkpt>
      <trkpt lat="42.36333" lon="-8.616547">
        <time>2019-04-24T08:03:04.802Z</time>
      </trkpt>
      <trkpt lat="42.363441" lon="-8.61665303">
        <time>2019-04-24T08:03:05.074Z</time>
      </trkpt>
      <trkpt lat="42.36356" lon="-8.61673098">
        <time>2019-04-24T08:03:05.339Z</time>
      </trkpt>
      <trkpt lat="42.3636779" lon="-8.61672302">
        <time>2019-04-24T08:03:05.576Z</time>
      </trkpt>
      <trkpt lat="42.3638" lon="-8.61672596">
        <time>2019-04-24T08:03:05.821Z</time>
      </trkpt>
      <trkpt lat="42.3639109" lon="-8.61669603">
        <time>2019-04-24T08:03:06.048Z</time>
      </trkpt>
      <trkpt lat="42.364018" lon="-8.616704">
        <time>2019-04-24T08:03:06.263Z</time>
      </trkpt>
      <trkpt lat="42.36415" lon="-8.61656201">
        <time>2019-04-24T08:03:06.601Z</time>
      </trkpt>
      <trkpt lat="42.364309" lon="-8.61651699">
        <time>2019-04-24T08:03:06.927Z</time>
      </trkpt>
      <trkpt lat="42.3644689" lon="-8.61651398">
        <time>2019-04-24T08:03:07.247Z</time>
      </trkpt>
      <trkpt lat="42.3645119" lon="-8.61652496">
        <time>2019-04-24T08:03:07.335Z</time>
      </trkpt>
      <trkpt lat="42.364565" lon="-8.61651398">
        <time>2019-04-24T08:03:07.443Z</time>
      </trkpt>
      <trkpt lat="42.364679" lon="-8.61652102">
        <time>2019-04-24T08:03:07.672Z</time>
      </trkpt>
      <trkpt lat="42.3649059" lon="-8.61653896">
        <time>2019-04-24T08:03:08.127Z</time>
      </trkpt>
      <trkpt lat="42.3650459" lon="-8.61665102">
        <time>2019-04-24T08:03:08.453Z</time>
      </trkpt>
      <trkpt lat="42.3652069" lon="-8.61675202">
        <time>2019-04-24T08:03:08.809Z</time>
      </trkpt>
      <trkpt lat="42.3653069" lon="-8.61683903">
        <time>2019-04-24T08:03:09.047Z</time>
      </trkpt>
      <trkpt lat="42.365326" lon="-8.61690499">
        <time>2019-04-24T08:03:09.152Z</time>
      </trkpt>
      <trkpt lat="42.365196" lon="-8.61708696">
        <time>2019-04-24T08:03:09.527Z</time>
      </trkpt>
      <trkpt lat="42.365153" lon="-8.61715402">
        <time>2019-04-24T08:03:09.658Z</time>
      </trkpt>
      <trkpt lat="42.365127" lon="-8.617237">
        <time>2019-04-24T08:03:09.791Z</time>
      </trkpt>
      <trkpt lat="42.365126" lon="-8.61731101">
        <time>2019-04-24T08:03:09.901Z</time>
      </trkpt>
      <trkpt lat="42.3650349" lon="-8.61750103">
        <time>2019-04-24T08:03:10.236Z</time>
      </trkpt>
      <trkpt lat="42.3649889" lon="-8.617554">
        <time>2019-04-24T08:03:10.357Z</time>
      </trkpt>
      <trkpt lat="42.364942" lon="-8.61759298">
        <time>2019-04-24T08:03:10.467Z</time>
      </trkpt>
      <trkpt lat="42.364784" lon="-8.61776598">
        <time>2019-04-24T08:03:10.874Z</time>
      </trkpt>
      <trkpt lat="42.3646319" lon="-8.61785902">
        <time>2019-04-24T08:03:11.208Z</time>
      </trkpt>
      <trkpt lat="42.3644269" lon="-8.61788903">
        <time>2019-04-24T08:03:11.621Z</time>
      </trkpt>
      <trkpt lat="42.364235" lon="-8.61790797">
        <time>2019-04-24T08:03:12.007Z</time>
      </trkpt>
      <trkpt lat="42.3642829" lon="-8.61800403">
        <time>2019-04-24T08:03:12.179Z</time>
      </trkpt>
      <trkpt lat="42.36435" lon="-8.61804896">
        <time>2019-04-24T08:03:12.329Z</time>
      </trkpt>
      <trkpt lat="42.3644829" lon="-8.61814904">
        <time>2019-04-24T08:03:12.634Z</time>
      </trkpt>
      <trkpt lat="42.364665" lon="-8.61816102">
        <time>2019-04-24T08:03:12.999Z</time>
      </trkpt>
      <trkpt lat="42.36474" lon="-8.61815901">
        <time>2019-04-24T08:03:13.149Z</time>
      </trkpt>
      <trkpt lat="42.36484" lon="-8.618157">
        <time>2019-04-24T08:03:13.349Z</time>
      </trkpt>
      <trkpt lat="42.3649729" lon="-8.61817301">
        <time>2019-04-24T08:03:13.616Z</time>
      </trkpt>
      <trkpt lat="42.365057" lon="-8.61820301">
        <time>2019-04-24T08:03:13.790Z</time>
      </trkpt>
      <trkpt lat="42.365112" lon="-8.61822196">
        <time>2019-04-24T08:03:13.904Z</time>
      </trkpt>
      <trkpt lat="42.365281" lon="-8.61833302">
        <time>2019-04-24T08:03:14.280Z</time>
      </trkpt>
      <trkpt lat="42.3654949" lon="-8.618503">
        <time>2019-04-24T08:03:14.777Z</time>
      </trkpt>
      <trkpt lat="42.36569" lon="-8.61875002">
        <time>2019-04-24T08:03:15.312Z</time>
      </trkpt>
      <trkpt lat="42.365844" lon="-8.61898999">
        <time>2019-04-24T08:03:15.783Z</time>
      </trkpt>
      <trkpt lat="42.3661239" lon="-8.61927699">
        <time>2019-04-24T08:03:16.487Z</time>
      </trkpt>
      <trkpt lat="42.3663379" lon="-8.61937003">
        <time>2019-04-24T08:03:16.937Z</time>
      </trkpt>
      <trkpt lat="42.366495" lon="-8.61947103">
        <time>2019-04-24T08:03:17.286Z</time>
      </trkpt>
      <trkpt lat="42.366665" lon="-8.61957698">
        <time>2019-04-24T08:03:17.661Z</time>
      </trkpt>
      <trkpt lat="42.366768" lon="-8.61964101">
        <time>2019-04-24T08:03:17.888Z</time>
      </trkpt>
      <trkpt lat="42.3667139" lon="-8.61984503">
        <time>2019-04-24T08:03:18.209Z</time>
      </trkpt>
      <trkpt lat="42.366639" lon="-8.62004703">
        <time>2019-04-24T08:03:18.544Z</time>
      </trkpt>
      <trkpt lat="42.36661" lon="-8.62012398">
        <time>2019-04-24T08:03:18.672Z</time>
      </trkpt>
      <trkpt lat="42.366594" lon="-8.62025499">
        <time>2019-04-24T08:03:18.869Z</time>
      </trkpt>
      <trkpt lat="42.3666579" lon="-8.62027402">
        <time>2019-04-24T08:03:19.000Z</time>
      </trkpt>
      <trkpt lat="42.3668699" lon="-8.62034099">
        <time>2019-04-24T08:03:19.436Z</time>
      </trkpt>
      <trkpt lat="42.36711" lon="-8.620472">
        <time>2019-04-24T08:03:19.955Z</time>
      </trkpt>
      <trkpt lat="42.367326" lon="-8.62052002">
        <time>2019-04-24T08:03:20.394Z</time>
      </trkpt>
      <trkpt lat="42.3675459" lon="-8.62053696">
        <time>2019-04-24T08:03:20.835Z</time>
      </trkpt>
      <trkpt lat="42.3677039" lon="-8.62063997">
        <time>2019-04-24T08:03:21.186Z</time>
      </trkpt>
      <trkpt lat="42.3677659" lon="-8.62069998">
        <time>2019-04-24T08:03:21.339Z</time>
      </trkpt>
      <trkpt lat="42.367826" lon="-8.62076">
        <time>2019-04-24T08:03:21.489Z</time>
      </trkpt>
      <trkpt lat="42.3678939" lon="-8.62085899">
        <time>2019-04-24T08:03:21.689Z</time>
      </trkpt>
      <trkpt lat="42.368015" lon="-8.621235">
        <time>2019-04-24T08:03:22.296Z</time>
      </trkpt>
      <trkpt lat="42.368071" lon="-8.62149098">
        <time>2019-04-24T08:03:22.691Z</time>
      </trkpt>
      <trkpt lat="42.368192" lon="-8.62187001">
        <time>2019-04-24T08:03:23.302Z</time>
      </trkpt>
      <trkpt lat="42.3682369" lon="-8.62205601">
        <time>2019-04-24T08:03:23.592Z</time>
      </trkpt>
      <trkpt lat="42.368234" lon="-8.62213103">
        <time>2019-04-24T08:03:23.703Z</time>
      </trkpt>
      <trkpt lat="42.368264" lon="-8.62219297">
        <time>2019-04-24T08:03:23.813Z</time>
      </trkpt>
      <trkpt lat="42.36829" lon="-8.62229699">
        <time>2019-04-24T08:03:23.976Z</time>
      </trkpt>
      <trkpt lat="42.368315" lon="-8.62234703">
        <time>2019-04-24T08:03:24.065Z</time>
      </trkpt>
      <trkpt lat="42.368332" lon="-8.62241601">
        <time>2019-04-24T08:03:24.173Z</time>
      </trkpt>
      <trkpt lat="42.3683519" lon="-8.62257099">
        <time>2019-04-24T08:03:24.406Z</time>
      </trkpt>
      <trkpt lat="42.3683559" lon="-8.62262195">
        <time>2019-04-24T08:03:24.482Z</time>
      </trkpt>
      <trkpt lat="42.3684859" lon="-8.62291096">
        <time>2019-04-24T08:03:24.983Z</time>
      </trkpt>
      <trkpt lat="42.3685529" lon="-8.62302403">
        <time>2019-04-24T08:03:25.198Z</time>
      </trkpt>
      <trkpt lat="42.368778" lon="-8.62344003">
        <time>2019-04-24T08:03:25.961Z</time>
      </trkpt>
      <trkpt lat="42.368863" lon="-8.62366399">
        <time>2019-04-24T08:03:26.334Z</time>
      </trkpt>
      <trkpt lat="42.3689999" lon="-8.62433304">
        <time>2019-04-24T08:03:27.362Z</time>
      </trkpt>
      <trkpt lat="42.369165" lon="-8.62462196">
        <time>2019-04-24T08:03:27.903Z</time>
      </trkpt>
      <trkpt lat="42.3693039" lon="-8.62484601">
        <time>2019-04-24T08:03:28.336Z</time>
      </trkpt>
      <trkpt lat="42.36947" lon="-8.62519897">
        <time>2019-04-24T08:03:28.956Z</time>
      </trkpt>
      <trkpt lat="42.3698789" lon="-8.62552503">
        <time>2019-04-24T08:03:29.907Z</time>
      </trkpt>
      <trkpt lat="42.370447" lon="-8.62580498">
        <time>2019-04-24T08:03:31.119Z</time>
      </trkpt>
      <trkpt lat="42.370637" lon="-8.62602501">
        <time>2019-04-24T08:03:31.620Z</time>
      </trkpt>
      <trkpt lat="42.3707159" lon="-8.62607396">
        <time>2019-04-24T08:03:31.794Z</time>
      </trkpt>
      <trkpt lat="42.370824" lon="-8.62607597">
        <time>2019-04-24T08:03:32.011Z</time>
      </trkpt>
      <trkpt lat="42.3709269" lon="-8.626052">
        <time>2019-04-24T08:03:32.220Z</time>
      </trkpt>
      <trkpt lat="42.3710149" lon="-8.626023">
        <time>2019-04-24T08:03:32.402Z</time>
      </trkpt>
      <trkpt lat="42.371556" lon="-8.62577799">
        <time>2019-04-24T08:03:33.545Z</time>
      </trkpt>
      <trkpt lat="42.3721629" lon="-8.62524499">
        <time>2019-04-24T08:03:34.995Z</time>
      </trkpt>
      <trkpt lat="42.3725389" lon="-8.62489001">
        <time>2019-04-24T08:03:35.914Z</time>
      </trkpt>
      <trkpt lat="42.3726949" lon="-8.62479798">
        <time>2019-04-24T08:03:36.255Z</time>
      </trkpt>
      <trkpt lat="42.3729239" lon="-8.62483997">
        <time>2019-04-24T08:03:36.718Z</time>
      </trkpt>
      <trkpt lat="42.3733009" lon="-8.62505899">
        <time>2019-04-24T08:03:37.540Z</time>
      </trkpt>
      <trkpt lat="42.37377" lon="-8.62537298">
        <time>2019-04-24T08:03:38.589Z</time>
      </trkpt>
      <trkpt lat="42.3741079" lon="-8.62538496">
        <time>2019-04-24T08:03:39.266Z</time>
      </trkpt>
      <trkpt lat="42.3742819" lon="-8.62535697">
        <time>2019-04-24T08:03:39.617Z</time>
      </trkpt>
      <trkpt lat="42.374533" lon="-8.62547197">
        <time>2019-04-24T08:03:40.148Z</time>
      </trkpt>
      <trkpt lat="42.374631" lon="-8.62557599">
        <time>2019-04-24T08:03:40.398Z</time>
      </trkpt>
      <trkpt lat="42.37506" lon="-8.62582401">
        <time>2019-04-24T08:03:41.333Z</time>
      </trkpt>
      <trkpt lat="42.375477" lon="-8.62619801">
        <time>2019-04-24T08:03:42.335Z</time>
      </trkpt>
      <trkpt lat="42.375637" lon="-8.626412">
        <time>2019-04-24T08:03:42.786Z</time>
      </trkpt>
      <trkpt lat="42.3757779" lon="-8.626542">
        <time>2019-04-24T08:03:43.128Z</time>
      </trkpt>
      <trkpt lat="42.3761069" lon="-8.62682598">
        <time>2019-04-24T08:03:43.910Z</time>
      </trkpt>
      <trkpt lat="42.376242" lon="-8.626929">
        <time>2019-04-24T08:03:44.221Z</time>
      </trkpt>
      <trkpt lat="42.3766389" lon="-8.62702002">
        <time>2019-04-24T08:03:45.028Z</time>
      </trkpt>
      <trkpt lat="42.376974" lon="-8.626973">
        <time>2019-04-24T08:03:45.703Z</time>
      </trkpt>
      <trkpt lat="42.3772549" lon="-8.62701298">
        <time>2019-04-24T08:03:46.269Z</time>
      </trkpt>
      <trkpt lat="42.377497" lon="-8.62725698">
        <time>2019-04-24T08:03:46.874Z</time>
      </trkpt>
      <trkpt lat="42.3776729" lon="-8.62725396">
        <time>2019-04-24T08:03:47.227Z</time>
      </trkpt>
      <trkpt lat="42.3778309" lon="-8.627232">
        <time>2019-04-24T08:03:47.545Z</time>
      </trkpt>
      <trkpt lat="42.37833" lon="-8.62727802">
        <time>2019-04-24T08:03:48.547Z</time>
      </trkpt>
      <trkpt lat="42.3785519" lon="-8.62738003">
        <time>2019-04-24T08:03:49.017Z</time>
      </trkpt>
      <trkpt lat="42.3788399" lon="-8.62765302">
        <time>2019-04-24T08:03:49.722Z</time>
      </trkpt>
      <trkpt lat="42.3790529" lon="-8.62786601">
        <time>2019-04-24T08:03:50.253Z</time>
      </trkpt>
      <trkpt lat="42.379191" lon="-8.62825501">
        <time>2019-04-24T08:03:50.892Z</time>
      </trkpt>
      <trkpt lat="42.3793109" lon="-8.628598">
        <time>2019-04-24T08:03:51.454Z</time>
      </trkpt>
      <trkpt lat="42.3793419" lon="-8.62870596">
        <time>2019-04-24T08:03:51.625Z</time>
      </trkpt>
      <trkpt lat="42.379421" lon="-8.62885901">
        <time>2019-04-24T08:03:51.902Z</time>
      </trkpt>
      <trkpt lat="42.379751" lon="-8.62919999">
        <time>2019-04-24T08:03:52.734Z</time>
      </trkpt>
      <trkpt lat="42.3800349" lon="-8.629302">
        <time>2019-04-24T08:03:53.323Z</time>
      </trkpt>
      <trkpt lat="42.380531" lon="-8.62950903">
        <time>2019-04-24T08:03:54.363Z</time>
      </trkpt>
      <trkpt lat="42.3807249" lon="-8.62956896">
        <time>2019-04-24T08:03:54.762Z</time>
      </trkpt>
      <trkpt lat="42.380724944658" lon="-8.629568958878352">
        <time>2019-04-24T08:03:54.762Z</time>
      </trkpt>
      <trkpt lat="42.381002" lon="-8.629562">
        <time>2019-04-24T08:03:55.317Z</time>
      </trkpt>
      <trkpt lat="42.38132" lon="-8.62951699">
        <time>2019-04-24T08:03:55.958Z</time>
      </trkpt>
      <trkpt lat="42.381431" lon="-8.62949796">
        <time>2019-04-24T08:03:56.182Z</time>
      </trkpt>
      <trkpt lat="42.3818889" lon="-8.62955597">
        <time>2019-04-24T08:03:57.104Z</time>
      </trkpt>
      <trkpt lat="42.38227" lon="-8.62959302">
        <time>2019-04-24T08:03:57.870Z</time>
      </trkpt>
      <trkpt lat="42.3824889" lon="-8.62961104">
        <time>2019-04-24T08:03:58.309Z</time>
      </trkpt>
      <trkpt lat="42.382843" lon="-8.62965404">
        <time>2019-04-24T08:03:59.021Z</time>
      </trkpt>
      <trkpt lat="42.3830389" lon="-8.62974599">
        <time>2019-04-24T08:03:59.436Z</time>
      </trkpt>
      <trkpt lat="42.3833429" lon="-8.62987197">
        <time>2019-04-24T08:04:00.073Z</time>
      </trkpt>
      <trkpt lat="42.383463" lon="-8.62995503">
        <time>2019-04-24T08:04:00.343Z</time>
      </trkpt>
      <trkpt lat="42.3835729" lon="-8.63005201">
        <time>2019-04-24T08:04:00.606Z</time>
      </trkpt>
      <trkpt lat="42.3836379" lon="-8.63005301">
        <time>2019-04-24T08:04:00.736Z</time>
      </trkpt>
      <trkpt lat="42.383706" lon="-8.63002301">
        <time>2019-04-24T08:04:00.880Z</time>
      </trkpt>
      <trkpt lat="42.383761" lon="-8.62999702">
        <time>2019-04-24T08:04:00.997Z</time>
      </trkpt>
      <trkpt lat="42.383805" lon="-8.629964">
        <time>2019-04-24T08:04:01.098Z</time>
      </trkpt>
      <trkpt lat="42.383863" lon="-8.62992502">
        <time>2019-04-24T08:04:01.228Z</time>
      </trkpt>
      <trkpt lat="42.3840449" lon="-8.63001697">
        <time>2019-04-24T08:04:01.617Z</time>
      </trkpt>
      <trkpt lat="42.3845189" lon="-8.63050103">
        <time>2019-04-24T08:04:02.807Z</time>
      </trkpt>
      <trkpt lat="42.3847189" lon="-8.63057697">
        <time>2019-04-24T08:04:03.223Z</time>
      </trkpt>
      <trkpt lat="42.3852499" lon="-8.63047001">
        <time>2019-04-24T08:04:04.299Z</time>
      </trkpt>
      <trkpt lat="42.385806" lon="-8.63040799">
        <time>2019-04-24T08:04:05.417Z</time>
      </trkpt>
      <trkpt lat="42.38611" lon="-8.630424">
        <time>2019-04-24T08:04:06.027Z</time>
      </trkpt>
      <trkpt lat="42.3865029" lon="-8.63030003">
        <time>2019-04-24T08:04:06.835Z</time>
      </trkpt>
      <trkpt lat="42.3870519" lon="-8.62989602">
        <time>2019-04-24T08:04:08.087Z</time>
      </trkpt>
      <trkpt lat="42.387648" lon="-8.62952403">
        <time>2019-04-24T08:04:09.402Z</time>
      </trkpt>
      <trkpt lat="42.387989" lon="-8.62947399">
        <time>2019-04-24T08:04:10.089Z</time>
      </trkpt>
      <trkpt lat="42.388422" lon="-8.62966703">
        <time>2019-04-24T08:04:11.003Z</time>
      </trkpt>
      <trkpt lat="42.388952" lon="-8.62986995">
        <time>2019-04-24T08:04:12.107Z</time>
      </trkpt>
      <trkpt lat="42.389096" lon="-8.62991597">
        <time>2019-04-24T08:04:12.403Z</time>
      </trkpt>
      <trkpt lat="42.3892389" lon="-8.62996299">
        <time>2019-04-24T08:04:12.698Z</time>
      </trkpt>
      <trkpt lat="42.389643" lon="-8.630037">
        <time>2019-04-24T08:04:13.515Z</time>
      </trkpt>
      <trkpt lat="42.389876" lon="-8.63001898">
        <time>2019-04-24T08:04:13.983Z</time>
      </trkpt>
      <trkpt lat="42.3902399" lon="-8.62994103">
        <time>2019-04-24T08:04:14.721Z</time>
      </trkpt>
      <trkpt lat="42.390926" lon="-8.629706">
        <time>2019-04-24T08:04:16.139Z</time>
      </trkpt>
      <trkpt lat="42.391442" lon="-8.62973199">
        <time>2019-04-24T08:04:17.174Z</time>
      </trkpt>
      <trkpt lat="42.3919549" lon="-8.62987599">
        <time>2019-04-24T08:04:18.224Z</time>
      </trkpt>
      <trkpt lat="42.3924559" lon="-8.62978102">
        <time>2019-04-24T08:04:19.238Z</time>
      </trkpt>
      <trkpt lat="42.3929909" lon="-8.62962797">
        <time>2019-04-24T08:04:20.334Z</time>
      </trkpt>
      <trkpt lat="42.3930869" lon="-8.62958698">
        <time>2019-04-24T08:04:20.536Z</time>
      </trkpt>
      <trkpt lat="42.393873" lon="-8.62948799">
        <time>2019-04-24T08:04:22.118Z</time>
      </trkpt>
      <trkpt lat="42.394394" lon="-8.62937098">
        <time>2019-04-24T08:04:23.176Z</time>
      </trkpt>
      <trkpt lat="42.3949339" lon="-8.62904903">
        <time>2019-04-24T08:04:24.358Z</time>
      </trkpt>
      <trkpt lat="42.3951299" lon="-8.62896102">
        <time>2019-04-24T08:04:24.772Z</time>
      </trkpt>
      <trkpt lat="42.3953359" lon="-8.62884803">
        <time>2019-04-24T08:04:25.217Z</time>
      </trkpt>
      <trkpt lat="42.3958529" lon="-8.62873496">
        <time>2019-04-24T08:04:26.266Z</time>
      </trkpt>
      <trkpt lat="42.3960549" lon="-8.62877301">
        <time>2019-04-24T08:04:26.675Z</time>
      </trkpt>
      <trkpt lat="42.3962679" lon="-8.62897401">
        <time>2019-04-24T08:04:27.195Z</time>
      </trkpt>
      <trkpt lat="42.3965139" lon="-8.62933502">
        <time>2019-04-24T08:04:27.922Z</time>
      </trkpt>
      <trkpt lat="42.396807" lon="-8.62967097">
        <time>2019-04-24T08:04:28.692Z</time>
      </trkpt>
      <trkpt lat="42.396906" lon="-8.62975898">
        <time>2019-04-24T08:04:28.929Z</time>
      </trkpt>
      <trkpt lat="42.3968962" lon="-8.62980759">
        <time>2019-04-24T08:04:29.004Z</time>
      </trkpt>
      <trkpt lat="42.3968501" lon="-8.62982821">
        <time>2019-04-24T08:04:29.101Z</time>
      </trkpt>
      <trkpt lat="42.3968713" lon="-8.6298868">
        <time>2019-04-24T08:04:29.198Z</time>
      </trkpt>
      <trkpt lat="42.3969035" lon="-8.62997204">
        <time>2019-04-24T08:04:29.340Z</time>
      </trkpt>
      <trkpt lat="42.3970631" lon="-8.63053598">
        <time>2019-04-24T08:04:30.234Z</time>
      </trkpt>
      <trkpt lat="42.3971956" lon="-8.63116202">
        <time>2019-04-24T08:04:31.198Z</time>
      </trkpt>
      <trkpt lat="42.3972437" lon="-8.63127535">
        <time>2019-04-24T08:04:31.391Z</time>
      </trkpt>
      <trkpt lat="42.3972467" lon="-8.63128473">
        <time>2019-04-24T08:04:31.406Z</time>
      </trkpt>
      <trkpt lat="42.3973066" lon="-8.6313626">
        <time>2019-04-24T08:04:31.572Z</time>
      </trkpt>
      <trkpt lat="42.3974738" lon="-8.63164893">
        <time>2019-04-24T08:04:32.112Z</time>
      </trkpt>
      <trkpt lat="42.3975239" lon="-8.63167013">
        <time>2019-04-24T08:04:32.217Z</time>
      </trkpt>
      <trkpt lat="42.3977785" lon="-8.63198094">
        <time>2019-04-24T08:04:32.904Z</time>
      </trkpt>
      <trkpt lat="42.3979457" lon="-8.63222267">
        <time>2019-04-24T08:04:33.394Z</time>
      </trkpt>
      <trkpt lat="42.3981149" lon="-8.63264227">
        <time>2019-04-24T08:04:34.101Z</time>
      </trkpt>
      <trkpt lat="42.3980791" lon="-8.63305591">
        <time>2019-04-24T08:04:34.717Z</time>
      </trkpt>
      <trkpt lat="42.3980918" lon="-8.63307544">
        <time>2019-04-24T08:04:34.755Z</time>
      </trkpt>
      <trkpt lat="42.39835" lon="-8.63306011">
        <time>2019-04-24T08:04:35.273Z</time>
      </trkpt>
      <trkpt lat="42.398813" lon="-8.63322288">
        <time>2019-04-24T08:04:36.232Z</time>
      </trkpt>
      <trkpt lat="42.3989376" lon="-8.63358733">
        <time>2019-04-24T08:04:36.826Z</time>
      </trkpt>
      <trkpt lat="42.3992842" lon="-8.63366461">
        <time>2019-04-24T08:04:37.530Z</time>
      </trkpt>
      <trkpt lat="42.3995671" lon="-8.63399586">
        <time>2019-04-24T08:04:38.279Z</time>
      </trkpt>
      <trkpt lat="42.3997644" lon="-8.6343686">
        <time>2019-04-24T08:04:38.958Z</time>
      </trkpt>
      <trkpt lat="42.3998783" lon="-8.63446164">
        <time>2019-04-24T08:04:39.225Z</time>
      </trkpt>
      <trkpt lat="42.399927" lon="-8.63445418">
        <time>2019-04-24T08:04:39.323Z</time>
      </trkpt>
      <trkpt lat="42.3999459" lon="-8.63443055">
        <time>2019-04-24T08:04:39.375Z</time>
      </trkpt>
      <trkpt lat="42.4001731" lon="-8.634206">
        <time>2019-04-24T08:04:39.939Z</time>
      </trkpt>
      <trkpt lat="42.4004463" lon="-8.63449073">
        <time>2019-04-24T08:04:40.630Z</time>
      </trkpt>
      <trkpt lat="42.4005619" lon="-8.63454538">
        <time>2019-04-24T08:04:40.875Z</time>
      </trkpt>
      <trkpt lat="42.4009033" lon="-8.63439249">
        <time>2019-04-24T08:04:41.596Z</time>
      </trkpt>
      <trkpt lat="42.4011797" lon="-8.63455452">
        <time>2019-04-24T08:04:42.200Z</time>
      </trkpt>
      <trkpt lat="42.4014357" lon="-8.63454077">
        <time>2019-04-24T08:04:42.713Z</time>
      </trkpt>
      <trkpt lat="42.4015658" lon="-8.6345598">
        <time>2019-04-24T08:04:42.975Z</time>
      </trkpt>
      <trkpt lat="42.4016543" lon="-8.63466993">
        <time>2019-04-24T08:04:43.216Z</time>
      </trkpt>
      <trkpt lat="42.4018673" lon="-8.63489029">
        <time>2019-04-24T08:04:43.753Z</time>
      </trkpt>
      <trkpt lat="42.4020928" lon="-8.63496037">
        <time>2019-04-24T08:04:44.217Z</time>
      </trkpt>
      <trkpt lat="42.4021685" lon="-8.63504276">
        <time>2019-04-24T08:04:44.412Z</time>
      </trkpt>
      <trkpt lat="42.4022603" lon="-8.63527628">
        <time>2019-04-24T08:04:44.803Z</time>
      </trkpt>
      <trkpt lat="42.4024945" lon="-8.6351954">
        <time>2019-04-24T08:04:45.287Z</time>
      </trkpt>
      <trkpt lat="42.4025768" lon="-8.6351928">
        <time>2019-04-24T08:04:45.452Z</time>
      </trkpt>
      <trkpt lat="42.402687" lon="-8.63524971">
        <time>2019-04-24T08:04:45.688Z</time>
      </trkpt>
      <trkpt lat="42.4029531" lon="-8.63538214">
        <time>2019-04-24T08:04:46.256Z</time>
      </trkpt>
      <trkpt lat="42.4030656" lon="-8.6358025">
        <time>2019-04-24T08:04:46.918Z</time>
      </trkpt>
      <trkpt lat="42.4034777" lon="-8.63568088">
        <time>2019-04-24T08:04:47.763Z</time>
      </trkpt>
      <trkpt lat="42.4037844" lon="-8.63539656">
        <time>2019-04-24T08:04:48.508Z</time>
      </trkpt>
      <trkpt lat="42.4039314" lon="-8.6352907">
        <time>2019-04-24T08:04:48.842Z</time>
      </trkpt>
      <trkpt lat="42.4039618" lon="-8.63560519">
        <time>2019-04-24T08:04:49.311Z</time>
      </trkpt>
      <trkpt lat="42.4041387" lon="-8.63577056">
        <time>2019-04-24T08:04:49.742Z</time>
      </trkpt>
      <trkpt lat="42.4043336" lon="-8.63566068">
        <time>2019-04-24T08:04:50.165Z</time>
      </trkpt>
      <trkpt lat="42.4044037" lon="-8.63545238">
        <time>2019-04-24T08:04:50.504Z</time>
      </trkpt>
      <trkpt lat="42.4044943" lon="-8.63533839">
        <time>2019-04-24T08:04:50.752Z</time>
      </trkpt>
      <trkpt lat="42.4046804" lon="-8.63539388">
        <time>2019-04-24T08:04:51.134Z</time>
      </trkpt>
      <trkpt lat="42.4046872" lon="-8.63555573">
        <time>2019-04-24T08:04:51.374Z</time>
      </trkpt>
      <trkpt lat="42.4046945" lon="-8.63558935">
        <time>2019-04-24T08:04:51.426Z</time>
      </trkpt>
      <trkpt lat="42.4048762" lon="-8.63585572">
        <time>2019-04-24T08:04:51.963Z</time>
      </trkpt>
      <trkpt lat="42.4050942" lon="-8.63594859">
        <time>2019-04-24T08:04:52.421Z</time>
      </trkpt>
      <trkpt lat="42.4050919" lon="-8.6359931">
        <time>2019-04-24T08:04:52.487Z</time>
      </trkpt>
      <trkpt lat="42.4050186" lon="-8.63611808">
        <time>2019-04-24T08:04:52.723Z</time>
      </trkpt>
      <trkpt lat="42.4049258" lon="-8.63610735">
        <time>2019-04-24T08:04:52.910Z</time>
      </trkpt>
      <trkpt lat="42.4048574" lon="-8.63620089">
        <time>2019-04-24T08:04:53.105Z</time>
      </trkpt>
      <trkpt lat="42.4049525" lon="-8.63639057">
        <time>2019-04-24T08:04:53.444Z</time>
      </trkpt>
      <trkpt lat="42.4050453" lon="-8.63656206">
        <time>2019-04-24T08:04:53.759Z</time>
      </trkpt>
      <trkpt lat="42.4050807" lon="-8.63660825">
        <time>2019-04-24T08:04:53.858Z</time>
      </trkpt>
      <trkpt lat="42.4050983" lon="-8.63664731">
        <time>2019-04-24T08:04:53.926Z</time>
      </trkpt>
      <trkpt lat="42.4051297" lon="-8.63660909">
        <time>2019-04-24T08:04:54.011Z</time>
      </trkpt>
      <trkpt lat="42.4051888" lon="-8.63659517">
        <time>2019-04-24T08:04:54.131Z</time>
      </trkpt>
      <trkpt lat="42.4053886" lon="-8.63647716">
        <time>2019-04-24T08:04:54.568Z</time>
      </trkpt>
      <trkpt lat="42.4054366" lon="-8.63644514">
        <time>2019-04-24T08:04:54.675Z</time>
      </trkpt>
      <trkpt lat="42.4055178" lon="-8.63661814">
        <time>2019-04-24T08:04:54.978Z</time>
      </trkpt>
      <trkpt lat="42.4057749" lon="-8.63657715">
        <time>2019-04-24T08:04:55.497Z</time>
      </trkpt>
      <trkpt lat="42.4059966" lon="-8.63667002">
        <time>2019-04-24T08:04:55.962Z</time>
      </trkpt>
      <trkpt lat="42.4061475" lon="-8.63666273">
        <time>2019-04-24T08:04:56.265Z</time>
      </trkpt>
      <trkpt lat="42.4061858" lon="-8.63662401">
        <time>2019-04-24T08:04:56.361Z</time>
      </trkpt>
      <trkpt lat="42.4062514" lon="-8.6362827">
        <time>2019-04-24T08:04:56.883Z</time>
      </trkpt>
      <trkpt lat="42.4062178" lon="-8.63614641">
        <time>2019-04-24T08:04:57.096Z</time>
      </trkpt>
      <trkpt lat="42.4064828" lon="-8.63608656">
        <time>2019-04-24T08:04:57.634Z</time>
      </trkpt>
      <trkpt lat="42.406541" lon="-8.6361418">
        <time>2019-04-24T08:04:57.776Z</time>
      </trkpt>
      <trkpt lat="42.4065504" lon="-8.6361547">
        <time>2019-04-24T08:04:57.803Z</time>
      </trkpt>
      <trkpt lat="42.4067085" lon="-8.63637766">
        <time>2019-04-24T08:04:58.260Z</time>
      </trkpt>
      <trkpt lat="42.406727" lon="-8.63639585">
        <time>2019-04-24T08:04:58.306Z</time>
      </trkpt>
      <trkpt lat="42.4070064" lon="-8.63651563">
        <time>2019-04-24T08:04:58.893Z</time>
      </trkpt>
      <trkpt lat="42.407017" lon="-8.63654438">
        <time>2019-04-24T08:04:58.941Z</time>
      </trkpt>
      <trkpt lat="42.4073139" lon="-8.63669844">
        <time>2019-04-24T08:04:59.578Z</time>
      </trkpt>
      <trkpt lat="42.407403" lon="-8.63671227">
        <time>2019-04-24T08:04:59.758Z</time>
      </trkpt>
      <trkpt lat="42.4074787" lon="-8.63659417">
        <time>2019-04-24T08:04:59.989Z</time>
      </trkpt>
      <trkpt lat="42.4075249" lon="-8.63652309">
        <time>2019-04-24T08:05:00.129Z</time>
      </trkpt>
      <trkpt lat="42.4077397" lon="-8.63649426">
        <time>2019-04-24T08:05:00.562Z</time>
      </trkpt>
      <trkpt lat="42.4079771" lon="-8.63638185">
        <time>2019-04-24T08:05:01.066Z</time>
      </trkpt>
      <trkpt lat="42.4079959" lon="-8.63636316">
        <time>2019-04-24T08:05:01.113Z</time>
      </trkpt>
      <trkpt lat="42.4080179" lon="-8.63618848">
        <time>2019-04-24T08:05:01.375Z</time>
      </trkpt>
      <trkpt lat="42.4079003" lon="-8.6359615">
        <time>2019-04-24T08:05:01.785Z</time>
      </trkpt>
      <trkpt lat="42.4078249" lon="-8.63576746">
        <time>2019-04-24T08:05:02.109Z</time>
      </trkpt>
      <trkpt lat="42.4077205" lon="-8.63544677">
        <time>2019-04-24T08:05:02.628Z</time>
      </trkpt>
      <trkpt lat="42.4077867" lon="-8.63528148">
        <time>2019-04-24T08:05:02.906Z</time>
      </trkpt>
      <trkpt lat="42.407907" lon="-8.63527427">
        <time>2019-04-24T08:05:03.147Z</time>
      </trkpt>
      <trkpt lat="42.4080836" lon="-8.63557359">
        <time>2019-04-24T08:05:03.714Z</time>
      </trkpt>
      <trkpt lat="42.4082414" lon="-8.63588129">
        <time>2019-04-24T08:05:04.268Z</time>
      </trkpt>
      <trkpt lat="42.4084715" lon="-8.6359812">
        <time>2019-04-24T08:05:04.752Z</time>
      </trkpt>
      <trkpt lat="42.4086322" lon="-8.63574793">
        <time>2019-04-24T08:05:05.224Z</time>
      </trkpt>
      <trkpt lat="42.4089523" lon="-8.63564676">
        <time>2019-04-24T08:05:05.883Z</time>
      </trkpt>
      <trkpt lat="42.4093546" lon="-8.63572639">
        <time>2019-04-24T08:05:06.698Z</time>
      </trkpt>
      <trkpt lat="42.4097369" lon="-8.63578917">
        <time>2019-04-24T08:05:07.470Z</time>
      </trkpt>
      <trkpt lat="42.409988" lon="-8.63588673">
        <time>2019-04-24T08:05:07.993Z</time>
      </trkpt>
      <trkpt lat="42.4102384" lon="-8.63607147">
        <time>2019-04-24T08:05:08.564Z</time>
      </trkpt>
      <trkpt lat="42.4103359" lon="-8.63588305">
        <time>2019-04-24T08:05:08.904Z</time>
      </trkpt>
      <trkpt lat="42.41053" lon="-8.6359672">
        <time>2019-04-24T08:05:09.312Z</time>
      </trkpt>
      <trkpt lat="42.4105126" lon="-8.63618806">
        <time>2019-04-24T08:05:09.641Z</time>
      </trkpt>
      <trkpt lat="42.4105281" lon="-8.636335">
        <time>2019-04-24T08:05:09.861Z</time>
      </trkpt>
      <trkpt lat="42.4105712" lon="-8.63648998">
        <time>2019-04-24T08:05:10.106Z</time>
      </trkpt>
      <trkpt lat="42.410758" lon="-8.63654681">
        <time>2019-04-24T08:05:10.490Z</time>
      </trkpt>
      <trkpt lat="42.4108228" lon="-8.63654195">
        <time>2019-04-24T08:05:10.620Z</time>
      </trkpt>
      <trkpt lat="42.4109505" lon="-8.63656802">
        <time>2019-04-24T08:05:10.879Z</time>
      </trkpt>
      <trkpt lat="42.4110356" lon="-8.63660791">
        <time>2019-04-24T08:05:11.059Z</time>
      </trkpt>
      <trkpt lat="42.4110715" lon="-8.63664329">
        <time>2019-04-24T08:05:11.148Z</time>
      </trkpt>
      <trkpt lat="42.4110257" lon="-8.63667229">
        <time>2019-04-24T08:05:11.249Z</time>
      </trkpt>
      <trkpt lat="42.4110815" lon="-8.63660682">
        <time>2019-04-24T08:05:11.397Z</time>
      </trkpt>
      <trkpt lat="42.4112292" lon="-8.63657615">
        <time>2019-04-24T08:05:11.696Z</time>
      </trkpt>
      <trkpt lat="42.4114634" lon="-8.63655402">
        <time>2019-04-24T08:05:12.166Z</time>
      </trkpt>
      <trkpt lat="42.4115214" lon="-8.63669182">
        <time>2019-04-24T08:05:12.401Z</time>
      </trkpt>
      <trkpt lat="42.4115651" lon="-8.63681319">
        <time>2019-04-24T08:05:12.601Z</time>
      </trkpt>
      <trkpt lat="42.4116268" lon="-8.6368701">
        <time>2019-04-24T08:05:12.751Z</time>
      </trkpt>
      <trkpt lat="42.4116735" lon="-8.63684713">
        <time>2019-04-24T08:05:12.851Z</time>
      </trkpt>
      <trkpt lat="42.4117455" lon="-8.63683481">
        <time>2019-04-24T08:05:12.996Z</time>
      </trkpt>
      <trkpt lat="42.4118888" lon="-8.63679466">
        <time>2019-04-24T08:05:13.289Z</time>
      </trkpt>
      <trkpt lat="42.4119602" lon="-8.6366277">
        <time>2019-04-24T08:05:13.574Z</time>
      </trkpt>
      <trkpt lat="42.4121153" lon="-8.63621296">
        <time>2019-04-24T08:05:14.262Z</time>
      </trkpt>
      <trkpt lat="42.4122282" lon="-8.63624548">
        <time>2019-04-24T08:05:14.493Z</time>
      </trkpt>
      <trkpt lat="42.4123044" lon="-8.63635964">
        <time>2019-04-24T08:05:14.721Z</time>
      </trkpt>
      <trkpt lat="42.412476" lon="-8.63671948">
        <time>2019-04-24T08:05:15.355Z</time>
      </trkpt>
      <trkpt lat="42.4125888" lon="-8.63667991">
        <time>2019-04-24T08:05:15.588Z</time>
      </trkpt>
      <trkpt lat="42.412679" lon="-8.63642804">
        <time>2019-04-24T08:05:16.002Z</time>
      </trkpt>
      <trkpt lat="42.4128595" lon="-8.63634816">
        <time>2019-04-24T08:05:16.383Z</time>
      </trkpt>
      <trkpt lat="42.4129974" lon="-8.63586469">
        <time>2019-04-24T08:05:17.150Z</time>
      </trkpt>
      <trkpt lat="42.4131271" lon="-8.63538826">
        <time>2019-04-24T08:05:17.901Z</time>
      </trkpt>
      <trkpt lat="42.4132869" lon="-8.63510403">
        <time>2019-04-24T08:05:18.430Z</time>
      </trkpt>
      <trkpt lat="42.4136293" lon="-8.63505952">
        <time>2019-04-24T08:05:19.119Z</time>
      </trkpt>
      <trkpt lat="42.4138982" lon="-8.63495358">
        <time>2019-04-24T08:05:19.680Z</time>
      </trkpt>
      <trkpt lat="42.4142355" lon="-8.63485216">
        <time>2019-04-24T08:05:20.372Z</time>
      </trkpt>
      <trkpt lat="42.4145267" lon="-8.63509272">
        <time>2019-04-24T08:05:21.056Z</time>
      </trkpt>
      <trkpt lat="42.41484" lon="-8.63533822">
        <time>2019-04-24T08:05:21.781Z</time>
      </trkpt>
      <trkpt lat="42.4152224" lon="-8.63551064">
        <time>2019-04-24T08:05:22.589Z</time>
      </trkpt>
      <trkpt lat="42.4155547" lon="-8.63544643">
        <time>2019-04-24T08:05:23.262Z</time>
      </trkpt>
      <trkpt lat="42.4158063" lon="-8.63515541">
        <time>2019-04-24T08:05:23.925Z</time>
      </trkpt>
      <trkpt lat="42.4159773" lon="-8.63512306">
        <time>2019-04-24T08:05:24.271Z</time>
      </trkpt>
      <trkpt lat="42.416154" lon="-8.63528072">
        <time>2019-04-24T08:05:24.695Z</time>
      </trkpt>
      <trkpt lat="42.4162693" lon="-8.63531224">
        <time>2019-04-24T08:05:24.931Z</time>
      </trkpt>
      <trkpt lat="42.4163158" lon="-8.63528139">
        <time>2019-04-24T08:05:25.035Z</time>
      </trkpt>
      <trkpt lat="42.4164651" lon="-8.63499641">
        <time>2019-04-24T08:05:25.552Z</time>
      </trkpt>
      <trkpt lat="42.4165202" lon="-8.63494377">
        <time>2019-04-24T08:05:25.687Z</time>
      </trkpt>
      <trkpt lat="42.4169289" lon="-8.63500387">
        <time>2019-04-24T08:05:26.511Z</time>
      </trkpt>
      <trkpt lat="42.4170199" lon="-8.63497235">
        <time>2019-04-24T08:05:26.699Z</time>
      </trkpt>
      <trkpt lat="42.4170488" lon="-8.63481712">
        <time>2019-04-24T08:05:26.936Z</time>
      </trkpt>
      <trkpt lat="42.4173776" lon="-8.63478879">
        <time>2019-04-24T08:05:27.596Z</time>
      </trkpt>
      <trkpt lat="42.4176192" lon="-8.63514628">
        <time>2019-04-24T08:05:28.313Z</time>
      </trkpt>
      <trkpt lat="42.4176596" lon="-8.63554316">
        <time>2019-04-24T08:05:28.906Z</time>
      </trkpt>
      <trkpt lat="42.4178694" lon="-8.63589646">
        <time>2019-04-24T08:05:29.577Z</time>
      </trkpt>
      <trkpt lat="42.4178741" lon="-8.63592051">
        <time>2019-04-24T08:05:29.614Z</time>
      </trkpt>
      <trkpt lat="42.4179376" lon="-8.63617591">
        <time>2019-04-24T08:05:30.013Z</time>
      </trkpt>
      <trkpt lat="42.4179891" lon="-8.63628169">
        <time>2019-04-24T08:05:30.200Z</time>
      </trkpt>
      <trkpt lat="42.4181485" lon="-8.63632016">
        <time>2019-04-24T08:05:30.524Z</time>
      </trkpt>
      <trkpt lat="42.4181869" lon="-8.63631295">
        <time>2019-04-24T08:05:30.602Z</time>
      </trkpt>
      <trkpt lat="42.4183774" lon="-8.63633785">
        <time>2019-04-24T08:05:30.986Z</time>
      </trkpt>
      <trkpt lat="42.4185997" lon="-8.63625688">
        <time>2019-04-24T08:05:31.447Z</time>
      </trkpt>
      <trkpt lat="42.418614" lon="-8.63626048">
        <time>2019-04-24T08:05:31.476Z</time>
      </trkpt>
      <trkpt lat="42.4190256" lon="-8.63628865">
        <time>2019-04-24T08:05:32.302Z</time>
      </trkpt>
      <trkpt lat="42.4198819" lon="-8.63664999">
        <time>2019-04-24T08:05:34.099Z</time>
      </trkpt>
      <trkpt lat="42.4217069" lon="-8.63634196">
        <time>2019-04-24T08:05:37.784Z</time>
      </trkpt>
      <trkpt lat="42.4218389" lon="-8.63661102">
        <time>2019-04-24T08:05:38.262Z</time>
      </trkpt>
      <trkpt lat="42.4227989" lon="-8.63693498">
        <time>2019-04-24T08:05:40.245Z</time>
      </trkpt>
      <trkpt lat="42.4241279" lon="-8.63715601">
        <time>2019-04-24T08:05:42.928Z</time>
      </trkpt>
      <trkpt lat="42.4244539" lon="-8.63705802">
        <time>2019-04-24T08:05:43.597Z</time>
      </trkpt>
      <trkpt lat="42.426579" lon="-8.63894596">
        <time>2019-04-24T08:05:48.690Z</time>
      </trkpt>
      <trkpt lat="42.4273608" lon="-8.63967955">
        <time>2019-04-24T08:05:50.596Z</time>
      </trkpt>
      <trkpt lat="42.427641" lon="-8.64023895">
        <time>2019-04-24T08:05:51.596Z</time>
      </trkpt>
      <trkpt lat="42.4286595" lon="-8.64174485">
        <time>2019-04-24T08:05:54.617Z</time>
      </trkpt>
      <trkpt lat="42.4288139" lon="-8.6420077">
        <time>2019-04-24T08:05:55.114Z</time>
      </trkpt>
      <trkpt lat="42.4286357" lon="-8.64229202">
        <time>2019-04-24T08:05:55.666Z</time>
      </trkpt>
      <trkpt lat="42.4284932" lon="-8.64285528">
        <time>2019-04-24T08:05:56.547Z</time>
      </trkpt>
      <trkpt lat="42.4285565" lon="-8.6434561">
        <time>2019-04-24T08:05:57.445Z</time>
      </trkpt>
      <trkpt lat="42.4286357" lon="-8.64389061">
        <time>2019-04-24T08:05:58.107Z</time>
      </trkpt>
      <trkpt lat="42.4298395" lon="-8.64352583">
        <time>2019-04-24T08:06:00.579Z</time>
      </trkpt>
      <trkpt lat="42.430275" lon="-8.64373303">
        <time>2019-04-24T08:06:01.504Z</time>
      </trkpt>
      <trkpt lat="42.4308134" lon="-8.64408373">
        <time>2019-04-24T08:06:02.701Z</time>
      </trkpt>
      <trkpt lat="42.4308175" lon="-8.64425003">
        <time>2019-04-24T08:06:02.947Z</time>
      </trkpt>
      <trkpt lat="42.4310352" lon="-8.6442393">
        <time>2019-04-24T08:06:03.384Z</time>
      </trkpt>
      <trkpt lat="42.4313321" lon="-8.64461481">
        <time>2019-04-24T08:06:04.198Z</time>
      </trkpt>
      <trkpt lat="42.4316767" lon="-8.64509761">
        <time>2019-04-24T08:06:05.191Z</time>
      </trkpt>
      <trkpt lat="42.4318509" lon="-8.64497423">
        <time>2019-04-24T08:06:05.585Z</time>
      </trkpt>
      <trkpt lat="42.4322548" lon="-8.64513516">
        <time>2019-04-24T08:06:06.429Z</time>
      </trkpt>
      <trkpt lat="42.4325715" lon="-8.6451137">
        <time>2019-04-24T08:06:07.064Z</time>
      </trkpt>
      <trkpt lat="42.4330544" lon="-8.64521026">
        <time>2019-04-24T08:06:08.042Z</time>
      </trkpt>
      <trkpt lat="42.433775" lon="-8.6450386">
        <time>2019-04-24T08:06:09.508Z</time>
      </trkpt>
      <trkpt lat="42.4341868" lon="-8.64479184">
        <time>2019-04-24T08:06:10.410Z</time>
      </trkpt>
      <trkpt lat="42.4344085" lon="-8.64454507">
        <time>2019-04-24T08:06:10.985Z</time>
      </trkpt>
      <trkpt lat="42.435146" lon="-8.64442798">
        <time>2019-04-24T08:06:12.473Z</time>
      </trkpt>
      <trkpt lat="42.436957" lon="-8.64313901">
        <time>2019-04-24T08:06:16.572Z</time>
      </trkpt>
      <trkpt lat="42.4372979" lon="-8.64350304">
        <time>2019-04-24T08:06:17.442Z</time>
      </trkpt>
      <trkpt lat="42.438931" lon="-8.64284003">
        <time>2019-04-24T08:06:20.858Z</time>
      </trkpt>
      <trkpt lat="42.4403439" lon="-8.64256896">
        <time>2019-04-24T08:06:23.718Z</time>
      </trkpt>
      <trkpt lat="42.443879" lon="-8.64361401">
        <time>2019-04-24T08:06:30.969Z</time>
      </trkpt>
      <trkpt lat="42.4461289" lon="-8.64271296">
        <time>2019-04-24T08:06:35.670Z</time>
      </trkpt>
      <trkpt lat="42.4477809" lon="-8.64284497">
        <time>2019-04-24T08:06:38.986Z</time>
      </trkpt>
      <trkpt lat="42.449072" lon="-8.64212698">
        <time>2019-04-24T08:06:41.783Z</time>
      </trkpt>
      <trkpt lat="42.452793" lon="-8.64186102">
        <time>2019-04-24T08:06:49.250Z</time>
      </trkpt>
      <trkpt lat="42.455681" lon="-8.643755">
        <time>2019-04-24T08:06:55.679Z</time>
      </trkpt>
      <trkpt lat="42.4569739" lon="-8.64432597">
        <time>2019-04-24T08:06:58.404Z</time>
      </trkpt>
      <trkpt lat="42.457657" lon="-8.64418599">
        <time>2019-04-24T08:06:59.788Z</time>
      </trkpt>
      <trkpt lat="42.4588709" lon="-8.64431197">
        <time>2019-04-24T08:07:02.228Z</time>
      </trkpt>
      <trkpt lat="42.460041" lon="-8.64466996">
        <time>2019-04-24T08:07:04.632Z</time>
      </trkpt>
      <trkpt lat="42.460602" lon="-8.64470299">
        <time>2019-04-24T08:07:05.757Z</time>
      </trkpt>
      <trkpt lat="42.4614589" lon="-8.64410502">
        <time>2019-04-24T08:07:07.688Z</time>
      </trkpt>
      <trkpt lat="42.4618729" lon="-8.64403897">
        <time>2019-04-24T08:07:08.523Z</time>
      </trkpt>
      <trkpt lat="42.463739" lon="-8.64435397">
        <time>2019-04-24T08:07:12.291Z</time>
      </trkpt>
      <trkpt lat="42.4640479" lon="-8.64472696">
        <time>2019-04-24T08:07:13.120Z</time>
      </trkpt>
      <trkpt lat="42.4642189" lon="-8.64557001">
        <time>2019-04-24T08:07:14.413Z</time>
      </trkpt>
      <trkpt lat="42.464527" lon="-8.64598701">
        <time>2019-04-24T08:07:15.285Z</time>
      </trkpt>
      <trkpt lat="42.464872" lon="-8.64603797">
        <time>2019-04-24T08:07:15.980Z</time>
      </trkpt>
      <trkpt lat="42.4654109" lon="-8.647336">
        <time>2019-04-24T08:07:18.182Z</time>
      </trkpt>
      <trkpt lat="42.4661869" lon="-8.647969">
        <time>2019-04-24T08:07:19.997Z</time>
      </trkpt>
      <trkpt lat="42.4672509" lon="-8.648358">
        <time>2019-04-24T08:07:22.205Z</time>
      </trkpt>
      <trkpt lat="42.4700899" lon="-8.64843604">
        <time>2019-04-24T08:07:27.895Z</time>
      </trkpt>
      <trkpt lat="42.4712239" lon="-8.64835901">
        <time>2019-04-24T08:07:30.170Z</time>
      </trkpt>
      <trkpt lat="42.4722119" lon="-8.64898698">
        <time>2019-04-24T08:07:32.357Z</time>
      </trkpt>
      <trkpt lat="42.4734799" lon="-8.649508">
        <time>2019-04-24T08:07:35.012Z</time>
      </trkpt>
      <trkpt lat="42.474336" lon="-8.64958201">
        <time>2019-04-24T08:07:36.731Z</time>
      </trkpt>
      <trkpt lat="42.475274" lon="-8.64995299">
        <time>2019-04-24T08:07:38.689Z</time>
      </trkpt>
      <trkpt lat="42.4766129" lon="-8.65015299">
        <time>2019-04-24T08:07:41.388Z</time>
      </trkpt>
      <trkpt lat="42.4772949" lon="-8.65055498">
        <time>2019-04-24T08:07:42.878Z</time>
      </trkpt>
      <trkpt lat="42.479913" lon="-8.65115596">
        <time>2019-04-24T08:07:48.199Z</time>
      </trkpt>
      <trkpt lat="42.480825" lon="-8.650717">
        <time>2019-04-24T08:07:50.138Z</time>
      </trkpt>
      <trkpt lat="42.482508" lon="-8.65093602">
        <time>2019-04-24T08:07:53.526Z</time>
      </trkpt>
      <trkpt lat="42.4858339" lon="-8.65059496">
        <time>2019-04-24T08:08:00.210Z</time>
      </trkpt>
      <trkpt lat="42.487377" lon="-8.65000203">
        <time>2019-04-24T08:08:03.424Z</time>
      </trkpt>
      <trkpt lat="42.488875" lon="-8.64988803">
        <time>2019-04-24T08:08:06.431Z</time>
      </trkpt>
      <trkpt lat="42.4896479" lon="-8.64942401">
        <time>2019-04-24T08:08:08.125Z</time>
      </trkpt>
      <trkpt lat="42.489647964971496" lon="-8.64942399676284">
        <time>2019-04-24T08:08:08.125Z</time>
      </trkpt>
      <trkpt lat="42.490757" lon="-8.64919804">
        <time>2019-04-24T08:08:10.372Z</time>
      </trkpt>
      <trkpt lat="42.4924319" lon="-8.64847904">
        <time>2019-04-24T08:08:13.893Z</time>
      </trkpt>
      <trkpt lat="42.494097" lon="-8.64830503">
        <time>2019-04-24T08:08:17.240Z</time>
      </trkpt>
      <trkpt lat="42.4975719" lon="-8.64888598">
        <time>2019-04-24T08:08:24.256Z</time>
      </trkpt>
      <trkpt lat="42.4979869" lon="-8.64908999">
        <time>2019-04-24T08:08:25.141Z</time>
      </trkpt>
      <trkpt lat="42.498601" lon="-8.64911899">
        <time>2019-04-24T08:08:26.372Z</time>
      </trkpt>
      <trkpt lat="42.4995279" lon="-8.64956198">
        <time>2019-04-24T08:08:28.341Z</time>
      </trkpt>
      <trkpt lat="42.499691" lon="-8.64940599">
        <time>2019-04-24T08:08:28.741Z</time>
      </trkpt>
      <trkpt lat="42.50008" lon="-8.64939199">
        <time>2019-04-24T08:08:29.521Z</time>
      </trkpt>
      <trkpt lat="42.5007309" lon="-8.64976599">
        <time>2019-04-24T08:08:30.938Z</time>
      </trkpt>
      <trkpt lat="42.501433" lon="-8.64976298">
        <time>2019-04-24T08:08:32.345Z</time>
      </trkpt>
      <trkpt lat="42.503847" lon="-8.65089504">
        <time>2019-04-24T08:08:37.463Z</time>
      </trkpt>
      <trkpt lat="42.5042719" lon="-8.65056898">
        <time>2019-04-24T08:08:38.441Z</time>
      </trkpt>
      <trkpt lat="42.504913" lon="-8.64974202">
        <time>2019-04-24T08:08:40.214Z</time>
      </trkpt>
      <trkpt lat="42.5059709" lon="-8.64922896">
        <time>2019-04-24T08:08:42.465Z</time>
      </trkpt>
      <trkpt lat="42.5059969" lon="-8.64910701">
        <time>2019-04-24T08:08:42.653Z</time>
      </trkpt>
      <trkpt lat="42.5058219" lon="-8.64909603">
        <time>2019-04-24T08:08:43.004Z</time>
      </trkpt>
      <trkpt lat="42.5075329" lon="-8.64885203">
        <time>2019-04-24T08:08:46.452Z</time>
      </trkpt>
      <trkpt lat="42.5087579" lon="-8.64953599">
        <time>2019-04-24T08:08:49.107Z</time>
      </trkpt>
      <trkpt lat="42.5100689" lon="-8.64969098">
        <time>2019-04-24T08:08:51.744Z</time>
      </trkpt>
      <trkpt lat="42.5119389" lon="-8.65007797">
        <time>2019-04-24T08:08:55.535Z</time>
      </trkpt>
      <trkpt lat="42.5132879" lon="-8.64958796">
        <time>2019-04-24T08:08:58.334Z</time>
      </trkpt>
      <trkpt lat="42.5138759" lon="-8.64905403">
        <time>2019-04-24T08:08:59.752Z</time>
      </trkpt>
      <trkpt lat="42.515254" lon="-8.64834702">
        <time>2019-04-24T08:09:02.704Z</time>
      </trkpt>
      <trkpt lat="42.516202" lon="-8.64761503">
        <time>2019-04-24T08:09:04.890Z</time>
      </trkpt>
      <trkpt lat="42.5168799" lon="-8.64734597">
        <time>2019-04-24T08:09:06.305Z</time>
      </trkpt>
      <trkpt lat="42.518099" lon="-8.64617502">
        <time>2019-04-24T08:09:09.298Z</time>
      </trkpt>
      <trkpt lat="42.518599" lon="-8.64501899">
        <time>2019-04-24T08:09:11.278Z</time>
      </trkpt>
      <trkpt lat="42.518936" lon="-8.64537002">
        <time>2019-04-24T08:09:12.129Z</time>
      </trkpt>
      <trkpt lat="42.519634" lon="-8.64537698">
        <time>2019-04-24T08:09:13.528Z</time>
      </trkpt>
      <trkpt lat="42.5207109" lon="-8.64459997">
        <time>2019-04-24T08:09:15.972Z</time>
      </trkpt>
      <trkpt lat="42.5213559" lon="-8.64499099">
        <time>2019-04-24T08:09:17.388Z</time>
      </trkpt>
      <trkpt lat="42.522458" lon="-8.64524999">
        <time>2019-04-24T08:09:19.629Z</time>
      </trkpt>
      <trkpt lat="42.5232229" lon="-8.64567998">
        <time>2019-04-24T08:09:21.288Z</time>
      </trkpt>
      <trkpt lat="42.523448" lon="-8.64591401">
        <time>2019-04-24T08:09:21.856Z</time>
      </trkpt>
      <trkpt lat="42.523437" lon="-8.64669696">
        <time>2019-04-24T08:09:23.013Z</time>
      </trkpt>
      <trkpt lat="42.5238599" lon="-8.64643402">
        <time>2019-04-24T08:09:23.945Z</time>
      </trkpt>
      <trkpt lat="42.524668" lon="-8.64597">
        <time>2019-04-24T08:09:25.703Z</time>
      </trkpt>
      <trkpt lat="42.5264779" lon="-8.64469301">
        <time>2019-04-24T08:09:29.791Z</time>
      </trkpt>
      <trkpt lat="42.5268329" lon="-8.64499602">
        <time>2019-04-24T08:09:30.631Z</time>
      </trkpt>
      <trkpt lat="42.528221" lon="-8.64522702">
        <time>2019-04-24T08:09:33.433Z</time>
      </trkpt>
      <trkpt lat="42.528754" lon="-8.64636302">
        <time>2019-04-24T08:09:35.422Z</time>
      </trkpt>
      <trkpt lat="42.529489" lon="-8.64660602">
        <time>2019-04-24T08:09:36.938Z</time>
      </trkpt>
      <trkpt lat="42.530581" lon="-8.64666201">
        <time>2019-04-24T08:09:39.128Z</time>
      </trkpt>
      <trkpt lat="42.5315209" lon="-8.64630502">
        <time>2019-04-24T08:09:41.084Z</time>
      </trkpt>
      <trkpt lat="42.533704" lon="-8.64554596">
        <time>2019-04-24T08:09:45.600Z</time>
      </trkpt>
      <trkpt lat="42.5348179" lon="-8.64542501">
        <time>2019-04-24T08:09:47.839Z</time>
      </trkpt>
      <trkpt lat="42.5353799" lon="-8.64555601">
        <time>2019-04-24T08:09:48.982Z</time>
      </trkpt>
      <trkpt lat="42.536618" lon="-8.64517296">
        <time>2019-04-24T08:09:51.527Z</time>
      </trkpt>
      <trkpt lat="42.537328" lon="-8.64541604">
        <time>2019-04-24T08:09:52.994Z</time>
      </trkpt>
      <trkpt lat="42.538796" lon="-8.64469">
        <time>2019-04-24T08:09:56.125Z</time>
      </trkpt>
      <trkpt lat="42.5392909" lon="-8.64401299">
        <time>2019-04-24T08:09:57.533Z</time>
      </trkpt>
      <trkpt lat="42.5427379" lon="-8.64259997">
        <time>2019-04-24T08:10:04.749Z</time>
      </trkpt>
      <trkpt lat="42.543924" lon="-8.64300699">
        <time>2019-04-24T08:10:07.201Z</time>
      </trkpt>
      <trkpt lat="42.544907" lon="-8.64225799">
        <time>2019-04-24T08:10:09.460Z</time>
      </trkpt>
      <trkpt lat="42.5458739" lon="-8.642606">
        <time>2019-04-24T08:10:11.465Z</time>
      </trkpt>
      <trkpt lat="42.547421" lon="-8.64242403">
        <time>2019-04-24T08:10:14.577Z</time>
      </trkpt>
      <trkpt lat="42.54781" lon="-8.64252101">
        <time>2019-04-24T08:10:15.370Z</time>
      </trkpt>
      <trkpt lat="42.549446" lon="-8.64036804">
        <time>2019-04-24T08:10:19.936Z</time>
      </trkpt>
      <trkpt lat="42.549547" lon="-8.63947897">
        <time>2019-04-24T08:10:21.264Z</time>
      </trkpt>
      <trkpt lat="42.5511669" lon="-8.63894797">
        <time>2019-04-24T08:10:24.603Z</time>
      </trkpt>
      <trkpt lat="42.553503" lon="-8.63852603">
        <time>2019-04-24T08:10:29.326Z</time>
      </trkpt>
      <trkpt lat="42.5543053" lon="-8.6382687">
        <time>2019-04-24T08:10:30.978Z</time>
      </trkpt>
      <trkpt lat="42.5549137" lon="-8.63801121">
        <time>2019-04-24T08:10:32.255Z</time>
      </trkpt>
      <trkpt lat="42.5550244" lon="-8.63777518">
        <time>2019-04-24T08:10:32.668Z</time>
      </trkpt>
      <trkpt lat="42.5545599" lon="-8.63461503">
        <time>2019-04-24T08:10:37.425Z</time>
      </trkpt>
      <trkpt lat="42.554586" lon="-8.633143">
        <time>2019-04-24T08:10:39.599Z</time>
      </trkpt>
      <trkpt lat="42.55536" lon="-8.63115297">
        <time>2019-04-24T08:10:42.921Z</time>
      </trkpt>
      <trkpt lat="42.555607" lon="-8.63123897">
        <time>2019-04-24T08:10:43.432Z</time>
      </trkpt>
      <trkpt lat="42.555605" lon="-8.63142002">
        <time>2019-04-24T08:10:43.699Z</time>
      </trkpt>
      <trkpt lat="42.555558" lon="-8.63128297">
        <time>2019-04-24T08:10:43.922Z</time>
      </trkpt>
      <trkpt lat="42.5552679" lon="-8.63151297">
        <time>2019-04-24T08:10:44.595Z</time>
      </trkpt>
      <trkpt lat="42.554915" lon="-8.63217003">
        <time>2019-04-24T08:10:45.795Z</time>
      </trkpt>
      <trkpt lat="42.554568" lon="-8.63337803">
        <time>2019-04-24T08:10:47.709Z</time>
      </trkpt>
      <trkpt lat="42.5548505" lon="-8.63766789">
        <time>2019-04-24T08:10:54.067Z</time>
      </trkpt>
      <trkpt lat="42.5550529" lon="-8.63767099">
        <time>2019-04-24T08:10:54.473Z</time>
      </trkpt>
      <trkpt lat="42.558136" lon="-8.63738098">
        <time>2019-04-24T08:11:00.666Z</time>
      </trkpt>
      <trkpt lat="42.5592759" lon="-8.63747796">
        <time>2019-04-24T08:11:02.955Z</time>
      </trkpt>
      <trkpt lat="42.5609169" lon="-8.63853097">
        <time>2019-04-24T08:11:06.592Z</time>
      </trkpt>
      <trkpt lat="42.56238" lon="-8.63972003">
        <time>2019-04-24T08:11:10.009Z</time>
      </trkpt>
      <trkpt lat="42.562395" lon="-8.64049997">
        <time>2019-04-24T08:11:11.161Z</time>
      </trkpt>
      <trkpt lat="42.563914" lon="-8.64160998">
        <time>2019-04-24T08:11:14.618Z</time>
      </trkpt>
      <trkpt lat="42.565974" lon="-8.64149599">
        <time>2019-04-24T08:11:18.750Z</time>
      </trkpt>
      <trkpt lat="42.5665009" lon="-8.64166002">
        <time>2019-04-24T08:11:19.833Z</time>
      </trkpt>
      <trkpt lat="42.5667269" lon="-8.64157604">
        <time>2019-04-24T08:11:20.303Z</time>
      </trkpt>
      <trkpt lat="42.5679059" lon="-8.64212203">
        <time>2019-04-24T08:11:22.799Z</time>
      </trkpt>
      <trkpt lat="42.5685149" lon="-8.64198901">
        <time>2019-04-24T08:11:24.035Z</time>
      </trkpt>
      <trkpt lat="42.5684829" lon="-8.64144603">
        <time>2019-04-24T08:11:24.839Z</time>
      </trkpt>
      <trkpt lat="42.5705109" lon="-8.64160101">
        <time>2019-04-24T08:11:28.909Z</time>
      </trkpt>
      <trkpt lat="42.570602" lon="-8.64227098">
        <time>2019-04-24T08:11:29.914Z</time>
      </trkpt>
      <trkpt lat="42.570791" lon="-8.64255102">
        <time>2019-04-24T08:11:30.475Z</time>
      </trkpt>
      <trkpt lat="42.5741759" lon="-8.64338099">
        <time>2019-04-24T08:11:37.368Z</time>
      </trkpt>
      <trkpt lat="42.575509" lon="-8.64313197">
        <time>2019-04-24T08:11:40.065Z</time>
      </trkpt>
      <trkpt lat="42.5769089" lon="-8.64312401">
        <time>2019-04-24T08:11:42.870Z</time>
      </trkpt>
      <trkpt lat="42.57795" lon="-8.64332098">
        <time>2019-04-24T08:11:44.976Z</time>
      </trkpt>
      <trkpt lat="42.580024" lon="-8.64328796">
        <time>2019-04-24T08:11:49.132Z</time>
      </trkpt>
      <trkpt lat="42.580351" lon="-8.64339298">
        <time>2019-04-24T08:11:49.805Z</time>
      </trkpt>
      <trkpt lat="42.5808049" lon="-8.644043">
        <time>2019-04-24T08:11:51.127Z</time>
      </trkpt>
      <trkpt lat="42.58158" lon="-8.64459897">
        <time>2019-04-24T08:11:52.884Z</time>
      </trkpt>
      <trkpt lat="42.5819849" lon="-8.64475202">
        <time>2019-04-24T08:11:53.726Z</time>
      </trkpt>
      <trkpt lat="42.5834249" lon="-8.64467298">
        <time>2019-04-24T08:11:56.614Z</time>
      </trkpt>
      <trkpt lat="42.5836679" lon="-8.64474096">
        <time>2019-04-24T08:11:57.111Z</time>
      </trkpt>
      <trkpt lat="42.5849229" lon="-8.64580404">
        <time>2019-04-24T08:12:00.075Z</time>
      </trkpt>
      <trkpt lat="42.586406" lon="-8.64589003">
        <time>2019-04-24T08:12:03.050Z</time>
      </trkpt>
      <trkpt lat="42.588122" lon="-8.64523599">
        <time>2019-04-24T08:12:06.622Z</time>
      </trkpt>
      <trkpt lat="42.58944" lon="-8.64554998">
        <time>2019-04-24T08:12:09.303Z</time>
      </trkpt>
      <trkpt lat="42.5916519" lon="-8.64394803">
        <time>2019-04-24T08:12:14.326Z</time>
      </trkpt>
      <trkpt lat="42.5922569" lon="-8.644158">
        <time>2019-04-24T08:12:15.577Z</time>
      </trkpt>
      <trkpt lat="42.594734" lon="-8.64350697">
        <time>2019-04-24T08:12:20.633Z</time>
      </trkpt>
      <trkpt lat="42.595584" lon="-8.64362499">
        <time>2019-04-24T08:12:22.345Z</time>
      </trkpt>
      <trkpt lat="42.59558412489309" lon="-8.643624983310312">
        <time>2019-04-24T08:12:22.345Z</time>
      </trkpt>
      <trkpt lat="42.5979359" lon="-8.64349901">
        <time>2019-04-24T08:12:27.061Z</time>
      </trkpt>
      <trkpt lat="42.598317" lon="-8.64327597">
        <time>2019-04-24T08:12:27.893Z</time>
      </trkpt>
      <trkpt lat="42.599523" lon="-8.64317396">
        <time>2019-04-24T08:12:30.314Z</time>
      </trkpt>
      <trkpt lat="42.6000059" lon="-8.64285201">
        <time>2019-04-24T08:12:31.392Z</time>
      </trkpt>
      <trkpt lat="42.600341" lon="-8.64281496">
        <time>2019-04-24T08:12:32.066Z</time>
      </trkpt>
      <trkpt lat="42.60052" lon="-8.64302099">
        <time>2019-04-24T08:12:32.536Z</time>
      </trkpt>
      <trkpt lat="42.6014149" lon="-8.64288596">
        <time>2019-04-24T08:12:34.340Z</time>
      </trkpt>
      <trkpt lat="42.6034915" lon="-8.64230275">
        <time>2019-04-24T08:12:38.589Z</time>
      </trkpt>
      <trkpt lat="42.6035319" lon="-8.64238296">
        <time>2019-04-24T08:12:38.732Z</time>
      </trkpt>
      <trkpt lat="42.6036652" lon="-8.64300012">
        <time>2019-04-24T08:12:39.681Z</time>
      </trkpt>
      <trkpt lat="42.6049523" lon="-8.64421784">
        <time>2019-04-24T08:12:42.824Z</time>
      </trkpt>
      <trkpt lat="42.6055367" lon="-8.64474892">
        <time>2019-04-24T08:12:44.233Z</time>
      </trkpt>
      <trkpt lat="42.6058329" lon="-8.64509761">
        <time>2019-04-24T08:12:45.018Z</time>
      </trkpt>
      <trkpt lat="42.6062238" lon="-8.64553213">
        <time>2019-04-24T08:12:46.030Z</time>
      </trkpt>
      <trkpt lat="42.6071476" lon="-8.64545702">
        <time>2019-04-24T08:12:47.885Z</time>
      </trkpt>
      <trkpt lat="42.607574" lon="-8.64546775">
        <time>2019-04-24T08:12:48.740Z</time>
      </trkpt>
      <trkpt lat="42.6079531" lon="-8.64562869">
        <time>2019-04-24T08:12:49.536Z</time>
      </trkpt>
      <trkpt lat="42.608269" lon="-8.64516735">
        <time>2019-04-24T08:12:50.465Z</time>
      </trkpt>
      <trkpt lat="42.6093649" lon="-8.64492201">
        <time>2019-04-24T08:12:52.691Z</time>
      </trkpt>
      <trkpt lat="42.6100279" lon="-8.64446402">
        <time>2019-04-24T08:12:54.181Z</time>
      </trkpt>
      <trkpt lat="42.6109469" lon="-8.64447701">
        <time>2019-04-24T08:12:56.023Z</time>
      </trkpt>
      <trkpt lat="42.611906" lon="-8.64411097">
        <time>2019-04-24T08:12:58.019Z</time>
      </trkpt>
      <trkpt lat="42.61363" lon="-8.64482696">
        <time>2019-04-24T08:13:01.632Z</time>
      </trkpt>
      <trkpt lat="42.616941" lon="-8.64474096">
        <time>2019-04-24T08:13:08.268Z</time>
      </trkpt>
      <trkpt lat="42.618079" lon="-8.64456997">
        <time>2019-04-24T08:13:10.562Z</time>
      </trkpt>
      <trkpt lat="42.6196189" lon="-8.64461699">
        <time>2019-04-24T08:13:13.649Z</time>
      </trkpt>
      <trkpt lat="42.6220379" lon="-8.64353296">
        <time>2019-04-24T08:13:18.753Z</time>
      </trkpt>
      <trkpt lat="42.6228019" lon="-8.64338099">
        <time>2019-04-24T08:13:20.300Z</time>
      </trkpt>
      <trkpt lat="42.6238059" lon="-8.64377">
        <time>2019-04-24T08:13:22.392Z</time>
      </trkpt>
      <trkpt lat="42.625825" lon="-8.64398298">
        <time>2019-04-24T08:13:26.450Z</time>
      </trkpt>
      <trkpt lat="42.6267439" lon="-8.64478396">
        <time>2019-04-24T08:13:28.638Z</time>
      </trkpt>
      <trkpt lat="42.629594" lon="-8.64498797">
        <time>2019-04-24T08:13:34.357Z</time>
      </trkpt>
      <trkpt lat="42.6318019" lon="-8.64449998">
        <time>2019-04-24T08:13:38.840Z</time>
      </trkpt>
      <trkpt lat="42.6324629" lon="-8.64523298">
        <time>2019-04-24T08:13:40.550Z</time>
      </trkpt>
      <trkpt lat="42.632858" lon="-8.645266">
        <time>2019-04-24T08:13:41.343Z</time>
      </trkpt>
      <trkpt lat="42.634805" lon="-8.64482201">
        <time>2019-04-24T08:13:45.299Z</time>
      </trkpt>
      <trkpt lat="42.6370409" lon="-8.64480902">
        <time>2019-04-24T08:13:49.780Z</time>
      </trkpt>
      <trkpt lat="42.637446" lon="-8.64460299">
        <time>2019-04-24T08:13:50.647Z</time>
      </trkpt>
      <trkpt lat="42.6383209" lon="-8.64461003">
        <time>2019-04-24T08:13:52.400Z</time>
      </trkpt>
      <trkpt lat="42.6392349" lon="-8.64432304">
        <time>2019-04-24T08:13:54.280Z</time>
      </trkpt>
      <trkpt lat="42.6418969" lon="-8.64296399">
        <time>2019-04-24T08:13:59.978Z</time>
      </trkpt>
      <trkpt lat="42.643675" lon="-8.643367">
        <time>2019-04-24T08:14:03.590Z</time>
      </trkpt>
      <trkpt lat="42.644609" lon="-8.643151">
        <time>2019-04-24T08:14:05.489Z</time>
      </trkpt>
      <trkpt lat="42.6451319" lon="-8.64341796">
        <time>2019-04-24T08:14:06.608Z</time>
      </trkpt>
      <trkpt lat="42.646955" lon="-8.64368601">
        <time>2019-04-24T08:14:10.283Z</time>
      </trkpt>
      <trkpt lat="42.647474" lon="-8.64429496">
        <time>2019-04-24T08:14:11.657Z</time>
      </trkpt>
      <trkpt lat="42.6481399" lon="-8.64470098">
        <time>2019-04-24T08:14:13.119Z</time>
      </trkpt>
      <trkpt lat="42.64944" lon="-8.64516802">
        <time>2019-04-24T08:14:15.814Z</time>
      </trkpt>
      <trkpt lat="42.6496069" lon="-8.64600503">
        <time>2019-04-24T08:14:17.092Z</time>
      </trkpt>
      <trkpt lat="42.650247" lon="-8.64669595">
        <time>2019-04-24T08:14:18.730Z</time>
      </trkpt>
      <trkpt lat="42.65065" lon="-8.64688497">
        <time>2019-04-24T08:14:19.584Z</time>
      </trkpt>
      <trkpt lat="42.650822" lon="-8.64679603">
        <time>2019-04-24T08:14:19.953Z</time>
      </trkpt>
      <trkpt lat="42.650955" lon="-8.64640703">
        <time>2019-04-24T08:14:20.585Z</time>
      </trkpt>
      <trkpt lat="42.6517039" lon="-8.64634903">
        <time>2019-04-24T08:14:22.088Z</time>
      </trkpt>
      <trkpt lat="42.652134" lon="-8.64564796">
        <time>2019-04-24T08:14:23.434Z</time>
      </trkpt>
      <trkpt lat="42.653511" lon="-8.64454197">
        <time>2019-04-24T08:14:26.639Z</time>
      </trkpt>
      <trkpt lat="42.6537359" lon="-8.64420996">
        <time>2019-04-24T08:14:27.304Z</time>
      </trkpt>
      <trkpt lat="42.654693" lon="-8.64386103">
        <time>2019-04-24T08:14:29.290Z</time>
      </trkpt>
      <trkpt lat="42.655008" lon="-8.64301697">
        <time>2019-04-24T08:14:30.685Z</time>
      </trkpt>
      <trkpt lat="42.6554339" lon="-8.64308201">
        <time>2019-04-24T08:14:31.544Z</time>
      </trkpt>
      <trkpt lat="42.6555429" lon="-8.64248204">
        <time>2019-04-24T08:14:32.455Z</time>
      </trkpt>
      <trkpt lat="42.655825" lon="-8.642074">
        <time>2019-04-24T08:14:33.280Z</time>
      </trkpt>
      <trkpt lat="42.6572399" lon="-8.642806">
        <time>2019-04-24T08:14:36.314Z</time>
      </trkpt>
      <trkpt lat="42.657391" lon="-8.64274104">
        <time>2019-04-24T08:14:36.632Z</time>
      </trkpt>
      <trkpt lat="42.6579739" lon="-8.64143002">
        <time>2019-04-24T08:14:38.890Z</time>
      </trkpt>
      <trkpt lat="42.658671" lon="-8.639485">
        <time>2019-04-24T08:14:42.079Z</time>
      </trkpt>
      <trkpt lat="42.658631" lon="-8.63922198">
        <time>2019-04-24T08:14:42.475Z</time>
      </trkpt>
      <trkpt lat="42.658212" lon="-8.63872895">
        <time>2019-04-24T08:14:43.585Z</time>
      </trkpt>
      <trkpt lat="42.658115" lon="-8.63809998">
        <time>2019-04-24T08:14:44.532Z</time>
      </trkpt>
      <trkpt lat="42.658414" lon="-8.63772296">
        <time>2019-04-24T08:14:45.349Z</time>
      </trkpt>
      <trkpt lat="42.658471" lon="-8.63709197">
        <time>2019-04-24T08:14:46.286Z</time>
      </trkpt>
      <trkpt lat="42.6587969" lon="-8.63640197">
        <time>2019-04-24T08:14:47.495Z</time>
      </trkpt>
      <trkpt lat="42.659049" lon="-8.63533101">
        <time>2019-04-24T08:14:49.152Z</time>
      </trkpt>
      <trkpt lat="42.6596129" lon="-8.63526899">
        <time>2019-04-24T08:14:50.286Z</time>
      </trkpt>
      <trkpt lat="42.6614979" lon="-8.63633802">
        <time>2019-04-24T08:14:54.379Z</time>
      </trkpt>
      <trkpt lat="42.661982" lon="-8.63562002">
        <time>2019-04-24T08:14:55.814Z</time>
      </trkpt>
      <trkpt lat="42.663826" lon="-8.63392897">
        <time>2019-04-24T08:15:00.271Z</time>
      </trkpt>
      <trkpt lat="42.6652229" lon="-8.63334501">
        <time>2019-04-24T08:15:03.200Z</time>
      </trkpt>
      <trkpt lat="42.6672559" lon="-8.63312004">
        <time>2019-04-24T08:15:07.287Z</time>
      </trkpt>
      <trkpt lat="42.6670529" lon="-8.635156">
        <time>2019-04-24T08:15:10.314Z</time>
      </trkpt>
      <trkpt lat="42.6670829" lon="-8.63519296">
        <time>2019-04-24T08:15:10.395Z</time>
      </trkpt>
      <trkpt lat="42.6673239" lon="-8.63378397">
        <time>2019-04-24T08:15:12.527Z</time>
      </trkpt>
      <trkpt lat="42.669777" lon="-8.63379101">
        <time>2019-04-24T08:15:17.443Z</time>
      </trkpt>
      <trkpt lat="42.6727479" lon="-8.63300998">
        <time>2019-04-24T08:15:23.507Z</time>
      </trkpt>
      <trkpt lat="42.673369" lon="-8.63323001">
        <time>2019-04-24T08:15:24.793Z</time>
      </trkpt>
      <trkpt lat="42.674506" lon="-8.63329698">
        <time>2019-04-24T08:15:27.074Z</time>
      </trkpt>
      <trkpt lat="42.674724" lon="-8.63346696">
        <time>2019-04-24T08:15:27.578Z</time>
      </trkpt>
      <trkpt lat="42.675072" lon="-8.63585296">
        <time>2019-04-24T08:15:31.162Z</time>
      </trkpt>
      <trkpt lat="42.675471" lon="-8.63713497">
        <time>2019-04-24T08:15:33.213Z</time>
      </trkpt>
      <trkpt lat="42.6764109" lon="-8.63872996">
        <time>2019-04-24T08:15:36.225Z</time>
      </trkpt>
      <trkpt lat="42.67688" lon="-8.63828597">
        <time>2019-04-24T08:15:37.370Z</time>
      </trkpt>
      <trkpt lat="42.677156" lon="-8.63737997">
        <time>2019-04-24T08:15:38.815Z</time>
      </trkpt>
      <trkpt lat="42.6774229" lon="-8.63709599">
        <time>2019-04-24T08:15:39.494Z</time>
      </trkpt>
      <trkpt lat="42.6779948" lon="-8.63721728">
        <time>2019-04-24T08:15:40.654Z</time>
      </trkpt>
      <trkpt lat="42.6785269" lon="-8.63695601">
        <time>2019-04-24T08:15:41.788Z</time>
      </trkpt>
      <trkpt lat="42.678894" lon="-8.63754987">
        <time>2019-04-24T08:15:42.931Z</time>
      </trkpt>
      <trkpt lat="42.679237" lon="-8.63738701">
        <time>2019-04-24T08:15:43.659Z</time>
      </trkpt>
      <trkpt lat="42.680607" lon="-8.63610299">
        <time>2019-04-24T08:15:46.993Z</time>
      </trkpt>
      <trkpt lat="42.6810189" lon="-8.63616401">
        <time>2019-04-24T08:15:47.823Z</time>
      </trkpt>
      <trkpt lat="42.682319" lon="-8.63696096">
        <time>2019-04-24T08:15:50.681Z</time>
      </trkpt>
      <trkpt lat="42.682889" lon="-8.63710303">
        <time>2019-04-24T08:15:51.842Z</time>
      </trkpt>
      <trkpt lat="42.683643" lon="-8.63668">
        <time>2019-04-24T08:15:53.476Z</time>
      </trkpt>
      <trkpt lat="42.6843369" lon="-8.63657196">
        <time>2019-04-24T08:15:54.876Z</time>
      </trkpt>
      <trkpt lat="42.6855179" lon="-8.63720102">
        <time>2019-04-24T08:15:57.418Z</time>
      </trkpt>
      <trkpt lat="42.6857169" lon="-8.63713396">
        <time>2019-04-24T08:15:57.829Z</time>
      </trkpt>
      <trkpt lat="42.6866152" lon="-8.63705635">
        <time>2019-04-24T08:15:59.633Z</time>
      </trkpt>
      <trkpt lat="42.6870569" lon="-8.63731384">
        <time>2019-04-24T08:16:00.596Z</time>
      </trkpt>
      <trkpt lat="42.6878613" lon="-8.63761425">
        <time>2019-04-24T08:16:02.268Z</time>
      </trkpt>
      <trkpt lat="42.6881452" lon="-8.63774299">
        <time>2019-04-24T08:16:02.868Z</time>
      </trkpt>
      <trkpt lat="42.6887604" lon="-8.63785028">
        <time>2019-04-24T08:16:04.111Z</time>
      </trkpt>
      <trkpt lat="42.690511" lon="-8.63879442">
        <time>2019-04-24T08:16:07.885Z</time>
      </trkpt>
      <trkpt lat="42.690918" lon="-8.63765004">
        <time>2019-04-24T08:16:09.758Z</time>
      </trkpt>
      <trkpt lat="42.6920599" lon="-8.63742297">
        <time>2019-04-24T08:16:12.071Z</time>
      </trkpt>
      <trkpt lat="42.692611" lon="-8.63749103">
        <time>2019-04-24T08:16:13.180Z</time>
      </trkpt>
      <trkpt lat="42.6942139" lon="-8.63817399">
        <time>2019-04-24T08:16:16.546Z</time>
      </trkpt>
      <trkpt lat="42.69545" lon="-8.63828002">
        <time>2019-04-24T08:16:19.028Z</time>
      </trkpt>
      <trkpt lat="42.695852" lon="-8.63843902">
        <time>2019-04-24T08:16:19.867Z</time>
      </trkpt>
      <trkpt lat="42.696583" lon="-8.63941669">
        <time>2019-04-24T08:16:21.921Z</time>
      </trkpt>
      <trkpt lat="42.6964726" lon="-8.63995313">
        <time>2019-04-24T08:16:22.741Z</time>
      </trkpt>
      <trkpt lat="42.6968353" lon="-8.64066123">
        <time>2019-04-24T08:16:24.012Z</time>
      </trkpt>
      <trkpt lat="42.6976081" lon="-8.64089727">
        <time>2019-04-24T08:16:25.599Z</time>
      </trkpt>
      <trkpt lat="42.6986805" lon="-8.64096164">
        <time>2019-04-24T08:16:27.750Z</time>
      </trkpt>
      <trkpt lat="42.6993901" lon="-8.64008188">
        <time>2019-04-24T08:16:29.674Z</time>
      </trkpt>
      <trkpt lat="42.7000682" lon="-8.64014625">
        <time>2019-04-24T08:16:31.036Z</time>
      </trkpt>
      <trkpt lat="42.7009513" lon="-8.64003896">
        <time>2019-04-24T08:16:32.813Z</time>
      </trkpt>
      <trkpt lat="42.7013771" lon="-8.6405754">
        <time>2019-04-24T08:16:33.976Z</time>
      </trkpt>
      <trkpt lat="42.7015663" lon="-8.64104747">
        <time>2019-04-24T08:16:34.768Z</time>
      </trkpt>
      <trkpt lat="42.7014559" lon="-8.64194869">
        <time>2019-04-24T08:16:36.114Z</time>
      </trkpt>
      <trkpt lat="42.70145606322355" lon="-8.641948717013397">
        <time>2019-04-24T08:16:36.114Z</time>
      </trkpt>
      <trkpt lat="42.7037896" lon="-8.64233493">
        <time>2019-04-24T08:16:40.825Z</time>
      </trkpt>
      <trkpt lat="42.7038528" lon="-8.64420175">
        <time>2019-04-24T08:16:43.577Z</time>
      </trkpt>
      <trkpt lat="42.7049881" lon="-8.64529609">
        <time>2019-04-24T08:16:46.365Z</time>
      </trkpt>
      <trkpt lat="42.7047988" lon="-8.64654064">
        <time>2019-04-24T08:16:48.237Z</time>
      </trkpt>
      <trkpt lat="42.7053034" lon="-8.64739894">
        <time>2019-04-24T08:16:49.856Z</time>
      </trkpt>
      <trkpt lat="42.707743" lon="-8.64753196">
        <time>2019-04-24T08:16:54.749Z</time>
      </trkpt>
      <trkpt lat="42.709281" lon="-8.64718797">
        <time>2019-04-24T08:16:57.872Z</time>
      </trkpt>
      <trkpt lat="42.7118089" lon="-8.64706702">
        <time>2019-04-24T08:17:02.941Z</time>
      </trkpt>
      <trkpt lat="42.7133899" lon="-8.64745401">
        <time>2019-04-24T08:17:06.160Z</time>
      </trkpt>
      <trkpt lat="42.714818" lon="-8.648157">
        <time>2019-04-24T08:17:09.203Z</time>
      </trkpt>
      <trkpt lat="42.716945" lon="-8.648675">
        <time>2019-04-24T08:17:13.533Z</time>
      </trkpt>
      <trkpt lat="42.7177159" lon="-8.64858699">
        <time>2019-04-24T08:17:15.083Z</time>
      </trkpt>
      <trkpt lat="42.7187359" lon="-8.64919602">
        <time>2019-04-24T08:17:17.315Z</time>
      </trkpt>
      <trkpt lat="42.7195839" lon="-8.64898798">
        <time>2019-04-24T08:17:19.042Z</time>
      </trkpt>
      <trkpt lat="42.720197" lon="-8.64949903">
        <time>2019-04-24T08:17:20.483Z</time>
      </trkpt>
      <trkpt lat="42.7208726" lon="-8.65019917">
        <time>2019-04-24T08:17:22.185Z</time>
      </trkpt>
      <trkpt lat="42.7218972" lon="-8.64994168">
        <time>2019-04-24T08:17:24.273Z</time>
      </trkpt>
      <trkpt lat="42.7216924" lon="-8.64884734">
        <time>2019-04-24T08:17:25.936Z</time>
      </trkpt>
      <trkpt lat="42.7219919" lon="-8.6498773">
        <time>2019-04-24T08:17:27.567Z</time>
      </trkpt>
      <trkpt lat="42.7225199" lon="-8.65001678">
        <time>2019-04-24T08:17:28.645Z</time>
      </trkpt>
      <trkpt lat="42.72346" lon="-8.65057401">
        <time>2019-04-24T08:17:30.700Z</time>
      </trkpt>
      <trkpt lat="42.7248669" lon="-8.65045398">
        <time>2019-04-24T08:17:33.525Z</time>
      </trkpt>
      <trkpt lat="42.7256809" lon="-8.65057703">
        <time>2019-04-24T08:17:35.166Z</time>
      </trkpt>
      <trkpt lat="42.726125" lon="-8.65088397">
        <time>2019-04-24T08:17:36.164Z</time>
      </trkpt>
      <trkpt lat="42.7257829" lon="-8.65223798">
        <time>2019-04-24T08:17:38.272Z</time>
      </trkpt>
      <trkpt lat="42.7255622" lon="-8.65267753">
        <time>2019-04-24T08:17:39.056Z</time>
      </trkpt>
      <trkpt lat="42.7256119" lon="-8.65336401">
        <time>2019-04-24T08:17:40.071Z</time>
      </trkpt>
      <trkpt lat="42.7254679" lon="-8.65620598">
        <time>2019-04-24T08:17:44.265Z</time>
      </trkpt>
      <trkpt lat="42.7262759" lon="-8.65821504">
        <time>2019-04-24T08:17:47.637Z</time>
      </trkpt>
      <trkpt lat="42.7267769" lon="-8.658612">
        <time>2019-04-24T08:17:48.799Z</time>
      </trkpt>
      <trkpt lat="42.7269079" lon="-8.65957701">
        <time>2019-04-24T08:17:50.244Z</time>
      </trkpt>
      <trkpt lat="42.727257" lon="-8.66032904">
        <time>2019-04-24T08:17:51.554Z</time>
      </trkpt>
      <trkpt lat="42.7271369" lon="-8.66132799">
        <time>2019-04-24T08:17:53.044Z</time>
      </trkpt>
      <trkpt lat="42.7291639" lon="-8.66097302">
        <time>2019-04-24T08:17:57.139Z</time>
      </trkpt>
      <trkpt lat="42.7311219" lon="-8.66097997">
        <time>2019-04-24T08:18:01.063Z</time>
      </trkpt>
      <trkpt lat="42.7341399" lon="-8.66159998">
        <time>2019-04-24T08:18:07.179Z</time>
      </trkpt>
      <trkpt lat="42.7351613" lon="-8.66160392">
        <time>2019-04-24T08:18:09.226Z</time>
      </trkpt>
      <trkpt lat="42.7353898" lon="-8.66132497">
        <time>2019-04-24T08:18:09.841Z</time>
      </trkpt>
      <trkpt lat="42.7364456" lon="-8.66135716">
        <time>2019-04-24T08:18:11.957Z</time>
      </trkpt>
      <trkpt lat="42.736793" lon="-8.661488">
        <time>2019-04-24T08:18:12.679Z</time>
      </trkpt>
      <trkpt lat="42.7382" lon="-8.66146998">
        <time>2019-04-24T08:18:15.499Z</time>
      </trkpt>
      <trkpt lat="42.7390185" lon="-8.66148591">
        <time>2019-04-24T08:18:17.139Z</time>
      </trkpt>
      <trkpt lat="42.7390422" lon="-8.66133034">
        <time>2019-04-24T08:18:17.373Z</time>
      </trkpt>
      <trkpt lat="42.739238" lon="-8.66128801">
        <time>2019-04-24T08:18:17.770Z</time>
      </trkpt>
      <trkpt lat="42.739714" lon="-8.66131701">
        <time>2019-04-24T08:18:18.725Z</time>
      </trkpt>
      <trkpt lat="42.7434179" lon="-8.65757499">
        <time>2019-04-24T08:18:27.967Z</time>
      </trkpt>
      <trkpt lat="42.744303" lon="-8.65716897">
        <time>2019-04-24T08:18:29.839Z</time>
      </trkpt>
      <trkpt lat="42.745706" lon="-8.654656">
        <time>2019-04-24T08:18:34.485Z</time>
      </trkpt>
      <trkpt lat="42.7461629" lon="-8.65495397">
        <time>2019-04-24T08:18:35.500Z</time>
      </trkpt>
      <trkpt lat="42.747323" lon="-8.65484903">
        <time>2019-04-24T08:18:37.830Z</time>
      </trkpt>
      <trkpt lat="42.7476689" lon="-8.65500502">
        <time>2019-04-24T08:18:38.560Z</time>
      </trkpt>
      <trkpt lat="42.7484919" lon="-8.65474803">
        <time>2019-04-24T08:18:40.252Z</time>
      </trkpt>
      <trkpt lat="42.7491369" lon="-8.65447201">
        <time>2019-04-24T08:18:41.607Z</time>
      </trkpt>
      <trkpt lat="42.7552339" lon="-8.65209599">
        <time>2019-04-24T08:18:54.315Z</time>
      </trkpt>
      <trkpt lat="42.756108" lon="-8.651593">
        <time>2019-04-24T08:18:56.217Z</time>
      </trkpt>
      <trkpt lat="42.7588039" lon="-8.65112998">
        <time>2019-04-24T08:19:01.662Z</time>
      </trkpt>
      <trkpt lat="42.759876" lon="-8.651292">
        <time>2019-04-24T08:19:03.824Z</time>
      </trkpt>
      <trkpt lat="42.760102" lon="-8.65341698">
        <time>2019-04-24T08:19:06.983Z</time>
      </trkpt>
      <trkpt lat="42.762033" lon="-8.65380004">
        <time>2019-04-24T08:19:10.893Z</time>
      </trkpt>
      <trkpt lat="42.762864" lon="-8.65366098">
        <time>2019-04-24T08:19:12.571Z</time>
      </trkpt>
      <trkpt lat="42.7633479" lon="-8.65433497">
        <time>2019-04-24T08:19:13.958Z</time>
      </trkpt>
      <trkpt lat="42.7645449" lon="-8.65497099">
        <time>2019-04-24T08:19:16.533Z</time>
      </trkpt>
      <trkpt lat="42.7648309" lon="-8.65537198">
        <time>2019-04-24T08:19:17.355Z</time>
      </trkpt>
      <trkpt lat="42.7650739" lon="-8.65541699">
        <time>2019-04-24T08:19:17.846Z</time>
      </trkpt>
      <trkpt lat="42.765281" lon="-8.65538002">
        <time>2019-04-24T08:19:18.265Z</time>
      </trkpt>
      <trkpt lat="42.7653599" lon="-8.65515899">
        <time>2019-04-24T08:19:18.627Z</time>
      </trkpt>
      <trkpt lat="42.765616" lon="-8.65501499">
        <time>2019-04-24T08:19:19.182Z</time>
      </trkpt>
      <trkpt lat="42.7657049" lon="-8.65457">
        <time>2019-04-24T08:19:19.860Z</time>
      </trkpt>
      <trkpt lat="42.7660519" lon="-8.65413003">
        <time>2019-04-24T08:19:20.810Z</time>
      </trkpt>
      <trkpt lat="42.7665229" lon="-8.65438099">
        <time>2019-04-24T08:19:21.823Z</time>
      </trkpt>
      <trkpt lat="42.7665239" lon="-8.65474996">
        <time>2019-04-24T08:19:22.366Z</time>
      </trkpt>
      <trkpt lat="42.766935" lon="-8.65539897">
        <time>2019-04-24T08:19:23.627Z</time>
      </trkpt>
      <trkpt lat="42.767112" lon="-8.65541699">
        <time>2019-04-24T08:19:23.983Z</time>
      </trkpt>
      <trkpt lat="42.7698069" lon="-8.65318497">
        <time>2019-04-24T08:19:30.303Z</time>
      </trkpt>
      <trkpt lat="42.7700219" lon="-8.65323099">
        <time>2019-04-24T08:19:30.739Z</time>
      </trkpt>
      <trkpt lat="42.7704409" lon="-8.65366601">
        <time>2019-04-24T08:19:31.795Z</time>
      </trkpt>
      <trkpt lat="42.770385" lon="-8.65418602">
        <time>2019-04-24T08:19:32.568Z</time>
      </trkpt>
      <trkpt lat="42.7712019" lon="-8.65460202">
        <time>2019-04-24T08:19:34.316Z</time>
      </trkpt>
      <trkpt lat="42.771549" lon="-8.65407303">
        <time>2019-04-24T08:19:35.360Z</time>
      </trkpt>
      <trkpt lat="42.773823" lon="-8.65359602">
        <time>2019-04-24T08:19:39.971Z</time>
      </trkpt>
      <trkpt lat="42.774087" lon="-8.65408603">
        <time>2019-04-24T08:19:40.865Z</time>
      </trkpt>
      <trkpt lat="42.7766509" lon="-8.65364296">
        <time>2019-04-24T08:19:46.044Z</time>
      </trkpt>
      <trkpt lat="42.777534" lon="-8.65375402">
        <time>2019-04-24T08:19:47.821Z</time>
      </trkpt>
      <trkpt lat="42.777908" lon="-8.65351203">
        <time>2019-04-24T08:19:48.651Z</time>
      </trkpt>
      <trkpt lat="42.778816" lon="-8.65348697">
        <time>2019-04-24T08:19:50.471Z</time>
      </trkpt>
      <trkpt lat="42.7799459" lon="-8.65194696">
        <time>2019-04-24T08:19:53.674Z</time>
      </trkpt>
      <trkpt lat="42.7805049" lon="-8.650918">
        <time>2019-04-24T08:19:55.557Z</time>
      </trkpt>
      <trkpt lat="42.784582" lon="-8.649868">
        <time>2019-04-24T08:20:03.872Z</time>
      </trkpt>
      <trkpt lat="42.784741" lon="-8.64925">
        <time>2019-04-24T08:20:04.835Z</time>
      </trkpt>
      <trkpt lat="42.78598" lon="-8.64779801">
        <time>2019-04-24T08:20:08.110Z</time>
      </trkpt>
      <trkpt lat="42.7868639" lon="-8.64806396">
        <time>2019-04-24T08:20:09.924Z</time>
      </trkpt>
      <trkpt lat="42.7874" lon="-8.64780002">
        <time>2019-04-24T08:20:11.066Z</time>
      </trkpt>
      <trkpt lat="42.7880149" lon="-8.647739">
        <time>2019-04-24T08:20:12.301Z</time>
      </trkpt>
      <trkpt lat="42.7880869" lon="-8.647466">
        <time>2019-04-24T08:20:12.728Z</time>
      </trkpt>
      <trkpt lat="42.7899052" lon="-8.64658355">
        <time>2019-04-24T08:20:16.596Z</time>
      </trkpt>
      <trkpt lat="42.7901099" lon="-8.64480257">
        <time>2019-04-24T08:20:19.247Z</time>
      </trkpt>
      <trkpt lat="42.7917317" lon="-8.64467382">
        <time>2019-04-24T08:20:22.502Z</time>
      </trkpt>
      <trkpt lat="42.7933221" lon="-8.64282846">
        <time>2019-04-24T08:20:26.688Z</time>
      </trkpt>
      <trkpt lat="42.794647" lon="-8.64016503">
        <time>2019-04-24T08:20:31.420Z</time>
      </trkpt>
      <trkpt lat="42.795581" lon="-8.63973503">
        <time>2019-04-24T08:20:33.396Z</time>
      </trkpt>
      <trkpt lat="42.795755" lon="-8.63946204">
        <time>2019-04-24T08:20:33.928Z</time>
      </trkpt>
      <trkpt lat="42.7959669" lon="-8.639485">
        <time>2019-04-24T08:20:34.354Z</time>
      </trkpt>
      <trkpt lat="42.7962959" lon="-8.639038">
        <time>2019-04-24T08:20:35.285Z</time>
      </trkpt>
      <trkpt lat="42.7965229" lon="-8.63893599">
        <time>2019-04-24T08:20:35.764Z</time>
      </trkpt>
      <trkpt lat="42.796689" lon="-8.639125">
        <time>2019-04-24T08:20:36.198Z</time>
      </trkpt>
      <trkpt lat="42.797264" lon="-8.63878696">
        <time>2019-04-24T08:20:37.453Z</time>
      </trkpt>
      <trkpt lat="42.7978659" lon="-8.63797903">
        <time>2019-04-24T08:20:39.146Z</time>
      </trkpt>
      <trkpt lat="42.798562" lon="-8.63696096">
        <time>2019-04-24T08:20:41.192Z</time>
      </trkpt>
      <trkpt lat="42.799178" lon="-8.63644204">
        <time>2019-04-24T08:20:42.643Z</time>
      </trkpt>
      <trkpt lat="42.7994982" lon="-8.63707244">
        <time>2019-04-24T08:20:43.770Z</time>
      </trkpt>
      <trkpt lat="42.800412" lon="-8.63619301">
        <time>2019-04-24T08:20:46.012Z</time>
      </trkpt>
      <trkpt lat="42.800919" lon="-8.63657397">
        <time>2019-04-24T08:20:47.172Z</time>
      </trkpt>
      <trkpt lat="42.8013269" lon="-8.63737301">
        <time>2019-04-24T08:20:48.603Z</time>
      </trkpt>
      <trkpt lat="42.8024239" lon="-8.63792899">
        <time>2019-04-24T08:20:50.948Z</time>
      </trkpt>
      <trkpt lat="42.8024242040796" lon="-8.637928695640154">
        <time>2019-04-24T08:20:50.948Z</time>
      </trkpt>
      <trkpt lat="42.807229" lon="-8.63327703">
        <time>2019-04-24T08:21:02.758Z</time>
      </trkpt>
      <trkpt lat="42.808255" lon="-8.63207599">
        <time>2019-04-24T08:21:05.468Z</time>
      </trkpt>
      <trkpt lat="42.8085589" lon="-8.63191103">
        <time>2019-04-24T08:21:06.124Z</time>
      </trkpt>
      <trkpt lat="42.8091069" lon="-8.63113202">
        <time>2019-04-24T08:21:07.711Z</time>
      </trkpt>
      <trkpt lat="42.809621" lon="-8.629734">
        <time>2019-04-24T08:21:10.010Z</time>
      </trkpt>
      <trkpt lat="42.809836" lon="-8.62841796">
        <time>2019-04-24T08:21:11.992Z</time>
      </trkpt>
      <trkpt lat="42.8093979" lon="-8.62663102">
        <time>2019-04-24T08:21:14.762Z</time>
      </trkpt>
      <trkpt lat="42.810048" lon="-8.62458399">
        <time>2019-04-24T08:21:18.041Z</time>
      </trkpt>
      <trkpt lat="42.8100009" lon="-8.62470603">
        <time>2019-04-24T08:21:18.244Z</time>
      </trkpt>
      <trkpt lat="42.810296" lon="-8.62432197">
        <time>2019-04-24T08:21:19.062Z</time>
      </trkpt>
      <trkpt lat="42.811434" lon="-8.62355201">
        <time>2019-04-24T08:21:21.608Z</time>
      </trkpt>
      <trkpt lat="42.8118669" lon="-8.622731">
        <time>2019-04-24T08:21:23.094Z</time>
      </trkpt>
      <trkpt lat="42.8130039" lon="-8.62211996">
        <time>2019-04-24T08:21:25.543Z</time>
      </trkpt>
      <trkpt lat="42.813347" lon="-8.62178301">
        <time>2019-04-24T08:21:26.390Z</time>
      </trkpt>
      <trkpt lat="42.814022" lon="-8.62027896">
        <time>2019-04-24T08:21:28.982Z</time>
      </trkpt>
      <trkpt lat="42.8142839" lon="-8.620314">
        <time>2019-04-24T08:21:29.509Z</time>
      </trkpt>
      <trkpt lat="42.8146384" lon="-8.61994385">
        <time>2019-04-24T08:21:30.404Z</time>
      </trkpt>
      <trkpt lat="42.814927" lon="-8.62158503">
        <time>2019-04-24T08:21:32.885Z</time>
      </trkpt>
      <trkpt lat="42.815703" lon="-8.62215802">
        <time>2019-04-24T08:21:34.654Z</time>
      </trkpt>
      <trkpt lat="42.8160389" lon="-8.622127">
        <time>2019-04-24T08:21:35.329Z</time>
      </trkpt>
      <trkpt lat="42.8161999" lon="-8.62180396">
        <time>2019-04-24T08:21:35.903Z</time>
      </trkpt>
      <trkpt lat="42.816824" lon="-8.62131899">
        <time>2019-04-24T08:21:37.343Z</time>
      </trkpt>
      <trkpt lat="42.8177409" lon="-8.62113199">
        <time>2019-04-24T08:21:39.201Z</time>
      </trkpt>
      <trkpt lat="42.8180549" lon="-8.62094096">
        <time>2019-04-24T08:21:39.890Z</time>
      </trkpt>
      <trkpt lat="42.8195329" lon="-8.61898303">
        <time>2019-04-24T08:21:44.020Z</time>
      </trkpt>
      <trkpt lat="42.8204519" lon="-8.61821802">
        <time>2019-04-24T08:21:46.178Z</time>
      </trkpt>
      <trkpt lat="42.8207169" lon="-8.61777998">
        <time>2019-04-24T08:21:47.013Z</time>
      </trkpt>
      <trkpt lat="42.820762" lon="-8.61708696">
        <time>2019-04-24T08:21:48.036Z</time>
      </trkpt>
      <trkpt lat="42.820925" lon="-8.61695">
        <time>2019-04-24T08:21:48.420Z</time>
      </trkpt>
      <trkpt lat="42.821323" lon="-8.61697498">
        <time>2019-04-24T08:21:49.218Z</time>
      </trkpt>
      <trkpt lat="42.821337" lon="-8.61564796">
        <time>2019-04-24T08:21:51.169Z</time>
      </trkpt>
      <trkpt lat="42.822029" lon="-8.61523699">
        <time>2019-04-24T08:21:52.682Z</time>
      </trkpt>
      <trkpt lat="42.822992" lon="-8.61380503">
        <time>2019-04-24T08:21:55.537Z</time>
      </trkpt>
      <trkpt lat="42.82446" lon="-8.61278202">
        <time>2019-04-24T08:21:58.841Z</time>
      </trkpt>
      <trkpt lat="42.8234789" lon="-8.61167502">
        <time>2019-04-24T08:22:01.393Z</time>
      </trkpt>
      <trkpt lat="42.823472" lon="-8.61150898">
        <time>2019-04-24T08:22:01.637Z</time>
      </trkpt>
      <trkpt lat="42.8247969" lon="-8.610895">
        <time>2019-04-24T08:22:04.441Z</time>
      </trkpt>
      <trkpt lat="42.825987" lon="-8.61111301">
        <time>2019-04-24T08:22:06.847Z</time>
      </trkpt>
      <trkpt lat="42.8268119" lon="-8.61085401">
        <time>2019-04-24T08:22:08.543Z</time>
      </trkpt>
      <trkpt lat="42.8281089" lon="-8.610132">
        <time>2019-04-24T08:22:11.350Z</time>
      </trkpt>
      <trkpt lat="42.8282899" lon="-8.60966001">
        <time>2019-04-24T08:22:12.133Z</time>
      </trkpt>
      <trkpt lat="42.8287119" lon="-8.60816099">
        <time>2019-04-24T08:22:14.493Z</time>
      </trkpt>
      <trkpt lat="42.8290119" lon="-8.60625302">
        <time>2019-04-24T08:22:17.361Z</time>
      </trkpt>
      <trkpt lat="42.8294979" lon="-8.60580199">
        <time>2019-04-24T08:22:18.539Z</time>
      </trkpt>
      <trkpt lat="42.8309819" lon="-8.605315">
        <time>2019-04-24T08:22:21.598Z</time>
      </trkpt>
      <trkpt lat="42.8314169" lon="-8.60502499">
        <time>2019-04-24T08:22:22.568Z</time>
      </trkpt>
      <trkpt lat="42.8329939" lon="-8.60236901">
        <time>2019-04-24T08:22:27.590Z</time>
      </trkpt>
      <trkpt lat="42.8331859" lon="-8.60154499">
        <time>2019-04-24T08:22:28.861Z</time>
      </trkpt>
      <trkpt lat="42.83346" lon="-8.60110301">
        <time>2019-04-24T08:22:29.712Z</time>
      </trkpt>
      <trkpt lat="42.834209" lon="-8.60062197">
        <time>2019-04-24T08:22:31.371Z</time>
      </trkpt>
      <trkpt lat="42.836355" lon="-8.59725496">
        <time>2019-04-24T08:22:37.927Z</time>
      </trkpt>
      <trkpt lat="42.836553" lon="-8.59579903">
        <time>2019-04-24T08:22:40.103Z</time>
      </trkpt>
      <trkpt lat="42.8363789" lon="-8.59449204">
        <time>2019-04-24T08:22:42.055Z</time>
      </trkpt>
      <trkpt lat="42.8364219" lon="-8.593393">
        <time>2019-04-24T08:22:43.672Z</time>
      </trkpt>
      <trkpt lat="42.836682" lon="-8.592012">
        <time>2019-04-24T08:22:45.767Z</time>
      </trkpt>
      <trkpt lat="42.835605" lon="-8.59130322">
        <time>2019-04-24T08:22:48.163Z</time>
      </trkpt>
      <trkpt lat="42.8352195" lon="-8.5907185">
        <time>2019-04-24T08:22:49.318Z</time>
      </trkpt>
      <trkpt lat="42.8350856" lon="-8.58996212">
        <time>2019-04-24T08:22:50.461Z</time>
      </trkpt>
      <trkpt lat="42.8348732" lon="-8.58928084">
        <time>2019-04-24T08:22:51.549Z</time>
      </trkpt>
      <trkpt lat="42.8351499" lon="-8.58901002">
        <time>2019-04-24T08:22:52.232Z</time>
      </trkpt>
      <trkpt lat="42.8359419" lon="-8.59000897">
        <time>2019-04-24T08:22:54.394Z</time>
      </trkpt>
      <trkpt lat="42.8380319" lon="-8.58674297">
        <time>2019-04-24T08:23:00.764Z</time>
      </trkpt>
      <trkpt lat="42.8382849" lon="-8.58684497">
        <time>2019-04-24T08:23:01.293Z</time>
      </trkpt>
      <trkpt lat="42.8396829" lon="-8.58828398">
        <time>2019-04-24T08:23:04.803Z</time>
      </trkpt>
      <trkpt lat="42.8397709" lon="-8.58822296">
        <time>2019-04-24T08:23:05.001Z</time>
      </trkpt>
      <trkpt lat="42.841387" lon="-8.58399596">
        <time>2019-04-24T08:23:12.006Z</time>
      </trkpt>
      <trkpt lat="42.8419289" lon="-8.58310899">
        <time>2019-04-24T08:23:13.702Z</time>
      </trkpt>
      <trkpt lat="42.8430649" lon="-8.58207399">
        <time>2019-04-24T08:23:16.440Z</time>
      </trkpt>
      <trkpt lat="42.8432529" lon="-8.58175096">
        <time>2019-04-24T08:23:17.046Z</time>
      </trkpt>
      <trkpt lat="42.8448579" lon="-8.580767">
        <time>2019-04-24T08:23:20.572Z</time>
      </trkpt>
      <trkpt lat="42.8480855" lon="-8.58020424">
        <time>2019-04-24T08:23:27.093Z</time>
      </trkpt>
      <trkpt lat="42.851293" lon="-8.58037197">
        <time>2019-04-24T08:23:33.525Z</time>
      </trkpt>
      <trkpt lat="42.8523659" lon="-8.57970099">
        <time>2019-04-24T08:23:35.890Z</time>
      </trkpt>
      <trkpt lat="42.8556039" lon="-8.57923102">
        <time>2019-04-24T08:23:42.415Z</time>
      </trkpt>
      <trkpt lat="42.8564939" lon="-8.57936899">
        <time>2019-04-24T08:23:44.210Z</time>
      </trkpt>
      <trkpt lat="42.8582619" lon="-8.57819401">
        <time>2019-04-24T08:23:48.151Z</time>
      </trkpt>
      <trkpt lat="42.8582082" lon="-8.57742547">
        <time>2019-04-24T08:23:49.285Z</time>
      </trkpt>
      <trkpt lat="42.8588451" lon="-8.57814431">
        <time>2019-04-24T08:23:50.941Z</time>
      </trkpt>
      <trkpt lat="42.8590419" lon="-8.57811212">
        <time>2019-04-24T08:23:51.338Z</time>
      </trkpt>
      <trkpt lat="42.8594979" lon="-8.57861638">
        <time>2019-04-24T08:23:52.514Z</time>
      </trkpt>
      <trkpt lat="42.8597574" lon="-8.57861638">
        <time>2019-04-24T08:23:53.034Z</time>
      </trkpt>
      <trkpt lat="42.8596237" lon="-8.57789754">
        <time>2019-04-24T08:23:54.123Z</time>
      </trkpt>
      <trkpt lat="42.8596631" lon="-8.5772109">
        <time>2019-04-24T08:23:55.135Z</time>
      </trkpt>
      <trkpt lat="42.8601979" lon="-8.57696413">
        <time>2019-04-24T08:23:56.266Z</time>
      </trkpt>
      <trkpt lat="42.860772" lon="-8.57707142">
        <time>2019-04-24T08:23:57.427Z</time>
      </trkpt>
      <trkpt lat="42.8611809" lon="-8.57707142">
        <time>2019-04-24T08:23:58.246Z</time>
      </trkpt>
      <trkpt lat="42.8615427" lon="-8.57685685">
        <time>2019-04-24T08:23:59.037Z</time>
      </trkpt>
      <trkpt lat="42.8620225" lon="-8.57619166">
        <time>2019-04-24T08:24:00.408Z</time>
      </trkpt>
      <trkpt lat="42.862455" lon="-8.57583761">
        <time>2019-04-24T08:24:01.419Z</time>
      </trkpt>
      <trkpt lat="42.862974" lon="-8.57579469">
        <time>2019-04-24T08:24:02.461Z</time>
      </trkpt>
      <trkpt lat="42.863288" lon="-8.574553">
        <time>2019-04-24T08:24:04.390Z</time>
      </trkpt>
      <trkpt lat="42.863445" lon="-8.57410197">
        <time>2019-04-24T08:24:05.123Z</time>
      </trkpt>
      <trkpt lat="42.863782" lon="-8.57426701">
        <time>2019-04-24T08:24:05.841Z</time>
      </trkpt>
      <trkpt lat="42.86493" lon="-8.575934">
        <time>2019-04-24T08:24:09.201Z</time>
      </trkpt>
      <trkpt lat="42.865131" lon="-8.575919">
        <time>2019-04-24T08:24:09.604Z</time>
      </trkpt>
      <trkpt lat="42.8659709" lon="-8.57499799">
        <time>2019-04-24T08:24:11.763Z</time>
      </trkpt>
      <trkpt lat="42.8660998" lon="-8.57448577">
        <time>2019-04-24T08:24:12.558Z</time>
      </trkpt>
      <trkpt lat="42.8661038" lon="-8.57390105">
        <time>2019-04-24T08:24:13.417Z</time>
      </trkpt>
      <trkpt lat="42.865651" lon="-8.57250999">
        <time>2019-04-24T08:24:15.653Z</time>
      </trkpt>
      <trkpt lat="42.865862" lon="-8.57230204">
        <time>2019-04-24T08:24:16.175Z</time>
      </trkpt>
      <trkpt lat="42.8659299" lon="-8.57172603">
        <time>2019-04-24T08:24:17.032Z</time>
      </trkpt>
      <trkpt lat="42.8665469" lon="-8.57157901">
        <time>2019-04-24T08:24:18.287Z</time>
      </trkpt>
      <trkpt lat="42.8668499" lon="-8.57032299">
        <time>2019-04-24T08:24:20.229Z</time>
      </trkpt>
      <trkpt lat="42.8673539" lon="-8.56922999">
        <time>2019-04-24T08:24:22.126Z</time>
      </trkpt>
      <trkpt lat="42.867578" lon="-8.56816297">
        <time>2019-04-24T08:24:23.756Z</time>
      </trkpt>
      <trkpt lat="42.8677839" lon="-8.567909">
        <time>2019-04-24T08:24:24.312Z</time>
      </trkpt>
      <trkpt lat="42.8679169" lon="-8.56461298">
        <time>2019-04-24T08:24:29.160Z</time>
      </trkpt>
      <trkpt lat="42.868442" lon="-8.56256998">
        <time>2019-04-24T08:24:32.340Z</time>
      </trkpt>
      <trkpt lat="42.8697229" lon="-8.56032597">
        <time>2019-04-24T08:24:36.517Z</time>
      </trkpt>
      <trkpt lat="42.86939" lon="-8.55982298">
        <time>2019-04-24T08:24:37.512Z</time>
      </trkpt>
      <trkpt lat="42.869531" lon="-8.55926801">
        <time>2019-04-24T08:24:38.375Z</time>
      </trkpt>
      <trkpt lat="42.871731" lon="-8.556203">
        <time>2019-04-24T08:24:44.676Z</time>
      </trkpt>
      <trkpt lat="42.8723689" lon="-8.55463298">
        <time>2019-04-24T08:24:47.312Z</time>
      </trkpt>
      <trkpt lat="42.8731319" lon="-8.55373201">
        <time>2019-04-24T08:24:49.334Z</time>
      </trkpt>
      <trkpt lat="42.875201" lon="-8.55081603">
        <time>2019-04-24T08:24:55.295Z</time>
      </trkpt>
      <trkpt lat="42.8770648" lon="-8.54622602">
        <time>2019-04-24T08:25:03.001Z</time>
      </trkpt>
      <trkpt lat="42.8772298" lon="-8.54614019">
        <time>2019-04-24T08:25:03.355Z</time>
      </trkpt>
      <trkpt lat="42.8775208" lon="-8.54567885">
        <time>2019-04-24T08:25:04.249Z</time>
      </trkpt>
      <trkpt lat="42.8782205" lon="-8.54530334">
        <time>2019-04-24T08:25:05.756Z</time>
      </trkpt>
      <trkpt lat="42.8790775" lon="-8.54512095">
        <time>2019-04-24T08:25:07.494Z</time>
      </trkpt>
      <trkpt lat="42.8797928" lon="-8.54514241">
        <time>2019-04-24T08:25:08.928Z</time>
      </trkpt>
      <trkpt lat="42.8801623" lon="-8.54531407">
        <time>2019-04-24T08:25:09.710Z</time>
      </trkpt>
      <trkpt lat="42.880415608118525" lon="-8.54536304356855">
        <time>2019-04-24T08:25:10.223Z</time>
      </trkpt>
    </trkseg>
  </trk>
</gpx>
